<?xml version="1.0" encoding="UTF-8" standalone="no" ?>
<gpx xmlns="http://www.topografix.com/GPX/1/1" xmlns:xsi="http://www.w3.org/2001/XMLSchema-instance" xsi:schemaLocation="http://www.topografix.com/GPX/1/1 http://www.topografix.com/GPX/1/1/gpx.xsd" version="1.1" creator="VisuGPX - https://www.visugpx.com">
  <metadata>
    <name>21 km rando de chimilin 02042023</name>
    <desc><![CDATA[ 21 kms de la rando vtt organisé par USEP de Chimilin, 02 avril 2023]]></desc>
  </metadata>
  <trk>
    <name><![CDATA[21 km randochimilin 02042023]]></name>
    <trkseg>
      <trkpt lat="45.57655" lon="5.60018">
        <ele>256.2</ele>
        <time>2023-03-29T13:59:42Z</time>
      </trkpt>
      <trkpt lat="45.57652" lon="5.60012">
        <ele>256.1</ele>
        <time>2023-03-29T13:59:48Z</time>
      </trkpt>
      <trkpt lat="45.57651" lon="5.59995">
        <ele>255.9</ele>
        <time>2023-03-29T12:06:37Z</time>
      </trkpt>
      <trkpt lat="45.57656" lon="5.6">
        <ele>256</ele>
        <time>2023-03-29T12:06:48Z</time>
      </trkpt>
      <trkpt lat="45.57652" lon="5.59994">
        <ele>255.9</ele>
        <time>2023-03-29T12:07:24Z</time>
      </trkpt>
      <trkpt lat="45.57651" lon="5.59987">
        <ele>255.9</ele>
        <time>2023-03-29T12:07:29Z</time>
      </trkpt>
      <trkpt lat="45.57648" lon="5.5998">
        <ele>255.9</ele>
        <time>2023-03-29T12:07:32Z</time>
      </trkpt>
      <trkpt lat="45.57642" lon="5.59974">
        <ele>255.9</ele>
        <time>2023-03-29T12:07:34Z</time>
      </trkpt>
      <trkpt lat="45.57636" lon="5.59971">
        <ele>255.8</ele>
        <time>2023-03-29T12:07:35Z</time>
      </trkpt>
      <trkpt lat="45.57628" lon="5.59966">
        <ele>255.7</ele>
        <time>2023-03-29T12:07:37Z</time>
      </trkpt>
      <trkpt lat="45.57623" lon="5.59964">
        <ele>255.5</ele>
        <time>2023-03-29T12:07:38Z</time>
      </trkpt>
      <trkpt lat="45.57618" lon="5.59963">
        <ele>255.3</ele>
        <time>2023-03-29T12:07:39Z</time>
      </trkpt>
      <trkpt lat="45.57608" lon="5.59962">
        <ele>255</ele>
        <time>2023-03-29T12:07:41Z</time>
      </trkpt>
      <trkpt lat="45.57604" lon="5.59961">
        <ele>254.9</ele>
        <time>2023-03-29T12:07:43Z</time>
      </trkpt>
      <trkpt lat="45.57594" lon="5.59961">
        <ele>255.1</ele>
        <time>2023-03-29T12:07:45Z</time>
      </trkpt>
      <trkpt lat="45.57584" lon="5.59961">
        <ele>255.2</ele>
        <time>2023-03-29T12:07:47Z</time>
      </trkpt>
      <trkpt lat="45.57572" lon="5.59961">
        <ele>254.4</ele>
        <time>2023-03-29T12:07:49Z</time>
      </trkpt>
      <trkpt lat="45.57567" lon="5.59961">
        <ele>254.1</ele>
        <time>2023-03-29T12:07:50Z</time>
      </trkpt>
      <trkpt lat="45.57561" lon="5.59959">
        <ele>254.3</ele>
        <time>2023-03-29T12:07:51Z</time>
      </trkpt>
      <trkpt lat="45.57552" lon="5.59956">
        <ele>254.4</ele>
        <time>2023-03-29T12:07:53Z</time>
      </trkpt>
      <trkpt lat="45.57545" lon="5.59954">
        <ele>254.6</ele>
        <time>2023-03-29T12:07:55Z</time>
      </trkpt>
      <trkpt lat="45.57534" lon="5.5995">
        <ele>255.1</ele>
        <time>2023-03-29T12:07:56Z</time>
      </trkpt>
      <trkpt lat="45.57529" lon="5.59948">
        <ele>255.1</ele>
        <time>2023-03-29T12:07:57Z</time>
      </trkpt>
      <trkpt lat="45.57524" lon="5.59946">
        <ele>255.3</ele>
        <time>2023-03-29T12:07:58Z</time>
      </trkpt>
      <trkpt lat="45.57517" lon="5.5994">
        <ele>255.1</ele>
        <time>2023-03-29T12:08:00Z</time>
      </trkpt>
      <trkpt lat="45.5751" lon="5.59936">
        <ele>254.6</ele>
        <time>2023-03-29T12:08:02Z</time>
      </trkpt>
      <trkpt lat="45.57505" lon="5.59932">
        <ele>254.4</ele>
        <time>2023-03-29T12:08:04Z</time>
      </trkpt>
      <trkpt lat="45.57499" lon="5.59925">
        <ele>254.3</ele>
        <time>2023-03-29T12:08:06Z</time>
      </trkpt>
      <trkpt lat="45.57496" lon="5.5992">
        <ele>254.2</ele>
        <time>2023-03-29T12:08:07Z</time>
      </trkpt>
      <trkpt lat="45.57488" lon="5.59913">
        <ele>254.1</ele>
        <time>2023-03-29T12:08:10Z</time>
      </trkpt>
      <trkpt lat="45.57485" lon="5.59909">
        <ele>254.2</ele>
        <time>2023-03-29T12:08:11Z</time>
      </trkpt>
      <trkpt lat="45.57477" lon="5.59905">
        <ele>254.2</ele>
        <time>2023-03-29T12:08:13Z</time>
      </trkpt>
      <trkpt lat="45.57473" lon="5.59902">
        <ele>254.3</ele>
        <time>2023-03-29T12:08:15Z</time>
      </trkpt>
      <trkpt lat="45.57464" lon="5.59899">
        <ele>254.5</ele>
        <time>2023-03-29T12:08:17Z</time>
      </trkpt>
      <trkpt lat="45.57458" lon="5.59897">
        <ele>254.9</ele>
        <time>2023-03-29T12:08:18Z</time>
      </trkpt>
      <trkpt lat="45.57451" lon="5.59891">
        <ele>255.3</ele>
        <time>2023-03-29T12:08:21Z</time>
      </trkpt>
      <trkpt lat="45.57445" lon="5.59885">
        <ele>256.2</ele>
        <time>2023-03-29T12:08:23Z</time>
      </trkpt>
      <trkpt lat="45.57441" lon="5.5988">
        <ele>256.6</ele>
        <time>2023-03-29T12:08:24Z</time>
      </trkpt>
      <trkpt lat="45.57436" lon="5.59875">
        <ele>256.9</ele>
        <time>2023-03-29T12:08:26Z</time>
      </trkpt>
      <trkpt lat="45.57432" lon="5.59872">
        <ele>257.2</ele>
        <time>2023-03-29T12:08:28Z</time>
      </trkpt>
      <trkpt lat="45.57426" lon="5.59865">
        <ele>257.6</ele>
        <time>2023-03-29T12:08:30Z</time>
      </trkpt>
      <trkpt lat="45.5742" lon="5.59861">
        <ele>258.1</ele>
        <time>2023-03-29T12:08:32Z</time>
      </trkpt>
      <trkpt lat="45.57413" lon="5.59857">
        <ele>258.4</ele>
        <time>2023-03-29T12:08:34Z</time>
      </trkpt>
      <trkpt lat="45.57407" lon="5.59852">
        <ele>259.1</ele>
        <time>2023-03-29T12:08:37Z</time>
      </trkpt>
      <trkpt lat="45.57401" lon="5.59847">
        <ele>259.6</ele>
        <time>2023-03-29T12:08:39Z</time>
      </trkpt>
      <trkpt lat="45.57396" lon="5.59841">
        <ele>260</ele>
        <time>2023-03-29T12:08:41Z</time>
      </trkpt>
      <trkpt lat="45.57391" lon="5.59833">
        <ele>260.3</ele>
        <time>2023-03-29T12:08:44Z</time>
      </trkpt>
      <trkpt lat="45.57385" lon="5.59827">
        <ele>260.9</ele>
        <time>2023-03-29T12:08:46Z</time>
      </trkpt>
      <trkpt lat="45.57378" lon="5.59823">
        <ele>261.2</ele>
        <time>2023-03-29T12:08:49Z</time>
      </trkpt>
      <trkpt lat="45.57371" lon="5.5982">
        <ele>261.5</ele>
        <time>2023-03-29T12:08:51Z</time>
      </trkpt>
      <trkpt lat="45.57362" lon="5.59816">
        <ele>262.3</ele>
        <time>2023-03-29T12:08:54Z</time>
      </trkpt>
      <trkpt lat="45.57356" lon="5.59814">
        <ele>263.1</ele>
        <time>2023-03-29T12:08:56Z</time>
      </trkpt>
      <trkpt lat="45.5735" lon="5.59812">
        <ele>263.5</ele>
        <time>2023-03-29T12:08:59Z</time>
      </trkpt>
      <trkpt lat="45.57345" lon="5.59808">
        <ele>263.9</ele>
        <time>2023-03-29T12:09:02Z</time>
      </trkpt>
      <trkpt lat="45.57337" lon="5.59804">
        <ele>265.1</ele>
        <time>2023-03-29T12:09:06Z</time>
      </trkpt>
      <trkpt lat="45.57332" lon="5.59802">
        <ele>265.7</ele>
        <time>2023-03-29T12:09:08Z</time>
      </trkpt>
      <trkpt lat="45.57327" lon="5.598">
        <ele>266.4</ele>
        <time>2023-03-29T12:09:11Z</time>
      </trkpt>
      <trkpt lat="45.57323" lon="5.59797">
        <ele>266.9</ele>
        <time>2023-03-29T12:09:13Z</time>
      </trkpt>
      <trkpt lat="45.57316" lon="5.59794">
        <ele>267.9</ele>
        <time>2023-03-29T12:09:17Z</time>
      </trkpt>
      <trkpt lat="45.57312" lon="5.59791">
        <ele>268.5</ele>
        <time>2023-03-29T12:09:19Z</time>
      </trkpt>
      <trkpt lat="45.57308" lon="5.59786">
        <ele>269</ele>
        <time>2023-03-29T12:09:22Z</time>
      </trkpt>
      <trkpt lat="45.57302" lon="5.59782">
        <ele>269.4</ele>
        <time>2023-03-29T12:09:25Z</time>
      </trkpt>
      <trkpt lat="45.57298" lon="5.59778">
        <ele>269.8</ele>
        <time>2023-03-29T12:09:28Z</time>
      </trkpt>
      <trkpt lat="45.57293" lon="5.59775">
        <ele>270</ele>
        <time>2023-03-29T12:09:30Z</time>
      </trkpt>
      <trkpt lat="45.57288" lon="5.59772">
        <ele>270.2</ele>
        <time>2023-03-29T12:09:32Z</time>
      </trkpt>
      <trkpt lat="45.57282" lon="5.59768">
        <ele>270.5</ele>
        <time>2023-03-29T12:09:35Z</time>
      </trkpt>
      <trkpt lat="45.57279" lon="5.59763">
        <ele>270.5</ele>
        <time>2023-03-29T12:09:37Z</time>
      </trkpt>
      <trkpt lat="45.57276" lon="5.59757">
        <ele>270.5</ele>
        <time>2023-03-29T12:09:40Z</time>
      </trkpt>
      <trkpt lat="45.57273" lon="5.59751">
        <ele>270.6</ele>
        <time>2023-03-29T12:09:42Z</time>
      </trkpt>
      <trkpt lat="45.57269" lon="5.59747">
        <ele>270.7</ele>
        <time>2023-03-29T12:09:44Z</time>
      </trkpt>
      <trkpt lat="45.57265" lon="5.59743">
        <ele>270.8</ele>
        <time>2023-03-29T12:09:46Z</time>
      </trkpt>
      <trkpt lat="45.57261" lon="5.59738">
        <ele>271</ele>
        <time>2023-03-29T12:09:48Z</time>
      </trkpt>
      <trkpt lat="45.57257" lon="5.59732">
        <ele>271.1</ele>
        <time>2023-03-29T12:09:50Z</time>
      </trkpt>
      <trkpt lat="45.57251" lon="5.59725">
        <ele>271.4</ele>
        <time>2023-03-29T12:09:53Z</time>
      </trkpt>
      <trkpt lat="45.57245" lon="5.59721">
        <ele>271.6</ele>
        <time>2023-03-29T12:09:55Z</time>
      </trkpt>
      <trkpt lat="45.57237" lon="5.59717">
        <ele>271.9</ele>
        <time>2023-03-29T12:09:58Z</time>
      </trkpt>
      <trkpt lat="45.57232" lon="5.59714">
        <ele>272.2</ele>
        <time>2023-03-29T12:10:00Z</time>
      </trkpt>
      <trkpt lat="45.57225" lon="5.5971">
        <ele>272.6</ele>
        <time>2023-03-29T12:10:03Z</time>
      </trkpt>
      <trkpt lat="45.57219" lon="5.59706">
        <ele>272.6</ele>
        <time>2023-03-29T12:10:05Z</time>
      </trkpt>
      <trkpt lat="45.57214" lon="5.59699">
        <ele>272.6</ele>
        <time>2023-03-29T12:10:08Z</time>
      </trkpt>
      <trkpt lat="45.57212" lon="5.5969">
        <ele>272.7</ele>
        <time>2023-03-29T12:10:10Z</time>
      </trkpt>
      <trkpt lat="45.57212" lon="5.59683">
        <ele>272.8</ele>
        <time>2023-03-29T12:10:11Z</time>
      </trkpt>
      <trkpt lat="45.57214" lon="5.59673">
        <ele>272.8</ele>
        <time>2023-03-29T12:10:13Z</time>
      </trkpt>
      <trkpt lat="45.57216" lon="5.59666">
        <ele>272.9</ele>
        <time>2023-03-29T12:10:14Z</time>
      </trkpt>
      <trkpt lat="45.57219" lon="5.59655">
        <ele>273.1</ele>
        <time>2023-03-29T12:10:16Z</time>
      </trkpt>
      <trkpt lat="45.57222" lon="5.59646">
        <ele>273.4</ele>
        <time>2023-03-29T12:10:18Z</time>
      </trkpt>
      <trkpt lat="45.57224" lon="5.5964">
        <ele>273.7</ele>
        <time>2023-03-29T12:10:19Z</time>
      </trkpt>
      <trkpt lat="45.57227" lon="5.59629">
        <ele>273.9</ele>
        <time>2023-03-29T12:10:21Z</time>
      </trkpt>
      <trkpt lat="45.5723" lon="5.59618">
        <ele>274.3</ele>
        <time>2023-03-29T12:10:24Z</time>
      </trkpt>
      <trkpt lat="45.57232" lon="5.5961">
        <ele>274.7</ele>
        <time>2023-03-29T12:10:26Z</time>
      </trkpt>
      <trkpt lat="45.57234" lon="5.59604">
        <ele>274.7</ele>
        <time>2023-03-29T12:10:27Z</time>
      </trkpt>
      <trkpt lat="45.57242" lon="5.59598">
        <ele>274.8</ele>
        <time>2023-03-29T12:10:30Z</time>
      </trkpt>
      <trkpt lat="45.57249" lon="5.59599">
        <ele>274.7</ele>
        <time>2023-03-29T12:10:32Z</time>
      </trkpt>
      <trkpt lat="45.57256" lon="5.59598">
        <ele>274.6</ele>
        <time>2023-03-29T12:10:35Z</time>
      </trkpt>
      <trkpt lat="45.57262" lon="5.59597">
        <ele>274.4</ele>
        <time>2023-03-29T12:10:37Z</time>
      </trkpt>
      <trkpt lat="45.5727" lon="5.59596">
        <ele>274.3</ele>
        <time>2023-03-29T12:10:40Z</time>
      </trkpt>
      <trkpt lat="45.57276" lon="5.59597">
        <ele>274</ele>
        <time>2023-03-29T12:10:42Z</time>
      </trkpt>
      <trkpt lat="45.57283" lon="5.59597">
        <ele>273.7</ele>
        <time>2023-03-29T12:10:44Z</time>
      </trkpt>
      <trkpt lat="45.5729" lon="5.59598">
        <ele>273.2</ele>
        <time>2023-03-29T12:10:46Z</time>
      </trkpt>
      <trkpt lat="45.57298" lon="5.59599">
        <ele>272.3</ele>
        <time>2023-03-29T12:10:48Z</time>
      </trkpt>
      <trkpt lat="45.57302" lon="5.596">
        <ele>271.9</ele>
        <time>2023-03-29T12:10:49Z</time>
      </trkpt>
      <trkpt lat="45.57308" lon="5.59601">
        <ele>271.7</ele>
        <time>2023-03-29T12:10:50Z</time>
      </trkpt>
      <trkpt lat="45.57316" lon="5.59601">
        <ele>271.3</ele>
        <time>2023-03-29T12:10:52Z</time>
      </trkpt>
      <trkpt lat="45.57324" lon="5.59601">
        <ele>271.2</ele>
        <time>2023-03-29T12:10:54Z</time>
      </trkpt>
      <trkpt lat="45.57332" lon="5.59598">
        <ele>271.5</ele>
        <time>2023-03-29T12:10:57Z</time>
      </trkpt>
      <trkpt lat="45.57338" lon="5.59598">
        <ele>271.6</ele>
        <time>2023-03-29T12:10:58Z</time>
      </trkpt>
      <trkpt lat="45.57344" lon="5.596">
        <ele>271.4</ele>
        <time>2023-03-29T12:10:59Z</time>
      </trkpt>
      <trkpt lat="45.57351" lon="5.59603">
        <ele>271.2</ele>
        <time>2023-03-29T12:11:00Z</time>
      </trkpt>
      <trkpt lat="45.57359" lon="5.59607">
        <ele>270.4</ele>
        <time>2023-03-29T12:11:01Z</time>
      </trkpt>
      <trkpt lat="45.57369" lon="5.59611">
        <ele>269.9</ele>
        <time>2023-03-29T12:11:03Z</time>
      </trkpt>
      <trkpt lat="45.57375" lon="5.59612">
        <ele>268.8</ele>
        <time>2023-03-29T12:11:04Z</time>
      </trkpt>
      <trkpt lat="45.57382" lon="5.59614">
        <ele>268.6</ele>
        <time>2023-03-29T12:11:05Z</time>
      </trkpt>
      <trkpt lat="45.57389" lon="5.59618">
        <ele>268</ele>
        <time>2023-03-29T12:11:06Z</time>
      </trkpt>
      <trkpt lat="45.57399" lon="5.59622">
        <ele>267.4</ele>
        <time>2023-03-29T12:11:08Z</time>
      </trkpt>
      <trkpt lat="45.57404" lon="5.59623">
        <ele>266.8</ele>
        <time>2023-03-29T12:11:09Z</time>
      </trkpt>
      <trkpt lat="45.57412" lon="5.59622">
        <ele>266.1</ele>
        <time>2023-03-29T12:11:11Z</time>
      </trkpt>
      <trkpt lat="45.57415" lon="5.59616">
        <ele>265.7</ele>
        <time>2023-03-29T12:11:12Z</time>
      </trkpt>
      <trkpt lat="45.57418" lon="5.59607">
        <ele>265.3</ele>
        <time>2023-03-29T12:11:13Z</time>
      </trkpt>
      <trkpt lat="45.57421" lon="5.596">
        <ele>264.6</ele>
        <time>2023-03-29T12:11:14Z</time>
      </trkpt>
      <trkpt lat="45.57423" lon="5.59592">
        <ele>265.1</ele>
        <time>2023-03-29T12:11:16Z</time>
      </trkpt>
      <trkpt lat="45.57425" lon="5.59584">
        <ele>265.7</ele>
        <time>2023-03-29T12:11:17Z</time>
      </trkpt>
      <trkpt lat="45.57428" lon="5.59574">
        <ele>265.3</ele>
        <time>2023-03-29T12:11:18Z</time>
      </trkpt>
      <trkpt lat="45.57432" lon="5.59565">
        <ele>265.2</ele>
        <time>2023-03-29T12:11:19Z</time>
      </trkpt>
      <trkpt lat="45.57436" lon="5.59557">
        <ele>265</ele>
        <time>2023-03-29T12:11:20Z</time>
      </trkpt>
      <trkpt lat="45.5744" lon="5.59548">
        <ele>264.8</ele>
        <time>2023-03-29T12:11:21Z</time>
      </trkpt>
      <trkpt lat="45.57445" lon="5.59539">
        <ele>264.3</ele>
        <time>2023-03-29T12:11:22Z</time>
      </trkpt>
      <trkpt lat="45.57449" lon="5.5953">
        <ele>264.3</ele>
        <time>2023-03-29T12:11:23Z</time>
      </trkpt>
      <trkpt lat="45.57454" lon="5.5952">
        <ele>263.8</ele>
        <time>2023-03-29T12:11:24Z</time>
      </trkpt>
      <trkpt lat="45.57458" lon="5.59511">
        <ele>263.3</ele>
        <time>2023-03-29T12:11:25Z</time>
      </trkpt>
      <trkpt lat="45.57462" lon="5.59502">
        <ele>262.7</ele>
        <time>2023-03-29T12:11:26Z</time>
      </trkpt>
      <trkpt lat="45.57466" lon="5.59493">
        <ele>262.4</ele>
        <time>2023-03-29T12:11:27Z</time>
      </trkpt>
      <trkpt lat="45.5747" lon="5.59484">
        <ele>261.9</ele>
        <time>2023-03-29T12:11:28Z</time>
      </trkpt>
      <trkpt lat="45.57474" lon="5.59474">
        <ele>261.7</ele>
        <time>2023-03-29T12:11:29Z</time>
      </trkpt>
      <trkpt lat="45.57478" lon="5.59464">
        <ele>261.2</ele>
        <time>2023-03-29T12:11:30Z</time>
      </trkpt>
      <trkpt lat="45.57481" lon="5.59454">
        <ele>260.8</ele>
        <time>2023-03-29T12:11:31Z</time>
      </trkpt>
      <trkpt lat="45.57485" lon="5.59443">
        <ele>261.2</ele>
        <time>2023-03-29T12:11:32Z</time>
      </trkpt>
      <trkpt lat="45.57488" lon="5.59433">
        <ele>260.8</ele>
        <time>2023-03-29T12:11:33Z</time>
      </trkpt>
      <trkpt lat="45.57491" lon="5.59422">
        <ele>260.6</ele>
        <time>2023-03-29T12:11:34Z</time>
      </trkpt>
      <trkpt lat="45.57494" lon="5.59412">
        <ele>260.2</ele>
        <time>2023-03-29T12:11:35Z</time>
      </trkpt>
      <trkpt lat="45.57497" lon="5.59401">
        <ele>260.7</ele>
        <time>2023-03-29T12:11:36Z</time>
      </trkpt>
      <trkpt lat="45.57499" lon="5.59391">
        <ele>260.3</ele>
        <time>2023-03-29T12:11:37Z</time>
      </trkpt>
      <trkpt lat="45.57501" lon="5.59381">
        <ele>260.7</ele>
        <time>2023-03-29T12:11:38Z</time>
      </trkpt>
      <trkpt lat="45.57503" lon="5.59371">
        <ele>260.6</ele>
        <time>2023-03-29T12:11:39Z</time>
      </trkpt>
      <trkpt lat="45.57504" lon="5.59361">
        <ele>260.8</ele>
        <time>2023-03-29T12:11:40Z</time>
      </trkpt>
      <trkpt lat="45.57505" lon="5.59351">
        <ele>261.1</ele>
        <time>2023-03-29T12:11:41Z</time>
      </trkpt>
      <trkpt lat="45.57506" lon="5.59341">
        <ele>261.5</ele>
        <time>2023-03-29T12:11:42Z</time>
      </trkpt>
      <trkpt lat="45.57506" lon="5.59331">
        <ele>261.7</ele>
        <time>2023-03-29T12:11:43Z</time>
      </trkpt>
      <trkpt lat="45.57507" lon="5.59321">
        <ele>261.8</ele>
        <time>2023-03-29T12:11:44Z</time>
      </trkpt>
      <trkpt lat="45.57507" lon="5.59312">
        <ele>261.2</ele>
        <time>2023-03-29T12:11:45Z</time>
      </trkpt>
      <trkpt lat="45.57507" lon="5.59303">
        <ele>261</ele>
        <time>2023-03-29T12:11:46Z</time>
      </trkpt>
      <trkpt lat="45.57508" lon="5.59294">
        <ele>261.1</ele>
        <time>2023-03-29T12:11:47Z</time>
      </trkpt>
      <trkpt lat="45.57509" lon="5.59285">
        <ele>261.3</ele>
        <time>2023-03-29T12:11:48Z</time>
      </trkpt>
      <trkpt lat="45.5751" lon="5.59275">
        <ele>261.6</ele>
        <time>2023-03-29T12:11:49Z</time>
      </trkpt>
      <trkpt lat="45.57512" lon="5.59266">
        <ele>261.2</ele>
        <time>2023-03-29T12:11:50Z</time>
      </trkpt>
      <trkpt lat="45.57513" lon="5.59257">
        <ele>261.5</ele>
        <time>2023-03-29T12:11:51Z</time>
      </trkpt>
      <trkpt lat="45.57514" lon="5.59247">
        <ele>261.8</ele>
        <time>2023-03-29T12:11:52Z</time>
      </trkpt>
      <trkpt lat="45.57515" lon="5.59237">
        <ele>262.4</ele>
        <time>2023-03-29T12:11:53Z</time>
      </trkpt>
      <trkpt lat="45.57516" lon="5.59228">
        <ele>262.6</ele>
        <time>2023-03-29T12:11:54Z</time>
      </trkpt>
      <trkpt lat="45.57516" lon="5.59219">
        <ele>261.1</ele>
        <time>2023-03-29T12:11:55Z</time>
      </trkpt>
      <trkpt lat="45.57516" lon="5.59209">
        <ele>260.8</ele>
        <time>2023-03-29T12:11:56Z</time>
      </trkpt>
      <trkpt lat="45.57515" lon="5.59199">
        <ele>261.9</ele>
        <time>2023-03-29T12:11:57Z</time>
      </trkpt>
      <trkpt lat="45.57514" lon="5.59189">
        <ele>261</ele>
        <time>2023-03-29T12:11:58Z</time>
      </trkpt>
      <trkpt lat="45.57512" lon="5.5918">
        <ele>259.9</ele>
        <time>2023-03-29T12:11:59Z</time>
      </trkpt>
      <trkpt lat="45.5751" lon="5.5917">
        <ele>260.2</ele>
        <time>2023-03-29T12:12:00Z</time>
      </trkpt>
      <trkpt lat="45.57507" lon="5.59161">
        <ele>258.7</ele>
        <time>2023-03-29T12:12:01Z</time>
      </trkpt>
      <trkpt lat="45.57503" lon="5.59151">
        <ele>258.6</ele>
        <time>2023-03-29T12:12:02Z</time>
      </trkpt>
      <trkpt lat="45.575" lon="5.59141">
        <ele>258.7</ele>
        <time>2023-03-29T12:12:03Z</time>
      </trkpt>
      <trkpt lat="45.57496" lon="5.59131">
        <ele>258.6</ele>
        <time>2023-03-29T12:12:04Z</time>
      </trkpt>
      <trkpt lat="45.57493" lon="5.59121">
        <ele>259.3</ele>
        <time>2023-03-29T12:12:05Z</time>
      </trkpt>
      <trkpt lat="45.57491" lon="5.59112">
        <ele>259</ele>
        <time>2023-03-29T12:12:06Z</time>
      </trkpt>
      <trkpt lat="45.57489" lon="5.59102">
        <ele>259.9</ele>
        <time>2023-03-29T12:12:07Z</time>
      </trkpt>
      <trkpt lat="45.57487" lon="5.59092">
        <ele>259.9</ele>
        <time>2023-03-29T12:12:08Z</time>
      </trkpt>
      <trkpt lat="45.57486" lon="5.59082">
        <ele>259.8</ele>
        <time>2023-03-29T12:12:09Z</time>
      </trkpt>
      <trkpt lat="45.57485" lon="5.59072">
        <ele>261.1</ele>
        <time>2023-03-29T12:12:10Z</time>
      </trkpt>
      <trkpt lat="45.57483" lon="5.59063">
        <ele>260.9</ele>
        <time>2023-03-29T12:12:11Z</time>
      </trkpt>
      <trkpt lat="45.57481" lon="5.59053">
        <ele>260.6</ele>
        <time>2023-03-29T12:12:12Z</time>
      </trkpt>
      <trkpt lat="45.57479" lon="5.59045">
        <ele>261.6</ele>
        <time>2023-03-29T12:12:13Z</time>
      </trkpt>
      <trkpt lat="45.57477" lon="5.59037">
        <ele>261.4</ele>
        <time>2023-03-29T12:12:14Z</time>
      </trkpt>
      <trkpt lat="45.57475" lon="5.59029">
        <ele>262.3</ele>
        <time>2023-03-29T12:12:15Z</time>
      </trkpt>
      <trkpt lat="45.57472" lon="5.59022">
        <ele>262.9</ele>
        <time>2023-03-29T12:12:16Z</time>
      </trkpt>
      <trkpt lat="45.5747" lon="5.59015">
        <ele>262</ele>
        <time>2023-03-29T12:12:17Z</time>
      </trkpt>
      <trkpt lat="45.57467" lon="5.59007">
        <ele>262.7</ele>
        <time>2023-03-29T12:12:18Z</time>
      </trkpt>
      <trkpt lat="45.57463" lon="5.59">
        <ele>262.7</ele>
        <time>2023-03-29T12:12:19Z</time>
      </trkpt>
      <trkpt lat="45.5746" lon="5.58993">
        <ele>261.4</ele>
        <time>2023-03-29T12:12:20Z</time>
      </trkpt>
      <trkpt lat="45.57457" lon="5.58985">
        <ele>261</ele>
        <time>2023-03-29T12:12:21Z</time>
      </trkpt>
      <trkpt lat="45.57454" lon="5.58978">
        <ele>261.3</ele>
        <time>2023-03-29T12:12:22Z</time>
      </trkpt>
      <trkpt lat="45.57451" lon="5.58972">
        <ele>260</ele>
        <time>2023-03-29T12:12:23Z</time>
      </trkpt>
      <trkpt lat="45.57449" lon="5.58965">
        <ele>260.4</ele>
        <time>2023-03-29T12:12:24Z</time>
      </trkpt>
      <trkpt lat="45.57446" lon="5.58959">
        <ele>260.5</ele>
        <time>2023-03-29T12:12:25Z</time>
      </trkpt>
      <trkpt lat="45.57444" lon="5.58953">
        <ele>260</ele>
        <time>2023-03-29T12:12:26Z</time>
      </trkpt>
      <trkpt lat="45.57441" lon="5.58947">
        <ele>260.7</ele>
        <time>2023-03-29T12:12:27Z</time>
      </trkpt>
      <trkpt lat="45.57438" lon="5.58941">
        <ele>259.7</ele>
        <time>2023-03-29T12:12:28Z</time>
      </trkpt>
      <trkpt lat="45.57435" lon="5.58935">
        <ele>260.3</ele>
        <time>2023-03-29T12:12:29Z</time>
      </trkpt>
      <trkpt lat="45.57432" lon="5.58928">
        <ele>260.2</ele>
        <time>2023-03-29T12:12:30Z</time>
      </trkpt>
      <trkpt lat="45.57429" lon="5.58922">
        <ele>260.6</ele>
        <time>2023-03-29T12:12:31Z</time>
      </trkpt>
      <trkpt lat="45.57425" lon="5.58916">
        <ele>260.6</ele>
        <time>2023-03-29T12:12:32Z</time>
      </trkpt>
      <trkpt lat="45.57422" lon="5.58911">
        <ele>260.1</ele>
        <time>2023-03-29T12:12:33Z</time>
      </trkpt>
      <trkpt lat="45.57418" lon="5.58906">
        <ele>260.5</ele>
        <time>2023-03-29T12:12:34Z</time>
      </trkpt>
      <trkpt lat="45.57414" lon="5.58902">
        <ele>260.8</ele>
        <time>2023-03-29T12:12:35Z</time>
      </trkpt>
      <trkpt lat="45.57408" lon="5.58896">
        <ele>261.2</ele>
        <time>2023-03-29T12:12:37Z</time>
      </trkpt>
      <trkpt lat="45.57402" lon="5.5889">
        <ele>261.8</ele>
        <time>2023-03-29T12:12:39Z</time>
      </trkpt>
      <trkpt lat="45.57396" lon="5.58883">
        <ele>262.1</ele>
        <time>2023-03-29T12:12:41Z</time>
      </trkpt>
      <trkpt lat="45.57392" lon="5.58878">
        <ele>262.5</ele>
        <time>2023-03-29T12:12:42Z</time>
      </trkpt>
      <trkpt lat="45.57389" lon="5.58872">
        <ele>262.1</ele>
        <time>2023-03-29T12:12:44Z</time>
      </trkpt>
      <trkpt lat="45.57385" lon="5.58868">
        <ele>262.5</ele>
        <time>2023-03-29T12:12:45Z</time>
      </trkpt>
      <trkpt lat="45.57378" lon="5.58858">
        <ele>262.1</ele>
        <time>2023-03-29T12:12:47Z</time>
      </trkpt>
      <trkpt lat="45.57371" lon="5.5885">
        <ele>262.6</ele>
        <time>2023-03-29T12:12:49Z</time>
      </trkpt>
      <trkpt lat="45.57366" lon="5.58847">
        <ele>262.8</ele>
        <time>2023-03-29T12:12:50Z</time>
      </trkpt>
      <trkpt lat="45.57363" lon="5.58843">
        <ele>262.8</ele>
        <time>2023-03-29T12:12:51Z</time>
      </trkpt>
      <trkpt lat="45.57358" lon="5.58839">
        <ele>262.8</ele>
        <time>2023-03-29T12:12:52Z</time>
      </trkpt>
      <trkpt lat="45.57354" lon="5.58836">
        <ele>263.5</ele>
        <time>2023-03-29T12:12:53Z</time>
      </trkpt>
      <trkpt lat="45.5735" lon="5.58833">
        <ele>263.5</ele>
        <time>2023-03-29T12:12:54Z</time>
      </trkpt>
      <trkpt lat="45.57345" lon="5.5883">
        <ele>263.5</ele>
        <time>2023-03-29T12:12:55Z</time>
      </trkpt>
      <trkpt lat="45.57339" lon="5.58825">
        <ele>264</ele>
        <time>2023-03-29T12:12:57Z</time>
      </trkpt>
      <trkpt lat="45.57333" lon="5.5882">
        <ele>263.8</ele>
        <time>2023-03-29T12:12:59Z</time>
      </trkpt>
      <trkpt lat="45.57328" lon="5.58818">
        <ele>264.3</ele>
        <time>2023-03-29T12:13:00Z</time>
      </trkpt>
      <trkpt lat="45.57324" lon="5.58814">
        <ele>263.9</ele>
        <time>2023-03-29T12:13:01Z</time>
      </trkpt>
      <trkpt lat="45.57319" lon="5.58811">
        <ele>263.5</ele>
        <time>2023-03-29T12:13:02Z</time>
      </trkpt>
      <trkpt lat="45.57312" lon="5.58806">
        <ele>263.3</ele>
        <time>2023-03-29T12:13:04Z</time>
      </trkpt>
      <trkpt lat="45.57308" lon="5.58802">
        <ele>263</ele>
        <time>2023-03-29T12:13:05Z</time>
      </trkpt>
      <trkpt lat="45.57298" lon="5.58793">
        <ele>262.6</ele>
        <time>2023-03-29T12:13:08Z</time>
      </trkpt>
      <trkpt lat="45.57295" lon="5.58789">
        <ele>262.5</ele>
        <time>2023-03-29T12:13:09Z</time>
      </trkpt>
      <trkpt lat="45.57291" lon="5.58785">
        <ele>262.5</ele>
        <time>2023-03-29T12:13:10Z</time>
      </trkpt>
      <trkpt lat="45.57288" lon="5.5878">
        <ele>262.5</ele>
        <time>2023-03-29T12:13:11Z</time>
      </trkpt>
      <trkpt lat="45.57283" lon="5.58774">
        <ele>262.4</ele>
        <time>2023-03-29T12:13:12Z</time>
      </trkpt>
      <trkpt lat="45.57279" lon="5.58769">
        <ele>262.4</ele>
        <time>2023-03-29T12:13:13Z</time>
      </trkpt>
      <trkpt lat="45.57274" lon="5.58762">
        <ele>262.4</ele>
        <time>2023-03-29T12:13:15Z</time>
      </trkpt>
      <trkpt lat="45.57271" lon="5.58758">
        <ele>262.4</ele>
        <time>2023-03-29T12:13:15Z</time>
      </trkpt>
      <trkpt lat="45.57265" lon="5.58752">
        <ele>262.4</ele>
        <time>2023-03-29T12:13:17Z</time>
      </trkpt>
      <trkpt lat="45.5726" lon="5.58746">
        <ele>262.5</ele>
        <time>2023-03-29T12:13:18Z</time>
      </trkpt>
      <trkpt lat="45.57257" lon="5.58742">
        <ele>262.6</ele>
        <time>2023-03-29T12:13:19Z</time>
      </trkpt>
      <trkpt lat="45.57252" lon="5.58738">
        <ele>262.7</ele>
        <time>2023-03-29T12:13:20Z</time>
      </trkpt>
      <trkpt lat="45.57248" lon="5.58735">
        <ele>262.7</ele>
        <time>2023-03-29T12:13:21Z</time>
      </trkpt>
      <trkpt lat="45.57243" lon="5.58731">
        <ele>262.9</ele>
        <time>2023-03-29T12:13:22Z</time>
      </trkpt>
      <trkpt lat="45.57239" lon="5.58727">
        <ele>263.1</ele>
        <time>2023-03-29T12:13:23Z</time>
      </trkpt>
      <trkpt lat="45.57235" lon="5.58723">
        <ele>263.2</ele>
        <time>2023-03-29T12:13:25Z</time>
      </trkpt>
      <trkpt lat="45.57226" lon="5.58715">
        <ele>263.3</ele>
        <time>2023-03-29T12:13:27Z</time>
      </trkpt>
      <trkpt lat="45.57222" lon="5.58712">
        <ele>263.5</ele>
        <time>2023-03-29T12:13:28Z</time>
      </trkpt>
      <trkpt lat="45.57217" lon="5.58708">
        <ele>263.7</ele>
        <time>2023-03-29T12:13:29Z</time>
      </trkpt>
      <trkpt lat="45.5721" lon="5.58702">
        <ele>263.8</ele>
        <time>2023-03-29T12:13:31Z</time>
      </trkpt>
      <trkpt lat="45.57204" lon="5.58695">
        <ele>264</ele>
        <time>2023-03-29T12:13:33Z</time>
      </trkpt>
      <trkpt lat="45.57197" lon="5.58689">
        <ele>264.1</ele>
        <time>2023-03-29T12:13:35Z</time>
      </trkpt>
      <trkpt lat="45.57194" lon="5.58684">
        <ele>264.2</ele>
        <time>2023-03-29T12:13:37Z</time>
      </trkpt>
      <trkpt lat="45.57193" lon="5.58674">
        <ele>264.2</ele>
        <time>2023-03-29T12:13:39Z</time>
      </trkpt>
      <trkpt lat="45.57199" lon="5.58669">
        <ele>264.2</ele>
        <time>2023-03-29T12:13:42Z</time>
      </trkpt>
      <trkpt lat="45.57205" lon="5.58668">
        <ele>263.9</ele>
        <time>2023-03-29T12:13:43Z</time>
      </trkpt>
      <trkpt lat="45.57211" lon="5.58666">
        <ele>263.8</ele>
        <time>2023-03-29T12:13:44Z</time>
      </trkpt>
      <trkpt lat="45.5722" lon="5.58663">
        <ele>263.8</ele>
        <time>2023-03-29T12:13:47Z</time>
      </trkpt>
      <trkpt lat="45.57225" lon="5.5866">
        <ele>263.6</ele>
        <time>2023-03-29T12:13:48Z</time>
      </trkpt>
      <trkpt lat="45.57231" lon="5.58655">
        <ele>263.8</ele>
        <time>2023-03-29T12:13:49Z</time>
      </trkpt>
      <trkpt lat="45.57236" lon="5.5865">
        <ele>264.7</ele>
        <time>2023-03-29T12:13:50Z</time>
      </trkpt>
      <trkpt lat="45.57241" lon="5.58645">
        <ele>264.5</ele>
        <time>2023-03-29T12:13:51Z</time>
      </trkpt>
      <trkpt lat="45.57246" lon="5.58641">
        <ele>264.7</ele>
        <time>2023-03-29T12:13:53Z</time>
      </trkpt>
      <trkpt lat="45.57249" lon="5.58637">
        <ele>265.4</ele>
        <time>2023-03-29T12:13:54Z</time>
      </trkpt>
      <trkpt lat="45.57256" lon="5.58631">
        <ele>265</ele>
        <time>2023-03-29T12:13:56Z</time>
      </trkpt>
      <trkpt lat="45.57261" lon="5.58626">
        <ele>265.2</ele>
        <time>2023-03-29T12:13:58Z</time>
      </trkpt>
      <trkpt lat="45.57264" lon="5.58622">
        <ele>265.4</ele>
        <time>2023-03-29T12:13:59Z</time>
      </trkpt>
      <trkpt lat="45.57271" lon="5.58615">
        <ele>265.6</ele>
        <time>2023-03-29T12:14:01Z</time>
      </trkpt>
      <trkpt lat="45.57277" lon="5.58607">
        <ele>266.4</ele>
        <time>2023-03-29T12:14:03Z</time>
      </trkpt>
      <trkpt lat="45.57281" lon="5.58602">
        <ele>266.3</ele>
        <time>2023-03-29T12:14:05Z</time>
      </trkpt>
      <trkpt lat="45.57285" lon="5.58597">
        <ele>266.1</ele>
        <time>2023-03-29T12:14:06Z</time>
      </trkpt>
      <trkpt lat="45.57291" lon="5.58591">
        <ele>266</ele>
        <time>2023-03-29T12:14:08Z</time>
      </trkpt>
      <trkpt lat="45.57298" lon="5.58583">
        <ele>265.9</ele>
        <time>2023-03-29T12:14:11Z</time>
      </trkpt>
      <trkpt lat="45.57303" lon="5.58576">
        <ele>266.3</ele>
        <time>2023-03-29T12:14:13Z</time>
      </trkpt>
      <trkpt lat="45.57307" lon="5.58568">
        <ele>266.8</ele>
        <time>2023-03-29T12:14:15Z</time>
      </trkpt>
      <trkpt lat="45.57312" lon="5.58559">
        <ele>267.2</ele>
        <time>2023-03-29T12:14:17Z</time>
      </trkpt>
      <trkpt lat="45.57317" lon="5.58552">
        <ele>267.3</ele>
        <time>2023-03-29T12:14:19Z</time>
      </trkpt>
      <trkpt lat="45.57321" lon="5.58545">
        <ele>267.7</ele>
        <time>2023-03-29T12:14:22Z</time>
      </trkpt>
      <trkpt lat="45.57326" lon="5.58539">
        <ele>267.9</ele>
        <time>2023-03-29T12:14:24Z</time>
      </trkpt>
      <trkpt lat="45.5733" lon="5.58532">
        <ele>268.5</ele>
        <time>2023-03-29T12:14:27Z</time>
      </trkpt>
      <trkpt lat="45.57334" lon="5.58527">
        <ele>268.6</ele>
        <time>2023-03-29T12:14:29Z</time>
      </trkpt>
      <trkpt lat="45.57339" lon="5.58522">
        <ele>268.7</ele>
        <time>2023-03-29T12:14:31Z</time>
      </trkpt>
      <trkpt lat="45.57345" lon="5.58521">
        <ele>268.5</ele>
        <time>2023-03-29T12:14:33Z</time>
      </trkpt>
      <trkpt lat="45.57354" lon="5.58519">
        <ele>268.2</ele>
        <time>2023-03-29T12:14:36Z</time>
      </trkpt>
      <trkpt lat="45.57362" lon="5.58519">
        <ele>268.1</ele>
        <time>2023-03-29T12:14:38Z</time>
      </trkpt>
      <trkpt lat="45.57368" lon="5.58519">
        <ele>268.1</ele>
        <time>2023-03-29T12:14:40Z</time>
      </trkpt>
      <trkpt lat="45.57373" lon="5.5852">
        <ele>268.1</ele>
        <time>2023-03-29T12:14:42Z</time>
      </trkpt>
      <trkpt lat="45.57379" lon="5.58517">
        <ele>268.3</ele>
        <time>2023-03-29T12:14:45Z</time>
      </trkpt>
      <trkpt lat="45.57381" lon="5.58511">
        <ele>268.5</ele>
        <time>2023-03-29T12:14:48Z</time>
      </trkpt>
      <trkpt lat="45.5738" lon="5.58504">
        <ele>268.8</ele>
        <time>2023-03-29T12:14:51Z</time>
      </trkpt>
      <trkpt lat="45.5738" lon="5.58497">
        <ele>268.9</ele>
        <time>2023-03-29T12:14:53Z</time>
      </trkpt>
      <trkpt lat="45.57383" lon="5.58489">
        <ele>269.3</ele>
        <time>2023-03-29T12:14:56Z</time>
      </trkpt>
      <trkpt lat="45.57385" lon="5.58481">
        <ele>270.2</ele>
        <time>2023-03-29T12:14:58Z</time>
      </trkpt>
      <trkpt lat="45.57389" lon="5.58473">
        <ele>271.1</ele>
        <time>2023-03-29T12:15:00Z</time>
      </trkpt>
      <trkpt lat="45.57391" lon="5.58467">
        <ele>271.9</ele>
        <time>2023-03-29T12:15:03Z</time>
      </trkpt>
      <trkpt lat="45.57392" lon="5.58458">
        <ele>272.3</ele>
        <time>2023-03-29T12:15:06Z</time>
      </trkpt>
      <trkpt lat="45.57393" lon="5.58451">
        <ele>272.6</ele>
        <time>2023-03-29T12:15:09Z</time>
      </trkpt>
      <trkpt lat="45.57393" lon="5.58444">
        <ele>272.8</ele>
        <time>2023-03-29T12:15:11Z</time>
      </trkpt>
      <trkpt lat="45.57393" lon="5.58437">
        <ele>272.9</ele>
        <time>2023-03-29T12:15:14Z</time>
      </trkpt>
      <trkpt lat="45.57394" lon="5.58429">
        <ele>273.1</ele>
        <time>2023-03-29T12:15:17Z</time>
      </trkpt>
      <trkpt lat="45.57395" lon="5.58421">
        <ele>274.1</ele>
        <time>2023-03-29T12:15:20Z</time>
      </trkpt>
      <trkpt lat="45.57396" lon="5.58413">
        <ele>274.2</ele>
        <time>2023-03-29T12:15:23Z</time>
      </trkpt>
      <trkpt lat="45.57397" lon="5.58406">
        <ele>274.3</ele>
        <time>2023-03-29T12:15:26Z</time>
      </trkpt>
      <trkpt lat="45.57401" lon="5.58398">
        <ele>275.2</ele>
        <time>2023-03-29T12:15:29Z</time>
      </trkpt>
      <trkpt lat="45.57404" lon="5.58391">
        <ele>276.1</ele>
        <time>2023-03-29T12:15:32Z</time>
      </trkpt>
      <trkpt lat="45.57408" lon="5.58383">
        <ele>276.9</ele>
        <time>2023-03-29T12:15:35Z</time>
      </trkpt>
      <trkpt lat="45.5741" lon="5.58377">
        <ele>276.7</ele>
        <time>2023-03-29T12:15:38Z</time>
      </trkpt>
      <trkpt lat="45.57413" lon="5.58371">
        <ele>277.4</ele>
        <time>2023-03-29T12:15:41Z</time>
      </trkpt>
      <trkpt lat="45.57416" lon="5.58365">
        <ele>277.1</ele>
        <time>2023-03-29T12:15:43Z</time>
      </trkpt>
      <trkpt lat="45.57418" lon="5.58358">
        <ele>277.7</ele>
        <time>2023-03-29T12:15:45Z</time>
      </trkpt>
      <trkpt lat="45.57421" lon="5.58351">
        <ele>277.4</ele>
        <time>2023-03-29T12:15:48Z</time>
      </trkpt>
      <trkpt lat="45.57427" lon="5.58346">
        <ele>280.1</ele>
        <time>2023-03-29T12:15:52Z</time>
      </trkpt>
      <trkpt lat="45.5743" lon="5.58338">
        <ele>281.2</ele>
        <time>2023-03-29T12:15:55Z</time>
      </trkpt>
      <trkpt lat="45.57431" lon="5.5833">
        <ele>280.5</ele>
        <time>2023-03-29T12:15:58Z</time>
      </trkpt>
      <trkpt lat="45.57433" lon="5.58323">
        <ele>280.2</ele>
        <time>2023-03-29T12:16:01Z</time>
      </trkpt>
      <trkpt lat="45.57435" lon="5.58316">
        <ele>281.9</ele>
        <time>2023-03-29T12:16:04Z</time>
      </trkpt>
      <trkpt lat="45.57437" lon="5.58308">
        <ele>281.6</ele>
        <time>2023-03-29T12:16:06Z</time>
      </trkpt>
      <trkpt lat="45.57438" lon="5.583">
        <ele>283</ele>
        <time>2023-03-29T12:16:09Z</time>
      </trkpt>
      <trkpt lat="45.57438" lon="5.58292">
        <ele>282.7</ele>
        <time>2023-03-29T12:16:12Z</time>
      </trkpt>
      <trkpt lat="45.57441" lon="5.58281">
        <ele>282.3</ele>
        <time>2023-03-29T12:16:16Z</time>
      </trkpt>
      <trkpt lat="45.57443" lon="5.58275">
        <ele>283.3</ele>
        <time>2023-03-29T12:16:18Z</time>
      </trkpt>
      <trkpt lat="45.57445" lon="5.58268">
        <ele>282.8</ele>
        <time>2023-03-29T12:16:20Z</time>
      </trkpt>
      <trkpt lat="45.57447" lon="5.58262">
        <ele>282.6</ele>
        <time>2023-03-29T12:16:23Z</time>
      </trkpt>
      <trkpt lat="45.57447" lon="5.58252">
        <ele>283.1</ele>
        <time>2023-03-29T12:16:27Z</time>
      </trkpt>
      <trkpt lat="45.57448" lon="5.58242">
        <ele>282.9</ele>
        <time>2023-03-29T12:16:32Z</time>
      </trkpt>
      <trkpt lat="45.5745" lon="5.58234">
        <ele>282.9</ele>
        <time>2023-03-29T12:16:35Z</time>
      </trkpt>
      <trkpt lat="45.57451" lon="5.58228">
        <ele>283.9</ele>
        <time>2023-03-29T12:16:38Z</time>
      </trkpt>
      <trkpt lat="45.57452" lon="5.58219">
        <ele>284.1</ele>
        <time>2023-03-29T12:16:41Z</time>
      </trkpt>
      <trkpt lat="45.57454" lon="5.5821">
        <ele>284.3</ele>
        <time>2023-03-29T12:16:44Z</time>
      </trkpt>
      <trkpt lat="45.57458" lon="5.58204">
        <ele>285.7</ele>
        <time>2023-03-29T12:16:46Z</time>
      </trkpt>
      <trkpt lat="45.5746" lon="5.58195">
        <ele>287.1</ele>
        <time>2023-03-29T12:16:49Z</time>
      </trkpt>
      <trkpt lat="45.5746" lon="5.58188">
        <ele>287.2</ele>
        <time>2023-03-29T12:16:51Z</time>
      </trkpt>
      <trkpt lat="45.57463" lon="5.58177">
        <ele>287.6</ele>
        <time>2023-03-29T12:16:54Z</time>
      </trkpt>
      <trkpt lat="45.57465" lon="5.5817">
        <ele>288.9</ele>
        <time>2023-03-29T12:16:56Z</time>
      </trkpt>
      <trkpt lat="45.57465" lon="5.58163">
        <ele>288.9</ele>
        <time>2023-03-29T12:16:59Z</time>
      </trkpt>
      <trkpt lat="45.57466" lon="5.58153">
        <ele>288.9</ele>
        <time>2023-03-29T12:17:01Z</time>
      </trkpt>
      <trkpt lat="45.57466" lon="5.58144">
        <ele>289.1</ele>
        <time>2023-03-29T12:17:05Z</time>
      </trkpt>
      <trkpt lat="45.57466" lon="5.58137">
        <ele>289.1</ele>
        <time>2023-03-29T12:17:07Z</time>
      </trkpt>
      <trkpt lat="45.57466" lon="5.58131">
        <ele>289.1</ele>
        <time>2023-03-29T12:17:09Z</time>
      </trkpt>
      <trkpt lat="45.57467" lon="5.58122">
        <ele>289</ele>
        <time>2023-03-29T12:17:12Z</time>
      </trkpt>
      <trkpt lat="45.57467" lon="5.58113">
        <ele>289.1</ele>
        <time>2023-03-29T12:17:15Z</time>
      </trkpt>
      <trkpt lat="45.57467" lon="5.58106">
        <ele>289.2</ele>
        <time>2023-03-29T12:17:18Z</time>
      </trkpt>
      <trkpt lat="45.57467" lon="5.58098">
        <ele>289.3</ele>
        <time>2023-03-29T12:17:20Z</time>
      </trkpt>
      <trkpt lat="45.57468" lon="5.58091">
        <ele>289.9</ele>
        <time>2023-03-29T12:17:22Z</time>
      </trkpt>
      <trkpt lat="45.5747" lon="5.58083">
        <ele>289.9</ele>
        <time>2023-03-29T12:17:24Z</time>
      </trkpt>
      <trkpt lat="45.5747" lon="5.58076">
        <ele>290</ele>
        <time>2023-03-29T12:17:27Z</time>
      </trkpt>
      <trkpt lat="45.57472" lon="5.58067">
        <ele>290.1</ele>
        <time>2023-03-29T12:17:30Z</time>
      </trkpt>
      <trkpt lat="45.57472" lon="5.58058">
        <ele>290.5</ele>
        <time>2023-03-29T12:17:33Z</time>
      </trkpt>
      <trkpt lat="45.57473" lon="5.58051">
        <ele>291.2</ele>
        <time>2023-03-29T12:17:36Z</time>
      </trkpt>
      <trkpt lat="45.57476" lon="5.58043">
        <ele>291.6</ele>
        <time>2023-03-29T12:17:39Z</time>
      </trkpt>
      <trkpt lat="45.57477" lon="5.58035">
        <ele>292.4</ele>
        <time>2023-03-29T12:17:42Z</time>
      </trkpt>
      <trkpt lat="45.57477" lon="5.58025">
        <ele>292.8</ele>
        <time>2023-03-29T12:17:46Z</time>
      </trkpt>
      <trkpt lat="45.57479" lon="5.58017">
        <ele>293.4</ele>
        <time>2023-03-29T12:17:49Z</time>
      </trkpt>
      <trkpt lat="45.57481" lon="5.5801">
        <ele>293.8</ele>
        <time>2023-03-29T12:17:52Z</time>
      </trkpt>
      <trkpt lat="45.57482" lon="5.58002">
        <ele>294.2</ele>
        <time>2023-03-29T12:17:55Z</time>
      </trkpt>
      <trkpt lat="45.57484" lon="5.57993">
        <ele>294.5</ele>
        <time>2023-03-29T12:17:59Z</time>
      </trkpt>
      <trkpt lat="45.57486" lon="5.57986">
        <ele>294.2</ele>
        <time>2023-03-29T12:18:03Z</time>
      </trkpt>
      <trkpt lat="45.57487" lon="5.57979">
        <ele>294.2</ele>
        <time>2023-03-29T12:18:05Z</time>
      </trkpt>
      <trkpt lat="45.57488" lon="5.5797">
        <ele>294.1</ele>
        <time>2023-03-29T12:18:09Z</time>
      </trkpt>
      <trkpt lat="45.57489" lon="5.57962">
        <ele>294</ele>
        <time>2023-03-29T12:18:11Z</time>
      </trkpt>
      <trkpt lat="45.57487" lon="5.57956">
        <ele>294</ele>
        <time>2023-03-29T12:18:14Z</time>
      </trkpt>
      <trkpt lat="45.57488" lon="5.57949">
        <ele>293.9</ele>
        <time>2023-03-29T12:18:16Z</time>
      </trkpt>
      <trkpt lat="45.57491" lon="5.57941">
        <ele>293.5</ele>
        <time>2023-03-29T12:18:18Z</time>
      </trkpt>
      <trkpt lat="45.57492" lon="5.57934">
        <ele>293.5</ele>
        <time>2023-03-29T12:18:20Z</time>
      </trkpt>
      <trkpt lat="45.57493" lon="5.57926">
        <ele>293.7</ele>
        <time>2023-03-29T12:18:22Z</time>
      </trkpt>
      <trkpt lat="45.57494" lon="5.57918">
        <ele>294.1</ele>
        <time>2023-03-29T12:18:25Z</time>
      </trkpt>
      <trkpt lat="45.57495" lon="5.57908">
        <ele>294.9</ele>
        <time>2023-03-29T12:18:29Z</time>
      </trkpt>
      <trkpt lat="45.57498" lon="5.579">
        <ele>295.2</ele>
        <time>2023-03-29T12:18:31Z</time>
      </trkpt>
      <trkpt lat="45.57499" lon="5.57893">
        <ele>295.1</ele>
        <time>2023-03-29T12:18:34Z</time>
      </trkpt>
      <trkpt lat="45.57501" lon="5.57884">
        <ele>295.3</ele>
        <time>2023-03-29T12:18:36Z</time>
      </trkpt>
      <trkpt lat="45.57504" lon="5.57876">
        <ele>294.9</ele>
        <time>2023-03-29T12:18:38Z</time>
      </trkpt>
      <trkpt lat="45.57505" lon="5.57868">
        <ele>295</ele>
        <time>2023-03-29T12:18:40Z</time>
      </trkpt>
      <trkpt lat="45.57505" lon="5.57858">
        <ele>295.3</ele>
        <time>2023-03-29T12:18:43Z</time>
      </trkpt>
      <trkpt lat="45.57506" lon="5.57849">
        <ele>295.6</ele>
        <time>2023-03-29T12:18:45Z</time>
      </trkpt>
      <trkpt lat="45.57507" lon="5.57842">
        <ele>295.3</ele>
        <time>2023-03-29T12:18:48Z</time>
      </trkpt>
      <trkpt lat="45.57505" lon="5.57831">
        <ele>296.6</ele>
        <time>2023-03-29T12:18:52Z</time>
      </trkpt>
      <trkpt lat="45.57504" lon="5.57821">
        <ele>297.6</ele>
        <time>2023-03-29T12:18:55Z</time>
      </trkpt>
      <trkpt lat="45.57504" lon="5.57814">
        <ele>298</ele>
        <time>2023-03-29T12:18:57Z</time>
      </trkpt>
      <trkpt lat="45.57505" lon="5.57807">
        <ele>298.9</ele>
        <time>2023-03-29T12:19:00Z</time>
      </trkpt>
      <trkpt lat="45.57507" lon="5.57801">
        <ele>298.3</ele>
        <time>2023-03-29T12:19:02Z</time>
      </trkpt>
      <trkpt lat="45.57511" lon="5.57792">
        <ele>298.9</ele>
        <time>2023-03-29T12:19:05Z</time>
      </trkpt>
      <trkpt lat="45.57514" lon="5.57784">
        <ele>299.4</ele>
        <time>2023-03-29T12:19:07Z</time>
      </trkpt>
      <trkpt lat="45.57517" lon="5.57774">
        <ele>299.9</ele>
        <time>2023-03-29T12:19:11Z</time>
      </trkpt>
      <trkpt lat="45.57517" lon="5.57765">
        <ele>300.3</ele>
        <time>2023-03-29T12:19:13Z</time>
      </trkpt>
      <trkpt lat="45.57519" lon="5.57757">
        <ele>300.6</ele>
        <time>2023-03-29T12:19:15Z</time>
      </trkpt>
      <trkpt lat="45.5752" lon="5.57749">
        <ele>299.9</ele>
        <time>2023-03-29T12:19:18Z</time>
      </trkpt>
      <trkpt lat="45.57523" lon="5.57739">
        <ele>300</ele>
        <time>2023-03-29T12:19:20Z</time>
      </trkpt>
      <trkpt lat="45.57526" lon="5.5773">
        <ele>299.3</ele>
        <time>2023-03-29T12:19:22Z</time>
      </trkpt>
      <trkpt lat="45.57529" lon="5.57723">
        <ele>298.9</ele>
        <time>2023-03-29T12:19:24Z</time>
      </trkpt>
      <trkpt lat="45.57531" lon="5.57715">
        <ele>298.9</ele>
        <time>2023-03-29T12:19:27Z</time>
      </trkpt>
      <trkpt lat="45.57532" lon="5.57709">
        <ele>299.1</ele>
        <time>2023-03-29T12:19:29Z</time>
      </trkpt>
      <trkpt lat="45.57534" lon="5.57701">
        <ele>299.1</ele>
        <time>2023-03-29T12:19:31Z</time>
      </trkpt>
      <trkpt lat="45.57537" lon="5.57694">
        <ele>299.3</ele>
        <time>2023-03-29T12:19:34Z</time>
      </trkpt>
      <trkpt lat="45.57539" lon="5.57688">
        <ele>299.7</ele>
        <time>2023-03-29T12:19:36Z</time>
      </trkpt>
      <trkpt lat="45.5754" lon="5.57681">
        <ele>299.9</ele>
        <time>2023-03-29T12:19:38Z</time>
      </trkpt>
      <trkpt lat="45.57543" lon="5.57674">
        <ele>300.3</ele>
        <time>2023-03-29T12:19:41Z</time>
      </trkpt>
      <trkpt lat="45.57544" lon="5.57667">
        <ele>300.7</ele>
        <time>2023-03-29T12:19:43Z</time>
      </trkpt>
      <trkpt lat="45.57546" lon="5.57661">
        <ele>301</ele>
        <time>2023-03-29T12:19:46Z</time>
      </trkpt>
      <trkpt lat="45.57548" lon="5.57655">
        <ele>301.1</ele>
        <time>2023-03-29T12:19:48Z</time>
      </trkpt>
      <trkpt lat="45.57551" lon="5.57645">
        <ele>301.8</ele>
        <time>2023-03-29T12:19:51Z</time>
      </trkpt>
      <trkpt lat="45.57554" lon="5.57636">
        <ele>302.4</ele>
        <time>2023-03-29T12:19:54Z</time>
      </trkpt>
      <trkpt lat="45.57556" lon="5.5763">
        <ele>302.6</ele>
        <time>2023-03-29T12:19:57Z</time>
      </trkpt>
      <trkpt lat="45.57558" lon="5.57623">
        <ele>302.9</ele>
        <time>2023-03-29T12:19:59Z</time>
      </trkpt>
      <trkpt lat="45.5756" lon="5.57618">
        <ele>303.5</ele>
        <time>2023-03-29T12:20:02Z</time>
      </trkpt>
      <trkpt lat="45.57561" lon="5.57611">
        <ele>303.7</ele>
        <time>2023-03-29T12:20:05Z</time>
      </trkpt>
      <trkpt lat="45.57562" lon="5.57601">
        <ele>304</ele>
        <time>2023-03-29T12:20:09Z</time>
      </trkpt>
      <trkpt lat="45.57565" lon="5.57594">
        <ele>304.8</ele>
        <time>2023-03-29T12:20:12Z</time>
      </trkpt>
      <trkpt lat="45.57567" lon="5.57586">
        <ele>305.6</ele>
        <time>2023-03-29T12:20:14Z</time>
      </trkpt>
      <trkpt lat="45.57568" lon="5.57576">
        <ele>305.7</ele>
        <time>2023-03-29T12:20:18Z</time>
      </trkpt>
      <trkpt lat="45.57568" lon="5.57568">
        <ele>305.7</ele>
        <time>2023-03-29T12:20:20Z</time>
      </trkpt>
      <trkpt lat="45.57569" lon="5.57561">
        <ele>305.6</ele>
        <time>2023-03-29T12:20:22Z</time>
      </trkpt>
      <trkpt lat="45.57572" lon="5.57552">
        <ele>306.3</ele>
        <time>2023-03-29T12:20:25Z</time>
      </trkpt>
      <trkpt lat="45.57573" lon="5.57545">
        <ele>306.3</ele>
        <time>2023-03-29T12:20:27Z</time>
      </trkpt>
      <trkpt lat="45.57575" lon="5.57539">
        <ele>306.3</ele>
        <time>2023-03-29T12:20:29Z</time>
      </trkpt>
      <trkpt lat="45.57578" lon="5.5753">
        <ele>307</ele>
        <time>2023-03-29T12:20:32Z</time>
      </trkpt>
      <trkpt lat="45.57581" lon="5.57523">
        <ele>308</ele>
        <time>2023-03-29T12:20:35Z</time>
      </trkpt>
      <trkpt lat="45.57584" lon="5.57515">
        <ele>308.9</ele>
        <time>2023-03-29T12:20:37Z</time>
      </trkpt>
      <trkpt lat="45.57586" lon="5.57508">
        <ele>308.8</ele>
        <time>2023-03-29T12:20:40Z</time>
      </trkpt>
      <trkpt lat="45.57587" lon="5.57499">
        <ele>308.7</ele>
        <time>2023-03-29T12:20:43Z</time>
      </trkpt>
      <trkpt lat="45.57588" lon="5.5749">
        <ele>308.7</ele>
        <time>2023-03-29T12:20:45Z</time>
      </trkpt>
      <trkpt lat="45.57585" lon="5.57481">
        <ele>308.7</ele>
        <time>2023-03-29T12:20:48Z</time>
      </trkpt>
      <trkpt lat="45.57579" lon="5.57477">
        <ele>307.1</ele>
        <time>2023-03-29T12:20:50Z</time>
      </trkpt>
      <trkpt lat="45.57577" lon="5.57469">
        <ele>307.3</ele>
        <time>2023-03-29T12:20:53Z</time>
      </trkpt>
      <trkpt lat="45.57576" lon="5.5746">
        <ele>307.4</ele>
        <time>2023-03-29T12:20:57Z</time>
      </trkpt>
      <trkpt lat="45.57571" lon="5.57454">
        <ele>307.1</ele>
        <time>2023-03-29T12:20:59Z</time>
      </trkpt>
      <trkpt lat="45.5757" lon="5.57448">
        <ele>307.4</ele>
        <time>2023-03-29T12:21:01Z</time>
      </trkpt>
      <trkpt lat="45.57571" lon="5.5744">
        <ele>307.8</ele>
        <time>2023-03-29T12:21:03Z</time>
      </trkpt>
      <trkpt lat="45.57574" lon="5.57431">
        <ele>308.3</ele>
        <time>2023-03-29T12:21:06Z</time>
      </trkpt>
      <trkpt lat="45.57575" lon="5.57425">
        <ele>308.5</ele>
        <time>2023-03-29T12:21:07Z</time>
      </trkpt>
      <trkpt lat="45.5758" lon="5.57414">
        <ele>309.3</ele>
        <time>2023-03-29T12:21:09Z</time>
      </trkpt>
      <trkpt lat="45.57582" lon="5.57406">
        <ele>309.5</ele>
        <time>2023-03-29T12:21:11Z</time>
      </trkpt>
      <trkpt lat="45.57581" lon="5.57398">
        <ele>309.9</ele>
        <time>2023-03-29T12:21:14Z</time>
      </trkpt>
      <trkpt lat="45.5758" lon="5.5739">
        <ele>310.7</ele>
        <time>2023-03-29T12:21:16Z</time>
      </trkpt>
      <trkpt lat="45.57578" lon="5.57384">
        <ele>312.3</ele>
        <time>2023-03-29T12:21:18Z</time>
      </trkpt>
      <trkpt lat="45.57576" lon="5.57374">
        <ele>313.5</ele>
        <time>2023-03-29T12:21:21Z</time>
      </trkpt>
      <trkpt lat="45.57576" lon="5.57366">
        <ele>314.8</ele>
        <time>2023-03-29T12:21:23Z</time>
      </trkpt>
      <trkpt lat="45.57578" lon="5.57356">
        <ele>316.2</ele>
        <time>2023-03-29T12:21:26Z</time>
      </trkpt>
      <trkpt lat="45.57579" lon="5.57349">
        <ele>317.5</ele>
        <time>2023-03-29T12:21:28Z</time>
      </trkpt>
      <trkpt lat="45.5758" lon="5.57343">
        <ele>318.4</ele>
        <time>2023-03-29T12:21:31Z</time>
      </trkpt>
      <trkpt lat="45.57581" lon="5.57332">
        <ele>320.2</ele>
        <time>2023-03-29T12:21:33Z</time>
      </trkpt>
      <trkpt lat="45.57583" lon="5.57325">
        <ele>320.8</ele>
        <time>2023-03-29T12:21:35Z</time>
      </trkpt>
      <trkpt lat="45.57587" lon="5.57317">
        <ele>322</ele>
        <time>2023-03-29T12:21:38Z</time>
      </trkpt>
      <trkpt lat="45.57591" lon="5.5731">
        <ele>323.1</ele>
        <time>2023-03-29T12:21:40Z</time>
      </trkpt>
      <trkpt lat="45.57595" lon="5.57303">
        <ele>323.8</ele>
        <time>2023-03-29T12:21:42Z</time>
      </trkpt>
      <trkpt lat="45.57599" lon="5.57296">
        <ele>324.7</ele>
        <time>2023-03-29T12:21:44Z</time>
      </trkpt>
      <trkpt lat="45.57603" lon="5.5729">
        <ele>325.6</ele>
        <time>2023-03-29T12:21:46Z</time>
      </trkpt>
      <trkpt lat="45.57607" lon="5.57283">
        <ele>326.2</ele>
        <time>2023-03-29T12:21:49Z</time>
      </trkpt>
      <trkpt lat="45.57609" lon="5.57277">
        <ele>326.7</ele>
        <time>2023-03-29T12:21:51Z</time>
      </trkpt>
      <trkpt lat="45.57612" lon="5.57271">
        <ele>327.2</ele>
        <time>2023-03-29T12:21:53Z</time>
      </trkpt>
      <trkpt lat="45.57614" lon="5.57265">
        <ele>327.7</ele>
        <time>2023-03-29T12:21:55Z</time>
      </trkpt>
      <trkpt lat="45.57618" lon="5.57259">
        <ele>327.9</ele>
        <time>2023-03-29T12:21:58Z</time>
      </trkpt>
      <trkpt lat="45.57621" lon="5.57252">
        <ele>328.3</ele>
        <time>2023-03-29T12:22:00Z</time>
      </trkpt>
      <trkpt lat="45.57625" lon="5.57244">
        <ele>328.7</ele>
        <time>2023-03-29T12:22:02Z</time>
      </trkpt>
      <trkpt lat="45.57627" lon="5.57237">
        <ele>329</ele>
        <time>2023-03-29T12:22:04Z</time>
      </trkpt>
      <trkpt lat="45.5763" lon="5.5723">
        <ele>329</ele>
        <time>2023-03-29T12:22:06Z</time>
      </trkpt>
      <trkpt lat="45.57632" lon="5.57222">
        <ele>329.2</ele>
        <time>2023-03-29T12:22:08Z</time>
      </trkpt>
      <trkpt lat="45.57634" lon="5.57214">
        <ele>329.1</ele>
        <time>2023-03-29T12:22:11Z</time>
      </trkpt>
      <trkpt lat="45.57636" lon="5.57206">
        <ele>329.2</ele>
        <time>2023-03-29T12:22:13Z</time>
      </trkpt>
      <trkpt lat="45.57637" lon="5.57198">
        <ele>329.1</ele>
        <time>2023-03-29T12:22:16Z</time>
      </trkpt>
      <trkpt lat="45.57637" lon="5.57191">
        <ele>328.9</ele>
        <time>2023-03-29T12:22:19Z</time>
      </trkpt>
      <trkpt lat="45.57635" lon="5.57183">
        <ele>328.6</ele>
        <time>2023-03-29T12:22:23Z</time>
      </trkpt>
      <trkpt lat="45.57635" lon="5.57175">
        <ele>328.3</ele>
        <time>2023-03-29T12:22:26Z</time>
      </trkpt>
      <trkpt lat="45.57636" lon="5.57167">
        <ele>328.3</ele>
        <time>2023-03-29T12:22:31Z</time>
      </trkpt>
      <trkpt lat="45.57636" lon="5.57159">
        <ele>328</ele>
        <time>2023-03-29T12:22:34Z</time>
      </trkpt>
      <trkpt lat="45.57637" lon="5.57149">
        <ele>327.8</ele>
        <time>2023-03-29T12:22:38Z</time>
      </trkpt>
      <trkpt lat="45.57638" lon="5.5714">
        <ele>327.6</ele>
        <time>2023-03-29T12:22:40Z</time>
      </trkpt>
      <trkpt lat="45.57638" lon="5.57132">
        <ele>327.4</ele>
        <time>2023-03-29T12:22:43Z</time>
      </trkpt>
      <trkpt lat="45.57637" lon="5.57124">
        <ele>327.3</ele>
        <time>2023-03-29T12:22:46Z</time>
      </trkpt>
      <trkpt lat="45.57637" lon="5.57116">
        <ele>327.3</ele>
        <time>2023-03-29T12:22:48Z</time>
      </trkpt>
      <trkpt lat="45.57636" lon="5.57108">
        <ele>327.3</ele>
        <time>2023-03-29T12:22:51Z</time>
      </trkpt>
      <trkpt lat="45.57634" lon="5.57103">
        <ele>327.1</ele>
        <time>2023-03-29T12:22:54Z</time>
      </trkpt>
      <trkpt lat="45.57634" lon="5.57092">
        <ele>327.3</ele>
        <time>2023-03-29T12:22:58Z</time>
      </trkpt>
      <trkpt lat="45.57636" lon="5.57082">
        <ele>327.8</ele>
        <time>2023-03-29T12:23:00Z</time>
      </trkpt>
      <trkpt lat="45.57637" lon="5.57074">
        <ele>328</ele>
        <time>2023-03-29T12:23:02Z</time>
      </trkpt>
      <trkpt lat="45.5764" lon="5.57067">
        <ele>328.4</ele>
        <time>2023-03-29T12:23:04Z</time>
      </trkpt>
      <trkpt lat="45.57642" lon="5.57061">
        <ele>328.6</ele>
        <time>2023-03-29T12:23:06Z</time>
      </trkpt>
      <trkpt lat="45.57643" lon="5.57054">
        <ele>328.6</ele>
        <time>2023-03-29T12:23:09Z</time>
      </trkpt>
      <trkpt lat="45.57643" lon="5.57046">
        <ele>328.8</ele>
        <time>2023-03-29T12:23:14Z</time>
      </trkpt>
      <trkpt lat="45.57644" lon="5.57037">
        <ele>329.2</ele>
        <time>2023-03-29T12:23:18Z</time>
      </trkpt>
      <trkpt lat="45.57645" lon="5.5703">
        <ele>329.3</ele>
        <time>2023-03-29T12:23:22Z</time>
      </trkpt>
      <trkpt lat="45.57645" lon="5.57023">
        <ele>329.3</ele>
        <time>2023-03-29T12:23:25Z</time>
      </trkpt>
      <trkpt lat="45.57645" lon="5.57016">
        <ele>329.4</ele>
        <time>2023-03-29T12:23:29Z</time>
      </trkpt>
      <trkpt lat="45.57646" lon="5.57008">
        <ele>329.4</ele>
        <time>2023-03-29T12:23:34Z</time>
      </trkpt>
      <trkpt lat="45.57648" lon="5.57">
        <ele>329.5</ele>
        <time>2023-03-29T12:23:39Z</time>
      </trkpt>
      <trkpt lat="45.5765" lon="5.56994">
        <ele>329.9</ele>
        <time>2023-03-29T12:23:41Z</time>
      </trkpt>
      <trkpt lat="45.57651" lon="5.56985">
        <ele>329.9</ele>
        <time>2023-03-29T12:23:45Z</time>
      </trkpt>
      <trkpt lat="45.57653" lon="5.56977">
        <ele>330.2</ele>
        <time>2023-03-29T12:23:49Z</time>
      </trkpt>
      <trkpt lat="45.57657" lon="5.56971">
        <ele>330.4</ele>
        <time>2023-03-29T12:23:53Z</time>
      </trkpt>
      <trkpt lat="45.57659" lon="5.56962">
        <ele>330.3</ele>
        <time>2023-03-29T12:23:58Z</time>
      </trkpt>
      <trkpt lat="45.57661" lon="5.56955">
        <ele>330.6</ele>
        <time>2023-03-29T12:24:02Z</time>
      </trkpt>
      <trkpt lat="45.57661" lon="5.56948">
        <ele>330.9</ele>
        <time>2023-03-29T12:24:07Z</time>
      </trkpt>
      <trkpt lat="45.5766" lon="5.56941">
        <ele>331.4</ele>
        <time>2023-03-29T12:24:10Z</time>
      </trkpt>
      <trkpt lat="45.57659" lon="5.56935">
        <ele>331.5</ele>
        <time>2023-03-29T12:24:13Z</time>
      </trkpt>
      <trkpt lat="45.57659" lon="5.56927">
        <ele>331.6</ele>
        <time>2023-03-29T12:24:17Z</time>
      </trkpt>
      <trkpt lat="45.57659" lon="5.5692">
        <ele>331.8</ele>
        <time>2023-03-29T12:24:21Z</time>
      </trkpt>
      <trkpt lat="45.57658" lon="5.56912">
        <ele>331.9</ele>
        <time>2023-03-29T12:24:26Z</time>
      </trkpt>
      <trkpt lat="45.57656" lon="5.56905">
        <ele>331.8</ele>
        <time>2023-03-29T12:24:29Z</time>
      </trkpt>
      <trkpt lat="45.57656" lon="5.56898">
        <ele>331.9</ele>
        <time>2023-03-29T12:24:32Z</time>
      </trkpt>
      <trkpt lat="45.57655" lon="5.5689">
        <ele>332</ele>
        <time>2023-03-29T12:24:36Z</time>
      </trkpt>
      <trkpt lat="45.57655" lon="5.56882">
        <ele>332.2</ele>
        <time>2023-03-29T12:24:39Z</time>
      </trkpt>
      <trkpt lat="45.57655" lon="5.56874">
        <ele>332.2</ele>
        <time>2023-03-29T12:24:43Z</time>
      </trkpt>
      <trkpt lat="45.57657" lon="5.56866">
        <ele>332.4</ele>
        <time>2023-03-29T12:24:47Z</time>
      </trkpt>
      <trkpt lat="45.57658" lon="5.5686">
        <ele>332.7</ele>
        <time>2023-03-29T12:24:50Z</time>
      </trkpt>
      <trkpt lat="45.57663" lon="5.56857">
        <ele>333.1</ele>
        <time>2023-03-29T12:24:56Z</time>
      </trkpt>
      <trkpt lat="45.5767" lon="5.5686">
        <ele>333.9</ele>
        <time>2023-03-29T12:24:59Z</time>
      </trkpt>
      <trkpt lat="45.57675" lon="5.5686">
        <ele>334.3</ele>
        <time>2023-03-29T12:25:01Z</time>
      </trkpt>
      <trkpt lat="45.5768" lon="5.56861">
        <ele>334.5</ele>
        <time>2023-03-29T12:25:03Z</time>
      </trkpt>
      <trkpt lat="45.57685" lon="5.56863">
        <ele>334.8</ele>
        <time>2023-03-29T12:25:06Z</time>
      </trkpt>
      <trkpt lat="45.5769" lon="5.56865">
        <ele>335.3</ele>
        <time>2023-03-29T12:25:09Z</time>
      </trkpt>
      <trkpt lat="45.57696" lon="5.56867">
        <ele>336.3</ele>
        <time>2023-03-29T12:25:12Z</time>
      </trkpt>
      <trkpt lat="45.57701" lon="5.56869">
        <ele>336.8</ele>
        <time>2023-03-29T12:25:15Z</time>
      </trkpt>
      <trkpt lat="45.57706" lon="5.56868">
        <ele>337.4</ele>
        <time>2023-03-29T12:25:18Z</time>
      </trkpt>
      <trkpt lat="45.57711" lon="5.5687">
        <ele>337.7</ele>
        <time>2023-03-29T12:25:21Z</time>
      </trkpt>
      <trkpt lat="45.57717" lon="5.56874">
        <ele>338.7</ele>
        <time>2023-03-29T12:25:25Z</time>
      </trkpt>
      <trkpt lat="45.57722" lon="5.56876">
        <ele>339.3</ele>
        <time>2023-03-29T12:25:27Z</time>
      </trkpt>
      <trkpt lat="45.57729" lon="5.56879">
        <ele>339.7</ele>
        <time>2023-03-29T12:25:31Z</time>
      </trkpt>
      <trkpt lat="45.57735" lon="5.56879">
        <ele>340.5</ele>
        <time>2023-03-29T12:25:34Z</time>
      </trkpt>
      <trkpt lat="45.57741" lon="5.56879">
        <ele>340.8</ele>
        <time>2023-03-29T12:25:39Z</time>
      </trkpt>
      <trkpt lat="45.57747" lon="5.56881">
        <ele>341.3</ele>
        <time>2023-03-29T12:25:44Z</time>
      </trkpt>
      <trkpt lat="45.57753" lon="5.56887">
        <ele>341.5</ele>
        <time>2023-03-29T12:25:47Z</time>
      </trkpt>
      <trkpt lat="45.57757" lon="5.56892">
        <ele>341.5</ele>
        <time>2023-03-29T12:25:50Z</time>
      </trkpt>
      <trkpt lat="45.57765" lon="5.56894">
        <ele>341.6</ele>
        <time>2023-03-29T12:25:54Z</time>
      </trkpt>
      <trkpt lat="45.57772" lon="5.56895">
        <ele>341.6</ele>
        <time>2023-03-29T12:25:56Z</time>
      </trkpt>
      <trkpt lat="45.57778" lon="5.56895">
        <ele>341.8</ele>
        <time>2023-03-29T12:25:59Z</time>
      </trkpt>
      <trkpt lat="45.57785" lon="5.56898">
        <ele>341.7</ele>
        <time>2023-03-29T12:26:02Z</time>
      </trkpt>
      <trkpt lat="45.57792" lon="5.56904">
        <ele>341.6</ele>
        <time>2023-03-29T12:26:05Z</time>
      </trkpt>
      <trkpt lat="45.57798" lon="5.56905">
        <ele>341.7</ele>
        <time>2023-03-29T12:26:07Z</time>
      </trkpt>
      <trkpt lat="45.57806" lon="5.56905">
        <ele>341.9</ele>
        <time>2023-03-29T12:26:10Z</time>
      </trkpt>
      <trkpt lat="45.57812" lon="5.56906">
        <ele>342.1</ele>
        <time>2023-03-29T12:26:12Z</time>
      </trkpt>
      <trkpt lat="45.57821" lon="5.56907">
        <ele>342.3</ele>
        <time>2023-03-29T12:26:15Z</time>
      </trkpt>
      <trkpt lat="45.57827" lon="5.56906">
        <ele>342.4</ele>
        <time>2023-03-29T12:26:18Z</time>
      </trkpt>
      <trkpt lat="45.57833" lon="5.56906">
        <ele>342.6</ele>
        <time>2023-03-29T12:26:21Z</time>
      </trkpt>
      <trkpt lat="45.57839" lon="5.56905">
        <ele>342.7</ele>
        <time>2023-03-29T12:26:23Z</time>
      </trkpt>
      <trkpt lat="45.57844" lon="5.56904">
        <ele>342.7</ele>
        <time>2023-03-29T12:26:25Z</time>
      </trkpt>
      <trkpt lat="45.57849" lon="5.56903">
        <ele>342.8</ele>
        <time>2023-03-29T12:26:27Z</time>
      </trkpt>
      <trkpt lat="45.57854" lon="5.56902">
        <ele>342.7</ele>
        <time>2023-03-29T12:26:29Z</time>
      </trkpt>
      <trkpt lat="45.5786" lon="5.569">
        <ele>342.6</ele>
        <time>2023-03-29T12:26:31Z</time>
      </trkpt>
      <trkpt lat="45.57865" lon="5.56897">
        <ele>342.6</ele>
        <time>2023-03-29T12:26:33Z</time>
      </trkpt>
      <trkpt lat="45.57871" lon="5.56894">
        <ele>342.7</ele>
        <time>2023-03-29T12:26:35Z</time>
      </trkpt>
      <trkpt lat="45.57876" lon="5.56892">
        <ele>342.4</ele>
        <time>2023-03-29T12:26:37Z</time>
      </trkpt>
      <trkpt lat="45.57882" lon="5.56891">
        <ele>342.3</ele>
        <time>2023-03-29T12:26:39Z</time>
      </trkpt>
      <trkpt lat="45.57888" lon="5.56891">
        <ele>342.2</ele>
        <time>2023-03-29T12:26:41Z</time>
      </trkpt>
      <trkpt lat="45.57894" lon="5.56885">
        <ele>341.9</ele>
        <time>2023-03-29T12:26:43Z</time>
      </trkpt>
      <trkpt lat="45.57895" lon="5.56875">
        <ele>342.1</ele>
        <time>2023-03-29T12:26:46Z</time>
      </trkpt>
      <trkpt lat="45.57899" lon="5.56864">
        <ele>342.3</ele>
        <time>2023-03-29T12:26:48Z</time>
      </trkpt>
      <trkpt lat="45.57904" lon="5.56854">
        <ele>342.4</ele>
        <time>2023-03-29T12:26:50Z</time>
      </trkpt>
      <trkpt lat="45.57908" lon="5.5685">
        <ele>342.3</ele>
        <time>2023-03-29T12:26:52Z</time>
      </trkpt>
      <trkpt lat="45.57915" lon="5.56844">
        <ele>341.7</ele>
        <time>2023-03-29T12:26:54Z</time>
      </trkpt>
      <trkpt lat="45.57924" lon="5.5684">
        <ele>341.4</ele>
        <time>2023-03-29T12:26:57Z</time>
      </trkpt>
      <trkpt lat="45.57928" lon="5.56836">
        <ele>341.4</ele>
        <time>2023-03-29T12:26:57Z</time>
      </trkpt>
      <trkpt lat="45.57932" lon="5.56831">
        <ele>341</ele>
        <time>2023-03-29T12:26:58Z</time>
      </trkpt>
      <trkpt lat="45.57937" lon="5.56826">
        <ele>341</ele>
        <time>2023-03-29T12:26:59Z</time>
      </trkpt>
      <trkpt lat="45.57941" lon="5.5682">
        <ele>340.9</ele>
        <time>2023-03-29T12:27:00Z</time>
      </trkpt>
      <trkpt lat="45.57946" lon="5.56815">
        <ele>340.7</ele>
        <time>2023-03-29T12:27:01Z</time>
      </trkpt>
      <trkpt lat="45.5795" lon="5.56809">
        <ele>340.9</ele>
        <time>2023-03-29T12:27:02Z</time>
      </trkpt>
      <trkpt lat="45.57955" lon="5.56804">
        <ele>340.7</ele>
        <time>2023-03-29T12:27:03Z</time>
      </trkpt>
      <trkpt lat="45.57959" lon="5.56799">
        <ele>340.6</ele>
        <time>2023-03-29T12:27:04Z</time>
      </trkpt>
      <trkpt lat="45.57964" lon="5.56793">
        <ele>340.4</ele>
        <time>2023-03-29T12:27:05Z</time>
      </trkpt>
      <trkpt lat="45.57969" lon="5.56788">
        <ele>340.2</ele>
        <time>2023-03-29T12:27:06Z</time>
      </trkpt>
      <trkpt lat="45.57974" lon="5.56782">
        <ele>340.3</ele>
        <time>2023-03-29T12:27:07Z</time>
      </trkpt>
      <trkpt lat="45.57979" lon="5.56776">
        <ele>340</ele>
        <time>2023-03-29T12:27:08Z</time>
      </trkpt>
      <trkpt lat="45.57984" lon="5.5677">
        <ele>340.1</ele>
        <time>2023-03-29T12:27:09Z</time>
      </trkpt>
      <trkpt lat="45.57989" lon="5.56763">
        <ele>340</ele>
        <time>2023-03-29T12:27:10Z</time>
      </trkpt>
      <trkpt lat="45.57994" lon="5.56758">
        <ele>339.9</ele>
        <time>2023-03-29T12:27:11Z</time>
      </trkpt>
      <trkpt lat="45.58" lon="5.56752">
        <ele>339.7</ele>
        <time>2023-03-29T12:27:12Z</time>
      </trkpt>
      <trkpt lat="45.58006" lon="5.56747">
        <ele>339.4</ele>
        <time>2023-03-29T12:27:13Z</time>
      </trkpt>
      <trkpt lat="45.58012" lon="5.56743">
        <ele>339.2</ele>
        <time>2023-03-29T12:27:14Z</time>
      </trkpt>
      <trkpt lat="45.58018" lon="5.56738">
        <ele>338.9</ele>
        <time>2023-03-29T12:27:15Z</time>
      </trkpt>
      <trkpt lat="45.58025" lon="5.56734">
        <ele>338.8</ele>
        <time>2023-03-29T12:27:16Z</time>
      </trkpt>
      <trkpt lat="45.58031" lon="5.56731">
        <ele>338.7</ele>
        <time>2023-03-29T12:27:17Z</time>
      </trkpt>
      <trkpt lat="45.58037" lon="5.56727">
        <ele>338.4</ele>
        <time>2023-03-29T12:27:18Z</time>
      </trkpt>
      <trkpt lat="45.58043" lon="5.56723">
        <ele>338.3</ele>
        <time>2023-03-29T12:27:19Z</time>
      </trkpt>
      <trkpt lat="45.58049" lon="5.56718">
        <ele>337.9</ele>
        <time>2023-03-29T12:27:20Z</time>
      </trkpt>
      <trkpt lat="45.58055" lon="5.56714">
        <ele>337.9</ele>
        <time>2023-03-29T12:27:21Z</time>
      </trkpt>
      <trkpt lat="45.58061" lon="5.5671">
        <ele>337.6</ele>
        <time>2023-03-29T12:27:22Z</time>
      </trkpt>
      <trkpt lat="45.58068" lon="5.56706">
        <ele>337.6</ele>
        <time>2023-03-29T12:27:23Z</time>
      </trkpt>
      <trkpt lat="45.58074" lon="5.56703">
        <ele>337</ele>
        <time>2023-03-29T12:27:24Z</time>
      </trkpt>
      <trkpt lat="45.58081" lon="5.567">
        <ele>337</ele>
        <time>2023-03-29T12:27:25Z</time>
      </trkpt>
      <trkpt lat="45.58088" lon="5.56697">
        <ele>336.8</ele>
        <time>2023-03-29T12:27:26Z</time>
      </trkpt>
      <trkpt lat="45.58094" lon="5.56694">
        <ele>336.8</ele>
        <time>2023-03-29T12:27:27Z</time>
      </trkpt>
      <trkpt lat="45.581" lon="5.56691">
        <ele>336.1</ele>
        <time>2023-03-29T12:27:28Z</time>
      </trkpt>
      <trkpt lat="45.58106" lon="5.56688">
        <ele>336.2</ele>
        <time>2023-03-29T12:27:29Z</time>
      </trkpt>
      <trkpt lat="45.58112" lon="5.56687">
        <ele>335.9</ele>
        <time>2023-03-29T12:27:30Z</time>
      </trkpt>
      <trkpt lat="45.58118" lon="5.56685">
        <ele>336</ele>
        <time>2023-03-29T12:27:31Z</time>
      </trkpt>
      <trkpt lat="45.58124" lon="5.56684">
        <ele>336.3</ele>
        <time>2023-03-29T12:27:32Z</time>
      </trkpt>
      <trkpt lat="45.58129" lon="5.56685">
        <ele>336.7</ele>
        <time>2023-03-29T12:27:33Z</time>
      </trkpt>
      <trkpt lat="45.58134" lon="5.56686">
        <ele>336.6</ele>
        <time>2023-03-29T12:27:34Z</time>
      </trkpt>
      <trkpt lat="45.58138" lon="5.56689">
        <ele>336.8</ele>
        <time>2023-03-29T12:27:35Z</time>
      </trkpt>
      <trkpt lat="45.58142" lon="5.56693">
        <ele>337.1</ele>
        <time>2023-03-29T12:27:36Z</time>
      </trkpt>
      <trkpt lat="45.58147" lon="5.567">
        <ele>337</ele>
        <time>2023-03-29T12:27:38Z</time>
      </trkpt>
      <trkpt lat="45.5815" lon="5.56706">
        <ele>336.9</ele>
        <time>2023-03-29T12:27:39Z</time>
      </trkpt>
      <trkpt lat="45.58152" lon="5.56712">
        <ele>337.1</ele>
        <time>2023-03-29T12:27:40Z</time>
      </trkpt>
      <trkpt lat="45.58153" lon="5.56725">
        <ele>336.8</ele>
        <time>2023-03-29T12:27:42Z</time>
      </trkpt>
      <trkpt lat="45.58154" lon="5.56736">
        <ele>336.6</ele>
        <time>2023-03-29T12:27:44Z</time>
      </trkpt>
      <trkpt lat="45.58156" lon="5.56743">
        <ele>337.1</ele>
        <time>2023-03-29T12:27:45Z</time>
      </trkpt>
      <trkpt lat="45.58158" lon="5.56749">
        <ele>337.3</ele>
        <time>2023-03-29T12:27:46Z</time>
      </trkpt>
      <trkpt lat="45.58163" lon="5.56758">
        <ele>337.9</ele>
        <time>2023-03-29T12:27:48Z</time>
      </trkpt>
      <trkpt lat="45.58168" lon="5.56768">
        <ele>338.5</ele>
        <time>2023-03-29T12:27:51Z</time>
      </trkpt>
      <trkpt lat="45.58174" lon="5.56776">
        <ele>338.7</ele>
        <time>2023-03-29T12:27:53Z</time>
      </trkpt>
      <trkpt lat="45.58178" lon="5.56782">
        <ele>338.8</ele>
        <time>2023-03-29T12:27:54Z</time>
      </trkpt>
      <trkpt lat="45.58184" lon="5.5679">
        <ele>338.7</ele>
        <time>2023-03-29T12:27:56Z</time>
      </trkpt>
      <trkpt lat="45.5819" lon="5.56798">
        <ele>338.3</ele>
        <time>2023-03-29T12:27:58Z</time>
      </trkpt>
      <trkpt lat="45.58197" lon="5.56805">
        <ele>338</ele>
        <time>2023-03-29T12:28:00Z</time>
      </trkpt>
      <trkpt lat="45.58204" lon="5.56811">
        <ele>337.5</ele>
        <time>2023-03-29T12:28:02Z</time>
      </trkpt>
      <trkpt lat="45.58208" lon="5.56814">
        <ele>337.3</ele>
        <time>2023-03-29T12:28:03Z</time>
      </trkpt>
      <trkpt lat="45.58213" lon="5.56816">
        <ele>337.6</ele>
        <time>2023-03-29T12:28:04Z</time>
      </trkpt>
      <trkpt lat="45.58217" lon="5.56819">
        <ele>337.1</ele>
        <time>2023-03-29T12:28:05Z</time>
      </trkpt>
      <trkpt lat="45.58224" lon="5.5682">
        <ele>337.6</ele>
        <time>2023-03-29T12:28:07Z</time>
      </trkpt>
      <trkpt lat="45.58232" lon="5.56821">
        <ele>337.5</ele>
        <time>2023-03-29T12:28:08Z</time>
      </trkpt>
      <trkpt lat="45.58238" lon="5.56822">
        <ele>337.2</ele>
        <time>2023-03-29T12:28:09Z</time>
      </trkpt>
      <trkpt lat="45.58243" lon="5.56822">
        <ele>337</ele>
        <time>2023-03-29T12:28:10Z</time>
      </trkpt>
      <trkpt lat="45.58249" lon="5.56823">
        <ele>336.8</ele>
        <time>2023-03-29T12:28:11Z</time>
      </trkpt>
      <trkpt lat="45.58253" lon="5.56824">
        <ele>336.7</ele>
        <time>2023-03-29T12:28:12Z</time>
      </trkpt>
      <trkpt lat="45.58265" lon="5.56821">
        <ele>336.1</ele>
        <time>2023-03-29T12:28:14Z</time>
      </trkpt>
      <trkpt lat="45.58272" lon="5.56819">
        <ele>335.6</ele>
        <time>2023-03-29T12:28:15Z</time>
      </trkpt>
      <trkpt lat="45.58279" lon="5.56818">
        <ele>335.5</ele>
        <time>2023-03-29T12:28:16Z</time>
      </trkpt>
      <trkpt lat="45.58285" lon="5.56815">
        <ele>335.1</ele>
        <time>2023-03-29T12:28:17Z</time>
      </trkpt>
      <trkpt lat="45.58292" lon="5.56813">
        <ele>334.8</ele>
        <time>2023-03-29T12:28:18Z</time>
      </trkpt>
      <trkpt lat="45.58298" lon="5.56811">
        <ele>334.8</ele>
        <time>2023-03-29T12:28:19Z</time>
      </trkpt>
      <trkpt lat="45.58305" lon="5.56809">
        <ele>334.6</ele>
        <time>2023-03-29T12:28:20Z</time>
      </trkpt>
      <trkpt lat="45.58312" lon="5.56807">
        <ele>334.5</ele>
        <time>2023-03-29T12:28:21Z</time>
      </trkpt>
      <trkpt lat="45.58319" lon="5.56806">
        <ele>334.2</ele>
        <time>2023-03-29T12:28:22Z</time>
      </trkpt>
      <trkpt lat="45.58325" lon="5.56805">
        <ele>334.2</ele>
        <time>2023-03-29T12:28:23Z</time>
      </trkpt>
      <trkpt lat="45.58332" lon="5.56803">
        <ele>334.1</ele>
        <time>2023-03-29T12:28:24Z</time>
      </trkpt>
      <trkpt lat="45.58339" lon="5.56802">
        <ele>334.1</ele>
        <time>2023-03-29T12:28:25Z</time>
      </trkpt>
      <trkpt lat="45.58345" lon="5.56802">
        <ele>334</ele>
        <time>2023-03-29T12:28:26Z</time>
      </trkpt>
      <trkpt lat="45.58353" lon="5.56802">
        <ele>333.8</ele>
        <time>2023-03-29T12:28:27Z</time>
      </trkpt>
      <trkpt lat="45.58361" lon="5.56802">
        <ele>333.2</ele>
        <time>2023-03-29T12:28:28Z</time>
      </trkpt>
      <trkpt lat="45.58369" lon="5.56803">
        <ele>332.9</ele>
        <time>2023-03-29T12:28:29Z</time>
      </trkpt>
      <trkpt lat="45.58376" lon="5.56804">
        <ele>332.4</ele>
        <time>2023-03-29T12:28:30Z</time>
      </trkpt>
      <trkpt lat="45.58384" lon="5.56806">
        <ele>331.5</ele>
        <time>2023-03-29T12:28:31Z</time>
      </trkpt>
      <trkpt lat="45.5839" lon="5.56808">
        <ele>331.4</ele>
        <time>2023-03-29T12:28:32Z</time>
      </trkpt>
      <trkpt lat="45.58397" lon="5.56809">
        <ele>331</ele>
        <time>2023-03-29T12:28:33Z</time>
      </trkpt>
      <trkpt lat="45.58404" lon="5.56809">
        <ele>330.6</ele>
        <time>2023-03-29T12:28:34Z</time>
      </trkpt>
      <trkpt lat="45.58411" lon="5.56808">
        <ele>330.5</ele>
        <time>2023-03-29T12:28:35Z</time>
      </trkpt>
      <trkpt lat="45.58418" lon="5.56806">
        <ele>330.1</ele>
        <time>2023-03-29T12:28:36Z</time>
      </trkpt>
      <trkpt lat="45.58425" lon="5.56802">
        <ele>330</ele>
        <time>2023-03-29T12:28:37Z</time>
      </trkpt>
      <trkpt lat="45.58431" lon="5.56798">
        <ele>329.4</ele>
        <time>2023-03-29T12:28:38Z</time>
      </trkpt>
      <trkpt lat="45.58437" lon="5.56792">
        <ele>329.4</ele>
        <time>2023-03-29T12:28:39Z</time>
      </trkpt>
      <trkpt lat="45.58442" lon="5.56787">
        <ele>329.1</ele>
        <time>2023-03-29T12:28:40Z</time>
      </trkpt>
      <trkpt lat="45.58448" lon="5.56783">
        <ele>328.3</ele>
        <time>2023-03-29T12:28:41Z</time>
      </trkpt>
      <trkpt lat="45.58453" lon="5.56778">
        <ele>328.2</ele>
        <time>2023-03-29T12:28:42Z</time>
      </trkpt>
      <trkpt lat="45.58458" lon="5.56774">
        <ele>328.3</ele>
        <time>2023-03-29T12:28:43Z</time>
      </trkpt>
      <trkpt lat="45.58464" lon="5.5677">
        <ele>328</ele>
        <time>2023-03-29T12:28:44Z</time>
      </trkpt>
      <trkpt lat="45.5847" lon="5.56766">
        <ele>328</ele>
        <time>2023-03-29T12:28:45Z</time>
      </trkpt>
      <trkpt lat="45.58478" lon="5.56762">
        <ele>327.3</ele>
        <time>2023-03-29T12:28:46Z</time>
      </trkpt>
      <trkpt lat="45.58486" lon="5.56758">
        <ele>325.6</ele>
        <time>2023-03-29T12:28:47Z</time>
      </trkpt>
      <trkpt lat="45.58494" lon="5.56753">
        <ele>325.2</ele>
        <time>2023-03-29T12:28:48Z</time>
      </trkpt>
      <trkpt lat="45.58502" lon="5.56749">
        <ele>325.1</ele>
        <time>2023-03-29T12:28:49Z</time>
      </trkpt>
      <trkpt lat="45.58512" lon="5.56746">
        <ele>323.3</ele>
        <time>2023-03-29T12:28:50Z</time>
      </trkpt>
      <trkpt lat="45.58521" lon="5.56744">
        <ele>322.9</ele>
        <time>2023-03-29T12:28:51Z</time>
      </trkpt>
      <trkpt lat="45.58531" lon="5.56743">
        <ele>322.3</ele>
        <time>2023-03-29T12:28:52Z</time>
      </trkpt>
      <trkpt lat="45.5854" lon="5.56744">
        <ele>321.9</ele>
        <time>2023-03-29T12:28:53Z</time>
      </trkpt>
      <trkpt lat="45.58551" lon="5.56746">
        <ele>320.8</ele>
        <time>2023-03-29T12:28:54Z</time>
      </trkpt>
      <trkpt lat="45.58562" lon="5.56748">
        <ele>319.9</ele>
        <time>2023-03-29T12:28:55Z</time>
      </trkpt>
      <trkpt lat="45.58574" lon="5.56749">
        <ele>318.6</ele>
        <time>2023-03-29T12:28:56Z</time>
      </trkpt>
      <trkpt lat="45.58586" lon="5.56751">
        <ele>317.9</ele>
        <time>2023-03-29T12:28:57Z</time>
      </trkpt>
      <trkpt lat="45.58597" lon="5.56752">
        <ele>316.7</ele>
        <time>2023-03-29T12:28:58Z</time>
      </trkpt>
      <trkpt lat="45.58608" lon="5.56754">
        <ele>316</ele>
        <time>2023-03-29T12:28:59Z</time>
      </trkpt>
      <trkpt lat="45.58619" lon="5.56756">
        <ele>315.2</ele>
        <time>2023-03-29T12:29:00Z</time>
      </trkpt>
      <trkpt lat="45.5863" lon="5.56759">
        <ele>314.6</ele>
        <time>2023-03-29T12:29:01Z</time>
      </trkpt>
      <trkpt lat="45.5864" lon="5.56763">
        <ele>313.9</ele>
        <time>2023-03-29T12:29:02Z</time>
      </trkpt>
      <trkpt lat="45.58648" lon="5.56766">
        <ele>313.7</ele>
        <time>2023-03-29T12:29:03Z</time>
      </trkpt>
      <trkpt lat="45.58655" lon="5.56768">
        <ele>313.3</ele>
        <time>2023-03-29T12:29:04Z</time>
      </trkpt>
      <trkpt lat="45.5866" lon="5.56769">
        <ele>313.1</ele>
        <time>2023-03-29T12:29:05Z</time>
      </trkpt>
      <trkpt lat="45.58665" lon="5.56769">
        <ele>312.8</ele>
        <time>2023-03-29T12:29:06Z</time>
      </trkpt>
      <trkpt lat="45.5867" lon="5.56768">
        <ele>312.1</ele>
        <time>2023-03-29T12:29:07Z</time>
      </trkpt>
      <trkpt lat="45.58677" lon="5.56763">
        <ele>311.7</ele>
        <time>2023-03-29T12:29:09Z</time>
      </trkpt>
      <trkpt lat="45.58678" lon="5.56754">
        <ele>311.7</ele>
        <time>2023-03-29T12:29:11Z</time>
      </trkpt>
      <trkpt lat="45.58676" lon="5.56742">
        <ele>311.9</ele>
        <time>2023-03-29T12:29:13Z</time>
      </trkpt>
      <trkpt lat="45.58676" lon="5.56728">
        <ele>312</ele>
        <time>2023-03-29T12:29:15Z</time>
      </trkpt>
      <trkpt lat="45.58677" lon="5.56722">
        <ele>311.9</ele>
        <time>2023-03-29T12:29:16Z</time>
      </trkpt>
      <trkpt lat="45.58679" lon="5.56714">
        <ele>311.7</ele>
        <time>2023-03-29T12:29:17Z</time>
      </trkpt>
      <trkpt lat="45.58681" lon="5.56706">
        <ele>311.6</ele>
        <time>2023-03-29T12:29:18Z</time>
      </trkpt>
      <trkpt lat="45.58683" lon="5.56697">
        <ele>310.9</ele>
        <time>2023-03-29T12:29:19Z</time>
      </trkpt>
      <trkpt lat="45.58686" lon="5.56689">
        <ele>310.6</ele>
        <time>2023-03-29T12:29:20Z</time>
      </trkpt>
      <trkpt lat="45.58687" lon="5.56682">
        <ele>310.2</ele>
        <time>2023-03-29T12:29:21Z</time>
      </trkpt>
      <trkpt lat="45.58689" lon="5.56674">
        <ele>310.1</ele>
        <time>2023-03-29T12:29:22Z</time>
      </trkpt>
      <trkpt lat="45.5869" lon="5.56666">
        <ele>310.2</ele>
        <time>2023-03-29T12:29:23Z</time>
      </trkpt>
      <trkpt lat="45.5869" lon="5.56657">
        <ele>310.2</ele>
        <time>2023-03-29T12:29:24Z</time>
      </trkpt>
      <trkpt lat="45.5869" lon="5.56649">
        <ele>310.3</ele>
        <time>2023-03-29T12:29:25Z</time>
      </trkpt>
      <trkpt lat="45.58691" lon="5.56642">
        <ele>310.5</ele>
        <time>2023-03-29T12:29:26Z</time>
      </trkpt>
      <trkpt lat="45.58692" lon="5.56634">
        <ele>310.1</ele>
        <time>2023-03-29T12:29:27Z</time>
      </trkpt>
      <trkpt lat="45.58693" lon="5.56627">
        <ele>310.4</ele>
        <time>2023-03-29T12:29:28Z</time>
      </trkpt>
      <trkpt lat="45.58694" lon="5.5662">
        <ele>310.8</ele>
        <time>2023-03-29T12:29:29Z</time>
      </trkpt>
      <trkpt lat="45.58694" lon="5.56612">
        <ele>311.1</ele>
        <time>2023-03-29T12:29:30Z</time>
      </trkpt>
      <trkpt lat="45.58695" lon="5.56605">
        <ele>311.4</ele>
        <time>2023-03-29T12:29:31Z</time>
      </trkpt>
      <trkpt lat="45.58695" lon="5.56598">
        <ele>311.7</ele>
        <time>2023-03-29T12:29:32Z</time>
      </trkpt>
      <trkpt lat="45.58695" lon="5.56591">
        <ele>311.8</ele>
        <time>2023-03-29T12:29:33Z</time>
      </trkpt>
      <trkpt lat="45.58695" lon="5.56585">
        <ele>312.1</ele>
        <time>2023-03-29T12:29:34Z</time>
      </trkpt>
      <trkpt lat="45.58695" lon="5.56578">
        <ele>312.3</ele>
        <time>2023-03-29T12:29:35Z</time>
      </trkpt>
      <trkpt lat="45.58695" lon="5.56568">
        <ele>312.9</ele>
        <time>2023-03-29T12:29:37Z</time>
      </trkpt>
      <trkpt lat="45.58696" lon="5.56556">
        <ele>312.7</ele>
        <time>2023-03-29T12:29:39Z</time>
      </trkpt>
      <trkpt lat="45.58698" lon="5.56545">
        <ele>312.9</ele>
        <time>2023-03-29T12:29:41Z</time>
      </trkpt>
      <trkpt lat="45.58699" lon="5.56533">
        <ele>312.9</ele>
        <time>2023-03-29T12:29:43Z</time>
      </trkpt>
      <trkpt lat="45.58699" lon="5.56527">
        <ele>312.9</ele>
        <time>2023-03-29T12:29:45Z</time>
      </trkpt>
      <trkpt lat="45.58699" lon="5.56513">
        <ele>313.1</ele>
        <time>2023-03-29T12:29:47Z</time>
      </trkpt>
      <trkpt lat="45.58699" lon="5.56505">
        <ele>313.4</ele>
        <time>2023-03-29T12:29:48Z</time>
      </trkpt>
      <trkpt lat="45.58698" lon="5.56497">
        <ele>313.7</ele>
        <time>2023-03-29T12:29:49Z</time>
      </trkpt>
      <trkpt lat="45.58698" lon="5.56491">
        <ele>314.1</ele>
        <time>2023-03-29T12:29:50Z</time>
      </trkpt>
      <trkpt lat="45.58698" lon="5.56478">
        <ele>314.5</ele>
        <time>2023-03-29T12:29:52Z</time>
      </trkpt>
      <trkpt lat="45.58698" lon="5.56465">
        <ele>315.1</ele>
        <time>2023-03-29T12:29:54Z</time>
      </trkpt>
      <trkpt lat="45.58698" lon="5.56465">
        <ele>315.1</ele>
        <time>2023-03-29T12:29:54Z</time>
      </trkpt>
      <trkpt lat="45.58718" lon="5.56319">
        <ele>316.5</ele>
        <time>2023-03-29T12:30:26Z</time>
      </trkpt>
      <trkpt lat="45.58719" lon="5.56311">
        <ele>316.8</ele>
        <time>2023-03-29T12:30:28Z</time>
      </trkpt>
      <trkpt lat="45.58719" lon="5.56304">
        <ele>317</ele>
        <time>2023-03-29T12:30:30Z</time>
      </trkpt>
      <trkpt lat="45.5872" lon="5.56297">
        <ele>317.7</ele>
        <time>2023-03-29T12:30:32Z</time>
      </trkpt>
      <trkpt lat="45.58721" lon="5.56285">
        <ele>318.3</ele>
        <time>2023-03-29T12:30:36Z</time>
      </trkpt>
      <trkpt lat="45.58723" lon="5.56276">
        <ele>317.7</ele>
        <time>2023-03-29T12:30:38Z</time>
      </trkpt>
      <trkpt lat="45.58724" lon="5.56266">
        <ele>318</ele>
        <time>2023-03-29T12:30:41Z</time>
      </trkpt>
      <trkpt lat="45.58725" lon="5.56258">
        <ele>318.5</ele>
        <time>2023-03-29T12:30:43Z</time>
      </trkpt>
      <trkpt lat="45.58726" lon="5.56251">
        <ele>318.3</ele>
        <time>2023-03-29T12:30:45Z</time>
      </trkpt>
      <trkpt lat="45.58728" lon="5.56245">
        <ele>318.4</ele>
        <time>2023-03-29T12:30:47Z</time>
      </trkpt>
      <trkpt lat="45.5873" lon="5.56237">
        <ele>318.1</ele>
        <time>2023-03-29T12:30:49Z</time>
      </trkpt>
      <trkpt lat="45.58731" lon="5.56228">
        <ele>318.5</ele>
        <time>2023-03-29T12:30:51Z</time>
      </trkpt>
      <trkpt lat="45.58731" lon="5.56221">
        <ele>318.8</ele>
        <time>2023-03-29T12:30:53Z</time>
      </trkpt>
      <trkpt lat="45.58731" lon="5.56212">
        <ele>319.2</ele>
        <time>2023-03-29T12:30:55Z</time>
      </trkpt>
      <trkpt lat="45.58732" lon="5.56205">
        <ele>319.3</ele>
        <time>2023-03-29T12:30:58Z</time>
      </trkpt>
      <trkpt lat="45.58733" lon="5.56195">
        <ele>319.9</ele>
        <time>2023-03-29T12:31:01Z</time>
      </trkpt>
      <trkpt lat="45.58732" lon="5.56186">
        <ele>320.4</ele>
        <time>2023-03-29T12:31:04Z</time>
      </trkpt>
      <trkpt lat="45.58733" lon="5.56178">
        <ele>320.7</ele>
        <time>2023-03-29T12:31:06Z</time>
      </trkpt>
      <trkpt lat="45.58734" lon="5.56168">
        <ele>320.5</ele>
        <time>2023-03-29T12:31:08Z</time>
      </trkpt>
      <trkpt lat="45.58736" lon="5.56158">
        <ele>320.7</ele>
        <time>2023-03-29T12:31:11Z</time>
      </trkpt>
      <trkpt lat="45.58738" lon="5.5615">
        <ele>321.1</ele>
        <time>2023-03-29T12:31:13Z</time>
      </trkpt>
      <trkpt lat="45.58738" lon="5.56139">
        <ele>321.6</ele>
        <time>2023-03-29T12:31:16Z</time>
      </trkpt>
      <trkpt lat="45.5874" lon="5.56128">
        <ele>321.3</ele>
        <time>2023-03-29T12:31:18Z</time>
      </trkpt>
      <trkpt lat="45.58743" lon="5.56117">
        <ele>321.2</ele>
        <time>2023-03-29T12:31:21Z</time>
      </trkpt>
      <trkpt lat="45.58745" lon="5.56106">
        <ele>321.5</ele>
        <time>2023-03-29T12:31:23Z</time>
      </trkpt>
      <trkpt lat="45.58746" lon="5.56099">
        <ele>322</ele>
        <time>2023-03-29T12:31:25Z</time>
      </trkpt>
      <trkpt lat="45.58749" lon="5.56089">
        <ele>321.7</ele>
        <time>2023-03-29T12:31:28Z</time>
      </trkpt>
      <trkpt lat="45.58749" lon="5.56081">
        <ele>322</ele>
        <time>2023-03-29T12:31:30Z</time>
      </trkpt>
      <trkpt lat="45.5875" lon="5.56071">
        <ele>322.7</ele>
        <time>2023-03-29T12:31:33Z</time>
      </trkpt>
      <trkpt lat="45.58751" lon="5.56062">
        <ele>323.4</ele>
        <time>2023-03-29T12:31:35Z</time>
      </trkpt>
      <trkpt lat="45.58752" lon="5.56054">
        <ele>322.6</ele>
        <time>2023-03-29T12:31:37Z</time>
      </trkpt>
      <trkpt lat="45.58754" lon="5.56045">
        <ele>323.1</ele>
        <time>2023-03-29T12:31:40Z</time>
      </trkpt>
      <trkpt lat="45.58756" lon="5.56037">
        <ele>322.4</ele>
        <time>2023-03-29T12:31:42Z</time>
      </trkpt>
      <trkpt lat="45.58761" lon="5.55986">
        <ele>324</ele>
        <time>2023-03-29T12:31:53Z</time>
      </trkpt>
      <trkpt lat="45.58763" lon="5.55941">
        <ele>325.6</ele>
        <time>2023-03-29T12:32:04Z</time>
      </trkpt>
      <trkpt lat="45.58761" lon="5.559">
        <ele>326.3</ele>
        <time>2023-03-29T12:32:15Z</time>
      </trkpt>
      <trkpt lat="45.58765" lon="5.55872">
        <ele>325.8</ele>
        <time>2023-03-29T12:32:21Z</time>
      </trkpt>
      <trkpt lat="45.58768" lon="5.55843">
        <ele>326.4</ele>
        <time>2023-03-29T12:32:27Z</time>
      </trkpt>
      <trkpt lat="45.5878" lon="5.55791">
        <ele>326</ele>
        <time>2023-03-29T12:32:39Z</time>
      </trkpt>
      <trkpt lat="45.58782" lon="5.55773">
        <ele>325.7</ele>
        <time>2023-03-29T12:32:44Z</time>
      </trkpt>
      <trkpt lat="45.58779" lon="5.55719">
        <ele>327.3</ele>
        <time>2023-03-29T12:32:57Z</time>
      </trkpt>
      <trkpt lat="45.58776" lon="5.55698">
        <ele>328.4</ele>
        <time>2023-03-29T12:33:01Z</time>
      </trkpt>
      <trkpt lat="45.58785" lon="5.55638">
        <ele>328.5</ele>
        <time>2023-03-29T12:33:12Z</time>
      </trkpt>
      <trkpt lat="45.58793" lon="5.55606">
        <ele>328.1</ele>
        <time>2023-03-29T12:33:18Z</time>
      </trkpt>
      <trkpt lat="45.58806" lon="5.55572">
        <ele>327.4</ele>
        <time>2023-03-29T12:33:24Z</time>
      </trkpt>
      <trkpt lat="45.58825" lon="5.55499">
        <ele>328.3</ele>
        <time>2023-03-29T12:33:40Z</time>
      </trkpt>
      <trkpt lat="45.58846" lon="5.55432">
        <ele>329.8</ele>
        <time>2023-03-29T12:33:51Z</time>
      </trkpt>
      <trkpt lat="45.58849" lon="5.55426">
        <ele>329.8</ele>
        <time>2023-03-29T12:33:52Z</time>
      </trkpt>
      <trkpt lat="45.58851" lon="5.5542">
        <ele>330.3</ele>
        <time>2023-03-29T12:33:53Z</time>
      </trkpt>
      <trkpt lat="45.58853" lon="5.5541">
        <ele>330.3</ele>
        <time>2023-03-29T12:33:55Z</time>
      </trkpt>
      <trkpt lat="45.58855" lon="5.55401">
        <ele>331</ele>
        <time>2023-03-29T12:33:57Z</time>
      </trkpt>
      <trkpt lat="45.58855" lon="5.55394">
        <ele>331.1</ele>
        <time>2023-03-29T12:33:59Z</time>
      </trkpt>
      <trkpt lat="45.58857" lon="5.55387">
        <ele>331.2</ele>
        <time>2023-03-29T12:34:00Z</time>
      </trkpt>
      <trkpt lat="45.58857" lon="5.5538">
        <ele>331.3</ele>
        <time>2023-03-29T12:34:01Z</time>
      </trkpt>
      <trkpt lat="45.58855" lon="5.55372">
        <ele>331.4</ele>
        <time>2023-03-29T12:34:02Z</time>
      </trkpt>
      <trkpt lat="45.58851" lon="5.55361">
        <ele>330.7</ele>
        <time>2023-03-29T12:34:05Z</time>
      </trkpt>
      <trkpt lat="45.58852" lon="5.55352">
        <ele>330.5</ele>
        <time>2023-03-29T12:34:07Z</time>
      </trkpt>
      <trkpt lat="45.58854" lon="5.5534">
        <ele>330.2</ele>
        <time>2023-03-29T12:34:10Z</time>
      </trkpt>
      <trkpt lat="45.58856" lon="5.55333">
        <ele>330.6</ele>
        <time>2023-03-29T12:34:12Z</time>
      </trkpt>
      <trkpt lat="45.58856" lon="5.55323">
        <ele>330.5</ele>
        <time>2023-03-29T12:34:14Z</time>
      </trkpt>
      <trkpt lat="45.58856" lon="5.55312">
        <ele>330.4</ele>
        <time>2023-03-29T12:34:16Z</time>
      </trkpt>
      <trkpt lat="45.58857" lon="5.55302">
        <ele>330.3</ele>
        <time>2023-03-29T12:34:18Z</time>
      </trkpt>
      <trkpt lat="45.58858" lon="5.55292">
        <ele>330.2</ele>
        <time>2023-03-29T12:34:20Z</time>
      </trkpt>
      <trkpt lat="45.58858" lon="5.55281">
        <ele>329.8</ele>
        <time>2023-03-29T12:34:22Z</time>
      </trkpt>
      <trkpt lat="45.58859" lon="5.5527">
        <ele>330.3</ele>
        <time>2023-03-29T12:34:24Z</time>
      </trkpt>
      <trkpt lat="45.5886" lon="5.55259">
        <ele>330.2</ele>
        <time>2023-03-29T12:34:26Z</time>
      </trkpt>
      <trkpt lat="45.58861" lon="5.55247">
        <ele>329.9</ele>
        <time>2023-03-29T12:34:28Z</time>
      </trkpt>
      <trkpt lat="45.58863" lon="5.55236">
        <ele>330.3</ele>
        <time>2023-03-29T12:34:30Z</time>
      </trkpt>
      <trkpt lat="45.58865" lon="5.55227">
        <ele>329.8</ele>
        <time>2023-03-29T12:34:32Z</time>
      </trkpt>
      <trkpt lat="45.58866" lon="5.55218">
        <ele>329.7</ele>
        <time>2023-03-29T12:34:34Z</time>
      </trkpt>
      <trkpt lat="45.58867" lon="5.55208">
        <ele>330</ele>
        <time>2023-03-29T12:34:36Z</time>
      </trkpt>
      <trkpt lat="45.58868" lon="5.55197">
        <ele>329.5</ele>
        <time>2023-03-29T12:34:38Z</time>
      </trkpt>
      <trkpt lat="45.58869" lon="5.55185">
        <ele>329.4</ele>
        <time>2023-03-29T12:34:40Z</time>
      </trkpt>
      <trkpt lat="45.58871" lon="5.55172">
        <ele>329.4</ele>
        <time>2023-03-29T12:34:42Z</time>
      </trkpt>
      <trkpt lat="45.58871" lon="5.55165">
        <ele>329.3</ele>
        <time>2023-03-29T12:34:43Z</time>
      </trkpt>
      <trkpt lat="45.58871" lon="5.55153">
        <ele>329.3</ele>
        <time>2023-03-29T12:34:45Z</time>
      </trkpt>
      <trkpt lat="45.58873" lon="5.55141">
        <ele>329.4</ele>
        <time>2023-03-29T12:34:47Z</time>
      </trkpt>
      <trkpt lat="45.58875" lon="5.55128">
        <ele>329.4</ele>
        <time>2023-03-29T12:34:49Z</time>
      </trkpt>
      <trkpt lat="45.58875" lon="5.55116">
        <ele>329.5</ele>
        <time>2023-03-29T12:34:51Z</time>
      </trkpt>
      <trkpt lat="45.58876" lon="5.55105">
        <ele>330.1</ele>
        <time>2023-03-29T12:34:53Z</time>
      </trkpt>
      <trkpt lat="45.58876" lon="5.55093">
        <ele>330.2</ele>
        <time>2023-03-29T12:34:55Z</time>
      </trkpt>
      <trkpt lat="45.58877" lon="5.55083">
        <ele>330.1</ele>
        <time>2023-03-29T12:34:57Z</time>
      </trkpt>
      <trkpt lat="45.58878" lon="5.55072">
        <ele>330.2</ele>
        <time>2023-03-29T12:34:59Z</time>
      </trkpt>
      <trkpt lat="45.58878" lon="5.55063">
        <ele>330.4</ele>
        <time>2023-03-29T12:35:01Z</time>
      </trkpt>
      <trkpt lat="45.58878" lon="5.55056">
        <ele>330.4</ele>
        <time>2023-03-29T12:35:02Z</time>
      </trkpt>
      <trkpt lat="45.58879" lon="5.55045">
        <ele>330.4</ele>
        <time>2023-03-29T12:35:04Z</time>
      </trkpt>
      <trkpt lat="45.58879" lon="5.55036">
        <ele>330.4</ele>
        <time>2023-03-29T12:35:06Z</time>
      </trkpt>
      <trkpt lat="45.5888" lon="5.55025">
        <ele>330.2</ele>
        <time>2023-03-29T12:35:08Z</time>
      </trkpt>
      <trkpt lat="45.58881" lon="5.55014">
        <ele>330</ele>
        <time>2023-03-29T12:35:10Z</time>
      </trkpt>
      <trkpt lat="45.58882" lon="5.55004">
        <ele>330</ele>
        <time>2023-03-29T12:35:12Z</time>
      </trkpt>
      <trkpt lat="45.58882" lon="5.54994">
        <ele>329.8</ele>
        <time>2023-03-29T12:35:14Z</time>
      </trkpt>
      <trkpt lat="45.58882" lon="5.54979">
        <ele>329.7</ele>
        <time>2023-03-29T12:35:17Z</time>
      </trkpt>
      <trkpt lat="45.58882" lon="5.54966">
        <ele>329.4</ele>
        <time>2023-03-29T12:35:19Z</time>
      </trkpt>
      <trkpt lat="45.58882" lon="5.54954">
        <ele>329.2</ele>
        <time>2023-03-29T12:35:21Z</time>
      </trkpt>
      <trkpt lat="45.58882" lon="5.54943">
        <ele>329.1</ele>
        <time>2023-03-29T12:35:23Z</time>
      </trkpt>
      <trkpt lat="45.58884" lon="5.54936">
        <ele>328.9</ele>
        <time>2023-03-29T12:35:25Z</time>
      </trkpt>
      <trkpt lat="45.58886" lon="5.54927">
        <ele>329.1</ele>
        <time>2023-03-29T12:35:26Z</time>
      </trkpt>
      <trkpt lat="45.58886" lon="5.54915">
        <ele>328.9</ele>
        <time>2023-03-29T12:35:29Z</time>
      </trkpt>
      <trkpt lat="45.58882" lon="5.54905">
        <ele>328.3</ele>
        <time>2023-03-29T12:35:30Z</time>
      </trkpt>
      <trkpt lat="45.58876" lon="5.54897">
        <ele>329</ele>
        <time>2023-03-29T12:35:31Z</time>
      </trkpt>
      <trkpt lat="45.58872" lon="5.54889">
        <ele>329.2</ele>
        <time>2023-03-29T12:35:32Z</time>
      </trkpt>
      <trkpt lat="45.58867" lon="5.54878">
        <ele>329.4</ele>
        <time>2023-03-29T12:35:34Z</time>
      </trkpt>
      <trkpt lat="45.58863" lon="5.54868">
        <ele>329.5</ele>
        <time>2023-03-29T12:35:36Z</time>
      </trkpt>
      <trkpt lat="45.58867" lon="5.54854">
        <ele>329.1</ele>
        <time>2023-03-29T12:35:38Z</time>
      </trkpt>
      <trkpt lat="45.58869" lon="5.54846">
        <ele>329</ele>
        <time>2023-03-29T12:35:39Z</time>
      </trkpt>
      <trkpt lat="45.58871" lon="5.54838">
        <ele>329</ele>
        <time>2023-03-29T12:35:40Z</time>
      </trkpt>
      <trkpt lat="45.58875" lon="5.54832">
        <ele>328.6</ele>
        <time>2023-03-29T12:35:41Z</time>
      </trkpt>
      <trkpt lat="45.58876" lon="5.54826">
        <ele>328.2</ele>
        <time>2023-03-29T12:35:42Z</time>
      </trkpt>
      <trkpt lat="45.58879" lon="5.54818">
        <ele>328.2</ele>
        <time>2023-03-29T12:35:43Z</time>
      </trkpt>
      <trkpt lat="45.5888" lon="5.54809">
        <ele>327.8</ele>
        <time>2023-03-29T12:35:44Z</time>
      </trkpt>
      <trkpt lat="45.58882" lon="5.54801">
        <ele>327.7</ele>
        <time>2023-03-29T12:35:45Z</time>
      </trkpt>
      <trkpt lat="45.58884" lon="5.54794">
        <ele>327.5</ele>
        <time>2023-03-29T12:35:46Z</time>
      </trkpt>
      <trkpt lat="45.58887" lon="5.54787">
        <ele>327.1</ele>
        <time>2023-03-29T12:35:47Z</time>
      </trkpt>
      <trkpt lat="45.58889" lon="5.54779">
        <ele>326.5</ele>
        <time>2023-03-29T12:35:48Z</time>
      </trkpt>
      <trkpt lat="45.58891" lon="5.54772">
        <ele>326.5</ele>
        <time>2023-03-29T12:35:49Z</time>
      </trkpt>
      <trkpt lat="45.58894" lon="5.54766">
        <ele>326</ele>
        <time>2023-03-29T12:35:50Z</time>
      </trkpt>
      <trkpt lat="45.58896" lon="5.54759">
        <ele>325.9</ele>
        <time>2023-03-29T12:35:51Z</time>
      </trkpt>
      <trkpt lat="45.58898" lon="5.54751">
        <ele>325.7</ele>
        <time>2023-03-29T12:35:52Z</time>
      </trkpt>
      <trkpt lat="45.589" lon="5.54744">
        <ele>325.5</ele>
        <time>2023-03-29T12:35:53Z</time>
      </trkpt>
      <trkpt lat="45.58902" lon="5.54737">
        <ele>325.5</ele>
        <time>2023-03-29T12:35:54Z</time>
      </trkpt>
      <trkpt lat="45.58905" lon="5.54727">
        <ele>325.3</ele>
        <time>2023-03-29T12:35:56Z</time>
      </trkpt>
      <trkpt lat="45.58905" lon="5.5472">
        <ele>325.2</ele>
        <time>2023-03-29T12:35:57Z</time>
      </trkpt>
      <trkpt lat="45.58902" lon="5.54709">
        <ele>325.1</ele>
        <time>2023-03-29T12:35:59Z</time>
      </trkpt>
      <trkpt lat="45.58894" lon="5.54704">
        <ele>325.4</ele>
        <time>2023-03-29T12:36:01Z</time>
      </trkpt>
      <trkpt lat="45.5889" lon="5.54701">
        <ele>325.6</ele>
        <time>2023-03-29T12:36:02Z</time>
      </trkpt>
      <trkpt lat="45.58886" lon="5.54698">
        <ele>325.9</ele>
        <time>2023-03-29T12:36:04Z</time>
      </trkpt>
      <trkpt lat="45.58879" lon="5.54692">
        <ele>326.7</ele>
        <time>2023-03-29T12:36:06Z</time>
      </trkpt>
      <trkpt lat="45.58877" lon="5.54686">
        <ele>326.7</ele>
        <time>2023-03-29T12:36:08Z</time>
      </trkpt>
      <trkpt lat="45.58875" lon="5.54678">
        <ele>327.9</ele>
        <time>2023-03-29T12:36:11Z</time>
      </trkpt>
      <trkpt lat="45.58873" lon="5.54671">
        <ele>328.2</ele>
        <time>2023-03-29T12:36:14Z</time>
      </trkpt>
      <trkpt lat="45.58871" lon="5.54662">
        <ele>329.6</ele>
        <time>2023-03-29T12:36:17Z</time>
      </trkpt>
      <trkpt lat="45.5887" lon="5.54653">
        <ele>329.9</ele>
        <time>2023-03-29T12:36:20Z</time>
      </trkpt>
      <trkpt lat="45.58868" lon="5.54645">
        <ele>330.2</ele>
        <time>2023-03-29T12:36:22Z</time>
      </trkpt>
      <trkpt lat="45.58866" lon="5.54637">
        <ele>331.4</ele>
        <time>2023-03-29T12:36:25Z</time>
      </trkpt>
      <trkpt lat="45.58865" lon="5.5463">
        <ele>331.5</ele>
        <time>2023-03-29T12:36:27Z</time>
      </trkpt>
      <trkpt lat="45.58864" lon="5.54624">
        <ele>331.6</ele>
        <time>2023-03-29T12:36:29Z</time>
      </trkpt>
      <trkpt lat="45.58862" lon="5.54615">
        <ele>332.8</ele>
        <time>2023-03-29T12:36:32Z</time>
      </trkpt>
      <trkpt lat="45.5886" lon="5.54606">
        <ele>333</ele>
        <time>2023-03-29T12:36:35Z</time>
      </trkpt>
      <trkpt lat="45.58859" lon="5.54597">
        <ele>333.4</ele>
        <time>2023-03-29T12:36:38Z</time>
      </trkpt>
      <trkpt lat="45.58858" lon="5.5459">
        <ele>334.5</ele>
        <time>2023-03-29T12:36:42Z</time>
      </trkpt>
      <trkpt lat="45.58854" lon="5.54583">
        <ele>335.5</ele>
        <time>2023-03-29T12:36:47Z</time>
      </trkpt>
      <trkpt lat="45.5885" lon="5.54578">
        <ele>335.6</ele>
        <time>2023-03-29T12:36:50Z</time>
      </trkpt>
      <trkpt lat="45.58844" lon="5.54578">
        <ele>337</ele>
        <time>2023-03-29T12:36:54Z</time>
      </trkpt>
      <trkpt lat="45.5884" lon="5.54581">
        <ele>337.7</ele>
        <time>2023-03-29T12:36:57Z</time>
      </trkpt>
      <trkpt lat="45.58835" lon="5.54584">
        <ele>338.6</ele>
        <time>2023-03-29T12:37:01Z</time>
      </trkpt>
      <trkpt lat="45.58829" lon="5.54583">
        <ele>339.4</ele>
        <time>2023-03-29T12:37:06Z</time>
      </trkpt>
      <trkpt lat="45.58824" lon="5.54585">
        <ele>341</ele>
        <time>2023-03-29T12:37:10Z</time>
      </trkpt>
      <trkpt lat="45.58819" lon="5.54586">
        <ele>341.7</ele>
        <time>2023-03-29T12:37:14Z</time>
      </trkpt>
      <trkpt lat="45.58814" lon="5.54589">
        <ele>342.7</ele>
        <time>2023-03-29T12:37:18Z</time>
      </trkpt>
      <trkpt lat="45.58809" lon="5.54589">
        <ele>343.5</ele>
        <time>2023-03-29T12:37:25Z</time>
      </trkpt>
      <trkpt lat="45.58806" lon="5.54594">
        <ele>344.4</ele>
        <time>2023-03-29T12:37:36Z</time>
      </trkpt>
      <trkpt lat="45.58804" lon="5.54601">
        <ele>344.5</ele>
        <time>2023-03-29T12:37:39Z</time>
      </trkpt>
      <trkpt lat="45.58801" lon="5.5461">
        <ele>345.4</ele>
        <time>2023-03-29T12:37:43Z</time>
      </trkpt>
      <trkpt lat="45.588" lon="5.54617">
        <ele>345.5</ele>
        <time>2023-03-29T12:37:45Z</time>
      </trkpt>
      <trkpt lat="45.588" lon="5.54625">
        <ele>345.6</ele>
        <time>2023-03-29T12:37:49Z</time>
      </trkpt>
      <trkpt lat="45.58798" lon="5.54633">
        <ele>346.3</ele>
        <time>2023-03-29T12:37:53Z</time>
      </trkpt>
      <trkpt lat="45.58797" lon="5.5464">
        <ele>346.4</ele>
        <time>2023-03-29T12:37:57Z</time>
      </trkpt>
      <trkpt lat="45.58796" lon="5.54647">
        <ele>346.5</ele>
        <time>2023-03-29T12:38:00Z</time>
      </trkpt>
      <trkpt lat="45.58795" lon="5.54654">
        <ele>346.6</ele>
        <time>2023-03-29T12:38:03Z</time>
      </trkpt>
      <trkpt lat="45.58791" lon="5.54663">
        <ele>347.3</ele>
        <time>2023-03-29T12:38:08Z</time>
      </trkpt>
      <trkpt lat="45.58786" lon="5.54666">
        <ele>347.8</ele>
        <time>2023-03-29T12:38:12Z</time>
      </trkpt>
      <trkpt lat="45.58781" lon="5.54664">
        <ele>348.8</ele>
        <time>2023-03-29T12:38:17Z</time>
      </trkpt>
      <trkpt lat="45.58776" lon="5.54661">
        <ele>349.2</ele>
        <time>2023-03-29T12:38:22Z</time>
      </trkpt>
      <trkpt lat="45.58771" lon="5.54659">
        <ele>349.6</ele>
        <time>2023-03-29T12:38:25Z</time>
      </trkpt>
      <trkpt lat="45.58766" lon="5.5466">
        <ele>350.4</ele>
        <time>2023-03-29T12:38:29Z</time>
      </trkpt>
      <trkpt lat="45.58761" lon="5.54659">
        <ele>350.7</ele>
        <time>2023-03-29T12:38:34Z</time>
      </trkpt>
      <trkpt lat="45.58755" lon="5.54659">
        <ele>351.7</ele>
        <time>2023-03-29T12:38:37Z</time>
      </trkpt>
      <trkpt lat="45.5875" lon="5.54659">
        <ele>352.1</ele>
        <time>2023-03-29T12:38:41Z</time>
      </trkpt>
      <trkpt lat="45.58745" lon="5.54659">
        <ele>352.5</ele>
        <time>2023-03-29T12:38:45Z</time>
      </trkpt>
      <trkpt lat="45.58739" lon="5.54657">
        <ele>352.9</ele>
        <time>2023-03-29T12:38:49Z</time>
      </trkpt>
      <trkpt lat="45.58734" lon="5.54656">
        <ele>353.2</ele>
        <time>2023-03-29T12:38:53Z</time>
      </trkpt>
      <trkpt lat="45.58729" lon="5.54655">
        <ele>353.7</ele>
        <time>2023-03-29T12:38:56Z</time>
      </trkpt>
      <trkpt lat="45.58724" lon="5.54654">
        <ele>354.1</ele>
        <time>2023-03-29T12:39:01Z</time>
      </trkpt>
      <trkpt lat="45.58719" lon="5.54653">
        <ele>354.4</ele>
        <time>2023-03-29T12:39:05Z</time>
      </trkpt>
      <trkpt lat="45.58713" lon="5.54651">
        <ele>354.6</ele>
        <time>2023-03-29T12:39:09Z</time>
      </trkpt>
      <trkpt lat="45.58707" lon="5.54651">
        <ele>355.1</ele>
        <time>2023-03-29T12:39:12Z</time>
      </trkpt>
      <trkpt lat="45.58701" lon="5.5465">
        <ele>355.3</ele>
        <time>2023-03-29T12:39:16Z</time>
      </trkpt>
      <trkpt lat="45.58694" lon="5.5465">
        <ele>355.9</ele>
        <time>2023-03-29T12:39:20Z</time>
      </trkpt>
      <trkpt lat="45.58689" lon="5.5465">
        <ele>356.2</ele>
        <time>2023-03-29T12:39:23Z</time>
      </trkpt>
      <trkpt lat="45.58684" lon="5.54649">
        <ele>356.5</ele>
        <time>2023-03-29T12:39:27Z</time>
      </trkpt>
      <trkpt lat="45.58678" lon="5.54647">
        <ele>357.2</ele>
        <time>2023-03-29T12:39:31Z</time>
      </trkpt>
      <trkpt lat="45.58673" lon="5.54647">
        <ele>357.6</ele>
        <time>2023-03-29T12:39:34Z</time>
      </trkpt>
      <trkpt lat="45.58667" lon="5.54647">
        <ele>358.1</ele>
        <time>2023-03-29T12:39:38Z</time>
      </trkpt>
      <trkpt lat="45.58664" lon="5.54651">
        <ele>358.6</ele>
        <time>2023-03-29T12:39:41Z</time>
      </trkpt>
      <trkpt lat="45.58661" lon="5.54658">
        <ele>358.6</ele>
        <time>2023-03-29T12:39:43Z</time>
      </trkpt>
      <trkpt lat="45.5866" lon="5.54664">
        <ele>359</ele>
        <time>2023-03-29T12:39:47Z</time>
      </trkpt>
      <trkpt lat="45.58659" lon="5.54673">
        <ele>359.2</ele>
        <time>2023-03-29T12:39:50Z</time>
      </trkpt>
      <trkpt lat="45.58659" lon="5.54681">
        <ele>359.3</ele>
        <time>2023-03-29T12:39:54Z</time>
      </trkpt>
      <trkpt lat="45.58658" lon="5.54689">
        <ele>359.3</ele>
        <time>2023-03-29T12:39:57Z</time>
      </trkpt>
      <trkpt lat="45.58656" lon="5.54697">
        <ele>359.9</ele>
        <time>2023-03-29T12:40:00Z</time>
      </trkpt>
      <trkpt lat="45.58655" lon="5.54705">
        <ele>359.9</ele>
        <time>2023-03-29T12:40:04Z</time>
      </trkpt>
      <trkpt lat="45.58653" lon="5.54713">
        <ele>360</ele>
        <time>2023-03-29T12:40:07Z</time>
      </trkpt>
      <trkpt lat="45.58653" lon="5.5472">
        <ele>360.1</ele>
        <time>2023-03-29T12:40:11Z</time>
      </trkpt>
      <trkpt lat="45.58652" lon="5.54729">
        <ele>360.5</ele>
        <time>2023-03-29T12:40:14Z</time>
      </trkpt>
      <trkpt lat="45.5865" lon="5.54737">
        <ele>360.5</ele>
        <time>2023-03-29T12:40:17Z</time>
      </trkpt>
      <trkpt lat="45.58648" lon="5.54747">
        <ele>360.9</ele>
        <time>2023-03-29T12:40:21Z</time>
      </trkpt>
      <trkpt lat="45.58647" lon="5.54754">
        <ele>360.9</ele>
        <time>2023-03-29T12:40:23Z</time>
      </trkpt>
      <trkpt lat="45.58646" lon="5.54761">
        <ele>360.9</ele>
        <time>2023-03-29T12:40:25Z</time>
      </trkpt>
      <trkpt lat="45.58644" lon="5.5477">
        <ele>361</ele>
        <time>2023-03-29T12:40:28Z</time>
      </trkpt>
      <trkpt lat="45.58643" lon="5.54777">
        <ele>361.3</ele>
        <time>2023-03-29T12:40:30Z</time>
      </trkpt>
      <trkpt lat="45.58641" lon="5.54786">
        <ele>361.2</ele>
        <time>2023-03-29T12:40:33Z</time>
      </trkpt>
      <trkpt lat="45.5864" lon="5.54794">
        <ele>361.2</ele>
        <time>2023-03-29T12:40:35Z</time>
      </trkpt>
      <trkpt lat="45.58639" lon="5.54802">
        <ele>361.4</ele>
        <time>2023-03-29T12:40:38Z</time>
      </trkpt>
      <trkpt lat="45.58637" lon="5.54809">
        <ele>361.4</ele>
        <time>2023-03-29T12:40:40Z</time>
      </trkpt>
      <trkpt lat="45.58636" lon="5.54816">
        <ele>361.3</ele>
        <time>2023-03-29T12:40:42Z</time>
      </trkpt>
      <trkpt lat="45.58634" lon="5.54823">
        <ele>361.4</ele>
        <time>2023-03-29T12:40:44Z</time>
      </trkpt>
      <trkpt lat="45.58632" lon="5.5483">
        <ele>361.4</ele>
        <time>2023-03-29T12:40:46Z</time>
      </trkpt>
      <trkpt lat="45.5863" lon="5.54838">
        <ele>361.5</ele>
        <time>2023-03-29T12:40:48Z</time>
      </trkpt>
      <trkpt lat="45.58628" lon="5.54846">
        <ele>361.3</ele>
        <time>2023-03-29T12:40:51Z</time>
      </trkpt>
      <trkpt lat="45.58626" lon="5.54856">
        <ele>361.4</ele>
        <time>2023-03-29T12:40:53Z</time>
      </trkpt>
      <trkpt lat="45.58625" lon="5.54866">
        <ele>361.2</ele>
        <time>2023-03-29T12:40:56Z</time>
      </trkpt>
      <trkpt lat="45.58624" lon="5.54874">
        <ele>361.1</ele>
        <time>2023-03-29T12:40:58Z</time>
      </trkpt>
      <trkpt lat="45.58623" lon="5.54881">
        <ele>361.1</ele>
        <time>2023-03-29T12:41:01Z</time>
      </trkpt>
      <trkpt lat="45.58621" lon="5.54888">
        <ele>361.1</ele>
        <time>2023-03-29T12:41:03Z</time>
      </trkpt>
      <trkpt lat="45.5862" lon="5.54898">
        <ele>361</ele>
        <time>2023-03-29T12:41:05Z</time>
      </trkpt>
      <trkpt lat="45.58618" lon="5.54906">
        <ele>360.8</ele>
        <time>2023-03-29T12:41:07Z</time>
      </trkpt>
      <trkpt lat="45.58616" lon="5.54915">
        <ele>360.7</ele>
        <time>2023-03-29T12:41:09Z</time>
      </trkpt>
      <trkpt lat="45.58614" lon="5.54922">
        <ele>360.5</ele>
        <time>2023-03-29T12:41:11Z</time>
      </trkpt>
      <trkpt lat="45.5861" lon="5.5493">
        <ele>360.4</ele>
        <time>2023-03-29T12:41:14Z</time>
      </trkpt>
      <trkpt lat="45.58606" lon="5.54935">
        <ele>360.3</ele>
        <time>2023-03-29T12:41:15Z</time>
      </trkpt>
      <trkpt lat="45.58602" lon="5.54943">
        <ele>360.2</ele>
        <time>2023-03-29T12:41:17Z</time>
      </trkpt>
      <trkpt lat="45.58599" lon="5.54952">
        <ele>360</ele>
        <time>2023-03-29T12:41:19Z</time>
      </trkpt>
      <trkpt lat="45.58595" lon="5.5496">
        <ele>359.8</ele>
        <time>2023-03-29T12:41:21Z</time>
      </trkpt>
      <trkpt lat="45.58591" lon="5.54969">
        <ele>359.7</ele>
        <time>2023-03-29T12:41:24Z</time>
      </trkpt>
      <trkpt lat="45.58588" lon="5.54977">
        <ele>359.5</ele>
        <time>2023-03-29T12:41:26Z</time>
      </trkpt>
      <trkpt lat="45.58583" lon="5.54989">
        <ele>359.4</ele>
        <time>2023-03-29T12:41:29Z</time>
      </trkpt>
      <trkpt lat="45.5858" lon="5.54998">
        <ele>359.2</ele>
        <time>2023-03-29T12:41:31Z</time>
      </trkpt>
      <trkpt lat="45.58577" lon="5.55005">
        <ele>359</ele>
        <time>2023-03-29T12:41:33Z</time>
      </trkpt>
      <trkpt lat="45.58573" lon="5.55014">
        <ele>358.8</ele>
        <time>2023-03-29T12:41:36Z</time>
      </trkpt>
      <trkpt lat="45.5857" lon="5.5502">
        <ele>358.5</ele>
        <time>2023-03-29T12:41:37Z</time>
      </trkpt>
      <trkpt lat="45.58568" lon="5.55029">
        <ele>358.4</ele>
        <time>2023-03-29T12:41:39Z</time>
      </trkpt>
      <trkpt lat="45.58569" lon="5.55039">
        <ele>358.2</ele>
        <time>2023-03-29T12:41:42Z</time>
      </trkpt>
      <trkpt lat="45.58573" lon="5.55048">
        <ele>358.1</ele>
        <time>2023-03-29T12:41:44Z</time>
      </trkpt>
      <trkpt lat="45.58578" lon="5.55056">
        <ele>358</ele>
        <time>2023-03-29T12:41:47Z</time>
      </trkpt>
      <trkpt lat="45.58582" lon="5.55061">
        <ele>358</ele>
        <time>2023-03-29T12:41:49Z</time>
      </trkpt>
      <trkpt lat="45.58588" lon="5.55068">
        <ele>358.1</ele>
        <time>2023-03-29T12:41:51Z</time>
      </trkpt>
      <trkpt lat="45.58593" lon="5.55074">
        <ele>358.1</ele>
        <time>2023-03-29T12:41:53Z</time>
      </trkpt>
      <trkpt lat="45.58597" lon="5.5508">
        <ele>357.9</ele>
        <time>2023-03-29T12:41:55Z</time>
      </trkpt>
      <trkpt lat="45.58598" lon="5.55087">
        <ele>357.9</ele>
        <time>2023-03-29T12:41:58Z</time>
      </trkpt>
      <trkpt lat="45.58599" lon="5.55097">
        <ele>357.7</ele>
        <time>2023-03-29T12:42:00Z</time>
      </trkpt>
      <trkpt lat="45.586" lon="5.55104">
        <ele>357.4</ele>
        <time>2023-03-29T12:42:01Z</time>
      </trkpt>
      <trkpt lat="45.58598" lon="5.5512">
        <ele>357.3</ele>
        <time>2023-03-29T12:42:03Z</time>
      </trkpt>
      <trkpt lat="45.58597" lon="5.55128">
        <ele>357.2</ele>
        <time>2023-03-29T12:42:04Z</time>
      </trkpt>
      <trkpt lat="45.58596" lon="5.55135">
        <ele>357</ele>
        <time>2023-03-29T12:42:05Z</time>
      </trkpt>
      <trkpt lat="45.58595" lon="5.55143">
        <ele>356.8</ele>
        <time>2023-03-29T12:42:06Z</time>
      </trkpt>
      <trkpt lat="45.58592" lon="5.55155">
        <ele>356.6</ele>
        <time>2023-03-29T12:42:08Z</time>
      </trkpt>
      <trkpt lat="45.58591" lon="5.55162">
        <ele>356.4</ele>
        <time>2023-03-29T12:42:09Z</time>
      </trkpt>
      <trkpt lat="45.5859" lon="5.55169">
        <ele>356.3</ele>
        <time>2023-03-29T12:42:10Z</time>
      </trkpt>
      <trkpt lat="45.58589" lon="5.55176">
        <ele>356</ele>
        <time>2023-03-29T12:42:11Z</time>
      </trkpt>
      <trkpt lat="45.58589" lon="5.55183">
        <ele>355.9</ele>
        <time>2023-03-29T12:42:12Z</time>
      </trkpt>
      <trkpt lat="45.58588" lon="5.55195">
        <ele>355.7</ele>
        <time>2023-03-29T12:42:15Z</time>
      </trkpt>
      <trkpt lat="45.58587" lon="5.55204">
        <ele>355.6</ele>
        <time>2023-03-29T12:42:16Z</time>
      </trkpt>
      <trkpt lat="45.58586" lon="5.55219">
        <ele>355.3</ele>
        <time>2023-03-29T12:42:19Z</time>
      </trkpt>
      <trkpt lat="45.58584" lon="5.55229">
        <ele>355.2</ele>
        <time>2023-03-29T12:42:21Z</time>
      </trkpt>
      <trkpt lat="45.58578" lon="5.55233">
        <ele>355</ele>
        <time>2023-03-29T12:42:24Z</time>
      </trkpt>
      <trkpt lat="45.5857" lon="5.55235">
        <ele>354.3</ele>
        <time>2023-03-29T12:42:26Z</time>
      </trkpt>
      <trkpt lat="45.58562" lon="5.55235">
        <ele>353.8</ele>
        <time>2023-03-29T12:42:28Z</time>
      </trkpt>
      <trkpt lat="45.58553" lon="5.55234">
        <ele>353.4</ele>
        <time>2023-03-29T12:42:30Z</time>
      </trkpt>
      <trkpt lat="45.58545" lon="5.55235">
        <ele>352.5</ele>
        <time>2023-03-29T12:42:32Z</time>
      </trkpt>
      <trkpt lat="45.58541" lon="5.55236">
        <ele>352.5</ele>
        <time>2023-03-29T12:42:33Z</time>
      </trkpt>
      <trkpt lat="45.58535" lon="5.55238">
        <ele>351.2</ele>
        <time>2023-03-29T12:42:34Z</time>
      </trkpt>
      <trkpt lat="45.58529" lon="5.55239">
        <ele>350.4</ele>
        <time>2023-03-29T12:42:35Z</time>
      </trkpt>
      <trkpt lat="45.58522" lon="5.55236">
        <ele>348.7</ele>
        <time>2023-03-29T12:42:36Z</time>
      </trkpt>
      <trkpt lat="45.58514" lon="5.55232">
        <ele>346.7</ele>
        <time>2023-03-29T12:42:37Z</time>
      </trkpt>
      <trkpt lat="45.58506" lon="5.55227">
        <ele>344.6</ele>
        <time>2023-03-29T12:42:38Z</time>
      </trkpt>
      <trkpt lat="45.58497" lon="5.5522">
        <ele>343</ele>
        <time>2023-03-29T12:42:39Z</time>
      </trkpt>
      <trkpt lat="45.58488" lon="5.55212">
        <ele>341.3</ele>
        <time>2023-03-29T12:42:40Z</time>
      </trkpt>
      <trkpt lat="45.58478" lon="5.55205">
        <ele>340.2</ele>
        <time>2023-03-29T12:42:41Z</time>
      </trkpt>
      <trkpt lat="45.58468" lon="5.55199">
        <ele>339.2</ele>
        <time>2023-03-29T12:42:42Z</time>
      </trkpt>
      <trkpt lat="45.58458" lon="5.55193">
        <ele>338</ele>
        <time>2023-03-29T12:42:43Z</time>
      </trkpt>
      <trkpt lat="45.58449" lon="5.55187">
        <ele>337.5</ele>
        <time>2023-03-29T12:42:44Z</time>
      </trkpt>
      <trkpt lat="45.58441" lon="5.5518">
        <ele>337</ele>
        <time>2023-03-29T12:42:45Z</time>
      </trkpt>
      <trkpt lat="45.58433" lon="5.55173">
        <ele>336.4</ele>
        <time>2023-03-29T12:42:46Z</time>
      </trkpt>
      <trkpt lat="45.58428" lon="5.55164">
        <ele>336.2</ele>
        <time>2023-03-29T12:42:47Z</time>
      </trkpt>
      <trkpt lat="45.58424" lon="5.55154">
        <ele>335.9</ele>
        <time>2023-03-29T12:42:48Z</time>
      </trkpt>
      <trkpt lat="45.58421" lon="5.55143">
        <ele>336.1</ele>
        <time>2023-03-29T12:42:49Z</time>
      </trkpt>
      <trkpt lat="45.58419" lon="5.55131">
        <ele>336</ele>
        <time>2023-03-29T12:42:50Z</time>
      </trkpt>
      <trkpt lat="45.58417" lon="5.5512">
        <ele>336.3</ele>
        <time>2023-03-29T12:42:51Z</time>
      </trkpt>
      <trkpt lat="45.58414" lon="5.55108">
        <ele>336.3</ele>
        <time>2023-03-29T12:42:52Z</time>
      </trkpt>
      <trkpt lat="45.58411" lon="5.55097">
        <ele>336.3</ele>
        <time>2023-03-29T12:42:53Z</time>
      </trkpt>
      <trkpt lat="45.58408" lon="5.55086">
        <ele>336.7</ele>
        <time>2023-03-29T12:42:54Z</time>
      </trkpt>
      <trkpt lat="45.58406" lon="5.55076">
        <ele>336.4</ele>
        <time>2023-03-29T12:42:55Z</time>
      </trkpt>
      <trkpt lat="45.58403" lon="5.55066">
        <ele>336.1</ele>
        <time>2023-03-29T12:42:56Z</time>
      </trkpt>
      <trkpt lat="45.584" lon="5.55056">
        <ele>336.4</ele>
        <time>2023-03-29T12:42:57Z</time>
      </trkpt>
      <trkpt lat="45.58397" lon="5.55046">
        <ele>335.8</ele>
        <time>2023-03-29T12:42:58Z</time>
      </trkpt>
      <trkpt lat="45.58394" lon="5.55035">
        <ele>335.2</ele>
        <time>2023-03-29T12:42:59Z</time>
      </trkpt>
      <trkpt lat="45.58391" lon="5.55025">
        <ele>335.1</ele>
        <time>2023-03-29T12:43:00Z</time>
      </trkpt>
      <trkpt lat="45.58386" lon="5.55017">
        <ele>334.3</ele>
        <time>2023-03-29T12:43:01Z</time>
      </trkpt>
      <trkpt lat="45.58381" lon="5.5501">
        <ele>334.2</ele>
        <time>2023-03-29T12:43:02Z</time>
      </trkpt>
      <trkpt lat="45.58375" lon="5.55005">
        <ele>334.1</ele>
        <time>2023-03-29T12:43:03Z</time>
      </trkpt>
      <trkpt lat="45.58369" lon="5.55001">
        <ele>334</ele>
        <time>2023-03-29T12:43:04Z</time>
      </trkpt>
      <trkpt lat="45.58363" lon="5.54998">
        <ele>333.9</ele>
        <time>2023-03-29T12:43:05Z</time>
      </trkpt>
      <trkpt lat="45.58357" lon="5.54996">
        <ele>333.8</ele>
        <time>2023-03-29T12:43:06Z</time>
      </trkpt>
      <trkpt lat="45.58351" lon="5.54994">
        <ele>333.9</ele>
        <time>2023-03-29T12:43:07Z</time>
      </trkpt>
      <trkpt lat="45.58345" lon="5.54992">
        <ele>334</ele>
        <time>2023-03-29T12:43:08Z</time>
      </trkpt>
      <trkpt lat="45.5834" lon="5.54991">
        <ele>334.1</ele>
        <time>2023-03-29T12:43:09Z</time>
      </trkpt>
      <trkpt lat="45.58336" lon="5.5499">
        <ele>334.2</ele>
        <time>2023-03-29T12:43:10Z</time>
      </trkpt>
      <trkpt lat="45.58328" lon="5.54989">
        <ele>334.4</ele>
        <time>2023-03-29T12:43:12Z</time>
      </trkpt>
      <trkpt lat="45.58321" lon="5.54986">
        <ele>334.8</ele>
        <time>2023-03-29T12:43:14Z</time>
      </trkpt>
      <trkpt lat="45.58315" lon="5.54986">
        <ele>335</ele>
        <time>2023-03-29T12:43:16Z</time>
      </trkpt>
      <trkpt lat="45.58309" lon="5.54986">
        <ele>335.6</ele>
        <time>2023-03-29T12:43:18Z</time>
      </trkpt>
      <trkpt lat="45.58304" lon="5.54987">
        <ele>335.9</ele>
        <time>2023-03-29T12:43:21Z</time>
      </trkpt>
      <trkpt lat="45.58299" lon="5.54985">
        <ele>336.1</ele>
        <time>2023-03-29T12:43:22Z</time>
      </trkpt>
      <trkpt lat="45.58293" lon="5.54983">
        <ele>336.3</ele>
        <time>2023-03-29T12:43:25Z</time>
      </trkpt>
      <trkpt lat="45.58288" lon="5.54981">
        <ele>336.5</ele>
        <time>2023-03-29T12:43:27Z</time>
      </trkpt>
      <trkpt lat="45.58282" lon="5.5498">
        <ele>337</ele>
        <time>2023-03-29T12:43:29Z</time>
      </trkpt>
      <trkpt lat="45.58278" lon="5.54977">
        <ele>337.3</ele>
        <time>2023-03-29T12:43:31Z</time>
      </trkpt>
      <trkpt lat="45.58272" lon="5.54972">
        <ele>337.8</ele>
        <time>2023-03-29T12:43:33Z</time>
      </trkpt>
      <trkpt lat="45.58268" lon="5.54968">
        <ele>338.7</ele>
        <time>2023-03-29T12:43:35Z</time>
      </trkpt>
      <trkpt lat="45.58268" lon="5.54959">
        <ele>338.6</ele>
        <time>2023-03-29T12:43:37Z</time>
      </trkpt>
      <trkpt lat="45.58268" lon="5.54946">
        <ele>338.6</ele>
        <time>2023-03-29T12:43:40Z</time>
      </trkpt>
      <trkpt lat="45.58269" lon="5.5494">
        <ele>338.6</ele>
        <time>2023-03-29T12:43:41Z</time>
      </trkpt>
      <trkpt lat="45.5827" lon="5.54933">
        <ele>338.7</ele>
        <time>2023-03-29T12:43:43Z</time>
      </trkpt>
      <trkpt lat="45.58271" lon="5.54921">
        <ele>338.5</ele>
        <time>2023-03-29T12:43:45Z</time>
      </trkpt>
      <trkpt lat="45.58272" lon="5.54913">
        <ele>338.6</ele>
        <time>2023-03-29T12:43:46Z</time>
      </trkpt>
      <trkpt lat="45.58273" lon="5.54906">
        <ele>338.8</ele>
        <time>2023-03-29T12:43:47Z</time>
      </trkpt>
      <trkpt lat="45.58273" lon="5.54899">
        <ele>339</ele>
        <time>2023-03-29T12:43:48Z</time>
      </trkpt>
      <trkpt lat="45.58274" lon="5.54893">
        <ele>339.1</ele>
        <time>2023-03-29T12:43:49Z</time>
      </trkpt>
      <trkpt lat="45.58274" lon="5.54885">
        <ele>339.4</ele>
        <time>2023-03-29T12:43:50Z</time>
      </trkpt>
      <trkpt lat="45.58275" lon="5.54877">
        <ele>339.3</ele>
        <time>2023-03-29T12:43:51Z</time>
      </trkpt>
      <trkpt lat="45.58276" lon="5.5487">
        <ele>339.4</ele>
        <time>2023-03-29T12:43:52Z</time>
      </trkpt>
      <trkpt lat="45.58278" lon="5.54863">
        <ele>339.5</ele>
        <time>2023-03-29T12:43:53Z</time>
      </trkpt>
      <trkpt lat="45.58279" lon="5.54856">
        <ele>339.6</ele>
        <time>2023-03-29T12:43:54Z</time>
      </trkpt>
      <trkpt lat="45.58281" lon="5.54849">
        <ele>339.5</ele>
        <time>2023-03-29T12:43:55Z</time>
      </trkpt>
      <trkpt lat="45.58283" lon="5.54842">
        <ele>339.4</ele>
        <time>2023-03-29T12:43:56Z</time>
      </trkpt>
      <trkpt lat="45.58285" lon="5.54836">
        <ele>339.3</ele>
        <time>2023-03-29T12:43:57Z</time>
      </trkpt>
      <trkpt lat="45.58287" lon="5.54829">
        <ele>339.3</ele>
        <time>2023-03-29T12:43:58Z</time>
      </trkpt>
      <trkpt lat="45.58289" lon="5.54823">
        <ele>339.2</ele>
        <time>2023-03-29T12:43:59Z</time>
      </trkpt>
      <trkpt lat="45.58293" lon="5.5481">
        <ele>339.1</ele>
        <time>2023-03-29T12:44:01Z</time>
      </trkpt>
      <trkpt lat="45.58294" lon="5.54803">
        <ele>339</ele>
        <time>2023-03-29T12:44:02Z</time>
      </trkpt>
      <trkpt lat="45.58294" lon="5.54796">
        <ele>338.8</ele>
        <time>2023-03-29T12:44:03Z</time>
      </trkpt>
      <trkpt lat="45.58293" lon="5.54789">
        <ele>338.7</ele>
        <time>2023-03-29T12:44:04Z</time>
      </trkpt>
      <trkpt lat="45.58292" lon="5.5478">
        <ele>338.6</ele>
        <time>2023-03-29T12:44:05Z</time>
      </trkpt>
      <trkpt lat="45.58292" lon="5.54772">
        <ele>338.5</ele>
        <time>2023-03-29T12:44:06Z</time>
      </trkpt>
      <trkpt lat="45.58293" lon="5.54764">
        <ele>338.3</ele>
        <time>2023-03-29T12:44:07Z</time>
      </trkpt>
      <trkpt lat="45.58293" lon="5.54756">
        <ele>338.2</ele>
        <time>2023-03-29T12:44:08Z</time>
      </trkpt>
      <trkpt lat="45.58294" lon="5.54748">
        <ele>338</ele>
        <time>2023-03-29T12:44:09Z</time>
      </trkpt>
      <trkpt lat="45.58295" lon="5.5474">
        <ele>338</ele>
        <time>2023-03-29T12:44:10Z</time>
      </trkpt>
      <trkpt lat="45.58295" lon="5.54732">
        <ele>338</ele>
        <time>2023-03-29T12:44:11Z</time>
      </trkpt>
      <trkpt lat="45.58296" lon="5.54724">
        <ele>337.9</ele>
        <time>2023-03-29T12:44:12Z</time>
      </trkpt>
      <trkpt lat="45.58297" lon="5.54715">
        <ele>337.6</ele>
        <time>2023-03-29T12:44:13Z</time>
      </trkpt>
      <trkpt lat="45.58298" lon="5.54707">
        <ele>337.6</ele>
        <time>2023-03-29T12:44:14Z</time>
      </trkpt>
      <trkpt lat="45.58299" lon="5.54699">
        <ele>337.4</ele>
        <time>2023-03-29T12:44:15Z</time>
      </trkpt>
      <trkpt lat="45.583" lon="5.54692">
        <ele>337.4</ele>
        <time>2023-03-29T12:44:16Z</time>
      </trkpt>
      <trkpt lat="45.58301" lon="5.54684">
        <ele>337.1</ele>
        <time>2023-03-29T12:44:17Z</time>
      </trkpt>
      <trkpt lat="45.58302" lon="5.54677">
        <ele>337</ele>
        <time>2023-03-29T12:44:18Z</time>
      </trkpt>
      <trkpt lat="45.58303" lon="5.54669">
        <ele>337</ele>
        <time>2023-03-29T12:44:19Z</time>
      </trkpt>
      <trkpt lat="45.58304" lon="5.54661">
        <ele>337</ele>
        <time>2023-03-29T12:44:20Z</time>
      </trkpt>
      <trkpt lat="45.58306" lon="5.54653">
        <ele>336.7</ele>
        <time>2023-03-29T12:44:21Z</time>
      </trkpt>
      <trkpt lat="45.58307" lon="5.54644">
        <ele>336.8</ele>
        <time>2023-03-29T12:44:22Z</time>
      </trkpt>
      <trkpt lat="45.58308" lon="5.54635">
        <ele>336.7</ele>
        <time>2023-03-29T12:44:23Z</time>
      </trkpt>
      <trkpt lat="45.5831" lon="5.54626">
        <ele>336.5</ele>
        <time>2023-03-29T12:44:24Z</time>
      </trkpt>
      <trkpt lat="45.58311" lon="5.54617">
        <ele>336.4</ele>
        <time>2023-03-29T12:44:25Z</time>
      </trkpt>
      <trkpt lat="45.58312" lon="5.54608">
        <ele>336.3</ele>
        <time>2023-03-29T12:44:26Z</time>
      </trkpt>
      <trkpt lat="45.58314" lon="5.54599">
        <ele>336.1</ele>
        <time>2023-03-29T12:44:27Z</time>
      </trkpt>
      <trkpt lat="45.58315" lon="5.54591">
        <ele>336.1</ele>
        <time>2023-03-29T12:44:28Z</time>
      </trkpt>
      <trkpt lat="45.58315" lon="5.54583">
        <ele>336</ele>
        <time>2023-03-29T12:44:29Z</time>
      </trkpt>
      <trkpt lat="45.58314" lon="5.54576">
        <ele>335.9</ele>
        <time>2023-03-29T12:44:30Z</time>
      </trkpt>
      <trkpt lat="45.58311" lon="5.54571">
        <ele>335.9</ele>
        <time>2023-03-29T12:44:31Z</time>
      </trkpt>
      <trkpt lat="45.58302" lon="5.54568">
        <ele>336.2</ele>
        <time>2023-03-29T12:44:33Z</time>
      </trkpt>
      <trkpt lat="45.58297" lon="5.54568">
        <ele>336.4</ele>
        <time>2023-03-29T12:44:34Z</time>
      </trkpt>
      <trkpt lat="45.58289" lon="5.5457">
        <ele>336.8</ele>
        <time>2023-03-29T12:44:36Z</time>
      </trkpt>
      <trkpt lat="45.58281" lon="5.54572">
        <ele>337</ele>
        <time>2023-03-29T12:44:38Z</time>
      </trkpt>
      <trkpt lat="45.58274" lon="5.54573">
        <ele>337.2</ele>
        <time>2023-03-29T12:44:40Z</time>
      </trkpt>
      <trkpt lat="45.58266" lon="5.54574">
        <ele>337.3</ele>
        <time>2023-03-29T12:44:42Z</time>
      </trkpt>
      <trkpt lat="45.5826" lon="5.54574">
        <ele>337.4</ele>
        <time>2023-03-29T12:44:44Z</time>
      </trkpt>
      <trkpt lat="45.58252" lon="5.54575">
        <ele>337.5</ele>
        <time>2023-03-29T12:44:46Z</time>
      </trkpt>
      <trkpt lat="45.58246" lon="5.54575">
        <ele>337.6</ele>
        <time>2023-03-29T12:44:48Z</time>
      </trkpt>
      <trkpt lat="45.58241" lon="5.54576">
        <ele>337.7</ele>
        <time>2023-03-29T12:44:49Z</time>
      </trkpt>
      <trkpt lat="45.58233" lon="5.54577">
        <ele>338.1</ele>
        <time>2023-03-29T12:44:51Z</time>
      </trkpt>
      <trkpt lat="45.58225" lon="5.54578">
        <ele>338.4</ele>
        <time>2023-03-29T12:44:53Z</time>
      </trkpt>
      <trkpt lat="45.5822" lon="5.54578">
        <ele>338.4</ele>
        <time>2023-03-29T12:44:55Z</time>
      </trkpt>
      <trkpt lat="45.58215" lon="5.54579">
        <ele>338.5</ele>
        <time>2023-03-29T12:44:57Z</time>
      </trkpt>
      <trkpt lat="45.58209" lon="5.54579">
        <ele>339</ele>
        <time>2023-03-29T12:44:59Z</time>
      </trkpt>
      <trkpt lat="45.58204" lon="5.5458">
        <ele>339.3</ele>
        <time>2023-03-29T12:45:01Z</time>
      </trkpt>
      <trkpt lat="45.58197" lon="5.54583">
        <ele>340</ele>
        <time>2023-03-29T12:45:03Z</time>
      </trkpt>
      <trkpt lat="45.58193" lon="5.54584">
        <ele>340.2</ele>
        <time>2023-03-29T12:45:05Z</time>
      </trkpt>
      <trkpt lat="45.58186" lon="5.54585">
        <ele>340.5</ele>
        <time>2023-03-29T12:45:07Z</time>
      </trkpt>
      <trkpt lat="45.58179" lon="5.54586">
        <ele>340.7</ele>
        <time>2023-03-29T12:45:10Z</time>
      </trkpt>
      <trkpt lat="45.58175" lon="5.54586">
        <ele>340.8</ele>
        <time>2023-03-29T12:45:11Z</time>
      </trkpt>
      <trkpt lat="45.58167" lon="5.54587">
        <ele>341.2</ele>
        <time>2023-03-29T12:45:13Z</time>
      </trkpt>
      <trkpt lat="45.58161" lon="5.54586">
        <ele>341.3</ele>
        <time>2023-03-29T12:45:15Z</time>
      </trkpt>
      <trkpt lat="45.58155" lon="5.54585">
        <ele>341.5</ele>
        <time>2023-03-29T12:45:17Z</time>
      </trkpt>
      <trkpt lat="45.58148" lon="5.54587">
        <ele>341.7</ele>
        <time>2023-03-29T12:45:20Z</time>
      </trkpt>
      <trkpt lat="45.58142" lon="5.5459">
        <ele>341.8</ele>
        <time>2023-03-29T12:45:22Z</time>
      </trkpt>
      <trkpt lat="45.58137" lon="5.54598">
        <ele>342</ele>
        <time>2023-03-29T12:45:24Z</time>
      </trkpt>
      <trkpt lat="45.58133" lon="5.54605">
        <ele>342</ele>
        <time>2023-03-29T12:45:26Z</time>
      </trkpt>
      <trkpt lat="45.5813" lon="5.54612">
        <ele>342</ele>
        <time>2023-03-29T12:45:28Z</time>
      </trkpt>
      <trkpt lat="45.58128" lon="5.54619">
        <ele>342.2</ele>
        <time>2023-03-29T12:45:30Z</time>
      </trkpt>
      <trkpt lat="45.58125" lon="5.54628">
        <ele>342.3</ele>
        <time>2023-03-29T12:45:33Z</time>
      </trkpt>
      <trkpt lat="45.58121" lon="5.54632">
        <ele>342.3</ele>
        <time>2023-03-29T12:45:35Z</time>
      </trkpt>
      <trkpt lat="45.58118" lon="5.54639">
        <ele>342.4</ele>
        <time>2023-03-29T12:45:38Z</time>
      </trkpt>
      <trkpt lat="45.58115" lon="5.54645">
        <ele>342.5</ele>
        <time>2023-03-29T12:45:40Z</time>
      </trkpt>
      <trkpt lat="45.58113" lon="5.54654">
        <ele>342.6</ele>
        <time>2023-03-29T12:45:42Z</time>
      </trkpt>
      <trkpt lat="45.58111" lon="5.54663">
        <ele>342.7</ele>
        <time>2023-03-29T12:45:45Z</time>
      </trkpt>
      <trkpt lat="45.5811" lon="5.54671">
        <ele>342.7</ele>
        <time>2023-03-29T12:45:47Z</time>
      </trkpt>
      <trkpt lat="45.58106" lon="5.54678">
        <ele>342.8</ele>
        <time>2023-03-29T12:45:49Z</time>
      </trkpt>
      <trkpt lat="45.58104" lon="5.54685">
        <ele>342.9</ele>
        <time>2023-03-29T12:45:52Z</time>
      </trkpt>
      <trkpt lat="45.58099" lon="5.54694">
        <ele>343</ele>
        <time>2023-03-29T12:45:55Z</time>
      </trkpt>
      <trkpt lat="45.58095" lon="5.54705">
        <ele>343.1</ele>
        <time>2023-03-29T12:45:57Z</time>
      </trkpt>
      <trkpt lat="45.5809" lon="5.54712">
        <ele>343</ele>
        <time>2023-03-29T12:45:59Z</time>
      </trkpt>
      <trkpt lat="45.58086" lon="5.54717">
        <ele>343.2</ele>
        <time>2023-03-29T12:46:01Z</time>
      </trkpt>
      <trkpt lat="45.58081" lon="5.54723">
        <ele>343</ele>
        <time>2023-03-29T12:46:03Z</time>
      </trkpt>
      <trkpt lat="45.58075" lon="5.54725">
        <ele>342.8</ele>
        <time>2023-03-29T12:46:09Z</time>
      </trkpt>
      <trkpt lat="45.58068" lon="5.54727">
        <ele>342.6</ele>
        <time>2023-03-29T12:46:10Z</time>
      </trkpt>
      <trkpt lat="45.58056" lon="5.54728">
        <ele>342.4</ele>
        <time>2023-03-29T12:46:12Z</time>
      </trkpt>
      <trkpt lat="45.58049" lon="5.54727">
        <ele>342</ele>
        <time>2023-03-29T12:46:13Z</time>
      </trkpt>
      <trkpt lat="45.58043" lon="5.54726">
        <ele>341.5</ele>
        <time>2023-03-29T12:46:14Z</time>
      </trkpt>
      <trkpt lat="45.58037" lon="5.54725">
        <ele>341.3</ele>
        <time>2023-03-29T12:46:15Z</time>
      </trkpt>
      <trkpt lat="45.58031" lon="5.54724">
        <ele>341.1</ele>
        <time>2023-03-29T12:46:16Z</time>
      </trkpt>
      <trkpt lat="45.58025" lon="5.54723">
        <ele>340.5</ele>
        <time>2023-03-29T12:46:17Z</time>
      </trkpt>
      <trkpt lat="45.58019" lon="5.54722">
        <ele>340.3</ele>
        <time>2023-03-29T12:46:18Z</time>
      </trkpt>
      <trkpt lat="45.58014" lon="5.5472">
        <ele>340.2</ele>
        <time>2023-03-29T12:46:19Z</time>
      </trkpt>
      <trkpt lat="45.58008" lon="5.54719">
        <ele>339.6</ele>
        <time>2023-03-29T12:46:20Z</time>
      </trkpt>
      <trkpt lat="45.58002" lon="5.54717">
        <ele>339.5</ele>
        <time>2023-03-29T12:46:21Z</time>
      </trkpt>
      <trkpt lat="45.57997" lon="5.54715">
        <ele>339.3</ele>
        <time>2023-03-29T12:46:22Z</time>
      </trkpt>
      <trkpt lat="45.57991" lon="5.54712">
        <ele>339.3</ele>
        <time>2023-03-29T12:46:23Z</time>
      </trkpt>
      <trkpt lat="45.57986" lon="5.5471">
        <ele>339.2</ele>
        <time>2023-03-29T12:46:24Z</time>
      </trkpt>
      <trkpt lat="45.57981" lon="5.54708">
        <ele>339.2</ele>
        <time>2023-03-29T12:46:25Z</time>
      </trkpt>
      <trkpt lat="45.57977" lon="5.54706">
        <ele>339</ele>
        <time>2023-03-29T12:46:26Z</time>
      </trkpt>
      <trkpt lat="45.57969" lon="5.54701">
        <ele>339</ele>
        <time>2023-03-29T12:46:28Z</time>
      </trkpt>
      <trkpt lat="45.57962" lon="5.54693">
        <ele>338.7</ele>
        <time>2023-03-29T12:46:30Z</time>
      </trkpt>
      <trkpt lat="45.57958" lon="5.54689">
        <ele>338.7</ele>
        <time>2023-03-29T12:46:31Z</time>
      </trkpt>
      <trkpt lat="45.57953" lon="5.54687">
        <ele>338.9</ele>
        <time>2023-03-29T12:46:32Z</time>
      </trkpt>
      <trkpt lat="45.57945" lon="5.54685">
        <ele>339</ele>
        <time>2023-03-29T12:46:34Z</time>
      </trkpt>
      <trkpt lat="45.57937" lon="5.54682">
        <ele>339.3</ele>
        <time>2023-03-29T12:46:36Z</time>
      </trkpt>
      <trkpt lat="45.57932" lon="5.54677">
        <ele>339.3</ele>
        <time>2023-03-29T12:46:38Z</time>
      </trkpt>
      <trkpt lat="45.57926" lon="5.54671">
        <ele>339.4</ele>
        <time>2023-03-29T12:46:40Z</time>
      </trkpt>
      <trkpt lat="45.57921" lon="5.54665">
        <ele>339.4</ele>
        <time>2023-03-29T12:46:42Z</time>
      </trkpt>
      <trkpt lat="45.57915" lon="5.5466">
        <ele>339.3</ele>
        <time>2023-03-29T12:46:44Z</time>
      </trkpt>
      <trkpt lat="45.5791" lon="5.54657">
        <ele>339.6</ele>
        <time>2023-03-29T12:46:46Z</time>
      </trkpt>
      <trkpt lat="45.57904" lon="5.54649">
        <ele>339</ele>
        <time>2023-03-29T12:46:48Z</time>
      </trkpt>
      <trkpt lat="45.57895" lon="5.54641">
        <ele>338.2</ele>
        <time>2023-03-29T12:46:51Z</time>
      </trkpt>
      <trkpt lat="45.57887" lon="5.54643">
        <ele>337.3</ele>
        <time>2023-03-29T12:46:53Z</time>
      </trkpt>
      <trkpt lat="45.57883" lon="5.54646">
        <ele>336.5</ele>
        <time>2023-03-29T12:46:54Z</time>
      </trkpt>
      <trkpt lat="45.57877" lon="5.54648">
        <ele>336.1</ele>
        <time>2023-03-29T12:46:55Z</time>
      </trkpt>
      <trkpt lat="45.57871" lon="5.54651">
        <ele>335</ele>
        <time>2023-03-29T12:46:56Z</time>
      </trkpt>
      <trkpt lat="45.57864" lon="5.54655">
        <ele>334.2</ele>
        <time>2023-03-29T12:46:57Z</time>
      </trkpt>
      <trkpt lat="45.57856" lon="5.54659">
        <ele>333.4</ele>
        <time>2023-03-29T12:46:58Z</time>
      </trkpt>
      <trkpt lat="45.57848" lon="5.54663">
        <ele>332.7</ele>
        <time>2023-03-29T12:46:59Z</time>
      </trkpt>
      <trkpt lat="45.57841" lon="5.54668">
        <ele>332.6</ele>
        <time>2023-03-29T12:47:00Z</time>
      </trkpt>
      <trkpt lat="45.57834" lon="5.54671">
        <ele>332</ele>
        <time>2023-03-29T12:47:01Z</time>
      </trkpt>
      <trkpt lat="45.57827" lon="5.54674">
        <ele>331.3</ele>
        <time>2023-03-29T12:47:02Z</time>
      </trkpt>
      <trkpt lat="45.57821" lon="5.54677">
        <ele>331.3</ele>
        <time>2023-03-29T12:47:03Z</time>
      </trkpt>
      <trkpt lat="45.57814" lon="5.5468">
        <ele>330.2</ele>
        <time>2023-03-29T12:47:04Z</time>
      </trkpt>
      <trkpt lat="45.57809" lon="5.54682">
        <ele>330</ele>
        <time>2023-03-29T12:47:05Z</time>
      </trkpt>
      <trkpt lat="45.57803" lon="5.54682">
        <ele>329.3</ele>
        <time>2023-03-29T12:47:06Z</time>
      </trkpt>
      <trkpt lat="45.57797" lon="5.5468">
        <ele>329</ele>
        <time>2023-03-29T12:47:07Z</time>
      </trkpt>
      <trkpt lat="45.57793" lon="5.54676">
        <ele>328.7</ele>
        <time>2023-03-29T12:47:08Z</time>
      </trkpt>
      <trkpt lat="45.57789" lon="5.54672">
        <ele>328.4</ele>
        <time>2023-03-29T12:47:09Z</time>
      </trkpt>
      <trkpt lat="45.57786" lon="5.54669">
        <ele>328.2</ele>
        <time>2023-03-29T12:47:10Z</time>
      </trkpt>
      <trkpt lat="45.57782" lon="5.54665">
        <ele>328.1</ele>
        <time>2023-03-29T12:47:11Z</time>
      </trkpt>
      <trkpt lat="45.57778" lon="5.54662">
        <ele>328</ele>
        <time>2023-03-29T12:47:12Z</time>
      </trkpt>
      <trkpt lat="45.57774" lon="5.54657">
        <ele>327.9</ele>
        <time>2023-03-29T12:47:13Z</time>
      </trkpt>
      <trkpt lat="45.5777" lon="5.54654">
        <ele>327.9</ele>
        <time>2023-03-29T12:47:14Z</time>
      </trkpt>
      <trkpt lat="45.57766" lon="5.5465">
        <ele>328</ele>
        <time>2023-03-29T12:47:15Z</time>
      </trkpt>
      <trkpt lat="45.57761" lon="5.54646">
        <ele>328.2</ele>
        <time>2023-03-29T12:47:16Z</time>
      </trkpt>
      <trkpt lat="45.57754" lon="5.54641">
        <ele>328.2</ele>
        <time>2023-03-29T12:47:18Z</time>
      </trkpt>
      <trkpt lat="45.57749" lon="5.54635">
        <ele>328.3</ele>
        <time>2023-03-29T12:47:20Z</time>
      </trkpt>
      <trkpt lat="45.57744" lon="5.54629">
        <ele>328.7</ele>
        <time>2023-03-29T12:47:22Z</time>
      </trkpt>
      <trkpt lat="45.5774" lon="5.54622">
        <ele>328.8</ele>
        <time>2023-03-29T12:47:24Z</time>
      </trkpt>
      <trkpt lat="45.57735" lon="5.54615">
        <ele>329.1</ele>
        <time>2023-03-29T12:47:26Z</time>
      </trkpt>
      <trkpt lat="45.5773" lon="5.54606">
        <ele>329.4</ele>
        <time>2023-03-29T12:47:28Z</time>
      </trkpt>
      <trkpt lat="45.57726" lon="5.546">
        <ele>329.6</ele>
        <time>2023-03-29T12:47:30Z</time>
      </trkpt>
      <trkpt lat="45.57723" lon="5.54594">
        <ele>330</ele>
        <time>2023-03-29T12:47:32Z</time>
      </trkpt>
      <trkpt lat="45.5772" lon="5.54589">
        <ele>330.1</ele>
        <time>2023-03-29T12:47:34Z</time>
      </trkpt>
      <trkpt lat="45.57718" lon="5.54581">
        <ele>330.4</ele>
        <time>2023-03-29T12:47:36Z</time>
      </trkpt>
      <trkpt lat="45.57715" lon="5.54574">
        <ele>330.8</ele>
        <time>2023-03-29T12:47:39Z</time>
      </trkpt>
      <trkpt lat="45.57711" lon="5.54567">
        <ele>331.3</ele>
        <time>2023-03-29T12:47:42Z</time>
      </trkpt>
      <trkpt lat="45.57707" lon="5.54563">
        <ele>331.7</ele>
        <time>2023-03-29T12:47:45Z</time>
      </trkpt>
      <trkpt lat="45.57703" lon="5.54554">
        <ele>332.2</ele>
        <time>2023-03-29T12:47:49Z</time>
      </trkpt>
      <trkpt lat="45.577" lon="5.54548">
        <ele>332.1</ele>
        <time>2023-03-29T12:47:51Z</time>
      </trkpt>
      <trkpt lat="45.57696" lon="5.5454">
        <ele>332.4</ele>
        <time>2023-03-29T12:47:55Z</time>
      </trkpt>
      <trkpt lat="45.57692" lon="5.54536">
        <ele>332.8</ele>
        <time>2023-03-29T12:47:58Z</time>
      </trkpt>
      <trkpt lat="45.57687" lon="5.54531">
        <ele>333.1</ele>
        <time>2023-03-29T12:48:01Z</time>
      </trkpt>
      <trkpt lat="45.57685" lon="5.54525">
        <ele>333.1</ele>
        <time>2023-03-29T12:48:03Z</time>
      </trkpt>
      <trkpt lat="45.57682" lon="5.54518">
        <ele>333.5</ele>
        <time>2023-03-29T12:48:06Z</time>
      </trkpt>
      <trkpt lat="45.57676" lon="5.54511">
        <ele>333.7</ele>
        <time>2023-03-29T12:48:10Z</time>
      </trkpt>
      <trkpt lat="45.57671" lon="5.54507">
        <ele>334.1</ele>
        <time>2023-03-29T12:48:12Z</time>
      </trkpt>
      <trkpt lat="45.57667" lon="5.545">
        <ele>334.4</ele>
        <time>2023-03-29T12:48:16Z</time>
      </trkpt>
      <trkpt lat="45.57664" lon="5.54494">
        <ele>334.6</ele>
        <time>2023-03-29T12:48:18Z</time>
      </trkpt>
      <trkpt lat="45.57658" lon="5.54491">
        <ele>334.8</ele>
        <time>2023-03-29T12:48:21Z</time>
      </trkpt>
      <trkpt lat="45.57655" lon="5.54485">
        <ele>335.1</ele>
        <time>2023-03-29T12:48:24Z</time>
      </trkpt>
      <trkpt lat="45.57648" lon="5.54479">
        <ele>335.7</ele>
        <time>2023-03-29T12:48:27Z</time>
      </trkpt>
      <trkpt lat="45.57644" lon="5.54474">
        <ele>335.3</ele>
        <time>2023-03-29T12:48:29Z</time>
      </trkpt>
      <trkpt lat="45.57639" lon="5.5447">
        <ele>336.1</ele>
        <time>2023-03-29T12:48:32Z</time>
      </trkpt>
      <trkpt lat="45.57634" lon="5.54467">
        <ele>336.8</ele>
        <time>2023-03-29T12:48:34Z</time>
      </trkpt>
      <trkpt lat="45.5763" lon="5.54461">
        <ele>336.5</ele>
        <time>2023-03-29T12:48:37Z</time>
      </trkpt>
      <trkpt lat="45.57625" lon="5.54456">
        <ele>336.8</ele>
        <time>2023-03-29T12:48:40Z</time>
      </trkpt>
      <trkpt lat="45.5762" lon="5.54451">
        <ele>336.9</ele>
        <time>2023-03-29T12:48:43Z</time>
      </trkpt>
      <trkpt lat="45.57615" lon="5.54446">
        <ele>337.1</ele>
        <time>2023-03-29T12:48:45Z</time>
      </trkpt>
      <trkpt lat="45.57611" lon="5.54438">
        <ele>337.1</ele>
        <time>2023-03-29T12:48:49Z</time>
      </trkpt>
      <trkpt lat="45.57608" lon="5.5443">
        <ele>337.4</ele>
        <time>2023-03-29T12:48:51Z</time>
      </trkpt>
      <trkpt lat="45.57606" lon="5.54423">
        <ele>336.9</ele>
        <time>2023-03-29T12:48:54Z</time>
      </trkpt>
      <trkpt lat="45.57603" lon="5.54418">
        <ele>337.6</ele>
        <time>2023-03-29T12:48:56Z</time>
      </trkpt>
      <trkpt lat="45.57599" lon="5.54412">
        <ele>338.3</ele>
        <time>2023-03-29T12:48:58Z</time>
      </trkpt>
      <trkpt lat="45.57594" lon="5.54405">
        <ele>339</ele>
        <time>2023-03-29T12:49:02Z</time>
      </trkpt>
      <trkpt lat="45.5759" lon="5.54398">
        <ele>340.1</ele>
        <time>2023-03-29T12:49:05Z</time>
      </trkpt>
      <trkpt lat="45.57587" lon="5.54393">
        <ele>341</ele>
        <time>2023-03-29T12:49:11Z</time>
      </trkpt>
      <trkpt lat="45.57583" lon="5.54388">
        <ele>342</ele>
        <time>2023-03-29T12:49:14Z</time>
      </trkpt>
      <trkpt lat="45.57576" lon="5.54384">
        <ele>342.9</ele>
        <time>2023-03-29T12:49:18Z</time>
      </trkpt>
      <trkpt lat="45.57572" lon="5.54379">
        <ele>343.6</ele>
        <time>2023-03-29T12:49:21Z</time>
      </trkpt>
      <trkpt lat="45.57567" lon="5.54377">
        <ele>344.7</ele>
        <time>2023-03-29T12:49:24Z</time>
      </trkpt>
      <trkpt lat="45.57563" lon="5.54374">
        <ele>345.2</ele>
        <time>2023-03-29T12:49:27Z</time>
      </trkpt>
      <trkpt lat="45.57559" lon="5.5437">
        <ele>345.4</ele>
        <time>2023-03-29T12:49:31Z</time>
      </trkpt>
      <trkpt lat="45.57555" lon="5.54367">
        <ele>345.6</ele>
        <time>2023-03-29T12:49:35Z</time>
      </trkpt>
      <trkpt lat="45.5755" lon="5.54362">
        <ele>345.7</ele>
        <time>2023-03-29T12:49:41Z</time>
      </trkpt>
      <trkpt lat="45.57545" lon="5.5436">
        <ele>346.9</ele>
        <time>2023-03-29T12:49:44Z</time>
      </trkpt>
      <trkpt lat="45.57539" lon="5.54358">
        <ele>346.9</ele>
        <time>2023-03-29T12:49:49Z</time>
      </trkpt>
      <trkpt lat="45.57534" lon="5.54356">
        <ele>347.6</ele>
        <time>2023-03-29T12:49:54Z</time>
      </trkpt>
      <trkpt lat="45.5753" lon="5.54353">
        <ele>347.6</ele>
        <time>2023-03-29T12:50:06Z</time>
      </trkpt>
      <trkpt lat="45.57525" lon="5.54351">
        <ele>348.4</ele>
        <time>2023-03-29T12:50:10Z</time>
      </trkpt>
      <trkpt lat="45.57518" lon="5.5435">
        <ele>349.2</ele>
        <time>2023-03-29T12:50:13Z</time>
      </trkpt>
      <trkpt lat="45.57512" lon="5.54348">
        <ele>350.1</ele>
        <time>2023-03-29T12:50:17Z</time>
      </trkpt>
      <trkpt lat="45.57507" lon="5.54346">
        <ele>350.2</ele>
        <time>2023-03-29T12:50:22Z</time>
      </trkpt>
      <trkpt lat="45.57503" lon="5.54343">
        <ele>351.1</ele>
        <time>2023-03-29T12:50:25Z</time>
      </trkpt>
      <trkpt lat="45.57497" lon="5.54339">
        <ele>352.1</ele>
        <time>2023-03-29T12:50:29Z</time>
      </trkpt>
      <trkpt lat="45.57491" lon="5.54336">
        <ele>352.3</ele>
        <time>2023-03-29T12:50:32Z</time>
      </trkpt>
      <trkpt lat="45.57485" lon="5.54332">
        <ele>353.1</ele>
        <time>2023-03-29T12:50:36Z</time>
      </trkpt>
      <trkpt lat="45.57478" lon="5.54327">
        <ele>353.3</ele>
        <time>2023-03-29T12:50:39Z</time>
      </trkpt>
      <trkpt lat="45.57473" lon="5.54324">
        <ele>353.7</ele>
        <time>2023-03-29T12:50:43Z</time>
      </trkpt>
      <trkpt lat="45.57469" lon="5.54319">
        <ele>354.1</ele>
        <time>2023-03-29T12:50:45Z</time>
      </trkpt>
      <trkpt lat="45.57464" lon="5.54311">
        <ele>354.4</ele>
        <time>2023-03-29T12:50:49Z</time>
      </trkpt>
      <trkpt lat="45.57459" lon="5.54305">
        <ele>355.7</ele>
        <time>2023-03-29T12:50:53Z</time>
      </trkpt>
      <trkpt lat="45.57454" lon="5.54299">
        <ele>356.1</ele>
        <time>2023-03-29T12:50:56Z</time>
      </trkpt>
      <trkpt lat="45.5745" lon="5.54291">
        <ele>356.2</ele>
        <time>2023-03-29T12:51:00Z</time>
      </trkpt>
      <trkpt lat="45.57447" lon="5.54283">
        <ele>356.1</ele>
        <time>2023-03-29T12:51:05Z</time>
      </trkpt>
      <trkpt lat="45.57447" lon="5.54276">
        <ele>355.8</ele>
        <time>2023-03-29T12:51:08Z</time>
      </trkpt>
      <trkpt lat="45.57447" lon="5.54266">
        <ele>355.3</ele>
        <time>2023-03-29T12:51:12Z</time>
      </trkpt>
      <trkpt lat="45.57445" lon="5.54257">
        <ele>355</ele>
        <time>2023-03-29T12:51:14Z</time>
      </trkpt>
      <trkpt lat="45.57442" lon="5.54249">
        <ele>355</ele>
        <time>2023-03-29T12:51:17Z</time>
      </trkpt>
      <trkpt lat="45.57439" lon="5.5424">
        <ele>354.8</ele>
        <time>2023-03-29T12:51:20Z</time>
      </trkpt>
      <trkpt lat="45.57437" lon="5.54233">
        <ele>354.8</ele>
        <time>2023-03-29T12:51:23Z</time>
      </trkpt>
      <trkpt lat="45.57433" lon="5.54227">
        <ele>355</ele>
        <time>2023-03-29T12:51:25Z</time>
      </trkpt>
      <trkpt lat="45.57429" lon="5.54221">
        <ele>355</ele>
        <time>2023-03-29T12:51:27Z</time>
      </trkpt>
      <trkpt lat="45.57427" lon="5.54215">
        <ele>354.9</ele>
        <time>2023-03-29T12:51:29Z</time>
      </trkpt>
      <trkpt lat="45.57422" lon="5.5421">
        <ele>355</ele>
        <time>2023-03-29T12:51:31Z</time>
      </trkpt>
      <trkpt lat="45.57419" lon="5.54203">
        <ele>355.1</ele>
        <time>2023-03-29T12:51:34Z</time>
      </trkpt>
      <trkpt lat="45.57416" lon="5.54197">
        <ele>355.4</ele>
        <time>2023-03-29T12:51:36Z</time>
      </trkpt>
      <trkpt lat="45.5741" lon="5.54189">
        <ele>356.4</ele>
        <time>2023-03-29T12:51:39Z</time>
      </trkpt>
      <trkpt lat="45.57406" lon="5.54184">
        <ele>357.2</ele>
        <time>2023-03-29T12:51:41Z</time>
      </trkpt>
      <trkpt lat="45.574" lon="5.54179">
        <ele>357.8</ele>
        <time>2023-03-29T12:51:43Z</time>
      </trkpt>
      <trkpt lat="45.57394" lon="5.54177">
        <ele>358</ele>
        <time>2023-03-29T12:51:45Z</time>
      </trkpt>
      <trkpt lat="45.57387" lon="5.54173">
        <ele>358.2</ele>
        <time>2023-03-29T12:51:47Z</time>
      </trkpt>
      <trkpt lat="45.57382" lon="5.54169">
        <ele>358.3</ele>
        <time>2023-03-29T12:51:50Z</time>
      </trkpt>
      <trkpt lat="45.57377" lon="5.54167">
        <ele>358.1</ele>
        <time>2023-03-29T12:51:51Z</time>
      </trkpt>
      <trkpt lat="45.57373" lon="5.54166">
        <ele>358</ele>
        <time>2023-03-29T12:51:53Z</time>
      </trkpt>
      <trkpt lat="45.57365" lon="5.54163">
        <ele>358</ele>
        <time>2023-03-29T12:51:56Z</time>
      </trkpt>
      <trkpt lat="45.5736" lon="5.54162">
        <ele>357.7</ele>
        <time>2023-03-29T12:51:58Z</time>
      </trkpt>
      <trkpt lat="45.57355" lon="5.54163">
        <ele>357.6</ele>
        <time>2023-03-29T12:52:00Z</time>
      </trkpt>
      <trkpt lat="45.5735" lon="5.54163">
        <ele>357.6</ele>
        <time>2023-03-29T12:52:03Z</time>
      </trkpt>
      <trkpt lat="45.57344" lon="5.5416">
        <ele>357.6</ele>
        <time>2023-03-29T12:52:05Z</time>
      </trkpt>
      <trkpt lat="45.5734" lon="5.54157">
        <ele>357.8</ele>
        <time>2023-03-29T12:52:07Z</time>
      </trkpt>
      <trkpt lat="45.57336" lon="5.54152">
        <ele>357.9</ele>
        <time>2023-03-29T12:52:09Z</time>
      </trkpt>
      <trkpt lat="45.57331" lon="5.5415">
        <ele>358</ele>
        <time>2023-03-29T12:52:12Z</time>
      </trkpt>
      <trkpt lat="45.57325" lon="5.54148">
        <ele>358.2</ele>
        <time>2023-03-29T12:52:14Z</time>
      </trkpt>
      <trkpt lat="45.5732" lon="5.54144">
        <ele>358.4</ele>
        <time>2023-03-29T12:52:16Z</time>
      </trkpt>
      <trkpt lat="45.57313" lon="5.54139">
        <ele>358.6</ele>
        <time>2023-03-29T12:52:19Z</time>
      </trkpt>
      <trkpt lat="45.57308" lon="5.54134">
        <ele>358.8</ele>
        <time>2023-03-29T12:52:21Z</time>
      </trkpt>
      <trkpt lat="45.57304" lon="5.54132">
        <ele>358.9</ele>
        <time>2023-03-29T12:52:23Z</time>
      </trkpt>
      <trkpt lat="45.57299" lon="5.54126">
        <ele>359.1</ele>
        <time>2023-03-29T12:52:25Z</time>
      </trkpt>
      <trkpt lat="45.57293" lon="5.54123">
        <ele>359.2</ele>
        <time>2023-03-29T12:52:27Z</time>
      </trkpt>
      <trkpt lat="45.57288" lon="5.54121">
        <ele>359.2</ele>
        <time>2023-03-29T12:52:29Z</time>
      </trkpt>
      <trkpt lat="45.57283" lon="5.54118">
        <ele>359.1</ele>
        <time>2023-03-29T12:52:31Z</time>
      </trkpt>
      <trkpt lat="45.57276" lon="5.54115">
        <ele>359.1</ele>
        <time>2023-03-29T12:52:34Z</time>
      </trkpt>
      <trkpt lat="45.5727" lon="5.54113">
        <ele>359</ele>
        <time>2023-03-29T12:52:36Z</time>
      </trkpt>
      <trkpt lat="45.57265" lon="5.54113">
        <ele>358.9</ele>
        <time>2023-03-29T12:52:38Z</time>
      </trkpt>
      <trkpt lat="45.57258" lon="5.54109">
        <ele>358.7</ele>
        <time>2023-03-29T12:52:42Z</time>
      </trkpt>
      <trkpt lat="45.57253" lon="5.54109">
        <ele>359</ele>
        <time>2023-03-29T12:52:44Z</time>
      </trkpt>
      <trkpt lat="45.57247" lon="5.54108">
        <ele>359.3</ele>
        <time>2023-03-29T12:52:46Z</time>
      </trkpt>
      <trkpt lat="45.57242" lon="5.54108">
        <ele>359.5</ele>
        <time>2023-03-29T12:52:48Z</time>
      </trkpt>
      <trkpt lat="45.57235" lon="5.54107">
        <ele>359.8</ele>
        <time>2023-03-29T12:52:51Z</time>
      </trkpt>
      <trkpt lat="45.57231" lon="5.54108">
        <ele>359.9</ele>
        <time>2023-03-29T12:52:53Z</time>
      </trkpt>
      <trkpt lat="45.57225" lon="5.54108">
        <ele>359.9</ele>
        <time>2023-03-29T12:52:55Z</time>
      </trkpt>
      <trkpt lat="45.57217" lon="5.54108">
        <ele>359.6</ele>
        <time>2023-03-29T12:52:58Z</time>
      </trkpt>
      <trkpt lat="45.57211" lon="5.54107">
        <ele>359.4</ele>
        <time>2023-03-29T12:53:00Z</time>
      </trkpt>
      <trkpt lat="45.57202" lon="5.54106">
        <ele>358.8</ele>
        <time>2023-03-29T12:53:03Z</time>
      </trkpt>
      <trkpt lat="45.57196" lon="5.54105">
        <ele>358.5</ele>
        <time>2023-03-29T12:53:06Z</time>
      </trkpt>
      <trkpt lat="45.57189" lon="5.54106">
        <ele>358.5</ele>
        <time>2023-03-29T12:53:10Z</time>
      </trkpt>
      <trkpt lat="45.57184" lon="5.54104">
        <ele>358.2</ele>
        <time>2023-03-29T12:53:13Z</time>
      </trkpt>
      <trkpt lat="45.57181" lon="5.54097">
        <ele>358</ele>
        <time>2023-03-29T12:53:15Z</time>
      </trkpt>
      <trkpt lat="45.57177" lon="5.54091">
        <ele>357.8</ele>
        <time>2023-03-29T12:53:17Z</time>
      </trkpt>
      <trkpt lat="45.57173" lon="5.54085">
        <ele>357.7</ele>
        <time>2023-03-29T12:53:21Z</time>
      </trkpt>
      <trkpt lat="45.5717" lon="5.54081">
        <ele>357.6</ele>
        <time>2023-03-29T12:53:23Z</time>
      </trkpt>
      <trkpt lat="45.57164" lon="5.54072">
        <ele>357.5</ele>
        <time>2023-03-29T12:53:26Z</time>
      </trkpt>
      <trkpt lat="45.57161" lon="5.54065">
        <ele>357.5</ele>
        <time>2023-03-29T12:53:28Z</time>
      </trkpt>
      <trkpt lat="45.5716" lon="5.54054">
        <ele>357.6</ele>
        <time>2023-03-29T12:53:30Z</time>
      </trkpt>
      <trkpt lat="45.57158" lon="5.54042">
        <ele>357.8</ele>
        <time>2023-03-29T12:53:33Z</time>
      </trkpt>
      <trkpt lat="45.57155" lon="5.54032">
        <ele>358.2</ele>
        <time>2023-03-29T12:53:36Z</time>
      </trkpt>
      <trkpt lat="45.57152" lon="5.54024">
        <ele>358.6</ele>
        <time>2023-03-29T12:53:38Z</time>
      </trkpt>
      <trkpt lat="45.57149" lon="5.54016">
        <ele>358.9</ele>
        <time>2023-03-29T12:53:41Z</time>
      </trkpt>
      <trkpt lat="45.57145" lon="5.54009">
        <ele>359.5</ele>
        <time>2023-03-29T12:53:43Z</time>
      </trkpt>
      <trkpt lat="45.57142" lon="5.54003">
        <ele>359.8</ele>
        <time>2023-03-29T12:53:45Z</time>
      </trkpt>
      <trkpt lat="45.57138" lon="5.53998">
        <ele>360.5</ele>
        <time>2023-03-29T12:53:47Z</time>
      </trkpt>
      <trkpt lat="45.57135" lon="5.53992">
        <ele>361.1</ele>
        <time>2023-03-29T12:53:49Z</time>
      </trkpt>
      <trkpt lat="45.5713" lon="5.53989">
        <ele>361.6</ele>
        <time>2023-03-29T12:53:51Z</time>
      </trkpt>
      <trkpt lat="45.57124" lon="5.53987">
        <ele>362.2</ele>
        <time>2023-03-29T12:53:54Z</time>
      </trkpt>
      <trkpt lat="45.57119" lon="5.53989">
        <ele>362.4</ele>
        <time>2023-03-29T12:53:56Z</time>
      </trkpt>
      <trkpt lat="45.57115" lon="5.53994">
        <ele>362.3</ele>
        <time>2023-03-29T12:53:58Z</time>
      </trkpt>
      <trkpt lat="45.57109" lon="5.54">
        <ele>361.9</ele>
        <time>2023-03-29T12:54:01Z</time>
      </trkpt>
      <trkpt lat="45.57105" lon="5.54005">
        <ele>361.8</ele>
        <time>2023-03-29T12:54:03Z</time>
      </trkpt>
      <trkpt lat="45.57101" lon="5.54011">
        <ele>361.8</ele>
        <time>2023-03-29T12:54:05Z</time>
      </trkpt>
      <trkpt lat="45.57097" lon="5.54015">
        <ele>361.8</ele>
        <time>2023-03-29T12:54:08Z</time>
      </trkpt>
      <trkpt lat="45.57092" lon="5.54019">
        <ele>361.9</ele>
        <time>2023-03-29T12:54:12Z</time>
      </trkpt>
      <trkpt lat="45.57088" lon="5.54023">
        <ele>361.9</ele>
        <time>2023-03-29T12:54:16Z</time>
      </trkpt>
      <trkpt lat="45.57084" lon="5.54027">
        <ele>361.9</ele>
        <time>2023-03-29T12:54:18Z</time>
      </trkpt>
      <trkpt lat="45.5708" lon="5.5403">
        <ele>362</ele>
        <time>2023-03-29T12:54:20Z</time>
      </trkpt>
      <trkpt lat="45.57075" lon="5.54034">
        <ele>362.1</ele>
        <time>2023-03-29T12:54:24Z</time>
      </trkpt>
      <trkpt lat="45.57072" lon="5.5404">
        <ele>362.2</ele>
        <time>2023-03-29T12:54:26Z</time>
      </trkpt>
      <trkpt lat="45.57068" lon="5.54044">
        <ele>362.3</ele>
        <time>2023-03-29T12:54:29Z</time>
      </trkpt>
      <trkpt lat="45.57064" lon="5.54048">
        <ele>362.4</ele>
        <time>2023-03-29T12:54:33Z</time>
      </trkpt>
      <trkpt lat="45.57059" lon="5.54051">
        <ele>362.6</ele>
        <time>2023-03-29T12:54:36Z</time>
      </trkpt>
      <trkpt lat="45.57053" lon="5.54056">
        <ele>362.7</ele>
        <time>2023-03-29T12:54:40Z</time>
      </trkpt>
      <trkpt lat="45.57049" lon="5.54061">
        <ele>362.9</ele>
        <time>2023-03-29T12:54:42Z</time>
      </trkpt>
      <trkpt lat="45.57045" lon="5.54065">
        <ele>363</ele>
        <time>2023-03-29T12:54:45Z</time>
      </trkpt>
      <trkpt lat="45.5704" lon="5.54069">
        <ele>363</ele>
        <time>2023-03-29T12:54:50Z</time>
      </trkpt>
      <trkpt lat="45.57035" lon="5.54074">
        <ele>363</ele>
        <time>2023-03-29T12:54:55Z</time>
      </trkpt>
      <trkpt lat="45.57027" lon="5.54082">
        <ele>362.9</ele>
        <time>2023-03-29T12:55:01Z</time>
      </trkpt>
      <trkpt lat="45.5702" lon="5.54089">
        <ele>362.5</ele>
        <time>2023-03-29T12:55:03Z</time>
      </trkpt>
      <trkpt lat="45.57014" lon="5.54094">
        <ele>362.3</ele>
        <time>2023-03-29T12:55:05Z</time>
      </trkpt>
      <trkpt lat="45.57009" lon="5.54099">
        <ele>362.1</ele>
        <time>2023-03-29T12:55:08Z</time>
      </trkpt>
      <trkpt lat="45.57004" lon="5.54102">
        <ele>362.3</ele>
        <time>2023-03-29T12:55:12Z</time>
      </trkpt>
      <trkpt lat="45.56998" lon="5.54103">
        <ele>362.7</ele>
        <time>2023-03-29T12:55:16Z</time>
      </trkpt>
      <trkpt lat="45.56993" lon="5.54105">
        <ele>363.2</ele>
        <time>2023-03-29T12:55:21Z</time>
      </trkpt>
      <trkpt lat="45.56985" lon="5.54101">
        <ele>364.8</ele>
        <time>2023-03-29T12:55:27Z</time>
      </trkpt>
      <trkpt lat="45.56979" lon="5.54096">
        <ele>365.8</ele>
        <time>2023-03-29T12:55:29Z</time>
      </trkpt>
      <trkpt lat="45.56975" lon="5.54093">
        <ele>366.9</ele>
        <time>2023-03-29T12:55:31Z</time>
      </trkpt>
      <trkpt lat="45.56971" lon="5.5409">
        <ele>367.9</ele>
        <time>2023-03-29T12:55:34Z</time>
      </trkpt>
      <trkpt lat="45.56966" lon="5.54087">
        <ele>368.4</ele>
        <time>2023-03-29T12:55:36Z</time>
      </trkpt>
      <trkpt lat="45.56963" lon="5.54082">
        <ele>369.4</ele>
        <time>2023-03-29T12:55:43Z</time>
      </trkpt>
      <trkpt lat="45.56959" lon="5.54076">
        <ele>370.4</ele>
        <time>2023-03-29T12:55:47Z</time>
      </trkpt>
      <trkpt lat="45.56953" lon="5.5407">
        <ele>371.7</ele>
        <time>2023-03-29T12:55:50Z</time>
      </trkpt>
      <trkpt lat="45.5695" lon="5.54065">
        <ele>372.5</ele>
        <time>2023-03-29T12:55:53Z</time>
      </trkpt>
      <trkpt lat="45.56946" lon="5.54061">
        <ele>373.3</ele>
        <time>2023-03-29T12:55:55Z</time>
      </trkpt>
      <trkpt lat="45.56942" lon="5.54054">
        <ele>374.4</ele>
        <time>2023-03-29T12:55:59Z</time>
      </trkpt>
      <trkpt lat="45.56942" lon="5.54047">
        <ele>374.6</ele>
        <time>2023-03-29T12:56:07Z</time>
      </trkpt>
      <trkpt lat="45.56942" lon="5.5404">
        <ele>375.1</ele>
        <time>2023-03-29T12:56:09Z</time>
      </trkpt>
      <trkpt lat="45.56942" lon="5.54034">
        <ele>375.3</ele>
        <time>2023-03-29T12:56:12Z</time>
      </trkpt>
      <trkpt lat="45.56941" lon="5.54026">
        <ele>375.7</ele>
        <time>2023-03-29T12:56:20Z</time>
      </trkpt>
      <trkpt lat="45.56939" lon="5.54018">
        <ele>376.5</ele>
        <time>2023-03-29T12:56:22Z</time>
      </trkpt>
      <trkpt lat="45.56938" lon="5.54011">
        <ele>376.8</ele>
        <time>2023-03-29T12:56:24Z</time>
      </trkpt>
      <trkpt lat="45.56937" lon="5.54002">
        <ele>377.1</ele>
        <time>2023-03-29T12:56:28Z</time>
      </trkpt>
      <trkpt lat="45.56937" lon="5.53995">
        <ele>377.2</ele>
        <time>2023-03-29T12:56:31Z</time>
      </trkpt>
      <trkpt lat="45.56938" lon="5.53988">
        <ele>377.6</ele>
        <time>2023-03-29T12:56:36Z</time>
      </trkpt>
      <trkpt lat="45.56939" lon="5.5398">
        <ele>377.9</ele>
        <time>2023-03-29T12:56:44Z</time>
      </trkpt>
      <trkpt lat="45.56939" lon="5.53973">
        <ele>378.1</ele>
        <time>2023-03-29T12:56:47Z</time>
      </trkpt>
      <trkpt lat="45.5694" lon="5.53964">
        <ele>378.8</ele>
        <time>2023-03-29T12:56:54Z</time>
      </trkpt>
      <trkpt lat="45.5694" lon="5.53958">
        <ele>379</ele>
        <time>2023-03-29T12:56:56Z</time>
      </trkpt>
      <trkpt lat="45.56941" lon="5.5395">
        <ele>379.1</ele>
        <time>2023-03-29T12:56:58Z</time>
      </trkpt>
      <trkpt lat="45.56941" lon="5.53943">
        <ele>379.3</ele>
        <time>2023-03-29T12:57:00Z</time>
      </trkpt>
      <trkpt lat="45.56941" lon="5.53936">
        <ele>379.8</ele>
        <time>2023-03-29T12:57:02Z</time>
      </trkpt>
      <trkpt lat="45.56941" lon="5.53927">
        <ele>380.3</ele>
        <time>2023-03-29T12:57:04Z</time>
      </trkpt>
      <trkpt lat="45.56941" lon="5.53917">
        <ele>380.8</ele>
        <time>2023-03-29T12:57:07Z</time>
      </trkpt>
      <trkpt lat="45.56943" lon="5.53905">
        <ele>381.5</ele>
        <time>2023-03-29T12:57:10Z</time>
      </trkpt>
      <trkpt lat="45.56944" lon="5.53896">
        <ele>381.7</ele>
        <time>2023-03-29T12:57:12Z</time>
      </trkpt>
      <trkpt lat="45.56945" lon="5.53886">
        <ele>381.7</ele>
        <time>2023-03-29T12:57:16Z</time>
      </trkpt>
      <trkpt lat="45.56946" lon="5.53877">
        <ele>381.9</ele>
        <time>2023-03-29T12:57:19Z</time>
      </trkpt>
      <trkpt lat="45.56946" lon="5.5387">
        <ele>382</ele>
        <time>2023-03-29T12:57:22Z</time>
      </trkpt>
      <trkpt lat="45.56945" lon="5.53863">
        <ele>382.2</ele>
        <time>2023-03-29T12:57:25Z</time>
      </trkpt>
      <trkpt lat="45.56946" lon="5.53857">
        <ele>382.3</ele>
        <time>2023-03-29T12:57:28Z</time>
      </trkpt>
      <trkpt lat="45.56946" lon="5.53849">
        <ele>382.5</ele>
        <time>2023-03-29T12:57:31Z</time>
      </trkpt>
      <trkpt lat="45.56946" lon="5.53843">
        <ele>382.6</ele>
        <time>2023-03-29T12:57:34Z</time>
      </trkpt>
      <trkpt lat="45.56946" lon="5.53835">
        <ele>382.7</ele>
        <time>2023-03-29T12:57:36Z</time>
      </trkpt>
      <trkpt lat="45.56946" lon="5.53829">
        <ele>382.8</ele>
        <time>2023-03-29T12:57:39Z</time>
      </trkpt>
      <trkpt lat="45.56946" lon="5.53821">
        <ele>382.9</ele>
        <time>2023-03-29T12:57:42Z</time>
      </trkpt>
      <trkpt lat="45.56947" lon="5.53813">
        <ele>383.1</ele>
        <time>2023-03-29T12:57:46Z</time>
      </trkpt>
      <trkpt lat="45.56946" lon="5.53806">
        <ele>383.2</ele>
        <time>2023-03-29T12:57:49Z</time>
      </trkpt>
      <trkpt lat="45.56946" lon="5.53799">
        <ele>383.2</ele>
        <time>2023-03-29T12:57:52Z</time>
      </trkpt>
      <trkpt lat="45.56946" lon="5.53791">
        <ele>383.5</ele>
        <time>2023-03-29T12:57:56Z</time>
      </trkpt>
      <trkpt lat="45.56946" lon="5.53784">
        <ele>383.7</ele>
        <time>2023-03-29T12:57:58Z</time>
      </trkpt>
      <trkpt lat="45.56946" lon="5.53777">
        <ele>384</ele>
        <time>2023-03-29T12:58:01Z</time>
      </trkpt>
      <trkpt lat="45.56948" lon="5.53769">
        <ele>384.3</ele>
        <time>2023-03-29T12:58:04Z</time>
      </trkpt>
      <trkpt lat="45.56949" lon="5.53762">
        <ele>384.1</ele>
        <time>2023-03-29T12:58:08Z</time>
      </trkpt>
      <trkpt lat="45.56949" lon="5.53754">
        <ele>384.2</ele>
        <time>2023-03-29T12:58:12Z</time>
      </trkpt>
      <trkpt lat="45.56949" lon="5.53748">
        <ele>384.5</ele>
        <time>2023-03-29T12:58:14Z</time>
      </trkpt>
      <trkpt lat="45.5695" lon="5.53738">
        <ele>384.7</ele>
        <time>2023-03-29T12:58:17Z</time>
      </trkpt>
      <trkpt lat="45.56951" lon="5.53728">
        <ele>385</ele>
        <time>2023-03-29T12:58:20Z</time>
      </trkpt>
      <trkpt lat="45.56952" lon="5.53719">
        <ele>385.2</ele>
        <time>2023-03-29T12:58:24Z</time>
      </trkpt>
      <trkpt lat="45.56952" lon="5.53712">
        <ele>385.3</ele>
        <time>2023-03-29T12:58:26Z</time>
      </trkpt>
      <trkpt lat="45.56953" lon="5.53705">
        <ele>385.1</ele>
        <time>2023-03-29T12:58:29Z</time>
      </trkpt>
      <trkpt lat="45.56953" lon="5.53696">
        <ele>385.3</ele>
        <time>2023-03-29T12:58:32Z</time>
      </trkpt>
      <trkpt lat="45.56953" lon="5.53688">
        <ele>385.5</ele>
        <time>2023-03-29T12:58:35Z</time>
      </trkpt>
      <trkpt lat="45.56954" lon="5.53679">
        <ele>385.7</ele>
        <time>2023-03-29T12:58:38Z</time>
      </trkpt>
      <trkpt lat="45.56954" lon="5.53671">
        <ele>385.9</ele>
        <time>2023-03-29T12:58:42Z</time>
      </trkpt>
      <trkpt lat="45.56955" lon="5.53663">
        <ele>386.2</ele>
        <time>2023-03-29T12:58:45Z</time>
      </trkpt>
      <trkpt lat="45.56951" lon="5.53658">
        <ele>386.8</ele>
        <time>2023-03-29T12:58:48Z</time>
      </trkpt>
      <trkpt lat="45.56946" lon="5.53658">
        <ele>387.4</ele>
        <time>2023-03-29T12:58:52Z</time>
      </trkpt>
      <trkpt lat="45.5694" lon="5.53657">
        <ele>388.4</ele>
        <time>2023-03-29T12:58:55Z</time>
      </trkpt>
      <trkpt lat="45.56934" lon="5.53658">
        <ele>388.9</ele>
        <time>2023-03-29T12:58:59Z</time>
      </trkpt>
      <trkpt lat="45.56929" lon="5.53658">
        <ele>389.4</ele>
        <time>2023-03-29T12:59:02Z</time>
      </trkpt>
      <trkpt lat="45.56923" lon="5.53657">
        <ele>389.9</ele>
        <time>2023-03-29T12:59:06Z</time>
      </trkpt>
      <trkpt lat="45.56916" lon="5.53656">
        <ele>390.8</ele>
        <time>2023-03-29T12:59:10Z</time>
      </trkpt>
      <trkpt lat="45.56912" lon="5.53655">
        <ele>391.1</ele>
        <time>2023-03-29T12:59:13Z</time>
      </trkpt>
      <trkpt lat="45.56907" lon="5.53655">
        <ele>391.3</ele>
        <time>2023-03-29T12:59:17Z</time>
      </trkpt>
      <trkpt lat="45.56902" lon="5.53655">
        <ele>391.5</ele>
        <time>2023-03-29T12:59:20Z</time>
      </trkpt>
      <trkpt lat="45.56908" lon="5.5365">
        <ele>391.4</ele>
        <time>2023-03-29T12:59:36Z</time>
      </trkpt>
      <trkpt lat="45.56901" lon="5.53656">
        <ele>391.6</ele>
        <time>2023-03-29T13:00:00Z</time>
      </trkpt>
      <trkpt lat="45.56897" lon="5.53652">
        <ele>391.8</ele>
        <time>2023-03-29T13:00:08Z</time>
      </trkpt>
      <trkpt lat="45.5689" lon="5.53654">
        <ele>391.7</ele>
        <time>2023-03-29T13:00:09Z</time>
      </trkpt>
      <trkpt lat="45.56882" lon="5.53656">
        <ele>391.4</ele>
        <time>2023-03-29T13:00:10Z</time>
      </trkpt>
      <trkpt lat="45.56875" lon="5.53654">
        <ele>390.7</ele>
        <time>2023-03-29T13:00:11Z</time>
      </trkpt>
      <trkpt lat="45.56868" lon="5.53653">
        <ele>390.2</ele>
        <time>2023-03-29T13:00:12Z</time>
      </trkpt>
      <trkpt lat="45.56861" lon="5.53651">
        <ele>389.3</ele>
        <time>2023-03-29T13:00:13Z</time>
      </trkpt>
      <trkpt lat="45.56854" lon="5.5365">
        <ele>388.2</ele>
        <time>2023-03-29T13:00:14Z</time>
      </trkpt>
      <trkpt lat="45.56846" lon="5.53648">
        <ele>387.7</ele>
        <time>2023-03-29T13:00:15Z</time>
      </trkpt>
      <trkpt lat="45.56839" lon="5.53648">
        <ele>386.9</ele>
        <time>2023-03-29T13:00:16Z</time>
      </trkpt>
      <trkpt lat="45.56831" lon="5.53649">
        <ele>386.1</ele>
        <time>2023-03-29T13:00:17Z</time>
      </trkpt>
      <trkpt lat="45.56823" lon="5.53649">
        <ele>385.2</ele>
        <time>2023-03-29T13:00:18Z</time>
      </trkpt>
      <trkpt lat="45.56815" lon="5.53649">
        <ele>384.3</ele>
        <time>2023-03-29T13:00:19Z</time>
      </trkpt>
      <trkpt lat="45.56807" lon="5.53648">
        <ele>383.2</ele>
        <time>2023-03-29T13:00:20Z</time>
      </trkpt>
      <trkpt lat="45.56798" lon="5.53647">
        <ele>382</ele>
        <time>2023-03-29T13:00:21Z</time>
      </trkpt>
      <trkpt lat="45.56789" lon="5.53646">
        <ele>380.8</ele>
        <time>2023-03-29T13:00:22Z</time>
      </trkpt>
      <trkpt lat="45.5678" lon="5.53645">
        <ele>380.2</ele>
        <time>2023-03-29T13:00:23Z</time>
      </trkpt>
      <trkpt lat="45.56772" lon="5.53646">
        <ele>379.4</ele>
        <time>2023-03-29T13:00:24Z</time>
      </trkpt>
      <trkpt lat="45.56763" lon="5.53647">
        <ele>378.9</ele>
        <time>2023-03-29T13:00:25Z</time>
      </trkpt>
      <trkpt lat="45.56754" lon="5.53647">
        <ele>378.4</ele>
        <time>2023-03-29T13:00:26Z</time>
      </trkpt>
      <trkpt lat="45.56746" lon="5.53646">
        <ele>378.2</ele>
        <time>2023-03-29T13:00:27Z</time>
      </trkpt>
      <trkpt lat="45.56738" lon="5.53645">
        <ele>378</ele>
        <time>2023-03-29T13:00:28Z</time>
      </trkpt>
      <trkpt lat="45.56731" lon="5.53642">
        <ele>378</ele>
        <time>2023-03-29T13:00:29Z</time>
      </trkpt>
      <trkpt lat="45.56725" lon="5.53637">
        <ele>378</ele>
        <time>2023-03-29T13:00:30Z</time>
      </trkpt>
      <trkpt lat="45.5672" lon="5.5363">
        <ele>377.9</ele>
        <time>2023-03-29T13:00:31Z</time>
      </trkpt>
      <trkpt lat="45.56717" lon="5.53624">
        <ele>378</ele>
        <time>2023-03-29T13:00:32Z</time>
      </trkpt>
      <trkpt lat="45.56713" lon="5.53618">
        <ele>378</ele>
        <time>2023-03-29T13:00:33Z</time>
      </trkpt>
      <trkpt lat="45.5671" lon="5.53614">
        <ele>378</ele>
        <time>2023-03-29T13:00:34Z</time>
      </trkpt>
      <trkpt lat="45.56704" lon="5.53608">
        <ele>378</ele>
        <time>2023-03-29T13:00:36Z</time>
      </trkpt>
      <trkpt lat="45.56699" lon="5.53605">
        <ele>377.8</ele>
        <time>2023-03-29T13:00:37Z</time>
      </trkpt>
      <trkpt lat="45.56694" lon="5.53603">
        <ele>377.4</ele>
        <time>2023-03-29T13:00:38Z</time>
      </trkpt>
      <trkpt lat="45.5669" lon="5.536">
        <ele>377.3</ele>
        <time>2023-03-29T13:00:39Z</time>
      </trkpt>
      <trkpt lat="45.56686" lon="5.53598">
        <ele>376.9</ele>
        <time>2023-03-29T13:00:40Z</time>
      </trkpt>
      <trkpt lat="45.5668" lon="5.53592">
        <ele>376.4</ele>
        <time>2023-03-29T13:00:42Z</time>
      </trkpt>
      <trkpt lat="45.56676" lon="5.53587">
        <ele>375.8</ele>
        <time>2023-03-29T13:00:43Z</time>
      </trkpt>
      <trkpt lat="45.56673" lon="5.53581">
        <ele>375.3</ele>
        <time>2023-03-29T13:00:44Z</time>
      </trkpt>
      <trkpt lat="45.56671" lon="5.5357">
        <ele>375.2</ele>
        <time>2023-03-29T13:00:46Z</time>
      </trkpt>
      <trkpt lat="45.56672" lon="5.53564">
        <ele>375.2</ele>
        <time>2023-03-29T13:00:47Z</time>
      </trkpt>
      <trkpt lat="45.56676" lon="5.53551">
        <ele>375.7</ele>
        <time>2023-03-29T13:00:50Z</time>
      </trkpt>
      <trkpt lat="45.56679" lon="5.53542">
        <ele>376.1</ele>
        <time>2023-03-29T13:00:51Z</time>
      </trkpt>
      <trkpt lat="45.56682" lon="5.53537">
        <ele>377</ele>
        <time>2023-03-29T13:00:52Z</time>
      </trkpt>
      <trkpt lat="45.56684" lon="5.53531">
        <ele>376.8</ele>
        <time>2023-03-29T13:00:53Z</time>
      </trkpt>
      <trkpt lat="45.56688" lon="5.53522">
        <ele>377.7</ele>
        <time>2023-03-29T13:00:56Z</time>
      </trkpt>
      <trkpt lat="45.56693" lon="5.53517">
        <ele>377.4</ele>
        <time>2023-03-29T13:00:58Z</time>
      </trkpt>
      <trkpt lat="45.56696" lon="5.53512">
        <ele>377.2</ele>
        <time>2023-03-29T13:01:01Z</time>
      </trkpt>
      <trkpt lat="45.56703" lon="5.53505">
        <ele>377</ele>
        <time>2023-03-29T13:01:05Z</time>
      </trkpt>
      <trkpt lat="45.56708" lon="5.535">
        <ele>377.2</ele>
        <time>2023-03-29T13:01:07Z</time>
      </trkpt>
      <trkpt lat="45.5671" lon="5.53494">
        <ele>377.4</ele>
        <time>2023-03-29T13:01:19Z</time>
      </trkpt>
      <trkpt lat="45.56717" lon="5.53485">
        <ele>377.8</ele>
        <time>2023-03-29T13:01:21Z</time>
      </trkpt>
      <trkpt lat="45.56721" lon="5.53481">
        <ele>377.8</ele>
        <time>2023-03-29T13:01:23Z</time>
      </trkpt>
      <trkpt lat="45.56726" lon="5.53475">
        <ele>378.3</ele>
        <time>2023-03-29T13:01:25Z</time>
      </trkpt>
      <trkpt lat="45.56729" lon="5.5347">
        <ele>378.4</ele>
        <time>2023-03-29T13:01:27Z</time>
      </trkpt>
      <trkpt lat="45.56735" lon="5.53463">
        <ele>378.9</ele>
        <time>2023-03-29T13:01:29Z</time>
      </trkpt>
      <trkpt lat="45.56739" lon="5.53455">
        <ele>379.2</ele>
        <time>2023-03-29T13:01:31Z</time>
      </trkpt>
      <trkpt lat="45.5674" lon="5.53447">
        <ele>379.3</ele>
        <time>2023-03-29T13:01:34Z</time>
      </trkpt>
      <trkpt lat="45.56732" lon="5.53443">
        <ele>379</ele>
        <time>2023-03-29T13:01:39Z</time>
      </trkpt>
      <trkpt lat="45.56724" lon="5.53451">
        <ele>378.3</ele>
        <time>2023-03-29T13:01:41Z</time>
      </trkpt>
      <trkpt lat="45.56719" lon="5.53456">
        <ele>378</ele>
        <time>2023-03-29T13:01:42Z</time>
      </trkpt>
      <trkpt lat="45.56714" lon="5.53459">
        <ele>377.6</ele>
        <time>2023-03-29T13:01:43Z</time>
      </trkpt>
      <trkpt lat="45.5671" lon="5.53463">
        <ele>377.3</ele>
        <time>2023-03-29T13:01:44Z</time>
      </trkpt>
      <trkpt lat="45.56705" lon="5.53468">
        <ele>377</ele>
        <time>2023-03-29T13:01:45Z</time>
      </trkpt>
      <trkpt lat="45.56699" lon="5.53472">
        <ele>376.5</ele>
        <time>2023-03-29T13:01:46Z</time>
      </trkpt>
      <trkpt lat="45.56694" lon="5.53477">
        <ele>376.2</ele>
        <time>2023-03-29T13:01:47Z</time>
      </trkpt>
      <trkpt lat="45.56688" lon="5.53481">
        <ele>375.9</ele>
        <time>2023-03-29T13:01:48Z</time>
      </trkpt>
      <trkpt lat="45.56683" lon="5.53485">
        <ele>375.6</ele>
        <time>2023-03-29T13:01:49Z</time>
      </trkpt>
      <trkpt lat="45.56678" lon="5.5349">
        <ele>375</ele>
        <time>2023-03-29T13:01:50Z</time>
      </trkpt>
      <trkpt lat="45.56672" lon="5.53495">
        <ele>374.7</ele>
        <time>2023-03-29T13:01:51Z</time>
      </trkpt>
      <trkpt lat="45.56666" lon="5.53498">
        <ele>374.7</ele>
        <time>2023-03-29T13:01:52Z</time>
      </trkpt>
      <trkpt lat="45.56662" lon="5.53501">
        <ele>375.4</ele>
        <time>2023-03-29T13:01:53Z</time>
      </trkpt>
      <trkpt lat="45.56657" lon="5.53503">
        <ele>377.5</ele>
        <time>2023-03-29T13:01:54Z</time>
      </trkpt>
      <trkpt lat="45.56652" lon="5.53506">
        <ele>381.4</ele>
        <time>2023-03-29T13:01:55Z</time>
      </trkpt>
      <trkpt lat="45.56648" lon="5.53508">
        <ele>381.4</ele>
        <time>2023-03-29T13:01:56Z</time>
      </trkpt>
      <trkpt lat="45.56643" lon="5.53509">
        <ele>381.5</ele>
        <time>2023-03-29T13:01:57Z</time>
      </trkpt>
      <trkpt lat="45.56638" lon="5.53513">
        <ele>381.5</ele>
        <time>2023-03-29T13:01:58Z</time>
      </trkpt>
      <trkpt lat="45.56631" lon="5.53521">
        <ele>379.8</ele>
        <time>2023-03-29T13:01:59Z</time>
      </trkpt>
      <trkpt lat="45.56624" lon="5.5353">
        <ele>375.8</ele>
        <time>2023-03-29T13:02:00Z</time>
      </trkpt>
      <trkpt lat="45.56617" lon="5.53539">
        <ele>371.6</ele>
        <time>2023-03-29T13:02:01Z</time>
      </trkpt>
      <trkpt lat="45.56611" lon="5.53547">
        <ele>371.7</ele>
        <time>2023-03-29T13:02:02Z</time>
      </trkpt>
      <trkpt lat="45.56606" lon="5.53555">
        <ele>371.7</ele>
        <time>2023-03-29T13:02:03Z</time>
      </trkpt>
      <trkpt lat="45.56603" lon="5.53564">
        <ele>371.7</ele>
        <time>2023-03-29T13:02:04Z</time>
      </trkpt>
      <trkpt lat="45.56601" lon="5.53571">
        <ele>372.2</ele>
        <time>2023-03-29T13:02:05Z</time>
      </trkpt>
      <trkpt lat="45.566" lon="5.53579">
        <ele>372.6</ele>
        <time>2023-03-29T13:02:07Z</time>
      </trkpt>
      <trkpt lat="45.56605" lon="5.53577">
        <ele>373</ele>
        <time>2023-03-29T13:02:08Z</time>
      </trkpt>
      <trkpt lat="45.56611" lon="5.53577">
        <ele>373.3</ele>
        <time>2023-03-29T13:02:10Z</time>
      </trkpt>
      <trkpt lat="45.56616" lon="5.53579">
        <ele>373.7</ele>
        <time>2023-03-29T13:02:13Z</time>
      </trkpt>
      <trkpt lat="45.5662" lon="5.53584">
        <ele>374.1</ele>
        <time>2023-03-29T13:02:17Z</time>
      </trkpt>
      <trkpt lat="45.56623" lon="5.5359">
        <ele>374.6</ele>
        <time>2023-03-29T13:02:20Z</time>
      </trkpt>
      <trkpt lat="45.56626" lon="5.53596">
        <ele>375.9</ele>
        <time>2023-03-29T13:02:23Z</time>
      </trkpt>
      <trkpt lat="45.56629" lon="5.53602">
        <ele>376.2</ele>
        <time>2023-03-29T13:02:26Z</time>
      </trkpt>
      <trkpt lat="45.56633" lon="5.53608">
        <ele>377.2</ele>
        <time>2023-03-29T13:02:28Z</time>
      </trkpt>
      <trkpt lat="45.56636" lon="5.53615">
        <ele>378.1</ele>
        <time>2023-03-29T13:02:31Z</time>
      </trkpt>
      <trkpt lat="45.56638" lon="5.53621">
        <ele>378.5</ele>
        <time>2023-03-29T13:02:33Z</time>
      </trkpt>
      <trkpt lat="45.5664" lon="5.5363">
        <ele>379.7</ele>
        <time>2023-03-29T13:02:36Z</time>
      </trkpt>
      <trkpt lat="45.56641" lon="5.53636">
        <ele>379.6</ele>
        <time>2023-03-29T13:02:38Z</time>
      </trkpt>
      <trkpt lat="45.56642" lon="5.53644">
        <ele>379.3</ele>
        <time>2023-03-29T13:02:41Z</time>
      </trkpt>
      <trkpt lat="45.56644" lon="5.53652">
        <ele>379.2</ele>
        <time>2023-03-29T13:02:43Z</time>
      </trkpt>
      <trkpt lat="45.56645" lon="5.53659">
        <ele>379.2</ele>
        <time>2023-03-29T13:02:45Z</time>
      </trkpt>
      <trkpt lat="45.56646" lon="5.53669">
        <ele>379.2</ele>
        <time>2023-03-29T13:02:48Z</time>
      </trkpt>
      <trkpt lat="45.56646" lon="5.53677">
        <ele>379.4</ele>
        <time>2023-03-29T13:02:50Z</time>
      </trkpt>
      <trkpt lat="45.56646" lon="5.53686">
        <ele>379.8</ele>
        <time>2023-03-29T13:02:53Z</time>
      </trkpt>
      <trkpt lat="45.56645" lon="5.53695">
        <ele>380.1</ele>
        <time>2023-03-29T13:02:55Z</time>
      </trkpt>
      <trkpt lat="45.56644" lon="5.53704">
        <ele>380.3</ele>
        <time>2023-03-29T13:02:58Z</time>
      </trkpt>
      <trkpt lat="45.56644" lon="5.53713">
        <ele>380.3</ele>
        <time>2023-03-29T13:03:00Z</time>
      </trkpt>
      <trkpt lat="45.56643" lon="5.5372">
        <ele>380.1</ele>
        <time>2023-03-29T13:03:02Z</time>
      </trkpt>
      <trkpt lat="45.56641" lon="5.5373">
        <ele>380.1</ele>
        <time>2023-03-29T13:03:05Z</time>
      </trkpt>
      <trkpt lat="45.5664" lon="5.53737">
        <ele>380.2</ele>
        <time>2023-03-29T13:03:07Z</time>
      </trkpt>
      <trkpt lat="45.56638" lon="5.53747">
        <ele>380.3</ele>
        <time>2023-03-29T13:03:10Z</time>
      </trkpt>
      <trkpt lat="45.56638" lon="5.53755">
        <ele>380.3</ele>
        <time>2023-03-29T13:03:12Z</time>
      </trkpt>
      <trkpt lat="45.56637" lon="5.53763">
        <ele>380.3</ele>
        <time>2023-03-29T13:03:14Z</time>
      </trkpt>
      <trkpt lat="45.56636" lon="5.53773">
        <ele>380.2</ele>
        <time>2023-03-29T13:03:17Z</time>
      </trkpt>
      <trkpt lat="45.56635" lon="5.53782">
        <ele>380.4</ele>
        <time>2023-03-29T13:03:19Z</time>
      </trkpt>
      <trkpt lat="45.56634" lon="5.53793">
        <ele>380.5</ele>
        <time>2023-03-29T13:03:22Z</time>
      </trkpt>
      <trkpt lat="45.56633" lon="5.53801">
        <ele>380.5</ele>
        <time>2023-03-29T13:03:24Z</time>
      </trkpt>
      <trkpt lat="45.56631" lon="5.5381">
        <ele>380.8</ele>
        <time>2023-03-29T13:03:27Z</time>
      </trkpt>
      <trkpt lat="45.56627" lon="5.53819">
        <ele>381</ele>
        <time>2023-03-29T13:03:29Z</time>
      </trkpt>
      <trkpt lat="45.56625" lon="5.53826">
        <ele>381.1</ele>
        <time>2023-03-29T13:03:31Z</time>
      </trkpt>
      <trkpt lat="45.56623" lon="5.53835">
        <ele>381.3</ele>
        <time>2023-03-29T13:03:34Z</time>
      </trkpt>
      <trkpt lat="45.56621" lon="5.53842">
        <ele>381.5</ele>
        <time>2023-03-29T13:03:36Z</time>
      </trkpt>
      <trkpt lat="45.5662" lon="5.53849">
        <ele>381.7</ele>
        <time>2023-03-29T13:03:38Z</time>
      </trkpt>
      <trkpt lat="45.56619" lon="5.53856">
        <ele>381.8</ele>
        <time>2023-03-29T13:03:40Z</time>
      </trkpt>
      <trkpt lat="45.56616" lon="5.53862">
        <ele>382</ele>
        <time>2023-03-29T13:03:42Z</time>
      </trkpt>
      <trkpt lat="45.56615" lon="5.53868">
        <ele>382.1</ele>
        <time>2023-03-29T13:03:44Z</time>
      </trkpt>
      <trkpt lat="45.56612" lon="5.53877">
        <ele>382.4</ele>
        <time>2023-03-29T13:03:47Z</time>
      </trkpt>
      <trkpt lat="45.5661" lon="5.53888">
        <ele>382.7</ele>
        <time>2023-03-29T13:03:50Z</time>
      </trkpt>
      <trkpt lat="45.56609" lon="5.53895">
        <ele>382.8</ele>
        <time>2023-03-29T13:03:52Z</time>
      </trkpt>
      <trkpt lat="45.56607" lon="5.53902">
        <ele>383</ele>
        <time>2023-03-29T13:03:55Z</time>
      </trkpt>
      <trkpt lat="45.56606" lon="5.5391">
        <ele>383.2</ele>
        <time>2023-03-29T13:03:57Z</time>
      </trkpt>
      <trkpt lat="45.56603" lon="5.53917">
        <ele>383.5</ele>
        <time>2023-03-29T13:03:59Z</time>
      </trkpt>
      <trkpt lat="45.56602" lon="5.53924">
        <ele>383.6</ele>
        <time>2023-03-29T13:04:01Z</time>
      </trkpt>
      <trkpt lat="45.566" lon="5.53931">
        <ele>383.8</ele>
        <time>2023-03-29T13:04:03Z</time>
      </trkpt>
      <trkpt lat="45.56598" lon="5.53941">
        <ele>384.2</ele>
        <time>2023-03-29T13:04:06Z</time>
      </trkpt>
      <trkpt lat="45.56596" lon="5.53949">
        <ele>384.3</ele>
        <time>2023-03-29T13:04:08Z</time>
      </trkpt>
      <trkpt lat="45.56594" lon="5.53957">
        <ele>384.6</ele>
        <time>2023-03-29T13:04:11Z</time>
      </trkpt>
      <trkpt lat="45.56592" lon="5.53967">
        <ele>384.7</ele>
        <time>2023-03-29T13:04:13Z</time>
      </trkpt>
      <trkpt lat="45.5659" lon="5.53976">
        <ele>385.1</ele>
        <time>2023-03-29T13:04:16Z</time>
      </trkpt>
      <trkpt lat="45.56589" lon="5.53984">
        <ele>385.4</ele>
        <time>2023-03-29T13:04:18Z</time>
      </trkpt>
      <trkpt lat="45.56587" lon="5.53992">
        <ele>385.7</ele>
        <time>2023-03-29T13:04:20Z</time>
      </trkpt>
      <trkpt lat="45.56585" lon="5.54">
        <ele>386.1</ele>
        <time>2023-03-29T13:04:23Z</time>
      </trkpt>
      <trkpt lat="45.56584" lon="5.54008">
        <ele>386.4</ele>
        <time>2023-03-29T13:04:25Z</time>
      </trkpt>
      <trkpt lat="45.56582" lon="5.54014">
        <ele>386.6</ele>
        <time>2023-03-29T13:04:27Z</time>
      </trkpt>
      <trkpt lat="45.56581" lon="5.54023">
        <ele>386.9</ele>
        <time>2023-03-29T13:04:29Z</time>
      </trkpt>
      <trkpt lat="45.5658" lon="5.54032">
        <ele>387.2</ele>
        <time>2023-03-29T13:04:31Z</time>
      </trkpt>
      <trkpt lat="45.56579" lon="5.54042">
        <ele>387.6</ele>
        <time>2023-03-29T13:04:34Z</time>
      </trkpt>
      <trkpt lat="45.56578" lon="5.54049">
        <ele>387.8</ele>
        <time>2023-03-29T13:04:36Z</time>
      </trkpt>
      <trkpt lat="45.56579" lon="5.54056">
        <ele>388.2</ele>
        <time>2023-03-29T13:04:39Z</time>
      </trkpt>
      <trkpt lat="45.56579" lon="5.54066">
        <ele>388.5</ele>
        <time>2023-03-29T13:04:41Z</time>
      </trkpt>
      <trkpt lat="45.56578" lon="5.54074">
        <ele>388.8</ele>
        <time>2023-03-29T13:04:43Z</time>
      </trkpt>
      <trkpt lat="45.56579" lon="5.54083">
        <ele>389</ele>
        <time>2023-03-29T13:04:46Z</time>
      </trkpt>
      <trkpt lat="45.56579" lon="5.54092">
        <ele>389.3</ele>
        <time>2023-03-29T13:04:48Z</time>
      </trkpt>
      <trkpt lat="45.56579" lon="5.54099">
        <ele>389.6</ele>
        <time>2023-03-29T13:04:50Z</time>
      </trkpt>
      <trkpt lat="45.56579" lon="5.54106">
        <ele>389.8</ele>
        <time>2023-03-29T13:04:52Z</time>
      </trkpt>
      <trkpt lat="45.56579" lon="5.54113">
        <ele>389.9</ele>
        <time>2023-03-29T13:04:54Z</time>
      </trkpt>
      <trkpt lat="45.56578" lon="5.54122">
        <ele>390</ele>
        <time>2023-03-29T13:04:57Z</time>
      </trkpt>
      <trkpt lat="45.56578" lon="5.5413">
        <ele>390.1</ele>
        <time>2023-03-29T13:04:59Z</time>
      </trkpt>
      <trkpt lat="45.56578" lon="5.54139">
        <ele>390.2</ele>
        <time>2023-03-29T13:05:02Z</time>
      </trkpt>
      <trkpt lat="45.56577" lon="5.54146">
        <ele>390.2</ele>
        <time>2023-03-29T13:05:04Z</time>
      </trkpt>
      <trkpt lat="45.56576" lon="5.54154">
        <ele>390.2</ele>
        <time>2023-03-29T13:05:07Z</time>
      </trkpt>
      <trkpt lat="45.56576" lon="5.54164">
        <ele>390.3</ele>
        <time>2023-03-29T13:05:09Z</time>
      </trkpt>
      <trkpt lat="45.56574" lon="5.54174">
        <ele>390.5</ele>
        <time>2023-03-29T13:05:12Z</time>
      </trkpt>
      <trkpt lat="45.56572" lon="5.54183">
        <ele>390.6</ele>
        <time>2023-03-29T13:05:14Z</time>
      </trkpt>
      <trkpt lat="45.5657" lon="5.54191">
        <ele>390.8</ele>
        <time>2023-03-29T13:05:16Z</time>
      </trkpt>
      <trkpt lat="45.56569" lon="5.54201">
        <ele>391</ele>
        <time>2023-03-29T13:05:19Z</time>
      </trkpt>
      <trkpt lat="45.56569" lon="5.54209">
        <ele>391.2</ele>
        <time>2023-03-29T13:05:21Z</time>
      </trkpt>
      <trkpt lat="45.56569" lon="5.54217">
        <ele>391.3</ele>
        <time>2023-03-29T13:05:24Z</time>
      </trkpt>
      <trkpt lat="45.56567" lon="5.54226">
        <ele>391.6</ele>
        <time>2023-03-29T13:05:26Z</time>
      </trkpt>
      <trkpt lat="45.56565" lon="5.54233">
        <ele>391.8</ele>
        <time>2023-03-29T13:05:28Z</time>
      </trkpt>
      <trkpt lat="45.56563" lon="5.54242">
        <ele>391.9</ele>
        <time>2023-03-29T13:05:31Z</time>
      </trkpt>
      <trkpt lat="45.5656" lon="5.54249">
        <ele>392.2</ele>
        <time>2023-03-29T13:05:33Z</time>
      </trkpt>
      <trkpt lat="45.56558" lon="5.54257">
        <ele>392.7</ele>
        <time>2023-03-29T13:05:36Z</time>
      </trkpt>
      <trkpt lat="45.56555" lon="5.54263">
        <ele>392.7</ele>
        <time>2023-03-29T13:05:38Z</time>
      </trkpt>
      <trkpt lat="45.56552" lon="5.54271">
        <ele>392.9</ele>
        <time>2023-03-29T13:05:40Z</time>
      </trkpt>
      <trkpt lat="45.5655" lon="5.54277">
        <ele>392.9</ele>
        <time>2023-03-29T13:05:42Z</time>
      </trkpt>
      <trkpt lat="45.56547" lon="5.54283">
        <ele>393.2</ele>
        <time>2023-03-29T13:05:44Z</time>
      </trkpt>
      <trkpt lat="45.56543" lon="5.5429">
        <ele>393.5</ele>
        <time>2023-03-29T13:05:47Z</time>
      </trkpt>
      <trkpt lat="45.56538" lon="5.54298">
        <ele>393.7</ele>
        <time>2023-03-29T13:05:49Z</time>
      </trkpt>
      <trkpt lat="45.56534" lon="5.54306">
        <ele>394</ele>
        <time>2023-03-29T13:05:52Z</time>
      </trkpt>
      <trkpt lat="45.56529" lon="5.54313">
        <ele>394.1</ele>
        <time>2023-03-29T13:05:54Z</time>
      </trkpt>
      <trkpt lat="45.56526" lon="5.54321">
        <ele>394.3</ele>
        <time>2023-03-29T13:05:56Z</time>
      </trkpt>
      <trkpt lat="45.56522" lon="5.54329">
        <ele>394.4</ele>
        <time>2023-03-29T13:05:59Z</time>
      </trkpt>
      <trkpt lat="45.56518" lon="5.54338">
        <ele>394.5</ele>
        <time>2023-03-29T13:06:01Z</time>
      </trkpt>
      <trkpt lat="45.56513" lon="5.54346">
        <ele>394.5</ele>
        <time>2023-03-29T13:06:04Z</time>
      </trkpt>
      <trkpt lat="45.5651" lon="5.5435">
        <ele>394.5</ele>
        <time>2023-03-29T13:06:05Z</time>
      </trkpt>
      <trkpt lat="45.56506" lon="5.54357">
        <ele>394.4</ele>
        <time>2023-03-29T13:06:07Z</time>
      </trkpt>
      <trkpt lat="45.56501" lon="5.54366">
        <ele>394.1</ele>
        <time>2023-03-29T13:06:10Z</time>
      </trkpt>
      <trkpt lat="45.56495" lon="5.54374">
        <ele>393.9</ele>
        <time>2023-03-29T13:06:12Z</time>
      </trkpt>
      <trkpt lat="45.56491" lon="5.5438">
        <ele>393.6</ele>
        <time>2023-03-29T13:06:14Z</time>
      </trkpt>
      <trkpt lat="45.56485" lon="5.54388">
        <ele>393</ele>
        <time>2023-03-29T13:06:16Z</time>
      </trkpt>
      <trkpt lat="45.56481" lon="5.54394">
        <ele>393</ele>
        <time>2023-03-29T13:06:17Z</time>
      </trkpt>
      <trkpt lat="45.56478" lon="5.544">
        <ele>392.7</ele>
        <time>2023-03-29T13:06:18Z</time>
      </trkpt>
      <trkpt lat="45.56475" lon="5.54406">
        <ele>392.3</ele>
        <time>2023-03-29T13:06:20Z</time>
      </trkpt>
      <trkpt lat="45.56472" lon="5.54412">
        <ele>391.9</ele>
        <time>2023-03-29T13:06:21Z</time>
      </trkpt>
      <trkpt lat="45.56469" lon="5.54419">
        <ele>391.9</ele>
        <time>2023-03-29T13:06:22Z</time>
      </trkpt>
      <trkpt lat="45.56466" lon="5.54427">
        <ele>391.5</ele>
        <time>2023-03-29T13:06:23Z</time>
      </trkpt>
      <trkpt lat="45.56463" lon="5.54437">
        <ele>391.2</ele>
        <time>2023-03-29T13:06:25Z</time>
      </trkpt>
      <trkpt lat="45.56459" lon="5.54449">
        <ele>390.9</ele>
        <time>2023-03-29T13:06:27Z</time>
      </trkpt>
      <trkpt lat="45.56458" lon="5.54461">
        <ele>391.2</ele>
        <time>2023-03-29T13:06:29Z</time>
      </trkpt>
      <trkpt lat="45.56457" lon="5.54467">
        <ele>391.3</ele>
        <time>2023-03-29T13:06:31Z</time>
      </trkpt>
      <trkpt lat="45.56455" lon="5.54474">
        <ele>390.9</ele>
        <time>2023-03-29T13:06:32Z</time>
      </trkpt>
      <trkpt lat="45.56453" lon="5.54487">
        <ele>391</ele>
        <time>2023-03-29T13:06:34Z</time>
      </trkpt>
      <trkpt lat="45.56453" lon="5.54495">
        <ele>391.1</ele>
        <time>2023-03-29T13:06:36Z</time>
      </trkpt>
      <trkpt lat="45.56452" lon="5.54502">
        <ele>391.2</ele>
        <time>2023-03-29T13:06:37Z</time>
      </trkpt>
      <trkpt lat="45.56451" lon="5.54508">
        <ele>391.2</ele>
        <time>2023-03-29T13:06:38Z</time>
      </trkpt>
      <trkpt lat="45.5645" lon="5.54515">
        <ele>390.9</ele>
        <time>2023-03-29T13:06:39Z</time>
      </trkpt>
      <trkpt lat="45.56448" lon="5.54522">
        <ele>391</ele>
        <time>2023-03-29T13:06:40Z</time>
      </trkpt>
      <trkpt lat="45.56446" lon="5.54529">
        <ele>390.6</ele>
        <time>2023-03-29T13:06:41Z</time>
      </trkpt>
      <trkpt lat="45.56444" lon="5.5454">
        <ele>390.7</ele>
        <time>2023-03-29T13:06:43Z</time>
      </trkpt>
      <trkpt lat="45.56442" lon="5.54549">
        <ele>390.3</ele>
        <time>2023-03-29T13:06:45Z</time>
      </trkpt>
      <trkpt lat="45.56439" lon="5.54559">
        <ele>390.4</ele>
        <time>2023-03-29T13:06:47Z</time>
      </trkpt>
      <trkpt lat="45.56434" lon="5.5457">
        <ele>390</ele>
        <time>2023-03-29T13:06:50Z</time>
      </trkpt>
      <trkpt lat="45.5643" lon="5.54579">
        <ele>389.6</ele>
        <time>2023-03-29T13:06:51Z</time>
      </trkpt>
      <trkpt lat="45.56426" lon="5.54586">
        <ele>389.2</ele>
        <time>2023-03-29T13:06:52Z</time>
      </trkpt>
      <trkpt lat="45.56421" lon="5.54593">
        <ele>388.8</ele>
        <time>2023-03-29T13:06:53Z</time>
      </trkpt>
      <trkpt lat="45.56417" lon="5.546">
        <ele>388.4</ele>
        <time>2023-03-29T13:06:54Z</time>
      </trkpt>
      <trkpt lat="45.56413" lon="5.54607">
        <ele>387.8</ele>
        <time>2023-03-29T13:06:55Z</time>
      </trkpt>
      <trkpt lat="45.56409" lon="5.54614">
        <ele>387.3</ele>
        <time>2023-03-29T13:06:56Z</time>
      </trkpt>
      <trkpt lat="45.56405" lon="5.54623">
        <ele>386.7</ele>
        <time>2023-03-29T13:06:57Z</time>
      </trkpt>
      <trkpt lat="45.56401" lon="5.54632">
        <ele>386</ele>
        <time>2023-03-29T13:06:58Z</time>
      </trkpt>
      <trkpt lat="45.56397" lon="5.54642">
        <ele>385.3</ele>
        <time>2023-03-29T13:06:59Z</time>
      </trkpt>
      <trkpt lat="45.56393" lon="5.5465">
        <ele>384.5</ele>
        <time>2023-03-29T13:07:00Z</time>
      </trkpt>
      <trkpt lat="45.5639" lon="5.54658">
        <ele>383.8</ele>
        <time>2023-03-29T13:07:01Z</time>
      </trkpt>
      <trkpt lat="45.56387" lon="5.54665">
        <ele>384</ele>
        <time>2023-03-29T13:07:02Z</time>
      </trkpt>
      <trkpt lat="45.56384" lon="5.54672">
        <ele>383.3</ele>
        <time>2023-03-29T13:07:03Z</time>
      </trkpt>
      <trkpt lat="45.56381" lon="5.54678">
        <ele>382.9</ele>
        <time>2023-03-29T13:07:04Z</time>
      </trkpt>
      <trkpt lat="45.56378" lon="5.54685">
        <ele>383</ele>
        <time>2023-03-29T13:07:05Z</time>
      </trkpt>
      <trkpt lat="45.56374" lon="5.54691">
        <ele>382.5</ele>
        <time>2023-03-29T13:07:06Z</time>
      </trkpt>
      <trkpt lat="45.5637" lon="5.54698">
        <ele>381.9</ele>
        <time>2023-03-29T13:07:07Z</time>
      </trkpt>
      <trkpt lat="45.56366" lon="5.54706">
        <ele>381.1</ele>
        <time>2023-03-29T13:07:08Z</time>
      </trkpt>
      <trkpt lat="45.56362" lon="5.54713">
        <ele>380.3</ele>
        <time>2023-03-29T13:07:09Z</time>
      </trkpt>
      <trkpt lat="45.56359" lon="5.54721">
        <ele>379.3</ele>
        <time>2023-03-29T13:07:10Z</time>
      </trkpt>
      <trkpt lat="45.56355" lon="5.5473">
        <ele>378.4</ele>
        <time>2023-03-29T13:07:11Z</time>
      </trkpt>
      <trkpt lat="45.56351" lon="5.5474">
        <ele>377.5</ele>
        <time>2023-03-29T13:07:12Z</time>
      </trkpt>
      <trkpt lat="45.56346" lon="5.54751">
        <ele>376.9</ele>
        <time>2023-03-29T13:07:13Z</time>
      </trkpt>
      <trkpt lat="45.56341" lon="5.54762">
        <ele>376</ele>
        <time>2023-03-29T13:07:14Z</time>
      </trkpt>
      <trkpt lat="45.56337" lon="5.54773">
        <ele>375.1</ele>
        <time>2023-03-29T13:07:15Z</time>
      </trkpt>
      <trkpt lat="45.56333" lon="5.54784">
        <ele>374.1</ele>
        <time>2023-03-29T13:07:16Z</time>
      </trkpt>
      <trkpt lat="45.56329" lon="5.54795">
        <ele>373</ele>
        <time>2023-03-29T13:07:17Z</time>
      </trkpt>
      <trkpt lat="45.56326" lon="5.54807">
        <ele>371.9</ele>
        <time>2023-03-29T13:07:18Z</time>
      </trkpt>
      <trkpt lat="45.56323" lon="5.54819">
        <ele>372</ele>
        <time>2023-03-29T13:07:19Z</time>
      </trkpt>
      <trkpt lat="45.56321" lon="5.5483">
        <ele>371</ele>
        <time>2023-03-29T13:07:20Z</time>
      </trkpt>
      <trkpt lat="45.56319" lon="5.54842">
        <ele>371.4</ele>
        <time>2023-03-29T13:07:21Z</time>
      </trkpt>
      <trkpt lat="45.56318" lon="5.54853">
        <ele>371.8</ele>
        <time>2023-03-29T13:07:22Z</time>
      </trkpt>
      <trkpt lat="45.56316" lon="5.54863">
        <ele>370.8</ele>
        <time>2023-03-29T13:07:23Z</time>
      </trkpt>
      <trkpt lat="45.56315" lon="5.54872">
        <ele>370.8</ele>
        <time>2023-03-29T13:07:24Z</time>
      </trkpt>
      <trkpt lat="45.56313" lon="5.54882">
        <ele>369.8</ele>
        <time>2023-03-29T13:07:25Z</time>
      </trkpt>
      <trkpt lat="45.56311" lon="5.5489">
        <ele>370</ele>
        <time>2023-03-29T13:07:26Z</time>
      </trkpt>
      <trkpt lat="45.56308" lon="5.54899">
        <ele>369.3</ele>
        <time>2023-03-29T13:07:27Z</time>
      </trkpt>
      <trkpt lat="45.56306" lon="5.54907">
        <ele>369.5</ele>
        <time>2023-03-29T13:07:28Z</time>
      </trkpt>
      <trkpt lat="45.56304" lon="5.54915">
        <ele>369</ele>
        <time>2023-03-29T13:07:29Z</time>
      </trkpt>
      <trkpt lat="45.56302" lon="5.54922">
        <ele>369.1</ele>
        <time>2023-03-29T13:07:30Z</time>
      </trkpt>
      <trkpt lat="45.563" lon="5.54928">
        <ele>368.3</ele>
        <time>2023-03-29T13:07:31Z</time>
      </trkpt>
      <trkpt lat="45.56298" lon="5.54935">
        <ele>368.5</ele>
        <time>2023-03-29T13:07:32Z</time>
      </trkpt>
      <trkpt lat="45.56297" lon="5.54941">
        <ele>368.7</ele>
        <time>2023-03-29T13:07:33Z</time>
      </trkpt>
      <trkpt lat="45.56295" lon="5.54953">
        <ele>368.2</ele>
        <time>2023-03-29T13:07:35Z</time>
      </trkpt>
      <trkpt lat="45.56294" lon="5.5496">
        <ele>368.3</ele>
        <time>2023-03-29T13:07:36Z</time>
      </trkpt>
      <trkpt lat="45.56293" lon="5.54967">
        <ele>368.3</ele>
        <time>2023-03-29T13:07:37Z</time>
      </trkpt>
      <trkpt lat="45.56292" lon="5.54975">
        <ele>367.8</ele>
        <time>2023-03-29T13:07:38Z</time>
      </trkpt>
      <trkpt lat="45.56291" lon="5.54981">
        <ele>367.9</ele>
        <time>2023-03-29T13:07:39Z</time>
      </trkpt>
      <trkpt lat="45.56288" lon="5.54992">
        <ele>367.9</ele>
        <time>2023-03-29T13:07:41Z</time>
      </trkpt>
      <trkpt lat="45.56285" lon="5.55001">
        <ele>367.6</ele>
        <time>2023-03-29T13:07:43Z</time>
      </trkpt>
      <trkpt lat="45.56281" lon="5.55012">
        <ele>367.7</ele>
        <time>2023-03-29T13:07:45Z</time>
      </trkpt>
      <trkpt lat="45.56279" lon="5.55017">
        <ele>367.7</ele>
        <time>2023-03-29T13:07:46Z</time>
      </trkpt>
      <trkpt lat="45.56276" lon="5.55024">
        <ele>368</ele>
        <time>2023-03-29T13:07:48Z</time>
      </trkpt>
      <trkpt lat="45.56272" lon="5.5503">
        <ele>368.2</ele>
        <time>2023-03-29T13:07:49Z</time>
      </trkpt>
      <trkpt lat="45.56269" lon="5.55035">
        <ele>368.1</ele>
        <time>2023-03-29T13:07:50Z</time>
      </trkpt>
      <trkpt lat="45.56264" lon="5.55044">
        <ele>368.2</ele>
        <time>2023-03-29T13:07:52Z</time>
      </trkpt>
      <trkpt lat="45.56261" lon="5.55049">
        <ele>368.1</ele>
        <time>2023-03-29T13:07:54Z</time>
      </trkpt>
      <trkpt lat="45.56256" lon="5.55057">
        <ele>368.1</ele>
        <time>2023-03-29T13:07:55Z</time>
      </trkpt>
      <trkpt lat="45.56253" lon="5.55062">
        <ele>368.2</ele>
        <time>2023-03-29T13:07:57Z</time>
      </trkpt>
      <trkpt lat="45.56249" lon="5.55066">
        <ele>368.4</ele>
        <time>2023-03-29T13:07:58Z</time>
      </trkpt>
      <trkpt lat="45.56246" lon="5.55073">
        <ele>368.5</ele>
        <time>2023-03-29T13:08:00Z</time>
      </trkpt>
      <trkpt lat="45.56244" lon="5.55079">
        <ele>368.7</ele>
        <time>2023-03-29T13:08:02Z</time>
      </trkpt>
      <trkpt lat="45.56242" lon="5.55088">
        <ele>368.8</ele>
        <time>2023-03-29T13:08:05Z</time>
      </trkpt>
      <trkpt lat="45.56244" lon="5.55095">
        <ele>368.9</ele>
        <time>2023-03-29T13:08:07Z</time>
      </trkpt>
      <trkpt lat="45.56246" lon="5.55104">
        <ele>368.8</ele>
        <time>2023-03-29T13:08:09Z</time>
      </trkpt>
      <trkpt lat="45.56248" lon="5.55111">
        <ele>368.8</ele>
        <time>2023-03-29T13:08:11Z</time>
      </trkpt>
      <trkpt lat="45.56248" lon="5.55121">
        <ele>368.9</ele>
        <time>2023-03-29T13:08:13Z</time>
      </trkpt>
      <trkpt lat="45.56251" lon="5.55131">
        <ele>368.7</ele>
        <time>2023-03-29T13:08:15Z</time>
      </trkpt>
      <trkpt lat="45.56251" lon="5.55138">
        <ele>368.8</ele>
        <time>2023-03-29T13:08:17Z</time>
      </trkpt>
      <trkpt lat="45.56252" lon="5.55149">
        <ele>368.8</ele>
        <time>2023-03-29T13:08:19Z</time>
      </trkpt>
      <trkpt lat="45.56252" lon="5.55158">
        <ele>368.8</ele>
        <time>2023-03-29T13:08:22Z</time>
      </trkpt>
      <trkpt lat="45.56253" lon="5.55172">
        <ele>368.7</ele>
        <time>2023-03-29T13:08:24Z</time>
      </trkpt>
      <trkpt lat="45.56254" lon="5.55182">
        <ele>368.6</ele>
        <time>2023-03-29T13:08:26Z</time>
      </trkpt>
      <trkpt lat="45.56254" lon="5.55193">
        <ele>368.5</ele>
        <time>2023-03-29T13:08:28Z</time>
      </trkpt>
      <trkpt lat="45.56256" lon="5.55205">
        <ele>368.5</ele>
        <time>2023-03-29T13:08:30Z</time>
      </trkpt>
      <trkpt lat="45.56257" lon="5.55211">
        <ele>368.5</ele>
        <time>2023-03-29T13:08:31Z</time>
      </trkpt>
      <trkpt lat="45.56258" lon="5.55222">
        <ele>368.2</ele>
        <time>2023-03-29T13:08:33Z</time>
      </trkpt>
      <trkpt lat="45.56258" lon="5.55233">
        <ele>368.2</ele>
        <time>2023-03-29T13:08:35Z</time>
      </trkpt>
      <trkpt lat="45.56257" lon="5.55243">
        <ele>368.2</ele>
        <time>2023-03-29T13:08:37Z</time>
      </trkpt>
      <trkpt lat="45.56258" lon="5.5525">
        <ele>368</ele>
        <time>2023-03-29T13:08:39Z</time>
      </trkpt>
      <trkpt lat="45.5626" lon="5.55257">
        <ele>367.9</ele>
        <time>2023-03-29T13:08:41Z</time>
      </trkpt>
      <trkpt lat="45.56262" lon="5.55265">
        <ele>367.8</ele>
        <time>2023-03-29T13:08:43Z</time>
      </trkpt>
      <trkpt lat="45.56264" lon="5.55272">
        <ele>367.5</ele>
        <time>2023-03-29T13:08:45Z</time>
      </trkpt>
      <trkpt lat="45.56268" lon="5.55283">
        <ele>367</ele>
        <time>2023-03-29T13:08:47Z</time>
      </trkpt>
      <trkpt lat="45.5627" lon="5.55292">
        <ele>366.8</ele>
        <time>2023-03-29T13:08:49Z</time>
      </trkpt>
      <trkpt lat="45.56271" lon="5.553">
        <ele>366.3</ele>
        <time>2023-03-29T13:08:51Z</time>
      </trkpt>
      <trkpt lat="45.56273" lon="5.5531">
        <ele>366.1</ele>
        <time>2023-03-29T13:08:53Z</time>
      </trkpt>
      <trkpt lat="45.56273" lon="5.55317">
        <ele>366</ele>
        <time>2023-03-29T13:08:54Z</time>
      </trkpt>
      <trkpt lat="45.56272" lon="5.55324">
        <ele>365.9</ele>
        <time>2023-03-29T13:08:56Z</time>
      </trkpt>
      <trkpt lat="45.5627" lon="5.55335">
        <ele>366</ele>
        <time>2023-03-29T13:08:58Z</time>
      </trkpt>
      <trkpt lat="45.56269" lon="5.55341">
        <ele>365.9</ele>
        <time>2023-03-29T13:08:59Z</time>
      </trkpt>
      <trkpt lat="45.56268" lon="5.55348">
        <ele>365.8</ele>
        <time>2023-03-29T13:09:00Z</time>
      </trkpt>
      <trkpt lat="45.56267" lon="5.55358">
        <ele>365.6</ele>
        <time>2023-03-29T13:09:03Z</time>
      </trkpt>
      <trkpt lat="45.56267" lon="5.55365">
        <ele>365.5</ele>
        <time>2023-03-29T13:09:05Z</time>
      </trkpt>
      <trkpt lat="45.56265" lon="5.55373">
        <ele>365.6</ele>
        <time>2023-03-29T13:09:07Z</time>
      </trkpt>
      <trkpt lat="45.56264" lon="5.55382">
        <ele>365.5</ele>
        <time>2023-03-29T13:09:09Z</time>
      </trkpt>
      <trkpt lat="45.56262" lon="5.55391">
        <ele>365.8</ele>
        <time>2023-03-29T13:09:11Z</time>
      </trkpt>
      <trkpt lat="45.56261" lon="5.55402">
        <ele>365.6</ele>
        <time>2023-03-29T13:09:14Z</time>
      </trkpt>
      <trkpt lat="45.56259" lon="5.55411">
        <ele>365.5</ele>
        <time>2023-03-29T13:09:16Z</time>
      </trkpt>
      <trkpt lat="45.56258" lon="5.55418">
        <ele>365.5</ele>
        <time>2023-03-29T13:09:18Z</time>
      </trkpt>
      <trkpt lat="45.56256" lon="5.5543">
        <ele>365.7</ele>
        <time>2023-03-29T13:09:20Z</time>
      </trkpt>
      <trkpt lat="45.56255" lon="5.5544">
        <ele>365.7</ele>
        <time>2023-03-29T13:09:22Z</time>
      </trkpt>
      <trkpt lat="45.56254" lon="5.5545">
        <ele>365.6</ele>
        <time>2023-03-29T13:09:25Z</time>
      </trkpt>
      <trkpt lat="45.56253" lon="5.55459">
        <ele>365.9</ele>
        <time>2023-03-29T13:09:27Z</time>
      </trkpt>
      <trkpt lat="45.56253" lon="5.55467">
        <ele>365.8</ele>
        <time>2023-03-29T13:09:29Z</time>
      </trkpt>
      <trkpt lat="45.56254" lon="5.55475">
        <ele>365.4</ele>
        <time>2023-03-29T13:09:32Z</time>
      </trkpt>
      <trkpt lat="45.56257" lon="5.55484">
        <ele>365.4</ele>
        <time>2023-03-29T13:09:35Z</time>
      </trkpt>
      <trkpt lat="45.5626" lon="5.55495">
        <ele>365.1</ele>
        <time>2023-03-29T13:09:37Z</time>
      </trkpt>
      <trkpt lat="45.56259" lon="5.55508">
        <ele>365</ele>
        <time>2023-03-29T13:09:39Z</time>
      </trkpt>
      <trkpt lat="45.56259" lon="5.55515">
        <ele>365</ele>
        <time>2023-03-29T13:09:40Z</time>
      </trkpt>
      <trkpt lat="45.56259" lon="5.55528">
        <ele>365</ele>
        <time>2023-03-29T13:09:42Z</time>
      </trkpt>
      <trkpt lat="45.5626" lon="5.55534">
        <ele>365</ele>
        <time>2023-03-29T13:09:43Z</time>
      </trkpt>
      <trkpt lat="45.56265" lon="5.55549">
        <ele>364.5</ele>
        <time>2023-03-29T13:09:46Z</time>
      </trkpt>
      <trkpt lat="45.56268" lon="5.5556">
        <ele>364.1</ele>
        <time>2023-03-29T13:09:48Z</time>
      </trkpt>
      <trkpt lat="45.56271" lon="5.55569">
        <ele>363.7</ele>
        <time>2023-03-29T13:09:50Z</time>
      </trkpt>
      <trkpt lat="45.56274" lon="5.55575">
        <ele>363.7</ele>
        <time>2023-03-29T13:09:52Z</time>
      </trkpt>
      <trkpt lat="45.56278" lon="5.55572">
        <ele>363.3</ele>
        <time>2023-03-29T13:10:00Z</time>
      </trkpt>
      <trkpt lat="45.56278" lon="5.55559">
        <ele>363.4</ele>
        <time>2023-03-29T13:10:03Z</time>
      </trkpt>
      <trkpt lat="45.56279" lon="5.55547">
        <ele>363.5</ele>
        <time>2023-03-29T13:10:05Z</time>
      </trkpt>
      <trkpt lat="45.5628" lon="5.55536">
        <ele>363.3</ele>
        <time>2023-03-29T13:10:07Z</time>
      </trkpt>
      <trkpt lat="45.56281" lon="5.55529">
        <ele>363.4</ele>
        <time>2023-03-29T13:10:09Z</time>
      </trkpt>
      <trkpt lat="45.56283" lon="5.55522">
        <ele>363.4</ele>
        <time>2023-03-29T13:10:10Z</time>
      </trkpt>
      <trkpt lat="45.56285" lon="5.55515">
        <ele>363.2</ele>
        <time>2023-03-29T13:10:11Z</time>
      </trkpt>
      <trkpt lat="45.56288" lon="5.55505">
        <ele>363</ele>
        <time>2023-03-29T13:10:13Z</time>
      </trkpt>
      <trkpt lat="45.56289" lon="5.55498">
        <ele>363.1</ele>
        <time>2023-03-29T13:10:15Z</time>
      </trkpt>
      <trkpt lat="45.56291" lon="5.55492">
        <ele>363.1</ele>
        <time>2023-03-29T13:10:16Z</time>
      </trkpt>
      <trkpt lat="45.56293" lon="5.55486">
        <ele>362.9</ele>
        <time>2023-03-29T13:10:17Z</time>
      </trkpt>
      <trkpt lat="45.56295" lon="5.55475">
        <ele>362.9</ele>
        <time>2023-03-29T13:10:19Z</time>
      </trkpt>
      <trkpt lat="45.56296" lon="5.55468">
        <ele>363</ele>
        <time>2023-03-29T13:10:21Z</time>
      </trkpt>
      <trkpt lat="45.56297" lon="5.55455">
        <ele>362.7</ele>
        <time>2023-03-29T13:10:23Z</time>
      </trkpt>
      <trkpt lat="45.56297" lon="5.55446">
        <ele>362.8</ele>
        <time>2023-03-29T13:10:25Z</time>
      </trkpt>
      <trkpt lat="45.56296" lon="5.55436">
        <ele>363.2</ele>
        <time>2023-03-29T13:10:27Z</time>
      </trkpt>
      <trkpt lat="45.56296" lon="5.55426">
        <ele>363.3</ele>
        <time>2023-03-29T13:10:29Z</time>
      </trkpt>
      <trkpt lat="45.56298" lon="5.55419">
        <ele>363.1</ele>
        <time>2023-03-29T13:10:31Z</time>
      </trkpt>
      <trkpt lat="45.56301" lon="5.55409">
        <ele>363</ele>
        <time>2023-03-29T13:10:33Z</time>
      </trkpt>
      <trkpt lat="45.56305" lon="5.55402">
        <ele>363.1</ele>
        <time>2023-03-29T13:10:34Z</time>
      </trkpt>
      <trkpt lat="45.56306" lon="5.55391">
        <ele>363</ele>
        <time>2023-03-29T13:10:37Z</time>
      </trkpt>
      <trkpt lat="45.56306" lon="5.55381">
        <ele>363.2</ele>
        <time>2023-03-29T13:10:40Z</time>
      </trkpt>
      <trkpt lat="45.56306" lon="5.55372">
        <ele>363.4</ele>
        <time>2023-03-29T13:10:43Z</time>
      </trkpt>
      <trkpt lat="45.56306" lon="5.55361">
        <ele>363.6</ele>
        <time>2023-03-29T13:10:47Z</time>
      </trkpt>
      <trkpt lat="45.56306" lon="5.55353">
        <ele>363.7</ele>
        <time>2023-03-29T13:10:50Z</time>
      </trkpt>
      <trkpt lat="45.56309" lon="5.55347">
        <ele>363.8</ele>
        <time>2023-03-29T13:10:53Z</time>
      </trkpt>
      <trkpt lat="45.56313" lon="5.55339">
        <ele>364</ele>
        <time>2023-03-29T13:10:55Z</time>
      </trkpt>
      <trkpt lat="45.56317" lon="5.55333">
        <ele>364.1</ele>
        <time>2023-03-29T13:10:57Z</time>
      </trkpt>
      <trkpt lat="45.56322" lon="5.55326">
        <ele>364.1</ele>
        <time>2023-03-29T13:10:59Z</time>
      </trkpt>
      <trkpt lat="45.56327" lon="5.55321">
        <ele>364</ele>
        <time>2023-03-29T13:11:01Z</time>
      </trkpt>
      <trkpt lat="45.56335" lon="5.55317">
        <ele>363.9</ele>
        <time>2023-03-29T13:11:03Z</time>
      </trkpt>
      <trkpt lat="45.56343" lon="5.55316">
        <ele>363.7</ele>
        <time>2023-03-29T13:11:06Z</time>
      </trkpt>
      <trkpt lat="45.5635" lon="5.55318">
        <ele>363.4</ele>
        <time>2023-03-29T13:11:08Z</time>
      </trkpt>
      <trkpt lat="45.56357" lon="5.55314">
        <ele>363.3</ele>
        <time>2023-03-29T13:11:11Z</time>
      </trkpt>
      <trkpt lat="45.56363" lon="5.55312">
        <ele>363.2</ele>
        <time>2023-03-29T13:11:13Z</time>
      </trkpt>
      <trkpt lat="45.56369" lon="5.55309">
        <ele>363.4</ele>
        <time>2023-03-29T13:11:15Z</time>
      </trkpt>
      <trkpt lat="45.56376" lon="5.55306">
        <ele>363.5</ele>
        <time>2023-03-29T13:11:18Z</time>
      </trkpt>
      <trkpt lat="45.5638" lon="5.55305">
        <ele>363.4</ele>
        <time>2023-03-29T13:11:19Z</time>
      </trkpt>
      <trkpt lat="45.56387" lon="5.55303">
        <ele>363.5</ele>
        <time>2023-03-29T13:11:21Z</time>
      </trkpt>
      <trkpt lat="45.56392" lon="5.553">
        <ele>363.3</ele>
        <time>2023-03-29T13:11:22Z</time>
      </trkpt>
      <trkpt lat="45.56398" lon="5.55295">
        <ele>363.4</ele>
        <time>2023-03-29T13:11:24Z</time>
      </trkpt>
      <trkpt lat="45.56404" lon="5.55288">
        <ele>363.2</ele>
        <time>2023-03-29T13:11:27Z</time>
      </trkpt>
      <trkpt lat="45.56411" lon="5.55281">
        <ele>363.3</ele>
        <time>2023-03-29T13:11:29Z</time>
      </trkpt>
      <trkpt lat="45.56417" lon="5.55274">
        <ele>362.9</ele>
        <time>2023-03-29T13:11:31Z</time>
      </trkpt>
      <trkpt lat="45.56423" lon="5.55268">
        <ele>362.9</ele>
        <time>2023-03-29T13:11:33Z</time>
      </trkpt>
      <trkpt lat="45.56428" lon="5.5526">
        <ele>362.9</ele>
        <time>2023-03-29T13:11:35Z</time>
      </trkpt>
      <trkpt lat="45.56432" lon="5.5525">
        <ele>362.8</ele>
        <time>2023-03-29T13:11:38Z</time>
      </trkpt>
      <trkpt lat="45.56434" lon="5.55244">
        <ele>362.5</ele>
        <time>2023-03-29T13:11:39Z</time>
      </trkpt>
      <trkpt lat="45.56437" lon="5.55238">
        <ele>362.8</ele>
        <time>2023-03-29T13:11:40Z</time>
      </trkpt>
      <trkpt lat="45.56439" lon="5.55229">
        <ele>362.6</ele>
        <time>2023-03-29T13:11:42Z</time>
      </trkpt>
      <trkpt lat="45.56442" lon="5.55219">
        <ele>362.8</ele>
        <time>2023-03-29T13:11:45Z</time>
      </trkpt>
      <trkpt lat="45.56445" lon="5.55212">
        <ele>362.8</ele>
        <time>2023-03-29T13:11:47Z</time>
      </trkpt>
      <trkpt lat="45.56449" lon="5.55206">
        <ele>362.6</ele>
        <time>2023-03-29T13:11:50Z</time>
      </trkpt>
      <trkpt lat="45.56455" lon="5.55206">
        <ele>362.4</ele>
        <time>2023-03-29T13:11:53Z</time>
      </trkpt>
      <trkpt lat="45.56459" lon="5.5521">
        <ele>362</ele>
        <time>2023-03-29T13:11:55Z</time>
      </trkpt>
      <trkpt lat="45.56466" lon="5.55214">
        <ele>361.9</ele>
        <time>2023-03-29T13:11:58Z</time>
      </trkpt>
      <trkpt lat="45.56472" lon="5.55219">
        <ele>361.9</ele>
        <time>2023-03-29T13:12:01Z</time>
      </trkpt>
      <trkpt lat="45.56479" lon="5.55223">
        <ele>362.1</ele>
        <time>2023-03-29T13:12:03Z</time>
      </trkpt>
      <trkpt lat="45.56484" lon="5.55226">
        <ele>362.3</ele>
        <time>2023-03-29T13:12:05Z</time>
      </trkpt>
      <trkpt lat="45.56491" lon="5.55231">
        <ele>362.9</ele>
        <time>2023-03-29T13:12:08Z</time>
      </trkpt>
      <trkpt lat="45.56497" lon="5.55236">
        <ele>363.3</ele>
        <time>2023-03-29T13:12:10Z</time>
      </trkpt>
      <trkpt lat="45.56502" lon="5.55243">
        <ele>363.7</ele>
        <time>2023-03-29T13:12:13Z</time>
      </trkpt>
      <trkpt lat="45.56507" lon="5.55248">
        <ele>364.4</ele>
        <time>2023-03-29T13:12:15Z</time>
      </trkpt>
      <trkpt lat="45.56511" lon="5.55253">
        <ele>364.8</ele>
        <time>2023-03-29T13:12:18Z</time>
      </trkpt>
      <trkpt lat="45.56516" lon="5.55257">
        <ele>365.3</ele>
        <time>2023-03-29T13:12:21Z</time>
      </trkpt>
      <trkpt lat="45.56519" lon="5.55261">
        <ele>365.3</ele>
        <time>2023-03-29T13:12:24Z</time>
      </trkpt>
      <trkpt lat="45.56524" lon="5.55268">
        <ele>366.1</ele>
        <time>2023-03-29T13:12:29Z</time>
      </trkpt>
      <trkpt lat="45.56525" lon="5.55275">
        <ele>366.1</ele>
        <time>2023-03-29T13:12:31Z</time>
      </trkpt>
      <trkpt lat="45.56525" lon="5.55285">
        <ele>366.1</ele>
        <time>2023-03-29T13:12:34Z</time>
      </trkpt>
      <trkpt lat="45.56526" lon="5.55293">
        <ele>366.2</ele>
        <time>2023-03-29T13:12:37Z</time>
      </trkpt>
      <trkpt lat="45.56528" lon="5.55301">
        <ele>366.3</ele>
        <time>2023-03-29T13:12:40Z</time>
      </trkpt>
      <trkpt lat="45.56529" lon="5.55311">
        <ele>367.1</ele>
        <time>2023-03-29T13:12:42Z</time>
      </trkpt>
      <trkpt lat="45.5653" lon="5.55318">
        <ele>367.2</ele>
        <time>2023-03-29T13:12:44Z</time>
      </trkpt>
      <trkpt lat="45.56531" lon="5.55327">
        <ele>367.3</ele>
        <time>2023-03-29T13:12:47Z</time>
      </trkpt>
      <trkpt lat="45.56531" lon="5.55334">
        <ele>367.4</ele>
        <time>2023-03-29T13:12:49Z</time>
      </trkpt>
      <trkpt lat="45.56531" lon="5.55345">
        <ele>367.6</ele>
        <time>2023-03-29T13:12:52Z</time>
      </trkpt>
      <trkpt lat="45.56532" lon="5.55352">
        <ele>367.8</ele>
        <time>2023-03-29T13:12:54Z</time>
      </trkpt>
      <trkpt lat="45.56533" lon="5.55362">
        <ele>368.5</ele>
        <time>2023-03-29T13:12:57Z</time>
      </trkpt>
      <trkpt lat="45.56534" lon="5.5537">
        <ele>368.6</ele>
        <time>2023-03-29T13:12:59Z</time>
      </trkpt>
      <trkpt lat="45.56534" lon="5.55379">
        <ele>368.7</ele>
        <time>2023-03-29T13:13:01Z</time>
      </trkpt>
      <trkpt lat="45.56534" lon="5.55389">
        <ele>368.8</ele>
        <time>2023-03-29T13:13:04Z</time>
      </trkpt>
      <trkpt lat="45.56535" lon="5.55396">
        <ele>368.8</ele>
        <time>2023-03-29T13:13:06Z</time>
      </trkpt>
      <trkpt lat="45.56535" lon="5.55405">
        <ele>368.7</ele>
        <time>2023-03-29T13:13:09Z</time>
      </trkpt>
      <trkpt lat="45.56536" lon="5.55413">
        <ele>368.7</ele>
        <time>2023-03-29T13:13:11Z</time>
      </trkpt>
      <trkpt lat="45.56536" lon="5.5542">
        <ele>368.7</ele>
        <time>2023-03-29T13:13:13Z</time>
      </trkpt>
      <trkpt lat="45.56537" lon="5.55428">
        <ele>369.2</ele>
        <time>2023-03-29T13:13:15Z</time>
      </trkpt>
      <trkpt lat="45.56537" lon="5.55438">
        <ele>369.2</ele>
        <time>2023-03-29T13:13:18Z</time>
      </trkpt>
      <trkpt lat="45.56536" lon="5.55446">
        <ele>368.8</ele>
        <time>2023-03-29T13:13:20Z</time>
      </trkpt>
      <trkpt lat="45.56536" lon="5.55454">
        <ele>369</ele>
        <time>2023-03-29T13:13:22Z</time>
      </trkpt>
      <trkpt lat="45.56535" lon="5.55461">
        <ele>369.2</ele>
        <time>2023-03-29T13:13:24Z</time>
      </trkpt>
      <trkpt lat="45.56535" lon="5.55471">
        <ele>369.3</ele>
        <time>2023-03-29T13:13:27Z</time>
      </trkpt>
      <trkpt lat="45.56535" lon="5.55477">
        <ele>369.3</ele>
        <time>2023-03-29T13:13:29Z</time>
      </trkpt>
      <trkpt lat="45.56536" lon="5.55485">
        <ele>369.4</ele>
        <time>2023-03-29T13:13:32Z</time>
      </trkpt>
      <trkpt lat="45.56536" lon="5.55494">
        <ele>369.5</ele>
        <time>2023-03-29T13:13:34Z</time>
      </trkpt>
      <trkpt lat="45.56535" lon="5.55505">
        <ele>369.6</ele>
        <time>2023-03-29T13:13:37Z</time>
      </trkpt>
      <trkpt lat="45.56535" lon="5.55512">
        <ele>369.6</ele>
        <time>2023-03-29T13:13:39Z</time>
      </trkpt>
      <trkpt lat="45.56535" lon="5.55521">
        <ele>369.7</ele>
        <time>2023-03-29T13:13:42Z</time>
      </trkpt>
      <trkpt lat="45.56535" lon="5.55528">
        <ele>369.8</ele>
        <time>2023-03-29T13:13:44Z</time>
      </trkpt>
      <trkpt lat="45.56536" lon="5.55535">
        <ele>369.9</ele>
        <time>2023-03-29T13:13:46Z</time>
      </trkpt>
      <trkpt lat="45.56538" lon="5.55545">
        <ele>370.1</ele>
        <time>2023-03-29T13:13:48Z</time>
      </trkpt>
      <trkpt lat="45.56541" lon="5.55552">
        <ele>370.3</ele>
        <time>2023-03-29T13:13:50Z</time>
      </trkpt>
      <trkpt lat="45.56539" lon="5.55559">
        <ele>370.2</ele>
        <time>2023-03-29T13:13:52Z</time>
      </trkpt>
      <trkpt lat="45.56536" lon="5.55568">
        <ele>370.2</ele>
        <time>2023-03-29T13:13:55Z</time>
      </trkpt>
      <trkpt lat="45.56533" lon="5.55576">
        <ele>370.3</ele>
        <time>2023-03-29T13:13:57Z</time>
      </trkpt>
      <trkpt lat="45.5653" lon="5.55584">
        <ele>370.2</ele>
        <time>2023-03-29T13:13:59Z</time>
      </trkpt>
      <trkpt lat="45.56527" lon="5.55593">
        <ele>370.1</ele>
        <time>2023-03-29T13:14:01Z</time>
      </trkpt>
      <trkpt lat="45.56522" lon="5.55602">
        <ele>369.9</ele>
        <time>2023-03-29T13:14:04Z</time>
      </trkpt>
      <trkpt lat="45.5652" lon="5.55609">
        <ele>369.9</ele>
        <time>2023-03-29T13:14:06Z</time>
      </trkpt>
      <trkpt lat="45.56518" lon="5.55616">
        <ele>369.7</ele>
        <time>2023-03-29T13:14:08Z</time>
      </trkpt>
      <trkpt lat="45.56516" lon="5.55623">
        <ele>369.7</ele>
        <time>2023-03-29T13:14:10Z</time>
      </trkpt>
      <trkpt lat="45.56513" lon="5.55632">
        <ele>369.5</ele>
        <time>2023-03-29T13:14:12Z</time>
      </trkpt>
      <trkpt lat="45.56511" lon="5.55643">
        <ele>369.8</ele>
        <time>2023-03-29T13:14:15Z</time>
      </trkpt>
      <trkpt lat="45.5651" lon="5.5565">
        <ele>369.5</ele>
        <time>2023-03-29T13:14:16Z</time>
      </trkpt>
      <trkpt lat="45.56508" lon="5.55662">
        <ele>369.9</ele>
        <time>2023-03-29T13:14:18Z</time>
      </trkpt>
      <trkpt lat="45.56507" lon="5.5567">
        <ele>370.2</ele>
        <time>2023-03-29T13:14:19Z</time>
      </trkpt>
      <trkpt lat="45.56506" lon="5.55686">
        <ele>370.2</ele>
        <time>2023-03-29T13:14:21Z</time>
      </trkpt>
      <trkpt lat="45.56502" lon="5.55701">
        <ele>370.3</ele>
        <time>2023-03-29T13:14:24Z</time>
      </trkpt>
      <trkpt lat="45.56499" lon="5.55713">
        <ele>370.4</ele>
        <time>2023-03-29T13:14:26Z</time>
      </trkpt>
      <trkpt lat="45.56496" lon="5.55725">
        <ele>370.1</ele>
        <time>2023-03-29T13:14:29Z</time>
      </trkpt>
      <trkpt lat="45.56494" lon="5.55733">
        <ele>370.1</ele>
        <time>2023-03-29T13:14:30Z</time>
      </trkpt>
      <trkpt lat="45.56491" lon="5.55744">
        <ele>369.9</ele>
        <time>2023-03-29T13:14:32Z</time>
      </trkpt>
      <trkpt lat="45.56489" lon="5.55749">
        <ele>369.7</ele>
        <time>2023-03-29T13:14:33Z</time>
      </trkpt>
      <trkpt lat="45.56486" lon="5.55755">
        <ele>369.9</ele>
        <time>2023-03-29T13:14:35Z</time>
      </trkpt>
      <trkpt lat="45.56481" lon="5.55765">
        <ele>369.6</ele>
        <time>2023-03-29T13:14:37Z</time>
      </trkpt>
      <trkpt lat="45.56476" lon="5.55776">
        <ele>368.4</ele>
        <time>2023-03-29T13:14:39Z</time>
      </trkpt>
      <trkpt lat="45.56474" lon="5.55782">
        <ele>368.5</ele>
        <time>2023-03-29T13:14:40Z</time>
      </trkpt>
      <trkpt lat="45.5647" lon="5.55794">
        <ele>368.2</ele>
        <time>2023-03-29T13:14:42Z</time>
      </trkpt>
      <trkpt lat="45.56468" lon="5.55806">
        <ele>368</ele>
        <time>2023-03-29T13:14:44Z</time>
      </trkpt>
      <trkpt lat="45.56467" lon="5.55812">
        <ele>368</ele>
        <time>2023-03-29T13:14:45Z</time>
      </trkpt>
      <trkpt lat="45.56465" lon="5.55819">
        <ele>368.3</ele>
        <time>2023-03-29T13:14:46Z</time>
      </trkpt>
      <trkpt lat="45.5646" lon="5.5583">
        <ele>368.3</ele>
        <time>2023-03-29T13:14:48Z</time>
      </trkpt>
      <trkpt lat="45.56457" lon="5.55835">
        <ele>368.1</ele>
        <time>2023-03-29T13:14:49Z</time>
      </trkpt>
      <trkpt lat="45.56454" lon="5.55839">
        <ele>367.7</ele>
        <time>2023-03-29T13:14:50Z</time>
      </trkpt>
      <trkpt lat="45.56451" lon="5.55845">
        <ele>368.2</ele>
        <time>2023-03-29T13:14:51Z</time>
      </trkpt>
      <trkpt lat="45.56448" lon="5.55849">
        <ele>367.9</ele>
        <time>2023-03-29T13:14:52Z</time>
      </trkpt>
      <trkpt lat="45.56442" lon="5.55858">
        <ele>367.2</ele>
        <time>2023-03-29T13:14:54Z</time>
      </trkpt>
      <trkpt lat="45.56438" lon="5.55866">
        <ele>367.4</ele>
        <time>2023-03-29T13:14:56Z</time>
      </trkpt>
      <trkpt lat="45.56435" lon="5.5588">
        <ele>367.1</ele>
        <time>2023-03-29T13:14:59Z</time>
      </trkpt>
      <trkpt lat="45.56434" lon="5.55886">
        <ele>367.1</ele>
        <time>2023-03-29T13:15:00Z</time>
      </trkpt>
      <trkpt lat="45.56433" lon="5.55898">
        <ele>367.2</ele>
        <time>2023-03-29T13:15:02Z</time>
      </trkpt>
      <trkpt lat="45.5643" lon="5.5591">
        <ele>367.7</ele>
        <time>2023-03-29T13:15:04Z</time>
      </trkpt>
      <trkpt lat="45.56429" lon="5.55916">
        <ele>367.5</ele>
        <time>2023-03-29T13:15:05Z</time>
      </trkpt>
      <trkpt lat="45.56426" lon="5.55925">
        <ele>367.8</ele>
        <time>2023-03-29T13:15:07Z</time>
      </trkpt>
      <trkpt lat="45.56424" lon="5.55931">
        <ele>367.7</ele>
        <time>2023-03-29T13:15:08Z</time>
      </trkpt>
      <trkpt lat="45.5642" lon="5.55942">
        <ele>367.3</ele>
        <time>2023-03-29T13:15:10Z</time>
      </trkpt>
      <trkpt lat="45.56417" lon="5.55952">
        <ele>367.7</ele>
        <time>2023-03-29T13:15:12Z</time>
      </trkpt>
      <trkpt lat="45.56416" lon="5.55959">
        <ele>367.1</ele>
        <time>2023-03-29T13:15:14Z</time>
      </trkpt>
      <trkpt lat="45.56413" lon="5.55971">
        <ele>367.7</ele>
        <time>2023-03-29T13:15:16Z</time>
      </trkpt>
      <trkpt lat="45.56412" lon="5.55977">
        <ele>367.3</ele>
        <time>2023-03-29T13:15:17Z</time>
      </trkpt>
      <trkpt lat="45.5641" lon="5.55989">
        <ele>367.5</ele>
        <time>2023-03-29T13:15:19Z</time>
      </trkpt>
      <trkpt lat="45.56409" lon="5.55995">
        <ele>367.6</ele>
        <time>2023-03-29T13:15:20Z</time>
      </trkpt>
      <trkpt lat="45.56406" lon="5.56007">
        <ele>367.5</ele>
        <time>2023-03-29T13:15:22Z</time>
      </trkpt>
      <trkpt lat="45.56404" lon="5.5602">
        <ele>367.6</ele>
        <time>2023-03-29T13:15:24Z</time>
      </trkpt>
      <trkpt lat="45.56401" lon="5.56032">
        <ele>367.2</ele>
        <time>2023-03-29T13:15:26Z</time>
      </trkpt>
      <trkpt lat="45.56399" lon="5.56044">
        <ele>366.8</ele>
        <time>2023-03-29T13:15:28Z</time>
      </trkpt>
      <trkpt lat="45.56397" lon="5.56054">
        <ele>366.8</ele>
        <time>2023-03-29T13:15:30Z</time>
      </trkpt>
      <trkpt lat="45.56392" lon="5.56066">
        <ele>366.5</ele>
        <time>2023-03-29T13:15:32Z</time>
      </trkpt>
      <trkpt lat="45.56389" lon="5.56072">
        <ele>366.2</ele>
        <time>2023-03-29T13:15:33Z</time>
      </trkpt>
      <trkpt lat="45.56386" lon="5.56077">
        <ele>365.9</ele>
        <time>2023-03-29T13:15:34Z</time>
      </trkpt>
      <trkpt lat="45.56382" lon="5.56083">
        <ele>365.5</ele>
        <time>2023-03-29T13:15:35Z</time>
      </trkpt>
      <trkpt lat="45.56379" lon="5.56089">
        <ele>365.6</ele>
        <time>2023-03-29T13:15:36Z</time>
      </trkpt>
      <trkpt lat="45.56375" lon="5.56094">
        <ele>365.3</ele>
        <time>2023-03-29T13:15:37Z</time>
      </trkpt>
      <trkpt lat="45.56372" lon="5.56099">
        <ele>364.8</ele>
        <time>2023-03-29T13:15:38Z</time>
      </trkpt>
      <trkpt lat="45.56369" lon="5.56104">
        <ele>364.4</ele>
        <time>2023-03-29T13:15:39Z</time>
      </trkpt>
      <trkpt lat="45.56365" lon="5.5611">
        <ele>364.1</ele>
        <time>2023-03-29T13:15:40Z</time>
      </trkpt>
      <trkpt lat="45.56361" lon="5.56116">
        <ele>364.1</ele>
        <time>2023-03-29T13:15:41Z</time>
      </trkpt>
      <trkpt lat="45.56357" lon="5.56123">
        <ele>363.7</ele>
        <time>2023-03-29T13:15:42Z</time>
      </trkpt>
      <trkpt lat="45.56353" lon="5.56129">
        <ele>363.3</ele>
        <time>2023-03-29T13:15:43Z</time>
      </trkpt>
      <trkpt lat="45.56349" lon="5.56135">
        <ele>363</ele>
        <time>2023-03-29T13:15:44Z</time>
      </trkpt>
      <trkpt lat="45.56344" lon="5.56142">
        <ele>362.8</ele>
        <time>2023-03-29T13:15:45Z</time>
      </trkpt>
      <trkpt lat="45.56339" lon="5.5615">
        <ele>362.1</ele>
        <time>2023-03-29T13:15:46Z</time>
      </trkpt>
      <trkpt lat="45.56334" lon="5.56158">
        <ele>361.7</ele>
        <time>2023-03-29T13:15:47Z</time>
      </trkpt>
      <trkpt lat="45.56329" lon="5.56166">
        <ele>361</ele>
        <time>2023-03-29T13:15:48Z</time>
      </trkpt>
      <trkpt lat="45.56324" lon="5.56174">
        <ele>360.7</ele>
        <time>2023-03-29T13:15:49Z</time>
      </trkpt>
      <trkpt lat="45.56319" lon="5.56182">
        <ele>360.4</ele>
        <time>2023-03-29T13:15:50Z</time>
      </trkpt>
      <trkpt lat="45.56314" lon="5.5619">
        <ele>360.1</ele>
        <time>2023-03-29T13:15:51Z</time>
      </trkpt>
      <trkpt lat="45.56309" lon="5.56197">
        <ele>359.3</ele>
        <time>2023-03-29T13:15:52Z</time>
      </trkpt>
      <trkpt lat="45.56303" lon="5.56204">
        <ele>358.9</ele>
        <time>2023-03-29T13:15:53Z</time>
      </trkpt>
      <trkpt lat="45.56298" lon="5.56211">
        <ele>358.6</ele>
        <time>2023-03-29T13:15:54Z</time>
      </trkpt>
      <trkpt lat="45.56294" lon="5.56219">
        <ele>358.4</ele>
        <time>2023-03-29T13:15:55Z</time>
      </trkpt>
      <trkpt lat="45.5629" lon="5.56227">
        <ele>358.1</ele>
        <time>2023-03-29T13:15:56Z</time>
      </trkpt>
      <trkpt lat="45.56286" lon="5.56236">
        <ele>357.7</ele>
        <time>2023-03-29T13:15:57Z</time>
      </trkpt>
      <trkpt lat="45.56282" lon="5.56244">
        <ele>357.4</ele>
        <time>2023-03-29T13:15:58Z</time>
      </trkpt>
      <trkpt lat="45.56278" lon="5.56252">
        <ele>356.9</ele>
        <time>2023-03-29T13:15:59Z</time>
      </trkpt>
      <trkpt lat="45.56274" lon="5.5626">
        <ele>356.3</ele>
        <time>2023-03-29T13:16:00Z</time>
      </trkpt>
      <trkpt lat="45.5627" lon="5.56267">
        <ele>355.9</ele>
        <time>2023-03-29T13:16:01Z</time>
      </trkpt>
      <trkpt lat="45.56267" lon="5.56273">
        <ele>356</ele>
        <time>2023-03-29T13:16:02Z</time>
      </trkpt>
      <trkpt lat="45.56264" lon="5.56278">
        <ele>355.3</ele>
        <time>2023-03-29T13:16:03Z</time>
      </trkpt>
      <trkpt lat="45.5626" lon="5.56287">
        <ele>354.8</ele>
        <time>2023-03-29T13:16:05Z</time>
      </trkpt>
      <trkpt lat="45.5626" lon="5.56294">
        <ele>354.7</ele>
        <time>2023-03-29T13:16:07Z</time>
      </trkpt>
      <trkpt lat="45.56258" lon="5.563">
        <ele>354.7</ele>
        <time>2023-03-29T13:16:09Z</time>
      </trkpt>
      <trkpt lat="45.56252" lon="5.56308">
        <ele>354</ele>
        <time>2023-03-29T13:16:11Z</time>
      </trkpt>
      <trkpt lat="45.56248" lon="5.56313">
        <ele>353.6</ele>
        <time>2023-03-29T13:16:12Z</time>
      </trkpt>
      <trkpt lat="45.56242" lon="5.56321">
        <ele>353.2</ele>
        <time>2023-03-29T13:16:14Z</time>
      </trkpt>
      <trkpt lat="45.56239" lon="5.56325">
        <ele>352.9</ele>
        <time>2023-03-29T13:16:15Z</time>
      </trkpt>
      <trkpt lat="45.56234" lon="5.56332">
        <ele>352.7</ele>
        <time>2023-03-29T13:16:17Z</time>
      </trkpt>
      <trkpt lat="45.56228" lon="5.5634">
        <ele>352.6</ele>
        <time>2023-03-29T13:16:19Z</time>
      </trkpt>
      <trkpt lat="45.56223" lon="5.56347">
        <ele>352.4</ele>
        <time>2023-03-29T13:16:21Z</time>
      </trkpt>
      <trkpt lat="45.56218" lon="5.56354">
        <ele>352.5</ele>
        <time>2023-03-29T13:16:23Z</time>
      </trkpt>
      <trkpt lat="45.56213" lon="5.56361">
        <ele>352.6</ele>
        <time>2023-03-29T13:16:25Z</time>
      </trkpt>
      <trkpt lat="45.56209" lon="5.56367">
        <ele>353</ele>
        <time>2023-03-29T13:16:27Z</time>
      </trkpt>
      <trkpt lat="45.56205" lon="5.56374">
        <ele>353.4</ele>
        <time>2023-03-29T13:16:29Z</time>
      </trkpt>
      <trkpt lat="45.56202" lon="5.56379">
        <ele>353.8</ele>
        <time>2023-03-29T13:16:31Z</time>
      </trkpt>
      <trkpt lat="45.56198" lon="5.56385">
        <ele>354.1</ele>
        <time>2023-03-29T13:16:33Z</time>
      </trkpt>
      <trkpt lat="45.56193" lon="5.56392">
        <ele>354.7</ele>
        <time>2023-03-29T13:16:36Z</time>
      </trkpt>
      <trkpt lat="45.56189" lon="5.56396">
        <ele>355.1</ele>
        <time>2023-03-29T13:16:39Z</time>
      </trkpt>
      <trkpt lat="45.56185" lon="5.56402">
        <ele>355.3</ele>
        <time>2023-03-29T13:16:42Z</time>
      </trkpt>
      <trkpt lat="45.5618" lon="5.56409">
        <ele>355.9</ele>
        <time>2023-03-29T13:16:45Z</time>
      </trkpt>
      <trkpt lat="45.56176" lon="5.56414">
        <ele>356.3</ele>
        <time>2023-03-29T13:16:48Z</time>
      </trkpt>
      <trkpt lat="45.56171" lon="5.56419">
        <ele>356.8</ele>
        <time>2023-03-29T13:16:51Z</time>
      </trkpt>
      <trkpt lat="45.56168" lon="5.56423">
        <ele>356.8</ele>
        <time>2023-03-29T13:16:53Z</time>
      </trkpt>
      <trkpt lat="45.56163" lon="5.56429">
        <ele>357.5</ele>
        <time>2023-03-29T13:16:56Z</time>
      </trkpt>
      <trkpt lat="45.56159" lon="5.56433">
        <ele>357.9</ele>
        <time>2023-03-29T13:16:58Z</time>
      </trkpt>
      <trkpt lat="45.56156" lon="5.56438">
        <ele>357.9</ele>
        <time>2023-03-29T13:17:02Z</time>
      </trkpt>
      <trkpt lat="45.56152" lon="5.56443">
        <ele>358.4</ele>
        <time>2023-03-29T13:17:05Z</time>
      </trkpt>
      <trkpt lat="45.56147" lon="5.56448">
        <ele>358.8</ele>
        <time>2023-03-29T13:17:09Z</time>
      </trkpt>
      <trkpt lat="45.56143" lon="5.56453">
        <ele>359.2</ele>
        <time>2023-03-29T13:17:12Z</time>
      </trkpt>
      <trkpt lat="45.56138" lon="5.56458">
        <ele>359.6</ele>
        <time>2023-03-29T13:17:15Z</time>
      </trkpt>
      <trkpt lat="45.56134" lon="5.56463">
        <ele>360.4</ele>
        <time>2023-03-29T13:17:18Z</time>
      </trkpt>
      <trkpt lat="45.56129" lon="5.56467">
        <ele>360.4</ele>
        <time>2023-03-29T13:17:21Z</time>
      </trkpt>
      <trkpt lat="45.56126" lon="5.56473">
        <ele>360.7</ele>
        <time>2023-03-29T13:17:24Z</time>
      </trkpt>
      <trkpt lat="45.56121" lon="5.56477">
        <ele>361.1</ele>
        <time>2023-03-29T13:17:27Z</time>
      </trkpt>
      <trkpt lat="45.56117" lon="5.56481">
        <ele>361.4</ele>
        <time>2023-03-29T13:17:30Z</time>
      </trkpt>
      <trkpt lat="45.56113" lon="5.56487">
        <ele>361.7</ele>
        <time>2023-03-29T13:17:34Z</time>
      </trkpt>
      <trkpt lat="45.56107" lon="5.56491">
        <ele>362.4</ele>
        <time>2023-03-29T13:17:38Z</time>
      </trkpt>
      <trkpt lat="45.56104" lon="5.56496">
        <ele>362.3</ele>
        <time>2023-03-29T13:17:40Z</time>
      </trkpt>
      <trkpt lat="45.56099" lon="5.56501">
        <ele>362.6</ele>
        <time>2023-03-29T13:17:43Z</time>
      </trkpt>
      <trkpt lat="45.56095" lon="5.56508">
        <ele>363</ele>
        <time>2023-03-29T13:17:46Z</time>
      </trkpt>
      <trkpt lat="45.56091" lon="5.56513">
        <ele>363.3</ele>
        <time>2023-03-29T13:17:48Z</time>
      </trkpt>
      <trkpt lat="45.56087" lon="5.56518">
        <ele>363.5</ele>
        <time>2023-03-29T13:17:51Z</time>
      </trkpt>
      <trkpt lat="45.56082" lon="5.56524">
        <ele>363.6</ele>
        <time>2023-03-29T13:17:54Z</time>
      </trkpt>
      <trkpt lat="45.56078" lon="5.56529">
        <ele>363.7</ele>
        <time>2023-03-29T13:17:57Z</time>
      </trkpt>
      <trkpt lat="45.56074" lon="5.56534">
        <ele>364.2</ele>
        <time>2023-03-29T13:17:59Z</time>
      </trkpt>
      <trkpt lat="45.56068" lon="5.56538">
        <ele>364.3</ele>
        <time>2023-03-29T13:18:02Z</time>
      </trkpt>
      <trkpt lat="45.56064" lon="5.56542">
        <ele>364.5</ele>
        <time>2023-03-29T13:18:04Z</time>
      </trkpt>
      <trkpt lat="45.56058" lon="5.56546">
        <ele>364.7</ele>
        <time>2023-03-29T13:18:07Z</time>
      </trkpt>
      <trkpt lat="45.56054" lon="5.56548">
        <ele>364.7</ele>
        <time>2023-03-29T13:18:09Z</time>
      </trkpt>
      <trkpt lat="45.56049" lon="5.56552">
        <ele>364.7</ele>
        <time>2023-03-29T13:18:11Z</time>
      </trkpt>
      <trkpt lat="45.56045" lon="5.56557">
        <ele>364.7</ele>
        <time>2023-03-29T13:18:13Z</time>
      </trkpt>
      <trkpt lat="45.56041" lon="5.56563">
        <ele>364.8</ele>
        <time>2023-03-29T13:18:15Z</time>
      </trkpt>
      <trkpt lat="45.56036" lon="5.56569">
        <ele>364.9</ele>
        <time>2023-03-29T13:18:18Z</time>
      </trkpt>
      <trkpt lat="45.56032" lon="5.56575">
        <ele>364.8</ele>
        <time>2023-03-29T13:18:20Z</time>
      </trkpt>
      <trkpt lat="45.56028" lon="5.56581">
        <ele>365</ele>
        <time>2023-03-29T13:18:22Z</time>
      </trkpt>
      <trkpt lat="45.56023" lon="5.56586">
        <ele>365.1</ele>
        <time>2023-03-29T13:18:24Z</time>
      </trkpt>
      <trkpt lat="45.56017" lon="5.56592">
        <ele>365.4</ele>
        <time>2023-03-29T13:18:26Z</time>
      </trkpt>
      <trkpt lat="45.56013" lon="5.56598">
        <ele>365.6</ele>
        <time>2023-03-29T13:18:28Z</time>
      </trkpt>
      <trkpt lat="45.56008" lon="5.56607">
        <ele>365.5</ele>
        <time>2023-03-29T13:18:31Z</time>
      </trkpt>
      <trkpt lat="45.56003" lon="5.5661">
        <ele>365.6</ele>
        <time>2023-03-29T13:18:33Z</time>
      </trkpt>
      <trkpt lat="45.56" lon="5.56614">
        <ele>365.7</ele>
        <time>2023-03-29T13:18:35Z</time>
      </trkpt>
      <trkpt lat="45.55997" lon="5.56619">
        <ele>365.5</ele>
        <time>2023-03-29T13:18:37Z</time>
      </trkpt>
      <trkpt lat="45.55993" lon="5.56624">
        <ele>365.6</ele>
        <time>2023-03-29T13:18:40Z</time>
      </trkpt>
      <trkpt lat="45.55988" lon="5.56629">
        <ele>365.8</ele>
        <time>2023-03-29T13:18:42Z</time>
      </trkpt>
      <trkpt lat="45.55984" lon="5.56633">
        <ele>366.1</ele>
        <time>2023-03-29T13:18:44Z</time>
      </trkpt>
      <trkpt lat="45.55978" lon="5.56638">
        <ele>366.8</ele>
        <time>2023-03-29T13:18:47Z</time>
      </trkpt>
      <trkpt lat="45.55973" lon="5.56642">
        <ele>367.2</ele>
        <time>2023-03-29T13:18:49Z</time>
      </trkpt>
      <trkpt lat="45.55967" lon="5.56644">
        <ele>367.4</ele>
        <time>2023-03-29T13:18:51Z</time>
      </trkpt>
      <trkpt lat="45.55961" lon="5.56647">
        <ele>367.7</ele>
        <time>2023-03-29T13:18:55Z</time>
      </trkpt>
      <trkpt lat="45.55956" lon="5.56649">
        <ele>368.1</ele>
        <time>2023-03-29T13:18:58Z</time>
      </trkpt>
      <trkpt lat="45.5595" lon="5.56652">
        <ele>368.2</ele>
        <time>2023-03-29T13:19:01Z</time>
      </trkpt>
      <trkpt lat="45.55946" lon="5.56654">
        <ele>368.6</ele>
        <time>2023-03-29T13:19:03Z</time>
      </trkpt>
      <trkpt lat="45.5594" lon="5.56656">
        <ele>369</ele>
        <time>2023-03-29T13:19:06Z</time>
      </trkpt>
      <trkpt lat="45.55934" lon="5.56659">
        <ele>369.4</ele>
        <time>2023-03-29T13:19:08Z</time>
      </trkpt>
      <trkpt lat="45.55928" lon="5.56662">
        <ele>369.4</ele>
        <time>2023-03-29T13:19:11Z</time>
      </trkpt>
      <trkpt lat="45.55922" lon="5.56668">
        <ele>369.8</ele>
        <time>2023-03-29T13:19:13Z</time>
      </trkpt>
      <trkpt lat="45.55916" lon="5.56672">
        <ele>370.1</ele>
        <time>2023-03-29T13:19:16Z</time>
      </trkpt>
      <trkpt lat="45.55912" lon="5.56676">
        <ele>370.2</ele>
        <time>2023-03-29T13:19:18Z</time>
      </trkpt>
      <trkpt lat="45.55908" lon="5.5668">
        <ele>370.3</ele>
        <time>2023-03-29T13:19:20Z</time>
      </trkpt>
      <trkpt lat="45.55904" lon="5.56686">
        <ele>370.3</ele>
        <time>2023-03-29T13:19:23Z</time>
      </trkpt>
      <trkpt lat="45.55899" lon="5.56691">
        <ele>370.4</ele>
        <time>2023-03-29T13:19:25Z</time>
      </trkpt>
      <trkpt lat="45.55895" lon="5.56697">
        <ele>370.5</ele>
        <time>2023-03-29T13:19:27Z</time>
      </trkpt>
      <trkpt lat="45.55889" lon="5.56706">
        <ele>370.5</ele>
        <time>2023-03-29T13:19:30Z</time>
      </trkpt>
      <trkpt lat="45.55885" lon="5.56713">
        <ele>370.5</ele>
        <time>2023-03-29T13:19:32Z</time>
      </trkpt>
      <trkpt lat="45.55881" lon="5.56721">
        <ele>370.4</ele>
        <time>2023-03-29T13:19:34Z</time>
      </trkpt>
      <trkpt lat="45.55877" lon="5.5673">
        <ele>370.3</ele>
        <time>2023-03-29T13:19:36Z</time>
      </trkpt>
      <trkpt lat="45.55873" lon="5.5674">
        <ele>370.1</ele>
        <time>2023-03-29T13:19:39Z</time>
      </trkpt>
      <trkpt lat="45.55869" lon="5.5675">
        <ele>370</ele>
        <time>2023-03-29T13:19:41Z</time>
      </trkpt>
      <trkpt lat="45.55866" lon="5.56758">
        <ele>370</ele>
        <time>2023-03-29T13:19:43Z</time>
      </trkpt>
      <trkpt lat="45.55861" lon="5.56767">
        <ele>369.8</ele>
        <time>2023-03-29T13:19:45Z</time>
      </trkpt>
      <trkpt lat="45.55857" lon="5.56774">
        <ele>369.7</ele>
        <time>2023-03-29T13:19:47Z</time>
      </trkpt>
      <trkpt lat="45.5585" lon="5.5678">
        <ele>369.9</ele>
        <time>2023-03-29T13:19:50Z</time>
      </trkpt>
      <trkpt lat="45.55846" lon="5.56783">
        <ele>369.9</ele>
        <time>2023-03-29T13:19:52Z</time>
      </trkpt>
      <trkpt lat="45.5584" lon="5.56786">
        <ele>370.1</ele>
        <time>2023-03-29T13:19:54Z</time>
      </trkpt>
      <trkpt lat="45.55834" lon="5.56788">
        <ele>370.1</ele>
        <time>2023-03-29T13:19:56Z</time>
      </trkpt>
      <trkpt lat="45.55828" lon="5.56791">
        <ele>370.5</ele>
        <time>2023-03-29T13:19:58Z</time>
      </trkpt>
      <trkpt lat="45.55824" lon="5.56793">
        <ele>370.6</ele>
        <time>2023-03-29T13:20:00Z</time>
      </trkpt>
      <trkpt lat="45.55819" lon="5.56796">
        <ele>370.9</ele>
        <time>2023-03-29T13:20:01Z</time>
      </trkpt>
      <trkpt lat="45.55813" lon="5.568">
        <ele>370.8</ele>
        <time>2023-03-29T13:20:03Z</time>
      </trkpt>
      <trkpt lat="45.55808" lon="5.56803">
        <ele>370.8</ele>
        <time>2023-03-29T13:20:05Z</time>
      </trkpt>
      <trkpt lat="45.55802" lon="5.56807">
        <ele>371.1</ele>
        <time>2023-03-29T13:20:07Z</time>
      </trkpt>
      <trkpt lat="45.55796" lon="5.5681">
        <ele>371.2</ele>
        <time>2023-03-29T13:20:09Z</time>
      </trkpt>
      <trkpt lat="45.55788" lon="5.56814">
        <ele>371.5</ele>
        <time>2023-03-29T13:20:12Z</time>
      </trkpt>
      <trkpt lat="45.55781" lon="5.56818">
        <ele>372</ele>
        <time>2023-03-29T13:20:14Z</time>
      </trkpt>
      <trkpt lat="45.55774" lon="5.5682">
        <ele>372.6</ele>
        <time>2023-03-29T13:20:17Z</time>
      </trkpt>
      <trkpt lat="45.55768" lon="5.5682">
        <ele>373.7</ele>
        <time>2023-03-29T13:20:19Z</time>
      </trkpt>
      <trkpt lat="45.55763" lon="5.56821">
        <ele>373.7</ele>
        <time>2023-03-29T13:20:21Z</time>
      </trkpt>
      <trkpt lat="45.55756" lon="5.56825">
        <ele>373.2</ele>
        <time>2023-03-29T13:20:24Z</time>
      </trkpt>
      <trkpt lat="45.5575" lon="5.56827">
        <ele>373.1</ele>
        <time>2023-03-29T13:20:26Z</time>
      </trkpt>
      <trkpt lat="45.55743" lon="5.56832">
        <ele>373.1</ele>
        <time>2023-03-29T13:20:29Z</time>
      </trkpt>
      <trkpt lat="45.55736" lon="5.56835">
        <ele>373.6</ele>
        <time>2023-03-29T13:20:31Z</time>
      </trkpt>
      <trkpt lat="45.55732" lon="5.56837">
        <ele>373.5</ele>
        <time>2023-03-29T13:20:33Z</time>
      </trkpt>
      <trkpt lat="45.55726" lon="5.56841">
        <ele>373.5</ele>
        <time>2023-03-29T13:20:35Z</time>
      </trkpt>
      <trkpt lat="45.5572" lon="5.56843">
        <ele>374</ele>
        <time>2023-03-29T13:20:37Z</time>
      </trkpt>
      <trkpt lat="45.55716" lon="5.56845">
        <ele>374.1</ele>
        <time>2023-03-29T13:20:39Z</time>
      </trkpt>
      <trkpt lat="45.5571" lon="5.56847">
        <ele>374.4</ele>
        <time>2023-03-29T13:20:41Z</time>
      </trkpt>
      <trkpt lat="45.55703" lon="5.5685">
        <ele>374.7</ele>
        <time>2023-03-29T13:20:43Z</time>
      </trkpt>
      <trkpt lat="45.55699" lon="5.56852">
        <ele>375.1</ele>
        <time>2023-03-29T13:20:45Z</time>
      </trkpt>
      <trkpt lat="45.55692" lon="5.56855">
        <ele>375.1</ele>
        <time>2023-03-29T13:20:47Z</time>
      </trkpt>
      <trkpt lat="45.55685" lon="5.56859">
        <ele>375.3</ele>
        <time>2023-03-29T13:20:49Z</time>
      </trkpt>
      <trkpt lat="45.5568" lon="5.56861">
        <ele>375.3</ele>
        <time>2023-03-29T13:20:51Z</time>
      </trkpt>
      <trkpt lat="45.55673" lon="5.56863">
        <ele>375.9</ele>
        <time>2023-03-29T13:20:53Z</time>
      </trkpt>
      <trkpt lat="45.55664" lon="5.56866">
        <ele>376.1</ele>
        <time>2023-03-29T13:20:56Z</time>
      </trkpt>
      <trkpt lat="45.5566" lon="5.56867">
        <ele>376.3</ele>
        <time>2023-03-29T13:20:57Z</time>
      </trkpt>
      <trkpt lat="45.55653" lon="5.56867">
        <ele>376.6</ele>
        <time>2023-03-29T13:20:59Z</time>
      </trkpt>
      <trkpt lat="45.55648" lon="5.56867">
        <ele>377.1</ele>
        <time>2023-03-29T13:21:01Z</time>
      </trkpt>
      <trkpt lat="45.55642" lon="5.56867">
        <ele>377.3</ele>
        <time>2023-03-29T13:21:03Z</time>
      </trkpt>
      <trkpt lat="45.55636" lon="5.56868">
        <ele>377.5</ele>
        <time>2023-03-29T13:21:05Z</time>
      </trkpt>
      <trkpt lat="45.55631" lon="5.56869">
        <ele>377.8</ele>
        <time>2023-03-29T13:21:07Z</time>
      </trkpt>
      <trkpt lat="45.55624" lon="5.56871">
        <ele>377.7</ele>
        <time>2023-03-29T13:21:09Z</time>
      </trkpt>
      <trkpt lat="45.55619" lon="5.56872">
        <ele>377.8</ele>
        <time>2023-03-29T13:21:11Z</time>
      </trkpt>
      <trkpt lat="45.55611" lon="5.56874">
        <ele>377.6</ele>
        <time>2023-03-29T13:21:14Z</time>
      </trkpt>
      <trkpt lat="45.55603" lon="5.56874">
        <ele>377.6</ele>
        <time>2023-03-29T13:21:16Z</time>
      </trkpt>
      <trkpt lat="45.55597" lon="5.56876">
        <ele>377.5</ele>
        <time>2023-03-29T13:21:18Z</time>
      </trkpt>
      <trkpt lat="45.5559" lon="5.56878">
        <ele>377.3</ele>
        <time>2023-03-29T13:21:20Z</time>
      </trkpt>
      <trkpt lat="45.55583" lon="5.56881">
        <ele>376.7</ele>
        <time>2023-03-29T13:21:22Z</time>
      </trkpt>
      <trkpt lat="45.55577" lon="5.56884">
        <ele>376.5</ele>
        <time>2023-03-29T13:21:24Z</time>
      </trkpt>
      <trkpt lat="45.5557" lon="5.56891">
        <ele>376.1</ele>
        <time>2023-03-29T13:21:26Z</time>
      </trkpt>
      <trkpt lat="45.55563" lon="5.56897">
        <ele>375.9</ele>
        <time>2023-03-29T13:21:28Z</time>
      </trkpt>
      <trkpt lat="45.55558" lon="5.56899">
        <ele>375.7</ele>
        <time>2023-03-29T13:21:30Z</time>
      </trkpt>
      <trkpt lat="45.55553" lon="5.56901">
        <ele>375.6</ele>
        <time>2023-03-29T13:21:31Z</time>
      </trkpt>
      <trkpt lat="45.55548" lon="5.56904">
        <ele>375.4</ele>
        <time>2023-03-29T13:21:32Z</time>
      </trkpt>
      <trkpt lat="45.55543" lon="5.56906">
        <ele>375.2</ele>
        <time>2023-03-29T13:21:33Z</time>
      </trkpt>
      <trkpt lat="45.55538" lon="5.56909">
        <ele>374.9</ele>
        <time>2023-03-29T13:21:34Z</time>
      </trkpt>
      <trkpt lat="45.5553" lon="5.56914">
        <ele>374.5</ele>
        <time>2023-03-29T13:21:37Z</time>
      </trkpt>
      <trkpt lat="45.55524" lon="5.56918">
        <ele>374.2</ele>
        <time>2023-03-29T13:21:38Z</time>
      </trkpt>
      <trkpt lat="45.5552" lon="5.56922">
        <ele>374</ele>
        <time>2023-03-29T13:21:40Z</time>
      </trkpt>
      <trkpt lat="45.5551" lon="5.56925">
        <ele>374.1</ele>
        <time>2023-03-29T13:21:42Z</time>
      </trkpt>
      <trkpt lat="45.55505" lon="5.56924">
        <ele>374.1</ele>
        <time>2023-03-29T13:21:44Z</time>
      </trkpt>
      <trkpt lat="45.55499" lon="5.56925">
        <ele>374</ele>
        <time>2023-03-29T13:21:46Z</time>
      </trkpt>
      <trkpt lat="45.55492" lon="5.56927">
        <ele>373.5</ele>
        <time>2023-03-29T13:21:48Z</time>
      </trkpt>
      <trkpt lat="45.55484" lon="5.56928">
        <ele>373.2</ele>
        <time>2023-03-29T13:21:50Z</time>
      </trkpt>
      <trkpt lat="45.5548" lon="5.5693">
        <ele>373.1</ele>
        <time>2023-03-29T13:21:52Z</time>
      </trkpt>
      <trkpt lat="45.55473" lon="5.56931">
        <ele>372.9</ele>
        <time>2023-03-29T13:21:53Z</time>
      </trkpt>
      <trkpt lat="45.55469" lon="5.5693">
        <ele>372.7</ele>
        <time>2023-03-29T13:21:54Z</time>
      </trkpt>
      <trkpt lat="45.55464" lon="5.56929">
        <ele>372.3</ele>
        <time>2023-03-29T13:21:55Z</time>
      </trkpt>
      <trkpt lat="45.55456" lon="5.56928">
        <ele>371</ele>
        <time>2023-03-29T13:21:57Z</time>
      </trkpt>
      <trkpt lat="45.55449" lon="5.56927">
        <ele>370.5</ele>
        <time>2023-03-29T13:21:58Z</time>
      </trkpt>
      <trkpt lat="45.55444" lon="5.56926">
        <ele>370.7</ele>
        <time>2023-03-29T13:22:00Z</time>
      </trkpt>
      <trkpt lat="45.55437" lon="5.56932">
        <ele>371.2</ele>
        <time>2023-03-29T13:22:02Z</time>
      </trkpt>
      <trkpt lat="45.55433" lon="5.56936">
        <ele>371.5</ele>
        <time>2023-03-29T13:22:03Z</time>
      </trkpt>
      <trkpt lat="45.55428" lon="5.56942">
        <ele>371.8</ele>
        <time>2023-03-29T13:22:06Z</time>
      </trkpt>
      <trkpt lat="45.55423" lon="5.56946">
        <ele>372</ele>
        <time>2023-03-29T13:22:08Z</time>
      </trkpt>
      <trkpt lat="45.5542" lon="5.56951">
        <ele>372.1</ele>
        <time>2023-03-29T13:22:11Z</time>
      </trkpt>
      <trkpt lat="45.55416" lon="5.56956">
        <ele>372.3</ele>
        <time>2023-03-29T13:22:13Z</time>
      </trkpt>
      <trkpt lat="45.5541" lon="5.56964">
        <ele>372.5</ele>
        <time>2023-03-29T13:22:16Z</time>
      </trkpt>
      <trkpt lat="45.55405" lon="5.56968">
        <ele>372.8</ele>
        <time>2023-03-29T13:22:18Z</time>
      </trkpt>
      <trkpt lat="45.55401" lon="5.56972">
        <ele>373</ele>
        <time>2023-03-29T13:22:20Z</time>
      </trkpt>
      <trkpt lat="45.55397" lon="5.56976">
        <ele>373.2</ele>
        <time>2023-03-29T13:22:22Z</time>
      </trkpt>
      <trkpt lat="45.55392" lon="5.56984">
        <ele>373.1</ele>
        <time>2023-03-29T13:22:25Z</time>
      </trkpt>
      <trkpt lat="45.55385" lon="5.56991">
        <ele>373.3</ele>
        <time>2023-03-29T13:22:28Z</time>
      </trkpt>
      <trkpt lat="45.5538" lon="5.56996">
        <ele>373.4</ele>
        <time>2023-03-29T13:22:30Z</time>
      </trkpt>
      <trkpt lat="45.55375" lon="5.57">
        <ele>373.4</ele>
        <time>2023-03-29T13:22:33Z</time>
      </trkpt>
      <trkpt lat="45.55369" lon="5.57006">
        <ele>373.6</ele>
        <time>2023-03-29T13:22:35Z</time>
      </trkpt>
      <trkpt lat="45.55364" lon="5.57011">
        <ele>373.6</ele>
        <time>2023-03-29T13:22:37Z</time>
      </trkpt>
      <trkpt lat="45.5536" lon="5.57015">
        <ele>373.7</ele>
        <time>2023-03-29T13:22:40Z</time>
      </trkpt>
      <trkpt lat="45.55354" lon="5.5702">
        <ele>373.8</ele>
        <time>2023-03-29T13:22:43Z</time>
      </trkpt>
      <trkpt lat="45.55348" lon="5.57025">
        <ele>373.9</ele>
        <time>2023-03-29T13:22:46Z</time>
      </trkpt>
      <trkpt lat="45.55341" lon="5.5703">
        <ele>374.1</ele>
        <time>2023-03-29T13:22:48Z</time>
      </trkpt>
      <trkpt lat="45.55336" lon="5.57035">
        <ele>374.1</ele>
        <time>2023-03-29T13:22:50Z</time>
      </trkpt>
      <trkpt lat="45.55331" lon="5.57039">
        <ele>374.1</ele>
        <time>2023-03-29T13:22:52Z</time>
      </trkpt>
      <trkpt lat="45.55326" lon="5.57044">
        <ele>374.3</ele>
        <time>2023-03-29T13:22:54Z</time>
      </trkpt>
      <trkpt lat="45.55319" lon="5.57052">
        <ele>374.2</ele>
        <time>2023-03-29T13:22:57Z</time>
      </trkpt>
      <trkpt lat="45.55313" lon="5.57058">
        <ele>374.4</ele>
        <time>2023-03-29T13:22:59Z</time>
      </trkpt>
      <trkpt lat="45.55307" lon="5.57063">
        <ele>374.3</ele>
        <time>2023-03-29T13:23:01Z</time>
      </trkpt>
      <trkpt lat="45.55301" lon="5.57066">
        <ele>374.3</ele>
        <time>2023-03-29T13:23:03Z</time>
      </trkpt>
      <trkpt lat="45.55295" lon="5.5707">
        <ele>374.2</ele>
        <time>2023-03-29T13:23:05Z</time>
      </trkpt>
      <trkpt lat="45.5529" lon="5.57074">
        <ele>374.1</ele>
        <time>2023-03-29T13:23:07Z</time>
      </trkpt>
      <trkpt lat="45.5529" lon="5.57083">
        <ele>374</ele>
        <time>2023-03-29T13:23:10Z</time>
      </trkpt>
      <trkpt lat="45.55292" lon="5.57094">
        <ele>374</ele>
        <time>2023-03-29T13:23:12Z</time>
      </trkpt>
      <trkpt lat="45.55291" lon="5.57103">
        <ele>373.9</ele>
        <time>2023-03-29T13:23:14Z</time>
      </trkpt>
      <trkpt lat="45.55288" lon="5.57109">
        <ele>373.9</ele>
        <time>2023-03-29T13:23:15Z</time>
      </trkpt>
      <trkpt lat="45.55285" lon="5.57116">
        <ele>374</ele>
        <time>2023-03-29T13:23:16Z</time>
      </trkpt>
      <trkpt lat="45.55282" lon="5.57122">
        <ele>374.1</ele>
        <time>2023-03-29T13:23:17Z</time>
      </trkpt>
      <trkpt lat="45.55279" lon="5.57128">
        <ele>374.1</ele>
        <time>2023-03-29T13:23:19Z</time>
      </trkpt>
      <trkpt lat="45.55274" lon="5.5714">
        <ele>374.1</ele>
        <time>2023-03-29T13:23:21Z</time>
      </trkpt>
      <trkpt lat="45.55271" lon="5.57148">
        <ele>374.1</ele>
        <time>2023-03-29T13:23:22Z</time>
      </trkpt>
      <trkpt lat="45.55268" lon="5.57156">
        <ele>374.1</ele>
        <time>2023-03-29T13:23:24Z</time>
      </trkpt>
      <trkpt lat="45.55265" lon="5.57169">
        <ele>374</ele>
        <time>2023-03-29T13:23:26Z</time>
      </trkpt>
      <trkpt lat="45.55263" lon="5.57178">
        <ele>374.1</ele>
        <time>2023-03-29T13:23:27Z</time>
      </trkpt>
      <trkpt lat="45.55259" lon="5.57192">
        <ele>374</ele>
        <time>2023-03-29T13:23:30Z</time>
      </trkpt>
      <trkpt lat="45.55258" lon="5.57198">
        <ele>374</ele>
        <time>2023-03-29T13:23:31Z</time>
      </trkpt>
      <trkpt lat="45.55256" lon="5.57211">
        <ele>373.8</ele>
        <time>2023-03-29T13:23:33Z</time>
      </trkpt>
      <trkpt lat="45.55256" lon="5.57217">
        <ele>373.9</ele>
        <time>2023-03-29T13:23:34Z</time>
      </trkpt>
      <trkpt lat="45.55255" lon="5.57228">
        <ele>374</ele>
        <time>2023-03-29T13:23:36Z</time>
      </trkpt>
      <trkpt lat="45.55254" lon="5.57237">
        <ele>374</ele>
        <time>2023-03-29T13:23:37Z</time>
      </trkpt>
      <trkpt lat="45.55252" lon="5.57247">
        <ele>373.8</ele>
        <time>2023-03-29T13:23:39Z</time>
      </trkpt>
      <trkpt lat="45.55252" lon="5.57259">
        <ele>374</ele>
        <time>2023-03-29T13:23:41Z</time>
      </trkpt>
      <trkpt lat="45.55251" lon="5.57272">
        <ele>374</ele>
        <time>2023-03-29T13:23:44Z</time>
      </trkpt>
      <trkpt lat="45.55254" lon="5.57282">
        <ele>374.2</ele>
        <time>2023-03-29T13:23:46Z</time>
      </trkpt>
      <trkpt lat="45.55254" lon="5.57293">
        <ele>374.4</ele>
        <time>2023-03-29T13:23:48Z</time>
      </trkpt>
      <trkpt lat="45.55255" lon="5.573">
        <ele>374.5</ele>
        <time>2023-03-29T13:23:50Z</time>
      </trkpt>
      <trkpt lat="45.55254" lon="5.5731">
        <ele>374.6</ele>
        <time>2023-03-29T13:23:52Z</time>
      </trkpt>
      <trkpt lat="45.55254" lon="5.57317">
        <ele>374.6</ele>
        <time>2023-03-29T13:23:55Z</time>
      </trkpt>
      <trkpt lat="45.55255" lon="5.57323">
        <ele>374.5</ele>
        <time>2023-03-29T13:23:57Z</time>
      </trkpt>
      <trkpt lat="45.55256" lon="5.57332">
        <ele>374.6</ele>
        <time>2023-03-29T13:23:59Z</time>
      </trkpt>
      <trkpt lat="45.55256" lon="5.57339">
        <ele>374.6</ele>
        <time>2023-03-29T13:24:01Z</time>
      </trkpt>
      <trkpt lat="45.55258" lon="5.57347">
        <ele>374.6</ele>
        <time>2023-03-29T13:24:03Z</time>
      </trkpt>
      <trkpt lat="45.5526" lon="5.57356">
        <ele>374.7</ele>
        <time>2023-03-29T13:24:06Z</time>
      </trkpt>
      <trkpt lat="45.55261" lon="5.57364">
        <ele>374.8</ele>
        <time>2023-03-29T13:24:08Z</time>
      </trkpt>
      <trkpt lat="45.55263" lon="5.57372">
        <ele>374.9</ele>
        <time>2023-03-29T13:24:10Z</time>
      </trkpt>
      <trkpt lat="45.55267" lon="5.57381">
        <ele>374.9</ele>
        <time>2023-03-29T13:24:13Z</time>
      </trkpt>
      <trkpt lat="45.55269" lon="5.57389">
        <ele>374.9</ele>
        <time>2023-03-29T13:24:15Z</time>
      </trkpt>
      <trkpt lat="45.55273" lon="5.57397">
        <ele>374.8</ele>
        <time>2023-03-29T13:24:17Z</time>
      </trkpt>
      <trkpt lat="45.55276" lon="5.57405">
        <ele>374.7</ele>
        <time>2023-03-29T13:24:19Z</time>
      </trkpt>
      <trkpt lat="45.55279" lon="5.57411">
        <ele>374.9</ele>
        <time>2023-03-29T13:24:21Z</time>
      </trkpt>
      <trkpt lat="45.55283" lon="5.57421">
        <ele>374.9</ele>
        <time>2023-03-29T13:24:24Z</time>
      </trkpt>
      <trkpt lat="45.55285" lon="5.57428">
        <ele>374.9</ele>
        <time>2023-03-29T13:24:25Z</time>
      </trkpt>
      <trkpt lat="45.55288" lon="5.57439">
        <ele>374.9</ele>
        <time>2023-03-29T13:24:27Z</time>
      </trkpt>
      <trkpt lat="45.5529" lon="5.5745">
        <ele>375.2</ele>
        <time>2023-03-29T13:24:30Z</time>
      </trkpt>
      <trkpt lat="45.55291" lon="5.57458">
        <ele>375.2</ele>
        <time>2023-03-29T13:24:31Z</time>
      </trkpt>
      <trkpt lat="45.55292" lon="5.57465">
        <ele>375.2</ele>
        <time>2023-03-29T13:24:32Z</time>
      </trkpt>
      <trkpt lat="45.55292" lon="5.57473">
        <ele>375.2</ele>
        <time>2023-03-29T13:24:34Z</time>
      </trkpt>
      <trkpt lat="45.55292" lon="5.57485">
        <ele>375.4</ele>
        <time>2023-03-29T13:24:36Z</time>
      </trkpt>
      <trkpt lat="45.55293" lon="5.57493">
        <ele>375.3</ele>
        <time>2023-03-29T13:24:37Z</time>
      </trkpt>
      <trkpt lat="45.55293" lon="5.575">
        <ele>375.4</ele>
        <time>2023-03-29T13:24:38Z</time>
      </trkpt>
      <trkpt lat="45.55294" lon="5.57511">
        <ele>375.4</ele>
        <time>2023-03-29T13:24:40Z</time>
      </trkpt>
      <trkpt lat="45.55295" lon="5.57518">
        <ele>375.5</ele>
        <time>2023-03-29T13:24:41Z</time>
      </trkpt>
      <trkpt lat="45.55295" lon="5.57529">
        <ele>375.5</ele>
        <time>2023-03-29T13:24:43Z</time>
      </trkpt>
      <trkpt lat="45.55295" lon="5.57536">
        <ele>375.5</ele>
        <time>2023-03-29T13:24:45Z</time>
      </trkpt>
      <trkpt lat="45.55295" lon="5.57544">
        <ele>375.4</ele>
        <time>2023-03-29T13:24:46Z</time>
      </trkpt>
      <trkpt lat="45.55294" lon="5.57556">
        <ele>375.3</ele>
        <time>2023-03-29T13:24:48Z</time>
      </trkpt>
      <trkpt lat="45.55294" lon="5.57565">
        <ele>375.2</ele>
        <time>2023-03-29T13:24:49Z</time>
      </trkpt>
      <trkpt lat="45.55293" lon="5.57582">
        <ele>375</ele>
        <time>2023-03-29T13:24:52Z</time>
      </trkpt>
      <trkpt lat="45.55292" lon="5.57594">
        <ele>374.8</ele>
        <time>2023-03-29T13:24:54Z</time>
      </trkpt>
      <trkpt lat="45.55292" lon="5.57601">
        <ele>374.6</ele>
        <time>2023-03-29T13:24:55Z</time>
      </trkpt>
      <trkpt lat="45.55292" lon="5.57618">
        <ele>374.4</ele>
        <time>2023-03-29T13:24:58Z</time>
      </trkpt>
      <trkpt lat="45.55291" lon="5.5763">
        <ele>374</ele>
        <time>2023-03-29T13:25:00Z</time>
      </trkpt>
      <trkpt lat="45.55291" lon="5.57641">
        <ele>373.7</ele>
        <time>2023-03-29T13:25:03Z</time>
      </trkpt>
      <trkpt lat="45.55291" lon="5.57648">
        <ele>373.6</ele>
        <time>2023-03-29T13:25:05Z</time>
      </trkpt>
      <trkpt lat="45.5529" lon="5.57655">
        <ele>373.7</ele>
        <time>2023-03-29T13:25:07Z</time>
      </trkpt>
      <trkpt lat="45.55288" lon="5.57664">
        <ele>373.7</ele>
        <time>2023-03-29T13:25:10Z</time>
      </trkpt>
      <trkpt lat="45.55288" lon="5.57672">
        <ele>373.6</ele>
        <time>2023-03-29T13:25:11Z</time>
      </trkpt>
      <trkpt lat="45.55287" lon="5.57685">
        <ele>373.5</ele>
        <time>2023-03-29T13:25:13Z</time>
      </trkpt>
      <trkpt lat="45.55287" lon="5.57694">
        <ele>373.3</ele>
        <time>2023-03-29T13:25:15Z</time>
      </trkpt>
      <trkpt lat="45.55286" lon="5.57702">
        <ele>373.3</ele>
        <time>2023-03-29T13:25:16Z</time>
      </trkpt>
      <trkpt lat="45.55285" lon="5.57714">
        <ele>373.2</ele>
        <time>2023-03-29T13:25:18Z</time>
      </trkpt>
      <trkpt lat="45.55284" lon="5.57721">
        <ele>373.3</ele>
        <time>2023-03-29T13:25:19Z</time>
      </trkpt>
      <trkpt lat="45.55282" lon="5.57736">
        <ele>373.4</ele>
        <time>2023-03-29T13:25:22Z</time>
      </trkpt>
      <trkpt lat="45.55279" lon="5.57748">
        <ele>373.4</ele>
        <time>2023-03-29T13:25:23Z</time>
      </trkpt>
      <trkpt lat="45.55278" lon="5.57755">
        <ele>373.4</ele>
        <time>2023-03-29T13:25:24Z</time>
      </trkpt>
      <trkpt lat="45.55277" lon="5.57769">
        <ele>373.3</ele>
        <time>2023-03-29T13:25:26Z</time>
      </trkpt>
      <trkpt lat="45.55276" lon="5.57777">
        <ele>373.2</ele>
        <time>2023-03-29T13:25:27Z</time>
      </trkpt>
      <trkpt lat="45.55275" lon="5.57784">
        <ele>373.1</ele>
        <time>2023-03-29T13:25:28Z</time>
      </trkpt>
      <trkpt lat="45.55274" lon="5.57791">
        <ele>373.2</ele>
        <time>2023-03-29T13:25:29Z</time>
      </trkpt>
      <trkpt lat="45.55273" lon="5.57797">
        <ele>373.1</ele>
        <time>2023-03-29T13:25:30Z</time>
      </trkpt>
      <trkpt lat="45.55273" lon="5.57807">
        <ele>373</ele>
        <time>2023-03-29T13:25:32Z</time>
      </trkpt>
      <trkpt lat="45.55272" lon="5.57819">
        <ele>372.8</ele>
        <time>2023-03-29T13:25:34Z</time>
      </trkpt>
      <trkpt lat="45.55272" lon="5.57834">
        <ele>372.5</ele>
        <time>2023-03-29T13:25:37Z</time>
      </trkpt>
      <trkpt lat="45.55273" lon="5.57845">
        <ele>372.4</ele>
        <time>2023-03-29T13:25:39Z</time>
      </trkpt>
      <trkpt lat="45.5527" lon="5.57852">
        <ele>372.4</ele>
        <time>2023-03-29T13:25:40Z</time>
      </trkpt>
      <trkpt lat="45.55269" lon="5.57859">
        <ele>372.3</ele>
        <time>2023-03-29T13:25:41Z</time>
      </trkpt>
      <trkpt lat="45.5527" lon="5.57866">
        <ele>372.2</ele>
        <time>2023-03-29T13:25:42Z</time>
      </trkpt>
      <trkpt lat="45.55269" lon="5.57873">
        <ele>372.1</ele>
        <time>2023-03-29T13:25:43Z</time>
      </trkpt>
      <trkpt lat="45.55266" lon="5.57886">
        <ele>371.9</ele>
        <time>2023-03-29T13:25:45Z</time>
      </trkpt>
      <trkpt lat="45.55264" lon="5.57894">
        <ele>371.8</ele>
        <time>2023-03-29T13:25:47Z</time>
      </trkpt>
      <trkpt lat="45.55263" lon="5.579">
        <ele>371.7</ele>
        <time>2023-03-29T13:25:48Z</time>
      </trkpt>
      <trkpt lat="45.55262" lon="5.57908">
        <ele>371.8</ele>
        <time>2023-03-29T13:25:49Z</time>
      </trkpt>
      <trkpt lat="45.55261" lon="5.57915">
        <ele>371.8</ele>
        <time>2023-03-29T13:25:50Z</time>
      </trkpt>
      <trkpt lat="45.55258" lon="5.57928">
        <ele>371.7</ele>
        <time>2023-03-29T13:25:52Z</time>
      </trkpt>
      <trkpt lat="45.55255" lon="5.57936">
        <ele>371.8</ele>
        <time>2023-03-29T13:25:53Z</time>
      </trkpt>
      <trkpt lat="45.55254" lon="5.57943">
        <ele>371.7</ele>
        <time>2023-03-29T13:25:54Z</time>
      </trkpt>
      <trkpt lat="45.55253" lon="5.57951">
        <ele>371.7</ele>
        <time>2023-03-29T13:25:55Z</time>
      </trkpt>
      <trkpt lat="45.55253" lon="5.57958">
        <ele>371.6</ele>
        <time>2023-03-29T13:25:56Z</time>
      </trkpt>
      <trkpt lat="45.55253" lon="5.57965">
        <ele>371.6</ele>
        <time>2023-03-29T13:25:57Z</time>
      </trkpt>
      <trkpt lat="45.55253" lon="5.57972">
        <ele>371.6</ele>
        <time>2023-03-29T13:25:58Z</time>
      </trkpt>
      <trkpt lat="45.55252" lon="5.57979">
        <ele>371.6</ele>
        <time>2023-03-29T13:25:59Z</time>
      </trkpt>
      <trkpt lat="45.55252" lon="5.57992">
        <ele>371.5</ele>
        <time>2023-03-29T13:26:01Z</time>
      </trkpt>
      <trkpt lat="45.55251" lon="5.58004">
        <ele>371.6</ele>
        <time>2023-03-29T13:26:03Z</time>
      </trkpt>
      <trkpt lat="45.5525" lon="5.58015">
        <ele>371.6</ele>
        <time>2023-03-29T13:26:05Z</time>
      </trkpt>
      <trkpt lat="45.55249" lon="5.58023">
        <ele>371.8</ele>
        <time>2023-03-29T13:26:06Z</time>
      </trkpt>
      <trkpt lat="45.55248" lon="5.58034">
        <ele>371.8</ele>
        <time>2023-03-29T13:26:08Z</time>
      </trkpt>
      <trkpt lat="45.55247" lon="5.58043">
        <ele>371.9</ele>
        <time>2023-03-29T13:26:10Z</time>
      </trkpt>
      <trkpt lat="45.55246" lon="5.58049">
        <ele>372</ele>
        <time>2023-03-29T13:26:11Z</time>
      </trkpt>
      <trkpt lat="45.55249" lon="5.5806">
        <ele>371.9</ele>
        <time>2023-03-29T13:26:13Z</time>
      </trkpt>
      <trkpt lat="45.55256" lon="5.58068">
        <ele>371.8</ele>
        <time>2023-03-29T13:26:15Z</time>
      </trkpt>
      <trkpt lat="45.5526" lon="5.58075">
        <ele>371.6</ele>
        <time>2023-03-29T13:26:16Z</time>
      </trkpt>
      <trkpt lat="45.55264" lon="5.58083">
        <ele>370.9</ele>
        <time>2023-03-29T13:26:17Z</time>
      </trkpt>
      <trkpt lat="45.55261" lon="5.58092">
        <ele>370.6</ele>
        <time>2023-03-29T13:26:18Z</time>
      </trkpt>
      <trkpt lat="45.5526" lon="5.58104">
        <ele>370.2</ele>
        <time>2023-03-29T13:26:20Z</time>
      </trkpt>
      <trkpt lat="45.55258" lon="5.58112">
        <ele>369.7</ele>
        <time>2023-03-29T13:26:21Z</time>
      </trkpt>
      <trkpt lat="45.55258" lon="5.58118">
        <ele>369.5</ele>
        <time>2023-03-29T13:26:22Z</time>
      </trkpt>
      <trkpt lat="45.55256" lon="5.5813">
        <ele>369.2</ele>
        <time>2023-03-29T13:26:24Z</time>
      </trkpt>
      <trkpt lat="45.55257" lon="5.58143">
        <ele>368.8</ele>
        <time>2023-03-29T13:26:26Z</time>
      </trkpt>
      <trkpt lat="45.55257" lon="5.5815">
        <ele>368.5</ele>
        <time>2023-03-29T13:26:27Z</time>
      </trkpt>
      <trkpt lat="45.55257" lon="5.58157">
        <ele>368.3</ele>
        <time>2023-03-29T13:26:28Z</time>
      </trkpt>
      <trkpt lat="45.55258" lon="5.58163">
        <ele>368.2</ele>
        <time>2023-03-29T13:26:29Z</time>
      </trkpt>
      <trkpt lat="45.55257" lon="5.58176">
        <ele>368</ele>
        <time>2023-03-29T13:26:31Z</time>
      </trkpt>
      <trkpt lat="45.55257" lon="5.58183">
        <ele>367.8</ele>
        <time>2023-03-29T13:26:32Z</time>
      </trkpt>
      <trkpt lat="45.55256" lon="5.58191">
        <ele>367.7</ele>
        <time>2023-03-29T13:26:33Z</time>
      </trkpt>
      <trkpt lat="45.55256" lon="5.58197">
        <ele>367.5</ele>
        <time>2023-03-29T13:26:34Z</time>
      </trkpt>
      <trkpt lat="45.55256" lon="5.58204">
        <ele>367.4</ele>
        <time>2023-03-29T13:26:36Z</time>
      </trkpt>
      <trkpt lat="45.55262" lon="5.58206">
        <ele>367.2</ele>
        <time>2023-03-29T13:26:38Z</time>
      </trkpt>
      <trkpt lat="45.55267" lon="5.58205">
        <ele>367</ele>
        <time>2023-03-29T13:26:40Z</time>
      </trkpt>
      <trkpt lat="45.55272" lon="5.58205">
        <ele>367</ele>
        <time>2023-03-29T13:26:41Z</time>
      </trkpt>
      <trkpt lat="45.55279" lon="5.58205">
        <ele>367.1</ele>
        <time>2023-03-29T13:26:43Z</time>
      </trkpt>
      <trkpt lat="45.55287" lon="5.58206">
        <ele>367</ele>
        <time>2023-03-29T13:26:45Z</time>
      </trkpt>
      <trkpt lat="45.55296" lon="5.58206">
        <ele>367</ele>
        <time>2023-03-29T13:26:47Z</time>
      </trkpt>
      <trkpt lat="45.55301" lon="5.58206">
        <ele>367.3</ele>
        <time>2023-03-29T13:26:49Z</time>
      </trkpt>
      <trkpt lat="45.55309" lon="5.58207">
        <ele>367.3</ele>
        <time>2023-03-29T13:26:51Z</time>
      </trkpt>
      <trkpt lat="45.55315" lon="5.58209">
        <ele>367.3</ele>
        <time>2023-03-29T13:26:52Z</time>
      </trkpt>
      <trkpt lat="45.55321" lon="5.5821">
        <ele>367.3</ele>
        <time>2023-03-29T13:26:54Z</time>
      </trkpt>
      <trkpt lat="45.55329" lon="5.58212">
        <ele>367.3</ele>
        <time>2023-03-29T13:26:56Z</time>
      </trkpt>
      <trkpt lat="45.55336" lon="5.58213">
        <ele>366.9</ele>
        <time>2023-03-29T13:26:58Z</time>
      </trkpt>
      <trkpt lat="45.55345" lon="5.58214">
        <ele>366.8</ele>
        <time>2023-03-29T13:27:01Z</time>
      </trkpt>
      <trkpt lat="45.55351" lon="5.58215">
        <ele>366.7</ele>
        <time>2023-03-29T13:27:02Z</time>
      </trkpt>
      <trkpt lat="45.55356" lon="5.58216">
        <ele>366.6</ele>
        <time>2023-03-29T13:27:03Z</time>
      </trkpt>
      <trkpt lat="45.55363" lon="5.58218">
        <ele>366.2</ele>
        <time>2023-03-29T13:27:05Z</time>
      </trkpt>
      <trkpt lat="45.55368" lon="5.58218">
        <ele>366.1</ele>
        <time>2023-03-29T13:27:07Z</time>
      </trkpt>
      <trkpt lat="45.55373" lon="5.58219">
        <ele>366.1</ele>
        <time>2023-03-29T13:27:08Z</time>
      </trkpt>
      <trkpt lat="45.55378" lon="5.58219">
        <ele>366.2</ele>
        <time>2023-03-29T13:27:09Z</time>
      </trkpt>
      <trkpt lat="45.55383" lon="5.58219">
        <ele>366.2</ele>
        <time>2023-03-29T13:27:11Z</time>
      </trkpt>
      <trkpt lat="45.55391" lon="5.58221">
        <ele>366.2</ele>
        <time>2023-03-29T13:27:13Z</time>
      </trkpt>
      <trkpt lat="45.55399" lon="5.58222">
        <ele>366.1</ele>
        <time>2023-03-29T13:27:15Z</time>
      </trkpt>
      <trkpt lat="45.55407" lon="5.58222">
        <ele>366.2</ele>
        <time>2023-03-29T13:27:17Z</time>
      </trkpt>
      <trkpt lat="45.55414" lon="5.58223">
        <ele>366.5</ele>
        <time>2023-03-29T13:27:19Z</time>
      </trkpt>
      <trkpt lat="45.5542" lon="5.58224">
        <ele>366.6</ele>
        <time>2023-03-29T13:27:22Z</time>
      </trkpt>
      <trkpt lat="45.55425" lon="5.58225">
        <ele>366.7</ele>
        <time>2023-03-29T13:27:24Z</time>
      </trkpt>
      <trkpt lat="45.55432" lon="5.58225">
        <ele>367</ele>
        <time>2023-03-29T13:27:28Z</time>
      </trkpt>
      <trkpt lat="45.55438" lon="5.58226">
        <ele>367.2</ele>
        <time>2023-03-29T13:27:31Z</time>
      </trkpt>
      <trkpt lat="45.55442" lon="5.58226">
        <ele>367.6</ele>
        <time>2023-03-29T13:27:34Z</time>
      </trkpt>
      <trkpt lat="45.55448" lon="5.58227">
        <ele>368.2</ele>
        <time>2023-03-29T13:27:38Z</time>
      </trkpt>
      <trkpt lat="45.55453" lon="5.58229">
        <ele>368.6</ele>
        <time>2023-03-29T13:27:42Z</time>
      </trkpt>
      <trkpt lat="45.55459" lon="5.58231">
        <ele>369</ele>
        <time>2023-03-29T13:27:46Z</time>
      </trkpt>
      <trkpt lat="45.55464" lon="5.58231">
        <ele>369.5</ele>
        <time>2023-03-29T13:27:48Z</time>
      </trkpt>
      <trkpt lat="45.55468" lon="5.58231">
        <ele>369.5</ele>
        <time>2023-03-29T13:27:51Z</time>
      </trkpt>
      <trkpt lat="45.55473" lon="5.5823">
        <ele>370</ele>
        <time>2023-03-29T13:27:54Z</time>
      </trkpt>
      <trkpt lat="45.55477" lon="5.58229">
        <ele>370.6</ele>
        <time>2023-03-29T13:27:57Z</time>
      </trkpt>
      <trkpt lat="45.55482" lon="5.58232">
        <ele>370.9</ele>
        <time>2023-03-29T13:28:01Z</time>
      </trkpt>
      <trkpt lat="45.55486" lon="5.58235">
        <ele>371.2</ele>
        <time>2023-03-29T13:28:04Z</time>
      </trkpt>
      <trkpt lat="45.5549" lon="5.58237">
        <ele>371.5</ele>
        <time>2023-03-29T13:28:07Z</time>
      </trkpt>
      <trkpt lat="45.55494" lon="5.58233">
        <ele>371.7</ele>
        <time>2023-03-29T13:28:10Z</time>
      </trkpt>
      <trkpt lat="45.55499" lon="5.58231">
        <ele>371.7</ele>
        <time>2023-03-29T13:28:13Z</time>
      </trkpt>
      <trkpt lat="45.55506" lon="5.58231">
        <ele>371.7</ele>
        <time>2023-03-29T13:28:16Z</time>
      </trkpt>
      <trkpt lat="45.55513" lon="5.58231">
        <ele>371.7</ele>
        <time>2023-03-29T13:28:19Z</time>
      </trkpt>
      <trkpt lat="45.55519" lon="5.58231">
        <ele>371.7</ele>
        <time>2023-03-29T13:28:22Z</time>
      </trkpt>
      <trkpt lat="45.55524" lon="5.58232">
        <ele>371.6</ele>
        <time>2023-03-29T13:28:25Z</time>
      </trkpt>
      <trkpt lat="45.5553" lon="5.58234">
        <ele>371.6</ele>
        <time>2023-03-29T13:28:28Z</time>
      </trkpt>
      <trkpt lat="45.55534" lon="5.58236">
        <ele>371.5</ele>
        <time>2023-03-29T13:28:31Z</time>
      </trkpt>
      <trkpt lat="45.55539" lon="5.58238">
        <ele>371.4</ele>
        <time>2023-03-29T13:28:33Z</time>
      </trkpt>
      <trkpt lat="45.55545" lon="5.58239">
        <ele>371.3</ele>
        <time>2023-03-29T13:28:35Z</time>
      </trkpt>
      <trkpt lat="45.5555" lon="5.5824">
        <ele>371</ele>
        <time>2023-03-29T13:28:37Z</time>
      </trkpt>
      <trkpt lat="45.55555" lon="5.58242">
        <ele>370.9</ele>
        <time>2023-03-29T13:28:39Z</time>
      </trkpt>
      <trkpt lat="45.55562" lon="5.58245">
        <ele>370.9</ele>
        <time>2023-03-29T13:28:42Z</time>
      </trkpt>
      <trkpt lat="45.55568" lon="5.58246">
        <ele>370.8</ele>
        <time>2023-03-29T13:28:44Z</time>
      </trkpt>
      <trkpt lat="45.55573" lon="5.58243">
        <ele>370.9</ele>
        <time>2023-03-29T13:28:47Z</time>
      </trkpt>
      <trkpt lat="45.55578" lon="5.58241">
        <ele>370.9</ele>
        <time>2023-03-29T13:28:49Z</time>
      </trkpt>
      <trkpt lat="45.55584" lon="5.5824">
        <ele>370.9</ele>
        <time>2023-03-29T13:28:51Z</time>
      </trkpt>
      <trkpt lat="45.55588" lon="5.58242">
        <ele>370.7</ele>
        <time>2023-03-29T13:28:53Z</time>
      </trkpt>
      <trkpt lat="45.55594" lon="5.58244">
        <ele>370.3</ele>
        <time>2023-03-29T13:28:56Z</time>
      </trkpt>
      <trkpt lat="45.556" lon="5.58243">
        <ele>370</ele>
        <time>2023-03-29T13:28:58Z</time>
      </trkpt>
      <trkpt lat="45.55607" lon="5.58244">
        <ele>369.1</ele>
        <time>2023-03-29T13:29:00Z</time>
      </trkpt>
      <trkpt lat="45.55616" lon="5.58245">
        <ele>368.3</ele>
        <time>2023-03-29T13:29:02Z</time>
      </trkpt>
      <trkpt lat="45.55621" lon="5.58246">
        <ele>367.9</ele>
        <time>2023-03-29T13:29:03Z</time>
      </trkpt>
      <trkpt lat="45.55626" lon="5.58246">
        <ele>367.5</ele>
        <time>2023-03-29T13:29:04Z</time>
      </trkpt>
      <trkpt lat="45.55631" lon="5.58245">
        <ele>367.2</ele>
        <time>2023-03-29T13:29:05Z</time>
      </trkpt>
      <trkpt lat="45.55635" lon="5.58241">
        <ele>367</ele>
        <time>2023-03-29T13:29:06Z</time>
      </trkpt>
      <trkpt lat="45.55638" lon="5.58236">
        <ele>366.8</ele>
        <time>2023-03-29T13:29:07Z</time>
      </trkpt>
      <trkpt lat="45.55641" lon="5.58231">
        <ele>366.6</ele>
        <time>2023-03-29T13:29:08Z</time>
      </trkpt>
      <trkpt lat="45.55644" lon="5.58226">
        <ele>366.7</ele>
        <time>2023-03-29T13:29:09Z</time>
      </trkpt>
      <trkpt lat="45.55654" lon="5.58216">
        <ele>365.9</ele>
        <time>2023-03-29T13:29:12Z</time>
      </trkpt>
      <trkpt lat="45.55657" lon="5.58212">
        <ele>365.6</ele>
        <time>2023-03-29T13:29:13Z</time>
      </trkpt>
      <trkpt lat="45.55663" lon="5.58204">
        <ele>365.5</ele>
        <time>2023-03-29T13:29:15Z</time>
      </trkpt>
      <trkpt lat="45.55668" lon="5.58196">
        <ele>365.2</ele>
        <time>2023-03-29T13:29:17Z</time>
      </trkpt>
      <trkpt lat="45.55673" lon="5.58189">
        <ele>365.2</ele>
        <time>2023-03-29T13:29:19Z</time>
      </trkpt>
      <trkpt lat="45.55679" lon="5.58191">
        <ele>364.5</ele>
        <time>2023-03-29T13:29:21Z</time>
      </trkpt>
      <trkpt lat="45.55684" lon="5.58191">
        <ele>364</ele>
        <time>2023-03-29T13:29:23Z</time>
      </trkpt>
      <trkpt lat="45.55689" lon="5.58192">
        <ele>363.3</ele>
        <time>2023-03-29T13:29:25Z</time>
      </trkpt>
      <trkpt lat="45.55695" lon="5.58188">
        <ele>363</ele>
        <time>2023-03-29T13:29:29Z</time>
      </trkpt>
      <trkpt lat="45.55697" lon="5.58181">
        <ele>362.9</ele>
        <time>2023-03-29T13:29:31Z</time>
      </trkpt>
      <trkpt lat="45.55698" lon="5.58175">
        <ele>363.3</ele>
        <time>2023-03-29T13:29:33Z</time>
      </trkpt>
      <trkpt lat="45.557" lon="5.58168">
        <ele>362.9</ele>
        <time>2023-03-29T13:29:35Z</time>
      </trkpt>
      <trkpt lat="45.55705" lon="5.58168">
        <ele>362.4</ele>
        <time>2023-03-29T13:29:40Z</time>
      </trkpt>
      <trkpt lat="45.5571" lon="5.58175">
        <ele>361.6</ele>
        <time>2023-03-29T13:29:43Z</time>
      </trkpt>
      <trkpt lat="45.55716" lon="5.5818">
        <ele>360.9</ele>
        <time>2023-03-29T13:29:45Z</time>
      </trkpt>
      <trkpt lat="45.5572" lon="5.58184">
        <ele>360.2</ele>
        <time>2023-03-29T13:29:46Z</time>
      </trkpt>
      <trkpt lat="45.55726" lon="5.58192">
        <ele>358.9</ele>
        <time>2023-03-29T13:29:48Z</time>
      </trkpt>
      <trkpt lat="45.55729" lon="5.58197">
        <ele>358.7</ele>
        <time>2023-03-29T13:29:49Z</time>
      </trkpt>
      <trkpt lat="45.55731" lon="5.58204">
        <ele>358.1</ele>
        <time>2023-03-29T13:29:50Z</time>
      </trkpt>
      <trkpt lat="45.55733" lon="5.58213">
        <ele>357.7</ele>
        <time>2023-03-29T13:29:52Z</time>
      </trkpt>
      <trkpt lat="45.55735" lon="5.5822">
        <ele>356.8</ele>
        <time>2023-03-29T13:29:53Z</time>
      </trkpt>
      <trkpt lat="45.55738" lon="5.58233">
        <ele>356.1</ele>
        <time>2023-03-29T13:29:54Z</time>
      </trkpt>
      <trkpt lat="45.55741" lon="5.58244">
        <ele>355</ele>
        <time>2023-03-29T13:29:55Z</time>
      </trkpt>
      <trkpt lat="45.55747" lon="5.58259">
        <ele>354</ele>
        <time>2023-03-29T13:29:57Z</time>
      </trkpt>
      <trkpt lat="45.55754" lon="5.58273">
        <ele>352.7</ele>
        <time>2023-03-29T13:29:58Z</time>
      </trkpt>
      <trkpt lat="45.5576" lon="5.58284">
        <ele>351.8</ele>
        <time>2023-03-29T13:29:59Z</time>
      </trkpt>
      <trkpt lat="45.55765" lon="5.58291">
        <ele>351.2</ele>
        <time>2023-03-29T13:30:00Z</time>
      </trkpt>
      <trkpt lat="45.55774" lon="5.58295">
        <ele>350.4</ele>
        <time>2023-03-29T13:30:01Z</time>
      </trkpt>
      <trkpt lat="45.55784" lon="5.58299">
        <ele>349.6</ele>
        <time>2023-03-29T13:30:03Z</time>
      </trkpt>
      <trkpt lat="45.55789" lon="5.58305">
        <ele>349.1</ele>
        <time>2023-03-29T13:30:04Z</time>
      </trkpt>
      <trkpt lat="45.55798" lon="5.58324">
        <ele>347.2</ele>
        <time>2023-03-29T13:30:05Z</time>
      </trkpt>
      <trkpt lat="45.55803" lon="5.58344">
        <ele>344.7</ele>
        <time>2023-03-29T13:30:06Z</time>
      </trkpt>
      <trkpt lat="45.55806" lon="5.58357">
        <ele>343.4</ele>
        <time>2023-03-29T13:30:07Z</time>
      </trkpt>
      <trkpt lat="45.55809" lon="5.58367">
        <ele>342.3</ele>
        <time>2023-03-29T13:30:08Z</time>
      </trkpt>
      <trkpt lat="45.5581" lon="5.58377">
        <ele>340.7</ele>
        <time>2023-03-29T13:30:09Z</time>
      </trkpt>
      <trkpt lat="45.55808" lon="5.58387">
        <ele>339.5</ele>
        <time>2023-03-29T13:30:10Z</time>
      </trkpt>
      <trkpt lat="45.55806" lon="5.58396">
        <ele>338.4</ele>
        <time>2023-03-29T13:30:11Z</time>
      </trkpt>
      <trkpt lat="45.55803" lon="5.58405">
        <ele>337.2</ele>
        <time>2023-03-29T13:30:12Z</time>
      </trkpt>
      <trkpt lat="45.558" lon="5.58415">
        <ele>335.5</ele>
        <time>2023-03-29T13:30:13Z</time>
      </trkpt>
      <trkpt lat="45.55796" lon="5.58424">
        <ele>334.6</ele>
        <time>2023-03-29T13:30:14Z</time>
      </trkpt>
      <trkpt lat="45.55793" lon="5.58433">
        <ele>333.7</ele>
        <time>2023-03-29T13:30:15Z</time>
      </trkpt>
      <trkpt lat="45.55789" lon="5.5844">
        <ele>333.5</ele>
        <time>2023-03-29T13:30:16Z</time>
      </trkpt>
      <trkpt lat="45.55787" lon="5.58446">
        <ele>332.4</ele>
        <time>2023-03-29T13:30:17Z</time>
      </trkpt>
      <trkpt lat="45.55783" lon="5.58456">
        <ele>331.8</ele>
        <time>2023-03-29T13:30:19Z</time>
      </trkpt>
      <trkpt lat="45.55788" lon="5.58458">
        <ele>331</ele>
        <time>2023-03-29T13:30:23Z</time>
      </trkpt>
      <trkpt lat="45.55795" lon="5.58454">
        <ele>330.6</ele>
        <time>2023-03-29T13:30:25Z</time>
      </trkpt>
      <trkpt lat="45.55799" lon="5.58453">
        <ele>330.7</ele>
        <time>2023-03-29T13:30:26Z</time>
      </trkpt>
      <trkpt lat="45.55804" lon="5.58451">
        <ele>330.2</ele>
        <time>2023-03-29T13:30:27Z</time>
      </trkpt>
      <trkpt lat="45.55809" lon="5.58449">
        <ele>329.8</ele>
        <time>2023-03-29T13:30:28Z</time>
      </trkpt>
      <trkpt lat="45.55814" lon="5.58447">
        <ele>329.9</ele>
        <time>2023-03-29T13:30:29Z</time>
      </trkpt>
      <trkpt lat="45.55819" lon="5.58444">
        <ele>330.1</ele>
        <time>2023-03-29T13:30:30Z</time>
      </trkpt>
      <trkpt lat="45.55829" lon="5.58441">
        <ele>328.6</ele>
        <time>2023-03-29T13:30:32Z</time>
      </trkpt>
      <trkpt lat="45.55834" lon="5.58442">
        <ele>328</ele>
        <time>2023-03-29T13:30:33Z</time>
      </trkpt>
      <trkpt lat="45.5584" lon="5.58443">
        <ele>327.5</ele>
        <time>2023-03-29T13:30:34Z</time>
      </trkpt>
      <trkpt lat="45.55845" lon="5.58444">
        <ele>326.9</ele>
        <time>2023-03-29T13:30:35Z</time>
      </trkpt>
      <trkpt lat="45.55853" lon="5.58445">
        <ele>325</ele>
        <time>2023-03-29T13:30:37Z</time>
      </trkpt>
      <trkpt lat="45.55859" lon="5.58445">
        <ele>323.8</ele>
        <time>2023-03-29T13:30:38Z</time>
      </trkpt>
      <trkpt lat="45.55864" lon="5.58445">
        <ele>323.2</ele>
        <time>2023-03-29T13:30:39Z</time>
      </trkpt>
      <trkpt lat="45.55871" lon="5.58444">
        <ele>323.3</ele>
        <time>2023-03-29T13:30:40Z</time>
      </trkpt>
      <trkpt lat="45.55877" lon="5.58444">
        <ele>322.3</ele>
        <time>2023-03-29T13:30:41Z</time>
      </trkpt>
      <trkpt lat="45.55884" lon="5.58443">
        <ele>321.9</ele>
        <time>2023-03-29T13:30:42Z</time>
      </trkpt>
      <trkpt lat="45.55891" lon="5.58441">
        <ele>321.2</ele>
        <time>2023-03-29T13:30:43Z</time>
      </trkpt>
      <trkpt lat="45.55898" lon="5.58441">
        <ele>320.7</ele>
        <time>2023-03-29T13:30:44Z</time>
      </trkpt>
      <trkpt lat="45.55906" lon="5.5844">
        <ele>320.6</ele>
        <time>2023-03-29T13:30:45Z</time>
      </trkpt>
      <trkpt lat="45.55913" lon="5.58439">
        <ele>320.3</ele>
        <time>2023-03-29T13:30:46Z</time>
      </trkpt>
      <trkpt lat="45.5592" lon="5.58437">
        <ele>319.8</ele>
        <time>2023-03-29T13:30:47Z</time>
      </trkpt>
      <trkpt lat="45.55927" lon="5.58435">
        <ele>319.8</ele>
        <time>2023-03-29T13:30:48Z</time>
      </trkpt>
      <trkpt lat="45.55935" lon="5.58432">
        <ele>319.6</ele>
        <time>2023-03-29T13:30:49Z</time>
      </trkpt>
      <trkpt lat="45.55943" lon="5.58425">
        <ele>319.4</ele>
        <time>2023-03-29T13:30:50Z</time>
      </trkpt>
      <trkpt lat="45.55951" lon="5.58419">
        <ele>319.1</ele>
        <time>2023-03-29T13:30:51Z</time>
      </trkpt>
      <trkpt lat="45.55957" lon="5.58412">
        <ele>319.3</ele>
        <time>2023-03-29T13:30:52Z</time>
      </trkpt>
      <trkpt lat="45.55963" lon="5.58405">
        <ele>319.2</ele>
        <time>2023-03-29T13:30:53Z</time>
      </trkpt>
      <trkpt lat="45.55969" lon="5.58397">
        <ele>319.4</ele>
        <time>2023-03-29T13:30:54Z</time>
      </trkpt>
      <trkpt lat="45.55975" lon="5.5839">
        <ele>319.3</ele>
        <time>2023-03-29T13:30:55Z</time>
      </trkpt>
      <trkpt lat="45.5598" lon="5.58382">
        <ele>319</ele>
        <time>2023-03-29T13:30:56Z</time>
      </trkpt>
      <trkpt lat="45.55985" lon="5.58374">
        <ele>319.1</ele>
        <time>2023-03-29T13:30:57Z</time>
      </trkpt>
      <trkpt lat="45.55989" lon="5.58366">
        <ele>319.1</ele>
        <time>2023-03-29T13:30:58Z</time>
      </trkpt>
      <trkpt lat="45.55994" lon="5.58358">
        <ele>319</ele>
        <time>2023-03-29T13:30:59Z</time>
      </trkpt>
      <trkpt lat="45.55999" lon="5.5835">
        <ele>318.8</ele>
        <time>2023-03-29T13:31:00Z</time>
      </trkpt>
      <trkpt lat="45.56003" lon="5.58342">
        <ele>318.4</ele>
        <time>2023-03-29T13:31:01Z</time>
      </trkpt>
      <trkpt lat="45.56008" lon="5.58334">
        <ele>318.1</ele>
        <time>2023-03-29T13:31:02Z</time>
      </trkpt>
      <trkpt lat="45.56012" lon="5.58327">
        <ele>317.9</ele>
        <time>2023-03-29T13:31:03Z</time>
      </trkpt>
      <trkpt lat="45.56018" lon="5.58321">
        <ele>316.7</ele>
        <time>2023-03-29T13:31:04Z</time>
      </trkpt>
      <trkpt lat="45.56023" lon="5.58315">
        <ele>316.3</ele>
        <time>2023-03-29T13:31:05Z</time>
      </trkpt>
      <trkpt lat="45.5603" lon="5.5831">
        <ele>315.7</ele>
        <time>2023-03-29T13:31:06Z</time>
      </trkpt>
      <trkpt lat="45.56037" lon="5.58306">
        <ele>314.5</ele>
        <time>2023-03-29T13:31:07Z</time>
      </trkpt>
      <trkpt lat="45.56044" lon="5.58305">
        <ele>313.2</ele>
        <time>2023-03-29T13:31:08Z</time>
      </trkpt>
      <trkpt lat="45.56051" lon="5.58306">
        <ele>312.6</ele>
        <time>2023-03-29T13:31:09Z</time>
      </trkpt>
      <trkpt lat="45.56057" lon="5.58308">
        <ele>311.7</ele>
        <time>2023-03-29T13:31:10Z</time>
      </trkpt>
      <trkpt lat="45.56062" lon="5.58311">
        <ele>311.2</ele>
        <time>2023-03-29T13:31:11Z</time>
      </trkpt>
      <trkpt lat="45.56068" lon="5.58316">
        <ele>310.9</ele>
        <time>2023-03-29T13:31:12Z</time>
      </trkpt>
      <trkpt lat="45.56075" lon="5.5832">
        <ele>310.5</ele>
        <time>2023-03-29T13:31:13Z</time>
      </trkpt>
      <trkpt lat="45.56081" lon="5.58325">
        <ele>310.3</ele>
        <time>2023-03-29T13:31:14Z</time>
      </trkpt>
      <trkpt lat="45.56087" lon="5.5833">
        <ele>309.1</ele>
        <time>2023-03-29T13:31:15Z</time>
      </trkpt>
      <trkpt lat="45.56094" lon="5.58334">
        <ele>308.5</ele>
        <time>2023-03-29T13:31:16Z</time>
      </trkpt>
      <trkpt lat="45.561" lon="5.58338">
        <ele>306.6</ele>
        <time>2023-03-29T13:31:17Z</time>
      </trkpt>
      <trkpt lat="45.56105" lon="5.58342">
        <ele>305.8</ele>
        <time>2023-03-29T13:31:18Z</time>
      </trkpt>
      <trkpt lat="45.56111" lon="5.58344">
        <ele>304.8</ele>
        <time>2023-03-29T13:31:20Z</time>
      </trkpt>
      <trkpt lat="45.56111" lon="5.58352">
        <ele>305.2</ele>
        <time>2023-03-29T13:31:54Z</time>
      </trkpt>
      <trkpt lat="45.56112" lon="5.58359">
        <ele>304.8</ele>
        <time>2023-03-29T13:31:59Z</time>
      </trkpt>
      <trkpt lat="45.56114" lon="5.58366">
        <ele>305.3</ele>
        <time>2023-03-29T13:32:43Z</time>
      </trkpt>
      <trkpt lat="45.56119" lon="5.58368">
        <ele>305</ele>
        <time>2023-03-29T13:32:45Z</time>
      </trkpt>
      <trkpt lat="45.56125" lon="5.58367">
        <ele>303.1</ele>
        <time>2023-03-29T13:32:47Z</time>
      </trkpt>
      <trkpt lat="45.56131" lon="5.58366">
        <ele>302.7</ele>
        <time>2023-03-29T13:32:49Z</time>
      </trkpt>
      <trkpt lat="45.56136" lon="5.58366">
        <ele>302.4</ele>
        <time>2023-03-29T13:32:50Z</time>
      </trkpt>
      <trkpt lat="45.56146" lon="5.58367">
        <ele>302.1</ele>
        <time>2023-03-29T13:32:52Z</time>
      </trkpt>
      <trkpt lat="45.56152" lon="5.58369">
        <ele>301.6</ele>
        <time>2023-03-29T13:32:53Z</time>
      </trkpt>
      <trkpt lat="45.56159" lon="5.5837">
        <ele>301.3</ele>
        <time>2023-03-29T13:32:54Z</time>
      </trkpt>
      <trkpt lat="45.56165" lon="5.58372">
        <ele>301</ele>
        <time>2023-03-29T13:32:55Z</time>
      </trkpt>
      <trkpt lat="45.56172" lon="5.58373">
        <ele>300.4</ele>
        <time>2023-03-29T13:32:56Z</time>
      </trkpt>
      <trkpt lat="45.56179" lon="5.58374">
        <ele>300.2</ele>
        <time>2023-03-29T13:32:57Z</time>
      </trkpt>
      <trkpt lat="45.56185" lon="5.58376">
        <ele>299.9</ele>
        <time>2023-03-29T13:32:58Z</time>
      </trkpt>
      <trkpt lat="45.56192" lon="5.58377">
        <ele>299.8</ele>
        <time>2023-03-29T13:32:59Z</time>
      </trkpt>
      <trkpt lat="45.56198" lon="5.58378">
        <ele>299.5</ele>
        <time>2023-03-29T13:33:00Z</time>
      </trkpt>
      <trkpt lat="45.56205" lon="5.58379">
        <ele>299.4</ele>
        <time>2023-03-29T13:33:01Z</time>
      </trkpt>
      <trkpt lat="45.56212" lon="5.5838">
        <ele>299.1</ele>
        <time>2023-03-29T13:33:02Z</time>
      </trkpt>
      <trkpt lat="45.56219" lon="5.58381">
        <ele>299</ele>
        <time>2023-03-29T13:33:03Z</time>
      </trkpt>
      <trkpt lat="45.56226" lon="5.58383">
        <ele>298.8</ele>
        <time>2023-03-29T13:33:04Z</time>
      </trkpt>
      <trkpt lat="45.56233" lon="5.58386">
        <ele>298.6</ele>
        <time>2023-03-29T13:33:05Z</time>
      </trkpt>
      <trkpt lat="45.5624" lon="5.5839">
        <ele>298.3</ele>
        <time>2023-03-29T13:33:06Z</time>
      </trkpt>
      <trkpt lat="45.56246" lon="5.58392">
        <ele>298.2</ele>
        <time>2023-03-29T13:33:07Z</time>
      </trkpt>
      <trkpt lat="45.56252" lon="5.58395">
        <ele>298</ele>
        <time>2023-03-29T13:33:08Z</time>
      </trkpt>
      <trkpt lat="45.56258" lon="5.58398">
        <ele>297.9</ele>
        <time>2023-03-29T13:33:09Z</time>
      </trkpt>
      <trkpt lat="45.56264" lon="5.584">
        <ele>297.8</ele>
        <time>2023-03-29T13:33:10Z</time>
      </trkpt>
      <trkpt lat="45.5627" lon="5.58402">
        <ele>297.7</ele>
        <time>2023-03-29T13:33:11Z</time>
      </trkpt>
      <trkpt lat="45.56276" lon="5.58403">
        <ele>297.7</ele>
        <time>2023-03-29T13:33:12Z</time>
      </trkpt>
      <trkpt lat="45.56282" lon="5.58404">
        <ele>297.6</ele>
        <time>2023-03-29T13:33:13Z</time>
      </trkpt>
      <trkpt lat="45.56288" lon="5.58405">
        <ele>297.4</ele>
        <time>2023-03-29T13:33:14Z</time>
      </trkpt>
      <trkpt lat="45.56294" lon="5.58407">
        <ele>297.2</ele>
        <time>2023-03-29T13:33:15Z</time>
      </trkpt>
      <trkpt lat="45.56299" lon="5.5841">
        <ele>297</ele>
        <time>2023-03-29T13:33:16Z</time>
      </trkpt>
      <trkpt lat="45.56305" lon="5.58414">
        <ele>296.7</ele>
        <time>2023-03-29T13:33:17Z</time>
      </trkpt>
      <trkpt lat="45.56311" lon="5.58419">
        <ele>296.5</ele>
        <time>2023-03-29T13:33:18Z</time>
      </trkpt>
      <trkpt lat="45.56316" lon="5.58426">
        <ele>296.4</ele>
        <time>2023-03-29T13:33:19Z</time>
      </trkpt>
      <trkpt lat="45.56321" lon="5.58433">
        <ele>296</ele>
        <time>2023-03-29T13:33:20Z</time>
      </trkpt>
      <trkpt lat="45.56326" lon="5.5844">
        <ele>295.8</ele>
        <time>2023-03-29T13:33:21Z</time>
      </trkpt>
      <trkpt lat="45.56331" lon="5.58447">
        <ele>295.6</ele>
        <time>2023-03-29T13:33:22Z</time>
      </trkpt>
      <trkpt lat="45.56336" lon="5.58453">
        <ele>295.4</ele>
        <time>2023-03-29T13:33:23Z</time>
      </trkpt>
      <trkpt lat="45.56341" lon="5.5846">
        <ele>294.9</ele>
        <time>2023-03-29T13:33:24Z</time>
      </trkpt>
      <trkpt lat="45.56345" lon="5.58466">
        <ele>294.4</ele>
        <time>2023-03-29T13:33:25Z</time>
      </trkpt>
      <trkpt lat="45.56349" lon="5.58473">
        <ele>294.3</ele>
        <time>2023-03-29T13:33:26Z</time>
      </trkpt>
      <trkpt lat="45.56354" lon="5.58479">
        <ele>294</ele>
        <time>2023-03-29T13:33:27Z</time>
      </trkpt>
      <trkpt lat="45.56358" lon="5.58486">
        <ele>294</ele>
        <time>2023-03-29T13:33:28Z</time>
      </trkpt>
      <trkpt lat="45.56362" lon="5.58492">
        <ele>293.8</ele>
        <time>2023-03-29T13:33:29Z</time>
      </trkpt>
      <trkpt lat="45.56365" lon="5.58498">
        <ele>293.6</ele>
        <time>2023-03-29T13:33:30Z</time>
      </trkpt>
      <trkpt lat="45.56368" lon="5.58506">
        <ele>293.4</ele>
        <time>2023-03-29T13:33:31Z</time>
      </trkpt>
      <trkpt lat="45.5637" lon="5.58513">
        <ele>293.3</ele>
        <time>2023-03-29T13:33:32Z</time>
      </trkpt>
      <trkpt lat="45.56372" lon="5.5852">
        <ele>293.1</ele>
        <time>2023-03-29T13:33:33Z</time>
      </trkpt>
      <trkpt lat="45.56374" lon="5.58527">
        <ele>292.8</ele>
        <time>2023-03-29T13:33:34Z</time>
      </trkpt>
      <trkpt lat="45.56376" lon="5.58534">
        <ele>292.9</ele>
        <time>2023-03-29T13:33:35Z</time>
      </trkpt>
      <trkpt lat="45.56378" lon="5.58541">
        <ele>292.6</ele>
        <time>2023-03-29T13:33:36Z</time>
      </trkpt>
      <trkpt lat="45.5638" lon="5.58548">
        <ele>292.1</ele>
        <time>2023-03-29T13:33:37Z</time>
      </trkpt>
      <trkpt lat="45.56384" lon="5.58557">
        <ele>291.8</ele>
        <time>2023-03-29T13:33:39Z</time>
      </trkpt>
      <trkpt lat="45.56388" lon="5.58562">
        <ele>291.5</ele>
        <time>2023-03-29T13:33:41Z</time>
      </trkpt>
      <trkpt lat="45.56393" lon="5.58558">
        <ele>291.4</ele>
        <time>2023-03-29T13:33:43Z</time>
      </trkpt>
      <trkpt lat="45.56398" lon="5.58548">
        <ele>291.5</ele>
        <time>2023-03-29T13:33:45Z</time>
      </trkpt>
      <trkpt lat="45.56401" lon="5.58542">
        <ele>291.5</ele>
        <time>2023-03-29T13:33:46Z</time>
      </trkpt>
      <trkpt lat="45.56404" lon="5.58537">
        <ele>291.4</ele>
        <time>2023-03-29T13:33:47Z</time>
      </trkpt>
      <trkpt lat="45.5641" lon="5.58527">
        <ele>291.4</ele>
        <time>2023-03-29T13:33:49Z</time>
      </trkpt>
      <trkpt lat="45.56413" lon="5.58521">
        <ele>291.4</ele>
        <time>2023-03-29T13:33:50Z</time>
      </trkpt>
      <trkpt lat="45.56417" lon="5.58515">
        <ele>291.6</ele>
        <time>2023-03-29T13:33:51Z</time>
      </trkpt>
      <trkpt lat="45.56419" lon="5.58509">
        <ele>291.5</ele>
        <time>2023-03-29T13:33:52Z</time>
      </trkpt>
      <trkpt lat="45.56422" lon="5.58503">
        <ele>291.5</ele>
        <time>2023-03-29T13:33:53Z</time>
      </trkpt>
      <trkpt lat="45.56425" lon="5.58497">
        <ele>291.6</ele>
        <time>2023-03-29T13:33:54Z</time>
      </trkpt>
      <trkpt lat="45.56427" lon="5.58492">
        <ele>291.5</ele>
        <time>2023-03-29T13:33:55Z</time>
      </trkpt>
      <trkpt lat="45.5643" lon="5.58486">
        <ele>291.4</ele>
        <time>2023-03-29T13:33:56Z</time>
      </trkpt>
      <trkpt lat="45.56433" lon="5.5848">
        <ele>291.5</ele>
        <time>2023-03-29T13:33:57Z</time>
      </trkpt>
      <trkpt lat="45.56436" lon="5.58474">
        <ele>291.5</ele>
        <time>2023-03-29T13:33:58Z</time>
      </trkpt>
      <trkpt lat="45.56439" lon="5.58469">
        <ele>291.3</ele>
        <time>2023-03-29T13:33:59Z</time>
      </trkpt>
      <trkpt lat="45.56442" lon="5.58464">
        <ele>291.5</ele>
        <time>2023-03-29T13:34:00Z</time>
      </trkpt>
      <trkpt lat="45.56445" lon="5.58458">
        <ele>291.3</ele>
        <time>2023-03-29T13:34:01Z</time>
      </trkpt>
      <trkpt lat="45.56447" lon="5.58453">
        <ele>291.2</ele>
        <time>2023-03-29T13:34:02Z</time>
      </trkpt>
      <trkpt lat="45.5645" lon="5.58447">
        <ele>291.2</ele>
        <time>2023-03-29T13:34:03Z</time>
      </trkpt>
      <trkpt lat="45.56453" lon="5.58441">
        <ele>290.9</ele>
        <time>2023-03-29T13:34:04Z</time>
      </trkpt>
      <trkpt lat="45.56456" lon="5.58434">
        <ele>290.8</ele>
        <time>2023-03-29T13:34:05Z</time>
      </trkpt>
      <trkpt lat="45.56459" lon="5.58428">
        <ele>290.9</ele>
        <time>2023-03-29T13:34:06Z</time>
      </trkpt>
      <trkpt lat="45.56462" lon="5.58422">
        <ele>290.7</ele>
        <time>2023-03-29T13:34:07Z</time>
      </trkpt>
      <trkpt lat="45.56465" lon="5.58415">
        <ele>290.6</ele>
        <time>2023-03-29T13:34:08Z</time>
      </trkpt>
      <trkpt lat="45.56467" lon="5.58408">
        <ele>290.7</ele>
        <time>2023-03-29T13:34:09Z</time>
      </trkpt>
      <trkpt lat="45.56469" lon="5.58401">
        <ele>290.6</ele>
        <time>2023-03-29T13:34:10Z</time>
      </trkpt>
      <trkpt lat="45.56472" lon="5.58395">
        <ele>290.6</ele>
        <time>2023-03-29T13:34:11Z</time>
      </trkpt>
      <trkpt lat="45.56475" lon="5.58388">
        <ele>290.5</ele>
        <time>2023-03-29T13:34:12Z</time>
      </trkpt>
      <trkpt lat="45.56478" lon="5.5838">
        <ele>290.1</ele>
        <time>2023-03-29T13:34:13Z</time>
      </trkpt>
      <trkpt lat="45.56481" lon="5.58373">
        <ele>289.7</ele>
        <time>2023-03-29T13:34:14Z</time>
      </trkpt>
      <trkpt lat="45.56484" lon="5.58366">
        <ele>289.4</ele>
        <time>2023-03-29T13:34:15Z</time>
      </trkpt>
      <trkpt lat="45.56486" lon="5.58359">
        <ele>289.1</ele>
        <time>2023-03-29T13:34:16Z</time>
      </trkpt>
      <trkpt lat="45.56489" lon="5.58352">
        <ele>289.3</ele>
        <time>2023-03-29T13:34:17Z</time>
      </trkpt>
      <trkpt lat="45.56492" lon="5.58345">
        <ele>289.1</ele>
        <time>2023-03-29T13:34:18Z</time>
      </trkpt>
      <trkpt lat="45.56496" lon="5.58338">
        <ele>288.8</ele>
        <time>2023-03-29T13:34:19Z</time>
      </trkpt>
      <trkpt lat="45.56502" lon="5.58332">
        <ele>288.9</ele>
        <time>2023-03-29T13:34:20Z</time>
      </trkpt>
      <trkpt lat="45.56508" lon="5.58326">
        <ele>288.5</ele>
        <time>2023-03-29T13:34:21Z</time>
      </trkpt>
      <trkpt lat="45.56513" lon="5.58321">
        <ele>288.5</ele>
        <time>2023-03-29T13:34:22Z</time>
      </trkpt>
      <trkpt lat="45.56519" lon="5.58315">
        <ele>288.6</ele>
        <time>2023-03-29T13:34:23Z</time>
      </trkpt>
      <trkpt lat="45.56524" lon="5.58309">
        <ele>288.1</ele>
        <time>2023-03-29T13:34:24Z</time>
      </trkpt>
      <trkpt lat="45.56529" lon="5.58301">
        <ele>287.9</ele>
        <time>2023-03-29T13:34:25Z</time>
      </trkpt>
      <trkpt lat="45.56533" lon="5.58295">
        <ele>287.6</ele>
        <time>2023-03-29T13:34:26Z</time>
      </trkpt>
      <trkpt lat="45.56537" lon="5.58291">
        <ele>287.4</ele>
        <time>2023-03-29T13:34:27Z</time>
      </trkpt>
      <trkpt lat="45.56541" lon="5.58286">
        <ele>287.3</ele>
        <time>2023-03-29T13:34:28Z</time>
      </trkpt>
      <trkpt lat="45.56545" lon="5.58281">
        <ele>287.8</ele>
        <time>2023-03-29T13:34:29Z</time>
      </trkpt>
      <trkpt lat="45.56552" lon="5.58273">
        <ele>287</ele>
        <time>2023-03-29T13:34:31Z</time>
      </trkpt>
      <trkpt lat="45.56556" lon="5.58269">
        <ele>286.8</ele>
        <time>2023-03-29T13:34:32Z</time>
      </trkpt>
      <trkpt lat="45.5656" lon="5.58264">
        <ele>286.9</ele>
        <time>2023-03-29T13:34:33Z</time>
      </trkpt>
      <trkpt lat="45.56564" lon="5.58259">
        <ele>286.8</ele>
        <time>2023-03-29T13:34:34Z</time>
      </trkpt>
      <trkpt lat="45.56569" lon="5.58254">
        <ele>286.6</ele>
        <time>2023-03-29T13:34:35Z</time>
      </trkpt>
      <trkpt lat="45.56574" lon="5.5825">
        <ele>286.5</ele>
        <time>2023-03-29T13:34:36Z</time>
      </trkpt>
      <trkpt lat="45.56579" lon="5.58244">
        <ele>286.3</ele>
        <time>2023-03-29T13:34:37Z</time>
      </trkpt>
      <trkpt lat="45.56584" lon="5.58238">
        <ele>286.1</ele>
        <time>2023-03-29T13:34:38Z</time>
      </trkpt>
      <trkpt lat="45.56588" lon="5.58232">
        <ele>286</ele>
        <time>2023-03-29T13:34:39Z</time>
      </trkpt>
      <trkpt lat="45.56593" lon="5.58225">
        <ele>285.9</ele>
        <time>2023-03-29T13:34:40Z</time>
      </trkpt>
      <trkpt lat="45.56597" lon="5.58218">
        <ele>285.8</ele>
        <time>2023-03-29T13:34:41Z</time>
      </trkpt>
      <trkpt lat="45.56601" lon="5.58211">
        <ele>285.7</ele>
        <time>2023-03-29T13:34:42Z</time>
      </trkpt>
      <trkpt lat="45.56605" lon="5.58204">
        <ele>285.4</ele>
        <time>2023-03-29T13:34:43Z</time>
      </trkpt>
      <trkpt lat="45.56609" lon="5.58198">
        <ele>285.3</ele>
        <time>2023-03-29T13:34:44Z</time>
      </trkpt>
      <trkpt lat="45.56613" lon="5.58191">
        <ele>285.1</ele>
        <time>2023-03-29T13:34:45Z</time>
      </trkpt>
      <trkpt lat="45.56618" lon="5.58185">
        <ele>284.9</ele>
        <time>2023-03-29T13:34:46Z</time>
      </trkpt>
      <trkpt lat="45.56622" lon="5.58178">
        <ele>284.7</ele>
        <time>2023-03-29T13:34:47Z</time>
      </trkpt>
      <trkpt lat="45.56626" lon="5.58171">
        <ele>284.6</ele>
        <time>2023-03-29T13:34:48Z</time>
      </trkpt>
      <trkpt lat="45.5663" lon="5.58164">
        <ele>284.4</ele>
        <time>2023-03-29T13:34:49Z</time>
      </trkpt>
      <trkpt lat="45.56634" lon="5.58157">
        <ele>284.2</ele>
        <time>2023-03-29T13:34:50Z</time>
      </trkpt>
      <trkpt lat="45.56638" lon="5.58149">
        <ele>283.9</ele>
        <time>2023-03-29T13:34:51Z</time>
      </trkpt>
      <trkpt lat="45.56642" lon="5.58142">
        <ele>283.7</ele>
        <time>2023-03-29T13:34:52Z</time>
      </trkpt>
      <trkpt lat="45.56646" lon="5.58135">
        <ele>283.5</ele>
        <time>2023-03-29T13:34:53Z</time>
      </trkpt>
      <trkpt lat="45.5665" lon="5.58127">
        <ele>283.4</ele>
        <time>2023-03-29T13:34:54Z</time>
      </trkpt>
      <trkpt lat="45.56654" lon="5.5812">
        <ele>283.2</ele>
        <time>2023-03-29T13:34:55Z</time>
      </trkpt>
      <trkpt lat="45.56658" lon="5.58112">
        <ele>283</ele>
        <time>2023-03-29T13:34:56Z</time>
      </trkpt>
      <trkpt lat="45.56663" lon="5.58105">
        <ele>282.9</ele>
        <time>2023-03-29T13:34:57Z</time>
      </trkpt>
      <trkpt lat="45.56668" lon="5.58098">
        <ele>282.8</ele>
        <time>2023-03-29T13:34:58Z</time>
      </trkpt>
      <trkpt lat="45.56672" lon="5.58091">
        <ele>282.7</ele>
        <time>2023-03-29T13:34:59Z</time>
      </trkpt>
      <trkpt lat="45.56677" lon="5.58085">
        <ele>282.7</ele>
        <time>2023-03-29T13:35:00Z</time>
      </trkpt>
      <trkpt lat="45.56683" lon="5.5808">
        <ele>282.5</ele>
        <time>2023-03-29T13:35:01Z</time>
      </trkpt>
      <trkpt lat="45.56689" lon="5.58076">
        <ele>282.3</ele>
        <time>2023-03-29T13:35:02Z</time>
      </trkpt>
      <trkpt lat="45.56695" lon="5.58074">
        <ele>282.1</ele>
        <time>2023-03-29T13:35:03Z</time>
      </trkpt>
      <trkpt lat="45.56702" lon="5.58074">
        <ele>281.8</ele>
        <time>2023-03-29T13:35:04Z</time>
      </trkpt>
      <trkpt lat="45.56709" lon="5.58075">
        <ele>281.3</ele>
        <time>2023-03-29T13:35:05Z</time>
      </trkpt>
      <trkpt lat="45.56717" lon="5.58077">
        <ele>281.1</ele>
        <time>2023-03-29T13:35:06Z</time>
      </trkpt>
      <trkpt lat="45.56724" lon="5.58081">
        <ele>281</ele>
        <time>2023-03-29T13:35:07Z</time>
      </trkpt>
      <trkpt lat="45.56731" lon="5.58084">
        <ele>280.6</ele>
        <time>2023-03-29T13:35:08Z</time>
      </trkpt>
      <trkpt lat="45.56738" lon="5.58088">
        <ele>280.4</ele>
        <time>2023-03-29T13:35:09Z</time>
      </trkpt>
      <trkpt lat="45.56746" lon="5.58091">
        <ele>280.3</ele>
        <time>2023-03-29T13:35:10Z</time>
      </trkpt>
      <trkpt lat="45.56753" lon="5.58094">
        <ele>280.2</ele>
        <time>2023-03-29T13:35:11Z</time>
      </trkpt>
      <trkpt lat="45.5676" lon="5.58097">
        <ele>279.9</ele>
        <time>2023-03-29T13:35:12Z</time>
      </trkpt>
      <trkpt lat="45.56768" lon="5.581">
        <ele>279.8</ele>
        <time>2023-03-29T13:35:13Z</time>
      </trkpt>
      <trkpt lat="45.56775" lon="5.58102">
        <ele>279.7</ele>
        <time>2023-03-29T13:35:14Z</time>
      </trkpt>
      <trkpt lat="45.56782" lon="5.58104">
        <ele>279.5</ele>
        <time>2023-03-29T13:35:15Z</time>
      </trkpt>
      <trkpt lat="45.56789" lon="5.58107">
        <ele>279.1</ele>
        <time>2023-03-29T13:35:16Z</time>
      </trkpt>
      <trkpt lat="45.56796" lon="5.5811">
        <ele>278.5</ele>
        <time>2023-03-29T13:35:17Z</time>
      </trkpt>
      <trkpt lat="45.56804" lon="5.58113">
        <ele>278.4</ele>
        <time>2023-03-29T13:35:18Z</time>
      </trkpt>
      <trkpt lat="45.56812" lon="5.58116">
        <ele>278.4</ele>
        <time>2023-03-29T13:35:19Z</time>
      </trkpt>
      <trkpt lat="45.56819" lon="5.58118">
        <ele>278.2</ele>
        <time>2023-03-29T13:35:20Z</time>
      </trkpt>
      <trkpt lat="45.56827" lon="5.58121">
        <ele>278</ele>
        <time>2023-03-29T13:35:21Z</time>
      </trkpt>
      <trkpt lat="45.56834" lon="5.58124">
        <ele>277.8</ele>
        <time>2023-03-29T13:35:22Z</time>
      </trkpt>
      <trkpt lat="45.56841" lon="5.58126">
        <ele>277.8</ele>
        <time>2023-03-29T13:35:23Z</time>
      </trkpt>
      <trkpt lat="45.56848" lon="5.5813">
        <ele>277.4</ele>
        <time>2023-03-29T13:35:24Z</time>
      </trkpt>
      <trkpt lat="45.56856" lon="5.58133">
        <ele>276.7</ele>
        <time>2023-03-29T13:35:25Z</time>
      </trkpt>
      <trkpt lat="45.56862" lon="5.58136">
        <ele>276.3</ele>
        <time>2023-03-29T13:35:26Z</time>
      </trkpt>
      <trkpt lat="45.56869" lon="5.58139">
        <ele>275.4</ele>
        <time>2023-03-29T13:35:27Z</time>
      </trkpt>
      <trkpt lat="45.56876" lon="5.58142">
        <ele>274.8</ele>
        <time>2023-03-29T13:35:28Z</time>
      </trkpt>
      <trkpt lat="45.56883" lon="5.58146">
        <ele>274.1</ele>
        <time>2023-03-29T13:35:29Z</time>
      </trkpt>
      <trkpt lat="45.56889" lon="5.58149">
        <ele>273.8</ele>
        <time>2023-03-29T13:35:30Z</time>
      </trkpt>
      <trkpt lat="45.56896" lon="5.58152">
        <ele>273.9</ele>
        <time>2023-03-29T13:35:31Z</time>
      </trkpt>
      <trkpt lat="45.56903" lon="5.58155">
        <ele>273.9</ele>
        <time>2023-03-29T13:35:32Z</time>
      </trkpt>
      <trkpt lat="45.56909" lon="5.58156">
        <ele>273.8</ele>
        <time>2023-03-29T13:35:33Z</time>
      </trkpt>
      <trkpt lat="45.56915" lon="5.58158">
        <ele>273.8</ele>
        <time>2023-03-29T13:35:34Z</time>
      </trkpt>
      <trkpt lat="45.56921" lon="5.5816">
        <ele>273.8</ele>
        <time>2023-03-29T13:35:35Z</time>
      </trkpt>
      <trkpt lat="45.56926" lon="5.58161">
        <ele>273.9</ele>
        <time>2023-03-29T13:35:36Z</time>
      </trkpt>
      <trkpt lat="45.56931" lon="5.58163">
        <ele>273.9</ele>
        <time>2023-03-29T13:35:37Z</time>
      </trkpt>
      <trkpt lat="45.56941" lon="5.58166">
        <ele>273.8</ele>
        <time>2023-03-29T13:35:39Z</time>
      </trkpt>
      <trkpt lat="45.56945" lon="5.5817">
        <ele>273.7</ele>
        <time>2023-03-29T13:35:40Z</time>
      </trkpt>
      <trkpt lat="45.5695" lon="5.58175">
        <ele>273.8</ele>
        <time>2023-03-29T13:35:41Z</time>
      </trkpt>
      <trkpt lat="45.56953" lon="5.58181">
        <ele>274.4</ele>
        <time>2023-03-29T13:35:42Z</time>
      </trkpt>
      <trkpt lat="45.56957" lon="5.58189">
        <ele>273.8</ele>
        <time>2023-03-29T13:35:43Z</time>
      </trkpt>
      <trkpt lat="45.5696" lon="5.58197">
        <ele>274.2</ele>
        <time>2023-03-29T13:35:44Z</time>
      </trkpt>
      <trkpt lat="45.56962" lon="5.58205">
        <ele>275.1</ele>
        <time>2023-03-29T13:35:45Z</time>
      </trkpt>
      <trkpt lat="45.56964" lon="5.58213">
        <ele>274.3</ele>
        <time>2023-03-29T13:35:46Z</time>
      </trkpt>
      <trkpt lat="45.56965" lon="5.5822">
        <ele>274.3</ele>
        <time>2023-03-29T13:35:47Z</time>
      </trkpt>
      <trkpt lat="45.56966" lon="5.58226">
        <ele>275.1</ele>
        <time>2023-03-29T13:35:48Z</time>
      </trkpt>
      <trkpt lat="45.56968" lon="5.58235">
        <ele>275.5</ele>
        <time>2023-03-29T13:35:50Z</time>
      </trkpt>
      <trkpt lat="45.5697" lon="5.58242">
        <ele>275.8</ele>
        <time>2023-03-29T13:35:52Z</time>
      </trkpt>
      <trkpt lat="45.56972" lon="5.58251">
        <ele>276.9</ele>
        <time>2023-03-29T13:35:55Z</time>
      </trkpt>
      <trkpt lat="45.56973" lon="5.58259">
        <ele>277.6</ele>
        <time>2023-03-29T13:35:58Z</time>
      </trkpt>
      <trkpt lat="45.56975" lon="5.58267">
        <ele>278.7</ele>
        <time>2023-03-29T13:36:01Z</time>
      </trkpt>
      <trkpt lat="45.56976" lon="5.58273">
        <ele>279.2</ele>
        <time>2023-03-29T13:36:03Z</time>
      </trkpt>
      <trkpt lat="45.56977" lon="5.58281">
        <ele>279.5</ele>
        <time>2023-03-29T13:36:07Z</time>
      </trkpt>
      <trkpt lat="45.56978" lon="5.5829">
        <ele>280.4</ele>
        <time>2023-03-29T13:36:10Z</time>
      </trkpt>
      <trkpt lat="45.56979" lon="5.58297">
        <ele>280</ele>
        <time>2023-03-29T13:36:13Z</time>
      </trkpt>
      <trkpt lat="45.5698" lon="5.58307">
        <ele>280.6</ele>
        <time>2023-03-29T13:36:17Z</time>
      </trkpt>
      <trkpt lat="45.56981" lon="5.58315">
        <ele>281.2</ele>
        <time>2023-03-29T13:36:19Z</time>
      </trkpt>
      <trkpt lat="45.56981" lon="5.58323">
        <ele>281.7</ele>
        <time>2023-03-29T13:36:21Z</time>
      </trkpt>
      <trkpt lat="45.56981" lon="5.58334">
        <ele>281.9</ele>
        <time>2023-03-29T13:36:24Z</time>
      </trkpt>
      <trkpt lat="45.56981" lon="5.58343">
        <ele>281.7</ele>
        <time>2023-03-29T13:36:26Z</time>
      </trkpt>
      <trkpt lat="45.56981" lon="5.5835">
        <ele>281.6</ele>
        <time>2023-03-29T13:36:29Z</time>
      </trkpt>
      <trkpt lat="45.56982" lon="5.5836">
        <ele>281.3</ele>
        <time>2023-03-29T13:36:31Z</time>
      </trkpt>
      <trkpt lat="45.56982" lon="5.58374">
        <ele>280.8</ele>
        <time>2023-03-29T13:36:34Z</time>
      </trkpt>
      <trkpt lat="45.56981" lon="5.58385">
        <ele>279.5</ele>
        <time>2023-03-29T13:36:36Z</time>
      </trkpt>
      <trkpt lat="45.56981" lon="5.58392">
        <ele>279</ele>
        <time>2023-03-29T13:36:38Z</time>
      </trkpt>
      <trkpt lat="45.56979" lon="5.58402">
        <ele>277.6</ele>
        <time>2023-03-29T13:36:42Z</time>
      </trkpt>
      <trkpt lat="45.56975" lon="5.5841">
        <ele>278.6</ele>
        <time>2023-03-29T13:36:44Z</time>
      </trkpt>
      <trkpt lat="45.56974" lon="5.58418">
        <ele>279.5</ele>
        <time>2023-03-29T13:36:46Z</time>
      </trkpt>
      <trkpt lat="45.56972" lon="5.58426">
        <ele>279</ele>
        <time>2023-03-29T13:36:48Z</time>
      </trkpt>
      <trkpt lat="45.56972" lon="5.58435">
        <ele>278.6</ele>
        <time>2023-03-29T13:36:50Z</time>
      </trkpt>
      <trkpt lat="45.56972" lon="5.58447">
        <ele>277.9</ele>
        <time>2023-03-29T13:36:53Z</time>
      </trkpt>
      <trkpt lat="45.56972" lon="5.58458">
        <ele>277.1</ele>
        <time>2023-03-29T13:36:54Z</time>
      </trkpt>
      <trkpt lat="45.56972" lon="5.58466">
        <ele>276.5</ele>
        <time>2023-03-29T13:36:55Z</time>
      </trkpt>
      <trkpt lat="45.56972" lon="5.58474">
        <ele>276.2</ele>
        <time>2023-03-29T13:36:56Z</time>
      </trkpt>
      <trkpt lat="45.56972" lon="5.58483">
        <ele>275.6</ele>
        <time>2023-03-29T13:36:57Z</time>
      </trkpt>
      <trkpt lat="45.56972" lon="5.58492">
        <ele>274.5</ele>
        <time>2023-03-29T13:36:58Z</time>
      </trkpt>
      <trkpt lat="45.56972" lon="5.58501">
        <ele>273.8</ele>
        <time>2023-03-29T13:36:59Z</time>
      </trkpt>
      <trkpt lat="45.56972" lon="5.58511">
        <ele>273</ele>
        <time>2023-03-29T13:37:00Z</time>
      </trkpt>
      <trkpt lat="45.56971" lon="5.5852">
        <ele>272.3</ele>
        <time>2023-03-29T13:37:01Z</time>
      </trkpt>
      <trkpt lat="45.56971" lon="5.58529">
        <ele>271.6</ele>
        <time>2023-03-29T13:37:02Z</time>
      </trkpt>
      <trkpt lat="45.5697" lon="5.58539">
        <ele>272.9</ele>
        <time>2023-03-29T13:37:03Z</time>
      </trkpt>
      <trkpt lat="45.56969" lon="5.5855">
        <ele>272.6</ele>
        <time>2023-03-29T13:37:04Z</time>
      </trkpt>
      <trkpt lat="45.56968" lon="5.58559">
        <ele>272.5</ele>
        <time>2023-03-29T13:37:05Z</time>
      </trkpt>
      <trkpt lat="45.56968" lon="5.58567">
        <ele>272.7</ele>
        <time>2023-03-29T13:37:06Z</time>
      </trkpt>
      <trkpt lat="45.56968" lon="5.58575">
        <ele>272.7</ele>
        <time>2023-03-29T13:37:07Z</time>
      </trkpt>
      <trkpt lat="45.56968" lon="5.58582">
        <ele>272.8</ele>
        <time>2023-03-29T13:37:08Z</time>
      </trkpt>
      <trkpt lat="45.56968" lon="5.58589">
        <ele>272.9</ele>
        <time>2023-03-29T13:37:09Z</time>
      </trkpt>
      <trkpt lat="45.56967" lon="5.586">
        <ele>273.3</ele>
        <time>2023-03-29T13:37:11Z</time>
      </trkpt>
      <trkpt lat="45.56964" lon="5.58607">
        <ele>274.2</ele>
        <time>2023-03-29T13:37:14Z</time>
      </trkpt>
      <trkpt lat="45.5696" lon="5.58616">
        <ele>275.4</ele>
        <time>2023-03-29T13:37:19Z</time>
      </trkpt>
      <trkpt lat="45.56958" lon="5.58621">
        <ele>275.6</ele>
        <time>2023-03-29T13:37:21Z</time>
      </trkpt>
      <trkpt lat="45.56956" lon="5.58627">
        <ele>276.5</ele>
        <time>2023-03-29T13:37:23Z</time>
      </trkpt>
      <trkpt lat="45.56954" lon="5.58635">
        <ele>276.2</ele>
        <time>2023-03-29T13:37:26Z</time>
      </trkpt>
      <trkpt lat="45.56952" lon="5.58646">
        <ele>276.7</ele>
        <time>2023-03-29T13:37:30Z</time>
      </trkpt>
      <trkpt lat="45.56951" lon="5.58653">
        <ele>276.4</ele>
        <time>2023-03-29T13:37:32Z</time>
      </trkpt>
      <trkpt lat="45.56949" lon="5.58658">
        <ele>276.2</ele>
        <time>2023-03-29T13:37:34Z</time>
      </trkpt>
      <trkpt lat="45.56946" lon="5.58667">
        <ele>276.9</ele>
        <time>2023-03-29T13:37:37Z</time>
      </trkpt>
      <trkpt lat="45.56944" lon="5.58674">
        <ele>277.7</ele>
        <time>2023-03-29T13:37:39Z</time>
      </trkpt>
      <trkpt lat="45.56942" lon="5.58682">
        <ele>277.4</ele>
        <time>2023-03-29T13:37:42Z</time>
      </trkpt>
      <trkpt lat="45.56941" lon="5.5869">
        <ele>277.1</ele>
        <time>2023-03-29T13:37:44Z</time>
      </trkpt>
      <trkpt lat="45.56938" lon="5.58697">
        <ele>278.5</ele>
        <time>2023-03-29T13:37:46Z</time>
      </trkpt>
      <trkpt lat="45.56935" lon="5.58704">
        <ele>279.9</ele>
        <time>2023-03-29T13:37:48Z</time>
      </trkpt>
      <trkpt lat="45.56932" lon="5.58711">
        <ele>279.9</ele>
        <time>2023-03-29T13:37:50Z</time>
      </trkpt>
      <trkpt lat="45.56931" lon="5.58719">
        <ele>281.5</ele>
        <time>2023-03-29T13:37:53Z</time>
      </trkpt>
      <trkpt lat="45.56931" lon="5.58727">
        <ele>281.7</ele>
        <time>2023-03-29T13:37:56Z</time>
      </trkpt>
      <trkpt lat="45.56931" lon="5.58734">
        <ele>281.8</ele>
        <time>2023-03-29T13:37:59Z</time>
      </trkpt>
      <trkpt lat="45.56929" lon="5.58741">
        <ele>282.1</ele>
        <time>2023-03-29T13:38:02Z</time>
      </trkpt>
      <trkpt lat="45.56929" lon="5.58749">
        <ele>282.2</ele>
        <time>2023-03-29T13:38:10Z</time>
      </trkpt>
      <trkpt lat="45.5693" lon="5.58755">
        <ele>282.5</ele>
        <time>2023-03-29T13:38:14Z</time>
      </trkpt>
      <trkpt lat="45.56931" lon="5.58763">
        <ele>282.7</ele>
        <time>2023-03-29T13:38:17Z</time>
      </trkpt>
      <trkpt lat="45.56934" lon="5.5877">
        <ele>281.4</ele>
        <time>2023-03-29T13:38:21Z</time>
      </trkpt>
      <trkpt lat="45.56937" lon="5.58777">
        <ele>280.2</ele>
        <time>2023-03-29T13:38:24Z</time>
      </trkpt>
      <trkpt lat="45.5694" lon="5.58781">
        <ele>280.4</ele>
        <time>2023-03-29T13:38:29Z</time>
      </trkpt>
      <trkpt lat="45.56943" lon="5.58787">
        <ele>279</ele>
        <time>2023-03-29T13:38:32Z</time>
      </trkpt>
      <trkpt lat="45.56939" lon="5.58795">
        <ele>281</ele>
        <time>2023-03-29T13:38:34Z</time>
      </trkpt>
      <trkpt lat="45.56939" lon="5.58803">
        <ele>281.4</ele>
        <time>2023-03-29T13:38:36Z</time>
      </trkpt>
      <trkpt lat="45.56937" lon="5.58811">
        <ele>281.9</ele>
        <time>2023-03-29T13:38:39Z</time>
      </trkpt>
      <trkpt lat="45.56937" lon="5.58818">
        <ele>282.4</ele>
        <time>2023-03-29T13:38:41Z</time>
      </trkpt>
      <trkpt lat="45.56936" lon="5.58827">
        <ele>284.4</ele>
        <time>2023-03-29T13:38:43Z</time>
      </trkpt>
      <trkpt lat="45.56934" lon="5.58833">
        <ele>284.6</ele>
        <time>2023-03-29T13:38:45Z</time>
      </trkpt>
      <trkpt lat="45.56934" lon="5.58841">
        <ele>285.1</ele>
        <time>2023-03-29T13:38:47Z</time>
      </trkpt>
      <trkpt lat="45.56934" lon="5.58848">
        <ele>285.9</ele>
        <time>2023-03-29T13:38:50Z</time>
      </trkpt>
      <trkpt lat="45.56934" lon="5.58854">
        <ele>286.4</ele>
        <time>2023-03-29T13:38:52Z</time>
      </trkpt>
      <trkpt lat="45.56933" lon="5.58862">
        <ele>287.4</ele>
        <time>2023-03-29T13:38:57Z</time>
      </trkpt>
      <trkpt lat="45.56934" lon="5.5887">
        <ele>288.4</ele>
        <time>2023-03-29T13:39:01Z</time>
      </trkpt>
      <trkpt lat="45.56935" lon="5.58876">
        <ele>288.9</ele>
        <time>2023-03-29T13:39:05Z</time>
      </trkpt>
      <trkpt lat="45.56935" lon="5.58887">
        <ele>290.2</ele>
        <time>2023-03-29T13:39:12Z</time>
      </trkpt>
      <trkpt lat="45.56934" lon="5.58894">
        <ele>290.7</ele>
        <time>2023-03-29T13:39:17Z</time>
      </trkpt>
      <trkpt lat="45.56934" lon="5.58902">
        <ele>291.5</ele>
        <time>2023-03-29T13:39:20Z</time>
      </trkpt>
      <trkpt lat="45.56934" lon="5.58909">
        <ele>292.3</ele>
        <time>2023-03-29T13:39:23Z</time>
      </trkpt>
      <trkpt lat="45.56931" lon="5.58914">
        <ele>293.3</ele>
        <time>2023-03-29T13:39:25Z</time>
      </trkpt>
      <trkpt lat="45.56929" lon="5.5892">
        <ele>293.6</ele>
        <time>2023-03-29T13:39:28Z</time>
      </trkpt>
      <trkpt lat="45.56926" lon="5.58928">
        <ele>294.4</ele>
        <time>2023-03-29T13:39:31Z</time>
      </trkpt>
      <trkpt lat="45.56924" lon="5.58933">
        <ele>294.5</ele>
        <time>2023-03-29T13:39:34Z</time>
      </trkpt>
      <trkpt lat="45.56919" lon="5.5894">
        <ele>295</ele>
        <time>2023-03-29T13:39:37Z</time>
      </trkpt>
      <trkpt lat="45.56913" lon="5.58945">
        <ele>295.6</ele>
        <time>2023-03-29T13:39:40Z</time>
      </trkpt>
      <trkpt lat="45.56907" lon="5.58948">
        <ele>295.9</ele>
        <time>2023-03-29T13:39:42Z</time>
      </trkpt>
      <trkpt lat="45.56903" lon="5.58952">
        <ele>296.2</ele>
        <time>2023-03-29T13:39:45Z</time>
      </trkpt>
      <trkpt lat="45.56899" lon="5.58956">
        <ele>296.3</ele>
        <time>2023-03-29T13:39:48Z</time>
      </trkpt>
      <trkpt lat="45.56895" lon="5.5896">
        <ele>296.6</ele>
        <time>2023-03-29T13:39:51Z</time>
      </trkpt>
      <trkpt lat="45.56891" lon="5.58964">
        <ele>296.7</ele>
        <time>2023-03-29T13:39:53Z</time>
      </trkpt>
      <trkpt lat="45.56886" lon="5.58967">
        <ele>296.9</ele>
        <time>2023-03-29T13:39:56Z</time>
      </trkpt>
      <trkpt lat="45.56881" lon="5.58971">
        <ele>297.2</ele>
        <time>2023-03-29T13:39:58Z</time>
      </trkpt>
      <trkpt lat="45.56878" lon="5.58975">
        <ele>297.4</ele>
        <time>2023-03-29T13:40:00Z</time>
      </trkpt>
      <trkpt lat="45.56874" lon="5.58979">
        <ele>297.7</ele>
        <time>2023-03-29T13:40:02Z</time>
      </trkpt>
      <trkpt lat="45.56868" lon="5.58982">
        <ele>297.9</ele>
        <time>2023-03-29T13:40:05Z</time>
      </trkpt>
      <trkpt lat="45.56864" lon="5.58986">
        <ele>298.3</ele>
        <time>2023-03-29T13:40:07Z</time>
      </trkpt>
      <trkpt lat="45.56859" lon="5.58992">
        <ele>298.3</ele>
        <time>2023-03-29T13:40:10Z</time>
      </trkpt>
      <trkpt lat="45.56855" lon="5.58996">
        <ele>298.5</ele>
        <time>2023-03-29T13:40:12Z</time>
      </trkpt>
      <trkpt lat="45.56849" lon="5.59">
        <ele>299.1</ele>
        <time>2023-03-29T13:40:15Z</time>
      </trkpt>
      <trkpt lat="45.56845" lon="5.59005">
        <ele>299.3</ele>
        <time>2023-03-29T13:40:17Z</time>
      </trkpt>
      <trkpt lat="45.56841" lon="5.59009">
        <ele>299.5</ele>
        <time>2023-03-29T13:40:19Z</time>
      </trkpt>
      <trkpt lat="45.56835" lon="5.59016">
        <ele>299.6</ele>
        <time>2023-03-29T13:40:22Z</time>
      </trkpt>
      <trkpt lat="45.5683" lon="5.59023">
        <ele>299.8</ele>
        <time>2023-03-29T13:40:25Z</time>
      </trkpt>
      <trkpt lat="45.56826" lon="5.59028">
        <ele>300.1</ele>
        <time>2023-03-29T13:40:27Z</time>
      </trkpt>
      <trkpt lat="45.56822" lon="5.59032">
        <ele>300.5</ele>
        <time>2023-03-29T13:40:29Z</time>
      </trkpt>
      <trkpt lat="45.56817" lon="5.59038">
        <ele>300.4</ele>
        <time>2023-03-29T13:40:31Z</time>
      </trkpt>
      <trkpt lat="45.56812" lon="5.59045">
        <ele>300.7</ele>
        <time>2023-03-29T13:40:34Z</time>
      </trkpt>
      <trkpt lat="45.56808" lon="5.5905">
        <ele>300.5</ele>
        <time>2023-03-29T13:40:36Z</time>
      </trkpt>
      <trkpt lat="45.56805" lon="5.59054">
        <ele>300.7</ele>
        <time>2023-03-29T13:40:39Z</time>
      </trkpt>
      <trkpt lat="45.56801" lon="5.59061">
        <ele>300.9</ele>
        <time>2023-03-29T13:40:41Z</time>
      </trkpt>
      <trkpt lat="45.568" lon="5.59069">
        <ele>300</ele>
        <time>2023-03-29T13:40:43Z</time>
      </trkpt>
      <trkpt lat="45.56798" lon="5.59075">
        <ele>300.4</ele>
        <time>2023-03-29T13:40:45Z</time>
      </trkpt>
      <trkpt lat="45.56792" lon="5.59081">
        <ele>300.4</ele>
        <time>2023-03-29T13:40:49Z</time>
      </trkpt>
      <trkpt lat="45.56785" lon="5.59084">
        <ele>301.2</ele>
        <time>2023-03-29T13:40:53Z</time>
      </trkpt>
      <trkpt lat="45.56781" lon="5.59091">
        <ele>301.3</ele>
        <time>2023-03-29T13:40:56Z</time>
      </trkpt>
      <trkpt lat="45.56777" lon="5.59096">
        <ele>301.6</ele>
        <time>2023-03-29T13:40:58Z</time>
      </trkpt>
      <trkpt lat="45.56773" lon="5.59102">
        <ele>300.6</ele>
        <time>2023-03-29T13:41:01Z</time>
      </trkpt>
      <trkpt lat="45.56771" lon="5.59109">
        <ele>300.9</ele>
        <time>2023-03-29T13:41:03Z</time>
      </trkpt>
      <trkpt lat="45.56768" lon="5.59116">
        <ele>300.7</ele>
        <time>2023-03-29T13:41:05Z</time>
      </trkpt>
      <trkpt lat="45.56763" lon="5.59122">
        <ele>300.9</ele>
        <time>2023-03-29T13:41:07Z</time>
      </trkpt>
      <trkpt lat="45.56758" lon="5.59127">
        <ele>300.9</ele>
        <time>2023-03-29T13:41:09Z</time>
      </trkpt>
      <trkpt lat="45.56751" lon="5.59134">
        <ele>302.1</ele>
        <time>2023-03-29T13:41:12Z</time>
      </trkpt>
      <trkpt lat="45.56746" lon="5.59139">
        <ele>302.3</ele>
        <time>2023-03-29T13:41:14Z</time>
      </trkpt>
      <trkpt lat="45.56739" lon="5.59146">
        <ele>302</ele>
        <time>2023-03-29T13:41:17Z</time>
      </trkpt>
      <trkpt lat="45.56733" lon="5.59151">
        <ele>302.5</ele>
        <time>2023-03-29T13:41:19Z</time>
      </trkpt>
      <trkpt lat="45.56728" lon="5.59157">
        <ele>302.2</ele>
        <time>2023-03-29T13:41:21Z</time>
      </trkpt>
      <trkpt lat="45.56721" lon="5.59164">
        <ele>302.7</ele>
        <time>2023-03-29T13:41:23Z</time>
      </trkpt>
      <trkpt lat="45.56715" lon="5.59168">
        <ele>302.8</ele>
        <time>2023-03-29T13:41:25Z</time>
      </trkpt>
      <trkpt lat="45.56711" lon="5.59171">
        <ele>302.9</ele>
        <time>2023-03-29T13:41:26Z</time>
      </trkpt>
      <trkpt lat="45.56704" lon="5.59179">
        <ele>303.3</ele>
        <time>2023-03-29T13:41:29Z</time>
      </trkpt>
      <trkpt lat="45.56698" lon="5.59185">
        <ele>303.5</ele>
        <time>2023-03-29T13:41:31Z</time>
      </trkpt>
      <trkpt lat="45.56691" lon="5.59191">
        <ele>304</ele>
        <time>2023-03-29T13:41:33Z</time>
      </trkpt>
      <trkpt lat="45.56685" lon="5.59198">
        <ele>303.9</ele>
        <time>2023-03-29T13:41:35Z</time>
      </trkpt>
      <trkpt lat="45.56679" lon="5.59204">
        <ele>303.9</ele>
        <time>2023-03-29T13:41:37Z</time>
      </trkpt>
      <trkpt lat="45.56675" lon="5.59207">
        <ele>303.8</ele>
        <time>2023-03-29T13:41:38Z</time>
      </trkpt>
      <trkpt lat="45.56671" lon="5.5921">
        <ele>303.9</ele>
        <time>2023-03-29T13:41:40Z</time>
      </trkpt>
      <trkpt lat="45.56664" lon="5.59217">
        <ele>303.9</ele>
        <time>2023-03-29T13:41:42Z</time>
      </trkpt>
      <trkpt lat="45.56658" lon="5.59221">
        <ele>304.2</ele>
        <time>2023-03-29T13:41:44Z</time>
      </trkpt>
      <trkpt lat="45.56652" lon="5.59226">
        <ele>304</ele>
        <time>2023-03-29T13:41:46Z</time>
      </trkpt>
      <trkpt lat="45.56646" lon="5.5923">
        <ele>303.9</ele>
        <time>2023-03-29T13:41:48Z</time>
      </trkpt>
      <trkpt lat="45.56641" lon="5.59233">
        <ele>304.2</ele>
        <time>2023-03-29T13:41:50Z</time>
      </trkpt>
      <trkpt lat="45.56634" lon="5.59237">
        <ele>304.4</ele>
        <time>2023-03-29T13:41:52Z</time>
      </trkpt>
      <trkpt lat="45.56626" lon="5.59241">
        <ele>304.6</ele>
        <time>2023-03-29T13:41:55Z</time>
      </trkpt>
      <trkpt lat="45.5662" lon="5.59244">
        <ele>304.6</ele>
        <time>2023-03-29T13:41:57Z</time>
      </trkpt>
      <trkpt lat="45.56613" lon="5.59246">
        <ele>305.4</ele>
        <time>2023-03-29T13:41:59Z</time>
      </trkpt>
      <trkpt lat="45.56609" lon="5.59248">
        <ele>305.3</ele>
        <time>2023-03-29T13:42:01Z</time>
      </trkpt>
      <trkpt lat="45.56602" lon="5.59252">
        <ele>305.1</ele>
        <time>2023-03-29T13:42:03Z</time>
      </trkpt>
      <trkpt lat="45.56596" lon="5.59257">
        <ele>305.1</ele>
        <time>2023-03-29T13:42:05Z</time>
      </trkpt>
      <trkpt lat="45.56591" lon="5.59264">
        <ele>304.9</ele>
        <time>2023-03-29T13:42:07Z</time>
      </trkpt>
      <trkpt lat="45.56587" lon="5.59272">
        <ele>304.1</ele>
        <time>2023-03-29T13:42:09Z</time>
      </trkpt>
      <trkpt lat="45.56587" lon="5.59283">
        <ele>303.3</ele>
        <time>2023-03-29T13:42:11Z</time>
      </trkpt>
      <trkpt lat="45.56589" lon="5.59292">
        <ele>302.7</ele>
        <time>2023-03-29T13:42:13Z</time>
      </trkpt>
      <trkpt lat="45.56592" lon="5.59297">
        <ele>302.5</ele>
        <time>2023-03-29T13:42:14Z</time>
      </trkpt>
      <trkpt lat="45.56598" lon="5.59304">
        <ele>301.8</ele>
        <time>2023-03-29T13:42:15Z</time>
      </trkpt>
      <trkpt lat="45.56603" lon="5.5931">
        <ele>301.6</ele>
        <time>2023-03-29T13:42:16Z</time>
      </trkpt>
      <trkpt lat="45.56608" lon="5.59316">
        <ele>301.2</ele>
        <time>2023-03-29T13:42:17Z</time>
      </trkpt>
      <trkpt lat="45.56613" lon="5.59323">
        <ele>300.9</ele>
        <time>2023-03-29T13:42:18Z</time>
      </trkpt>
      <trkpt lat="45.56618" lon="5.5933">
        <ele>300.2</ele>
        <time>2023-03-29T13:42:19Z</time>
      </trkpt>
      <trkpt lat="45.56624" lon="5.59338">
        <ele>299.3</ele>
        <time>2023-03-29T13:42:20Z</time>
      </trkpt>
      <trkpt lat="45.56631" lon="5.59347">
        <ele>298.5</ele>
        <time>2023-03-29T13:42:21Z</time>
      </trkpt>
      <trkpt lat="45.56638" lon="5.59357">
        <ele>297.6</ele>
        <time>2023-03-29T13:42:22Z</time>
      </trkpt>
      <trkpt lat="45.56645" lon="5.59366">
        <ele>296.8</ele>
        <time>2023-03-29T13:42:23Z</time>
      </trkpt>
      <trkpt lat="45.56651" lon="5.59376">
        <ele>295.5</ele>
        <time>2023-03-29T13:42:24Z</time>
      </trkpt>
      <trkpt lat="45.56658" lon="5.59385">
        <ele>294.6</ele>
        <time>2023-03-29T13:42:25Z</time>
      </trkpt>
      <trkpt lat="45.56666" lon="5.59392">
        <ele>294.1</ele>
        <time>2023-03-29T13:42:26Z</time>
      </trkpt>
      <trkpt lat="45.56674" lon="5.594">
        <ele>293.4</ele>
        <time>2023-03-29T13:42:27Z</time>
      </trkpt>
      <trkpt lat="45.56682" lon="5.59408">
        <ele>292.4</ele>
        <time>2023-03-29T13:42:28Z</time>
      </trkpt>
      <trkpt lat="45.5669" lon="5.59416">
        <ele>291.3</ele>
        <time>2023-03-29T13:42:29Z</time>
      </trkpt>
      <trkpt lat="45.56699" lon="5.59424">
        <ele>290.3</ele>
        <time>2023-03-29T13:42:30Z</time>
      </trkpt>
      <trkpt lat="45.56706" lon="5.59432">
        <ele>289.6</ele>
        <time>2023-03-29T13:42:31Z</time>
      </trkpt>
      <trkpt lat="45.56712" lon="5.59441">
        <ele>289.1</ele>
        <time>2023-03-29T13:42:32Z</time>
      </trkpt>
      <trkpt lat="45.56718" lon="5.59452">
        <ele>288.5</ele>
        <time>2023-03-29T13:42:33Z</time>
      </trkpt>
      <trkpt lat="45.56724" lon="5.59463">
        <ele>287.8</ele>
        <time>2023-03-29T13:42:34Z</time>
      </trkpt>
      <trkpt lat="45.56731" lon="5.59473">
        <ele>287.4</ele>
        <time>2023-03-29T13:42:35Z</time>
      </trkpt>
      <trkpt lat="45.56736" lon="5.59484">
        <ele>287</ele>
        <time>2023-03-29T13:42:36Z</time>
      </trkpt>
      <trkpt lat="45.56741" lon="5.59495">
        <ele>286.8</ele>
        <time>2023-03-29T13:42:37Z</time>
      </trkpt>
      <trkpt lat="45.56746" lon="5.59505">
        <ele>286.1</ele>
        <time>2023-03-29T13:42:38Z</time>
      </trkpt>
      <trkpt lat="45.56751" lon="5.59514">
        <ele>285.8</ele>
        <time>2023-03-29T13:42:39Z</time>
      </trkpt>
      <trkpt lat="45.56756" lon="5.59525">
        <ele>285.7</ele>
        <time>2023-03-29T13:42:40Z</time>
      </trkpt>
      <trkpt lat="45.5676" lon="5.59534">
        <ele>285.6</ele>
        <time>2023-03-29T13:42:41Z</time>
      </trkpt>
      <trkpt lat="45.56764" lon="5.59543">
        <ele>285.3</ele>
        <time>2023-03-29T13:42:42Z</time>
      </trkpt>
      <trkpt lat="45.56769" lon="5.59552">
        <ele>285.2</ele>
        <time>2023-03-29T13:42:43Z</time>
      </trkpt>
      <trkpt lat="45.56774" lon="5.59559">
        <ele>285.3</ele>
        <time>2023-03-29T13:42:44Z</time>
      </trkpt>
      <trkpt lat="45.56778" lon="5.59566">
        <ele>285.1</ele>
        <time>2023-03-29T13:42:45Z</time>
      </trkpt>
      <trkpt lat="45.56782" lon="5.59574">
        <ele>285</ele>
        <time>2023-03-29T13:42:46Z</time>
      </trkpt>
      <trkpt lat="45.56786" lon="5.59581">
        <ele>284.8</ele>
        <time>2023-03-29T13:42:47Z</time>
      </trkpt>
      <trkpt lat="45.5679" lon="5.59588">
        <ele>284.5</ele>
        <time>2023-03-29T13:42:48Z</time>
      </trkpt>
      <trkpt lat="45.56793" lon="5.59595">
        <ele>284.4</ele>
        <time>2023-03-29T13:42:49Z</time>
      </trkpt>
      <trkpt lat="45.56796" lon="5.596">
        <ele>284.2</ele>
        <time>2023-03-29T13:42:51Z</time>
      </trkpt>
      <trkpt lat="45.56801" lon="5.59602">
        <ele>284.2</ele>
        <time>2023-03-29T13:42:54Z</time>
      </trkpt>
      <trkpt lat="45.56808" lon="5.59599">
        <ele>284.1</ele>
        <time>2023-03-29T13:42:57Z</time>
      </trkpt>
      <trkpt lat="45.56816" lon="5.59597">
        <ele>284</ele>
        <time>2023-03-29T13:42:59Z</time>
      </trkpt>
      <trkpt lat="45.56821" lon="5.59597">
        <ele>283.9</ele>
        <time>2023-03-29T13:43:00Z</time>
      </trkpt>
      <trkpt lat="45.56826" lon="5.59596">
        <ele>283.8</ele>
        <time>2023-03-29T13:43:01Z</time>
      </trkpt>
      <trkpt lat="45.56831" lon="5.59596">
        <ele>283.5</ele>
        <time>2023-03-29T13:43:02Z</time>
      </trkpt>
      <trkpt lat="45.56836" lon="5.59595">
        <ele>283.4</ele>
        <time>2023-03-29T13:43:03Z</time>
      </trkpt>
      <trkpt lat="45.56841" lon="5.59595">
        <ele>283.4</ele>
        <time>2023-03-29T13:43:04Z</time>
      </trkpt>
      <trkpt lat="45.56846" lon="5.59595">
        <ele>283.2</ele>
        <time>2023-03-29T13:43:05Z</time>
      </trkpt>
      <trkpt lat="45.56851" lon="5.59595">
        <ele>283</ele>
        <time>2023-03-29T13:43:06Z</time>
      </trkpt>
      <trkpt lat="45.56857" lon="5.59595">
        <ele>283.1</ele>
        <time>2023-03-29T13:43:07Z</time>
      </trkpt>
      <trkpt lat="45.56863" lon="5.59594">
        <ele>283</ele>
        <time>2023-03-29T13:43:08Z</time>
      </trkpt>
      <trkpt lat="45.56869" lon="5.59593">
        <ele>282.8</ele>
        <time>2023-03-29T13:43:09Z</time>
      </trkpt>
      <trkpt lat="45.56874" lon="5.59593">
        <ele>282.7</ele>
        <time>2023-03-29T13:43:10Z</time>
      </trkpt>
      <trkpt lat="45.5688" lon="5.59593">
        <ele>282.6</ele>
        <time>2023-03-29T13:43:11Z</time>
      </trkpt>
      <trkpt lat="45.56885" lon="5.59593">
        <ele>282.3</ele>
        <time>2023-03-29T13:43:12Z</time>
      </trkpt>
      <trkpt lat="45.56891" lon="5.59593">
        <ele>282.3</ele>
        <time>2023-03-29T13:43:13Z</time>
      </trkpt>
      <trkpt lat="45.56897" lon="5.59592">
        <ele>282.2</ele>
        <time>2023-03-29T13:43:14Z</time>
      </trkpt>
      <trkpt lat="45.56902" lon="5.59592">
        <ele>281.8</ele>
        <time>2023-03-29T13:43:15Z</time>
      </trkpt>
      <trkpt lat="45.56908" lon="5.59592">
        <ele>281.7</ele>
        <time>2023-03-29T13:43:16Z</time>
      </trkpt>
      <trkpt lat="45.56914" lon="5.59593">
        <ele>281.7</ele>
        <time>2023-03-29T13:43:17Z</time>
      </trkpt>
      <trkpt lat="45.56919" lon="5.59593">
        <ele>281.7</ele>
        <time>2023-03-29T13:43:18Z</time>
      </trkpt>
      <trkpt lat="45.56925" lon="5.59594">
        <ele>281.5</ele>
        <time>2023-03-29T13:43:19Z</time>
      </trkpt>
      <trkpt lat="45.5693" lon="5.59595">
        <ele>281.4</ele>
        <time>2023-03-29T13:43:20Z</time>
      </trkpt>
      <trkpt lat="45.56937" lon="5.59595">
        <ele>281.6</ele>
        <time>2023-03-29T13:43:21Z</time>
      </trkpt>
      <trkpt lat="45.56943" lon="5.59595">
        <ele>281.7</ele>
        <time>2023-03-29T13:43:22Z</time>
      </trkpt>
      <trkpt lat="45.56949" lon="5.59596">
        <ele>281</ele>
        <time>2023-03-29T13:43:23Z</time>
      </trkpt>
      <trkpt lat="45.56955" lon="5.59596">
        <ele>280.3</ele>
        <time>2023-03-29T13:43:24Z</time>
      </trkpt>
      <trkpt lat="45.56962" lon="5.59596">
        <ele>279.4</ele>
        <time>2023-03-29T13:43:25Z</time>
      </trkpt>
      <trkpt lat="45.56968" lon="5.59597">
        <ele>279.2</ele>
        <time>2023-03-29T13:43:26Z</time>
      </trkpt>
      <trkpt lat="45.56975" lon="5.59598">
        <ele>278.7</ele>
        <time>2023-03-29T13:43:27Z</time>
      </trkpt>
      <trkpt lat="45.56982" lon="5.59599">
        <ele>278.8</ele>
        <time>2023-03-29T13:43:28Z</time>
      </trkpt>
      <trkpt lat="45.56989" lon="5.59599">
        <ele>278.3</ele>
        <time>2023-03-29T13:43:29Z</time>
      </trkpt>
      <trkpt lat="45.56996" lon="5.59599">
        <ele>278</ele>
        <time>2023-03-29T13:43:30Z</time>
      </trkpt>
      <trkpt lat="45.57003" lon="5.59599">
        <ele>277.6</ele>
        <time>2023-03-29T13:43:31Z</time>
      </trkpt>
      <trkpt lat="45.57011" lon="5.59598">
        <ele>276.2</ele>
        <time>2023-03-29T13:43:32Z</time>
      </trkpt>
      <trkpt lat="45.57018" lon="5.59598">
        <ele>276</ele>
        <time>2023-03-29T13:43:33Z</time>
      </trkpt>
      <trkpt lat="45.57025" lon="5.59597">
        <ele>275.8</ele>
        <time>2023-03-29T13:43:34Z</time>
      </trkpt>
      <trkpt lat="45.57032" lon="5.59595">
        <ele>275.1</ele>
        <time>2023-03-29T13:43:35Z</time>
      </trkpt>
      <trkpt lat="45.57039" lon="5.59593">
        <ele>274.4</ele>
        <time>2023-03-29T13:43:36Z</time>
      </trkpt>
      <trkpt lat="45.57047" lon="5.59591">
        <ele>274.3</ele>
        <time>2023-03-29T13:43:37Z</time>
      </trkpt>
      <trkpt lat="45.57053" lon="5.59589">
        <ele>274</ele>
        <time>2023-03-29T13:43:38Z</time>
      </trkpt>
      <trkpt lat="45.57061" lon="5.59587">
        <ele>273.7</ele>
        <time>2023-03-29T13:43:39Z</time>
      </trkpt>
      <trkpt lat="45.57067" lon="5.59584">
        <ele>272.7</ele>
        <time>2023-03-29T13:43:40Z</time>
      </trkpt>
      <trkpt lat="45.57074" lon="5.59582">
        <ele>267.2</ele>
        <time>2023-03-29T13:43:41Z</time>
      </trkpt>
      <trkpt lat="45.57081" lon="5.59579">
        <ele>266.4</ele>
        <time>2023-03-29T13:43:42Z</time>
      </trkpt>
      <trkpt lat="45.57087" lon="5.59576">
        <ele>266.4</ele>
        <time>2023-03-29T13:43:43Z</time>
      </trkpt>
      <trkpt lat="45.57094" lon="5.59574">
        <ele>266.4</ele>
        <time>2023-03-29T13:43:44Z</time>
      </trkpt>
      <trkpt lat="45.571" lon="5.59572">
        <ele>268.2</ele>
        <time>2023-03-29T13:43:45Z</time>
      </trkpt>
      <trkpt lat="45.57107" lon="5.5957">
        <ele>270.7</ele>
        <time>2023-03-29T13:43:46Z</time>
      </trkpt>
      <trkpt lat="45.57114" lon="5.59568">
        <ele>272.6</ele>
        <time>2023-03-29T13:43:47Z</time>
      </trkpt>
      <trkpt lat="45.57121" lon="5.59567">
        <ele>272.3</ele>
        <time>2023-03-29T13:43:48Z</time>
      </trkpt>
      <trkpt lat="45.57128" lon="5.59566">
        <ele>272.3</ele>
        <time>2023-03-29T13:43:49Z</time>
      </trkpt>
      <trkpt lat="45.57134" lon="5.59566">
        <ele>272.4</ele>
        <time>2023-03-29T13:43:50Z</time>
      </trkpt>
      <trkpt lat="45.57142" lon="5.59566">
        <ele>272.4</ele>
        <time>2023-03-29T13:43:51Z</time>
      </trkpt>
      <trkpt lat="45.57148" lon="5.59566">
        <ele>272.4</ele>
        <time>2023-03-29T13:43:52Z</time>
      </trkpt>
      <trkpt lat="45.57155" lon="5.59566">
        <ele>272.6</ele>
        <time>2023-03-29T13:43:53Z</time>
      </trkpt>
      <trkpt lat="45.57161" lon="5.59567">
        <ele>272.8</ele>
        <time>2023-03-29T13:43:54Z</time>
      </trkpt>
      <trkpt lat="45.57166" lon="5.59568">
        <ele>273</ele>
        <time>2023-03-29T13:43:55Z</time>
      </trkpt>
      <trkpt lat="45.57171" lon="5.59568">
        <ele>273.1</ele>
        <time>2023-03-29T13:43:56Z</time>
      </trkpt>
      <trkpt lat="45.57177" lon="5.59569">
        <ele>273.3</ele>
        <time>2023-03-29T13:43:57Z</time>
      </trkpt>
      <trkpt lat="45.57181" lon="5.59571">
        <ele>273.5</ele>
        <time>2023-03-29T13:43:58Z</time>
      </trkpt>
      <trkpt lat="45.57186" lon="5.59572">
        <ele>273.7</ele>
        <time>2023-03-29T13:43:59Z</time>
      </trkpt>
      <trkpt lat="45.57195" lon="5.59574">
        <ele>274.1</ele>
        <time>2023-03-29T13:44:01Z</time>
      </trkpt>
      <trkpt lat="45.57202" lon="5.59578">
        <ele>274.2</ele>
        <time>2023-03-29T13:44:03Z</time>
      </trkpt>
      <trkpt lat="45.57208" lon="5.59585">
        <ele>274.6</ele>
        <time>2023-03-29T13:44:05Z</time>
      </trkpt>
      <trkpt lat="45.57215" lon="5.59592">
        <ele>274.8</ele>
        <time>2023-03-29T13:44:07Z</time>
      </trkpt>
      <trkpt lat="45.57222" lon="5.59597">
        <ele>274.9</ele>
        <time>2023-03-29T13:44:09Z</time>
      </trkpt>
      <trkpt lat="45.57227" lon="5.59599">
        <ele>274.8</ele>
        <time>2023-03-29T13:44:10Z</time>
      </trkpt>
      <trkpt lat="45.57233" lon="5.59604">
        <ele>274.7</ele>
        <time>2023-03-29T13:44:12Z</time>
      </trkpt>
      <trkpt lat="45.57237" lon="5.59617">
        <ele>274.7</ele>
        <time>2023-03-29T13:44:14Z</time>
      </trkpt>
      <trkpt lat="45.57233" lon="5.59628">
        <ele>274.5</ele>
        <time>2023-03-29T13:44:15Z</time>
      </trkpt>
      <trkpt lat="45.57231" lon="5.59636">
        <ele>274.1</ele>
        <time>2023-03-29T13:44:16Z</time>
      </trkpt>
      <trkpt lat="45.57229" lon="5.59644">
        <ele>274.1</ele>
        <time>2023-03-29T13:44:17Z</time>
      </trkpt>
      <trkpt lat="45.57226" lon="5.59653">
        <ele>273.7</ele>
        <time>2023-03-29T13:44:18Z</time>
      </trkpt>
      <trkpt lat="45.57224" lon="5.59661">
        <ele>273.6</ele>
        <time>2023-03-29T13:44:19Z</time>
      </trkpt>
      <trkpt lat="45.57222" lon="5.59669">
        <ele>273.2</ele>
        <time>2023-03-29T13:44:20Z</time>
      </trkpt>
      <trkpt lat="45.5722" lon="5.59676">
        <ele>273.2</ele>
        <time>2023-03-29T13:44:21Z</time>
      </trkpt>
      <trkpt lat="45.57219" lon="5.59683">
        <ele>273</ele>
        <time>2023-03-29T13:44:22Z</time>
      </trkpt>
      <trkpt lat="45.57218" lon="5.59691">
        <ele>272.9</ele>
        <time>2023-03-29T13:44:23Z</time>
      </trkpt>
      <trkpt lat="45.57219" lon="5.59697">
        <ele>272.7</ele>
        <time>2023-03-29T13:44:24Z</time>
      </trkpt>
      <trkpt lat="45.57225" lon="5.59706">
        <ele>272.7</ele>
        <time>2023-03-29T13:44:26Z</time>
      </trkpt>
      <trkpt lat="45.57233" lon="5.59712">
        <ele>272.2</ele>
        <time>2023-03-29T13:44:28Z</time>
      </trkpt>
      <trkpt lat="45.57237" lon="5.59715">
        <ele>271.9</ele>
        <time>2023-03-29T13:44:29Z</time>
      </trkpt>
      <trkpt lat="45.57242" lon="5.59718">
        <ele>271.8</ele>
        <time>2023-03-29T13:44:30Z</time>
      </trkpt>
      <trkpt lat="45.57249" lon="5.59721">
        <ele>271.6</ele>
        <time>2023-03-29T13:44:32Z</time>
      </trkpt>
      <trkpt lat="45.57257" lon="5.59722">
        <ele>271.4</ele>
        <time>2023-03-29T13:44:35Z</time>
      </trkpt>
      <trkpt lat="45.57261" lon="5.59728">
        <ele>271.1</ele>
        <time>2023-03-29T13:58:03Z</time>
      </trkpt>
      <trkpt lat="45.57265" lon="5.59733">
        <ele>271</ele>
        <time>2023-03-29T13:58:05Z</time>
      </trkpt>
      <trkpt lat="45.57269" lon="5.59738">
        <ele>270.8</ele>
        <time>2023-03-29T13:58:07Z</time>
      </trkpt>
      <trkpt lat="45.57273" lon="5.59744">
        <ele>270.8</ele>
        <time>2023-03-29T13:58:09Z</time>
      </trkpt>
      <trkpt lat="45.57277" lon="5.59749">
        <ele>270.7</ele>
        <time>2023-03-29T13:58:10Z</time>
      </trkpt>
      <trkpt lat="45.57281" lon="5.59754">
        <ele>270.6</ele>
        <time>2023-03-29T13:58:11Z</time>
      </trkpt>
      <trkpt lat="45.57285" lon="5.59759">
        <ele>270.6</ele>
        <time>2023-03-29T13:58:12Z</time>
      </trkpt>
      <trkpt lat="45.57293" lon="5.59763">
        <ele>270.4</ele>
        <time>2023-03-29T13:58:14Z</time>
      </trkpt>
      <trkpt lat="45.57298" lon="5.59767">
        <ele>270.3</ele>
        <time>2023-03-29T13:58:15Z</time>
      </trkpt>
      <trkpt lat="45.57302" lon="5.5977">
        <ele>269.9</ele>
        <time>2023-03-29T13:58:16Z</time>
      </trkpt>
      <trkpt lat="45.57313" lon="5.59779">
        <ele>269</ele>
        <time>2023-03-29T13:58:19Z</time>
      </trkpt>
      <trkpt lat="45.5732" lon="5.59783">
        <ele>268.1</ele>
        <time>2023-03-29T13:58:20Z</time>
      </trkpt>
      <trkpt lat="45.57326" lon="5.59788">
        <ele>267.3</ele>
        <time>2023-03-29T13:58:21Z</time>
      </trkpt>
      <trkpt lat="45.57332" lon="5.59791">
        <ele>266.3</ele>
        <time>2023-03-29T13:58:22Z</time>
      </trkpt>
      <trkpt lat="45.57339" lon="5.59796">
        <ele>265.6</ele>
        <time>2023-03-29T13:58:23Z</time>
      </trkpt>
      <trkpt lat="45.57345" lon="5.59802">
        <ele>264.1</ele>
        <time>2023-03-29T13:58:24Z</time>
      </trkpt>
      <trkpt lat="45.57351" lon="5.59807">
        <ele>263.6</ele>
        <time>2023-03-29T13:58:25Z</time>
      </trkpt>
      <trkpt lat="45.57358" lon="5.59811">
        <ele>262.8</ele>
        <time>2023-03-29T13:58:26Z</time>
      </trkpt>
      <trkpt lat="45.57366" lon="5.59814">
        <ele>262</ele>
        <time>2023-03-29T13:58:27Z</time>
      </trkpt>
      <trkpt lat="45.57375" lon="5.59818">
        <ele>261.2</ele>
        <time>2023-03-29T13:58:28Z</time>
      </trkpt>
      <trkpt lat="45.57384" lon="5.59822">
        <ele>261</ele>
        <time>2023-03-29T13:58:29Z</time>
      </trkpt>
      <trkpt lat="45.57392" lon="5.59828">
        <ele>260.3</ele>
        <time>2023-03-29T13:58:30Z</time>
      </trkpt>
      <trkpt lat="45.574" lon="5.59834">
        <ele>259.7</ele>
        <time>2023-03-29T13:58:31Z</time>
      </trkpt>
      <trkpt lat="45.57407" lon="5.5984">
        <ele>259.4</ele>
        <time>2023-03-29T13:58:32Z</time>
      </trkpt>
      <trkpt lat="45.57414" lon="5.59847">
        <ele>258.6</ele>
        <time>2023-03-29T13:58:33Z</time>
      </trkpt>
      <trkpt lat="45.57421" lon="5.59854">
        <ele>258.4</ele>
        <time>2023-03-29T13:58:34Z</time>
      </trkpt>
      <trkpt lat="45.57428" lon="5.59861">
        <ele>257.8</ele>
        <time>2023-03-29T13:58:35Z</time>
      </trkpt>
      <trkpt lat="45.57436" lon="5.59867">
        <ele>257.2</ele>
        <time>2023-03-29T13:58:36Z</time>
      </trkpt>
      <trkpt lat="45.57443" lon="5.59874">
        <ele>256.7</ele>
        <time>2023-03-29T13:58:37Z</time>
      </trkpt>
      <trkpt lat="45.5745" lon="5.59879">
        <ele>256.2</ele>
        <time>2023-03-29T13:58:38Z</time>
      </trkpt>
      <trkpt lat="45.57458" lon="5.59884">
        <ele>255.5</ele>
        <time>2023-03-29T13:58:39Z</time>
      </trkpt>
      <trkpt lat="45.57466" lon="5.59888">
        <ele>254.9</ele>
        <time>2023-03-29T13:58:40Z</time>
      </trkpt>
      <trkpt lat="45.57473" lon="5.59893">
        <ele>254.5</ele>
        <time>2023-03-29T13:58:41Z</time>
      </trkpt>
      <trkpt lat="45.5748" lon="5.59897">
        <ele>254.4</ele>
        <time>2023-03-29T13:58:42Z</time>
      </trkpt>
      <trkpt lat="45.57486" lon="5.59902">
        <ele>254.5</ele>
        <time>2023-03-29T13:58:43Z</time>
      </trkpt>
      <trkpt lat="45.57492" lon="5.59907">
        <ele>254.5</ele>
        <time>2023-03-29T13:58:44Z</time>
      </trkpt>
      <trkpt lat="45.57498" lon="5.59913">
        <ele>254.6</ele>
        <time>2023-03-29T13:58:45Z</time>
      </trkpt>
      <trkpt lat="45.57503" lon="5.59918">
        <ele>255</ele>
        <time>2023-03-29T13:58:46Z</time>
      </trkpt>
      <trkpt lat="45.57507" lon="5.59923">
        <ele>255.5</ele>
        <time>2023-03-29T13:58:47Z</time>
      </trkpt>
      <trkpt lat="45.57512" lon="5.59928">
        <ele>255.6</ele>
        <time>2023-03-29T13:58:48Z</time>
      </trkpt>
      <trkpt lat="45.57516" lon="5.59933">
        <ele>255.7</ele>
        <time>2023-03-29T13:58:49Z</time>
      </trkpt>
      <trkpt lat="45.5752" lon="5.59936">
        <ele>255.7</ele>
        <time>2023-03-29T13:58:50Z</time>
      </trkpt>
      <trkpt lat="45.57525" lon="5.59939">
        <ele>255.6</ele>
        <time>2023-03-29T13:58:51Z</time>
      </trkpt>
      <trkpt lat="45.5753" lon="5.59942">
        <ele>255.8</ele>
        <time>2023-03-29T13:58:52Z</time>
      </trkpt>
      <trkpt lat="45.57534" lon="5.59945">
        <ele>255.4</ele>
        <time>2023-03-29T13:58:53Z</time>
      </trkpt>
      <trkpt lat="45.57539" lon="5.59948">
        <ele>255</ele>
        <time>2023-03-29T13:58:54Z</time>
      </trkpt>
      <trkpt lat="45.57544" lon="5.59951">
        <ele>254.6</ele>
        <time>2023-03-29T13:58:55Z</time>
      </trkpt>
      <trkpt lat="45.57549" lon="5.59953">
        <ele>254.7</ele>
        <time>2023-03-29T13:58:56Z</time>
      </trkpt>
      <trkpt lat="45.57554" lon="5.59954">
        <ele>254.7</ele>
        <time>2023-03-29T13:58:57Z</time>
      </trkpt>
      <trkpt lat="45.57559" lon="5.59955">
        <ele>254.9</ele>
        <time>2023-03-29T13:58:58Z</time>
      </trkpt>
      <trkpt lat="45.57564" lon="5.59955">
        <ele>255</ele>
        <time>2023-03-29T13:58:59Z</time>
      </trkpt>
      <trkpt lat="45.57568" lon="5.59955">
        <ele>254.9</ele>
        <time>2023-03-29T13:59:00Z</time>
      </trkpt>
      <trkpt lat="45.57574" lon="5.59955">
        <ele>255.3</ele>
        <time>2023-03-29T13:59:01Z</time>
      </trkpt>
      <trkpt lat="45.57579" lon="5.59956">
        <ele>255.8</ele>
        <time>2023-03-29T13:59:02Z</time>
      </trkpt>
      <trkpt lat="45.57584" lon="5.59956">
        <ele>255.9</ele>
        <time>2023-03-29T13:59:03Z</time>
      </trkpt>
      <trkpt lat="45.57589" lon="5.59956">
        <ele>255.7</ele>
        <time>2023-03-29T13:59:04Z</time>
      </trkpt>
      <trkpt lat="45.57594" lon="5.59956">
        <ele>255.4</ele>
        <time>2023-03-29T13:59:05Z</time>
      </trkpt>
      <trkpt lat="45.576" lon="5.59957">
        <ele>255.1</ele>
        <time>2023-03-29T13:59:06Z</time>
      </trkpt>
      <trkpt lat="45.57604" lon="5.59957">
        <ele>255.1</ele>
        <time>2023-03-29T13:59:07Z</time>
      </trkpt>
      <trkpt lat="45.57609" lon="5.59958">
        <ele>255.3</ele>
        <time>2023-03-29T13:59:08Z</time>
      </trkpt>
      <trkpt lat="45.57617" lon="5.59961">
        <ele>255.3</ele>
        <time>2023-03-29T13:59:10Z</time>
      </trkpt>
      <trkpt lat="45.57623" lon="5.59961">
        <ele>255.6</ele>
        <time>2023-03-29T13:59:12Z</time>
      </trkpt>
      <trkpt lat="45.5763" lon="5.5996">
        <ele>255.8</ele>
        <time>2023-03-29T13:59:14Z</time>
      </trkpt>
      <trkpt lat="45.57639" lon="5.5996">
        <ele>256</ele>
        <time>2023-03-29T13:59:16Z</time>
      </trkpt>
      <trkpt lat="45.57648" lon="5.59962">
        <ele>256.1</ele>
        <time>2023-03-29T13:59:19Z</time>
      </trkpt>
      <trkpt lat="45.57654" lon="5.59967">
        <ele>256.1</ele>
        <time>2023-03-29T13:59:21Z</time>
      </trkpt>
      <trkpt lat="45.57657" lon="5.59973">
        <ele>256.1</ele>
        <time>2023-03-29T13:59:24Z</time>
      </trkpt>
      <trkpt lat="45.57657" lon="5.59981">
        <ele>256.1</ele>
        <time>2023-03-29T13:59:31Z</time>
      </trkpt>
      <trkpt lat="45.57657" lon="5.59994">
        <ele>256.1</ele>
        <time>2023-03-29T13:59:33Z</time>
      </trkpt>
      <trkpt lat="45.57656" lon="5.60002">
        <ele>256</ele>
        <time>2023-03-29T13:59:35Z</time>
      </trkpt>
      <trkpt lat="45.57655" lon="5.60011">
        <ele>256.1</ele>
        <time>2023-03-29T13:59:38Z</time>
      </trkpt>
      <trkpt lat="45.57655" lon="5.60018">
        <ele>256.2</ele>
        <time>2023-03-29T13:59:42Z</time>
      </trkpt>
    </trkseg>
  </trk>
</gpx>